GFSMA_prec_precacc24_027.txt.gz
Total_Precipitation_Accumulation
0.00 0.00 0.00 0.00 0.00 0.00 0.00 0.00 0.00 0.00 0.00 0.00 0.00 0.00 0.00 0.00 0.00 0.00 0.00 0.00 0.00 0.00 0.00 0.00 0.01 0.01 0.02 0.04 0.07 0.11 0.10 0.08 0.08 0.07 0.05 0.04 0.05 0.06 0.08 0.10 0.12 0.12 0.12
0.00 0.00 0.00 0.00 0.00 0.00 0.00 0.00 0.00 0.00 0.00 0.00 0.00 0.00 0.00 0.00 0.00 0.00 0.00 0.00 0.00 0.00 0.00 0.00 0.01 0.01 0.02 0.04 0.05 0.08 0.08 0.08 0.07 0.07 0.07 0.07 0.08 0.10 0.11 0.12 0.13 0.13 0.16
0.00 0.00 0.00 0.00 0.00 0.00 0.00 0.00 0.00 0.00 0.00 0.00 0.00 0.00 0.00 0.00 0.00 0.00 0.00 0.00 0.00 0.00 0.00 0.00 0.01 0.02 0.02 0.01 0.02 0.05 0.08 0.09 0.08 0.08 0.08 0.08 0.08 0.10 0.13 0.15 0.16 0.15 0.15
0.00 0.00 0.00 0.00 0.00 0.00 0.00 0.00 0.00 0.00 0.00 0.00 0.00 0.00 0.00 0.00 0.00 0.00 0.00 0.00 0.00 0.00 0.00 0.00 0.01 0.01 0.01 0.01 0.02 0.04 0.07 0.09 0.09 0.09 0.09 0.08 0.09 0.10 0.12 0.14 0.16 0.18 0.20
0.00 0.00 0.00 0.00 0.00 0.00 0.00 0.00 0.00 0.00 0.00 0.00 0.00 0.00 0.00 0.00 0.00 0.00 0.00 0.00 0.00 0.00 0.00 0.00 0.00 0.00 0.01 0.03 0.04 0.04 0.05 0.06 0.07 0.09 0.11 0.12 0.12 0.14 0.16 0.18 0.20 0.20 0.20
0.00 0.00 0.00 0.00 0.00 0.00 0.00 0.00 0.00 0.00 0.00 0.00 0.00 0.00 0.00 0.00 0.00 0.00 0.00 0.00 0.00 0.00 0.00 0.00 0.00 0.00 0.01 0.04 0.07 0.06 0.05 0.07 0.07 0.07 0.10 0.12 0.15 0.16 0.14 0.15 0.18 0.20 0.21
0.00 0.00 0.00 0.00 0.00 0.00 0.00 0.00 0.00 0.00 0.00 0.00 0.00 0.00 0.00 0.00 0.00 0.00 0.00 0.00 0.00 0.00 0.00 0.00 0.00 0.00 0.01 0.02 0.01 0.02 0.04 0.05 0.06 0.07 0.08 0.06 0.07 0.09 0.11 0.13 0.15 0.18 0.19
0.00 0.00 0.00 0.00 0.00 0.00 0.00 0.00 0.00 0.00 0.00 0.00 0.00 0.00 0.00 0.00 0.00 0.00 0.00 0.00 0.00 0.00 0.00 0.00 0.00 0.00 0.00 0.00 0.00 0.00 0.00 0.00 0.00 0.01 0.02 0.03 0.05 0.07 0.09 0.11 0.12 0.16 0.23
0.00 0.00 0.00 0.00 0.00 0.00 0.00 0.00 0.00 0.00 0.00 0.00 0.00 0.00 0.00 0.00 0.00 0.00 0.00 0.00 0.00 0.00 0.00 0.00 0.00 0.00 0.00 0.00 0.00 0.00 0.00 0.00 0.00 0.00 0.01 0.02 0.03 0.03 0.05 0.08 0.12 0.16 0.20
0.00 0.00 0.00 0.00 0.00 0.00 0.00 0.00 0.00 0.00 0.00 0.00 0.00 0.00 0.00 0.00 0.00 0.00 0.00 0.00 0.00 0.00 0.00 0.00 0.00 0.00 0.00 0.00 0.00 0.00 0.00 0.00 0.00 0.00 0.00 0.01 0.01 0.04 0.09 0.14 0.16 0.22 0.29
0.00 0.00 0.00 0.00 0.00 0.00 0.00 0.00 0.00 0.00 0.00 0.00 0.00 0.00 0.00 0.00 0.00 0.00 0.00 0.00 0.00 0.00 0.00 0.00 0.00 0.00 0.00 0.00 0.00 0.00 0.00 0.00 0.00 0.00 0.00 0.00 0.00 0.04 0.08 0.09 0.07 0.21 0.41
0.00 0.00 0.00 0.00 0.00 0.00 0.00 0.00 0.00 0.00 0.00 0.00 0.00 0.00 0.00 0.00 0.00 0.00 0.00 0.00 0.00 0.00 0.00 0.00 0.00 0.00 0.00 0.00 0.00 0.00 0.00 0.00 0.00 0.00 0.00 0.00 0.00 0.01 0.02 0.01 0.00 0.01 0.13
0.00 0.00 0.00 0.00 0.00 0.00 0.00 0.00 0.00 0.00 0.00 0.00 0.00 0.00 0.00 0.00 0.00 0.00 0.00 0.00 0.00 0.00 0.00 0.00 0.00 0.00 0.00 0.00 0.00 0.00 0.00 0.00 0.00 0.00 0.00 0.00 0.00 0.00 0.00 0.00 0.00 0.01 0.03
0.00 0.00 0.00 0.00 0.00 0.00 0.00 0.00 0.00 0.00 0.00 0.00 0.00 0.00 0.00 0.00 0.00 0.00 0.00 0.00 0.00 0.00 0.00 0.00 0.00 0.00 0.00 0.00 0.00 0.00 0.00 0.00 0.00 0.00 0.00 0.00 0.00 0.00 0.00 0.00 0.01 0.04 0.08
0.00 0.00 0.00 0.00 0.00 0.00 0.00 0.00 0.00 0.00 0.00 0.00 0.00 0.00 0.00 0.00 0.00 0.00 0.00 0.00 0.00 0.00 0.00 0.00 0.00 0.00 0.00 0.00 0.00 0.00 0.00 0.00 0.00 0.00 0.00 0.00 0.00 0.01 0.01 0.02 0.04 0.07 0.07
0.00 0.00 0.00 0.00 0.00 0.00 0.00 0.00 0.00 0.00 0.00 0.00 0.00 0.00 0.00 0.00 0.00 0.00 0.00 0.00 0.00 0.00 0.00 0.00 0.00 0.00 0.00 0.00 0.00 0.00 0.00 0.00 0.00 0.00 0.01 0.01 0.02 0.02 0.02 0.02 0.02 0.02 0.03
0.00 0.00 0.00 0.00 0.00 0.00 0.00 0.00 0.00 0.00 0.00 0.00 0.00 0.00 0.00 0.00 0.00 0.00 0.00 0.00 0.00 0.00 0.00 0.00 0.00 0.00 0.00 0.00 0.00 0.00 0.00 0.01 0.02 0.02 0.02 0.01 0.01 0.00 0.00 0.01 0.03 0.06 0.06
0.00 0.00 0.00 0.00 0.00 0.00 0.00 0.00 0.00 0.00 0.00 0.00 0.00 0.00 0.00 0.00 0.00 0.00 0.00 0.00 0.00 0.00 0.00 0.01 0.00 0.00 0.00 0.00 0.00 0.00 0.01 0.02 0.01 0.00 0.00 0.00 0.00 0.00 0.00 0.02 0.05 0.09 0.12
0.00 0.00 0.00 0.00 0.00 0.00 0.00 0.00 0.00 0.00 0.00 0.00 0.00 0.00 0.00 0.00 0.00 0.00 0.00 0.00 0.00 0.00 0.01 0.02 0.00 0.00 0.00 0.03 0.04 0.01 0.00 0.00 0.00 0.00 0.00 0.00 0.00 0.01 0.02 0.03 0.07 0.09 0.11
0.00 0.00 0.00 0.00 0.00 0.00 0.00 0.00 0.00 0.00 0.00 0.00 0.00 0.00 0.00 0.00 0.00 0.00 0.00 0.00 0.00 0.00 0.00 0.02 0.11 0.12 0.12 0.07 0.03 0.01 0.00 0.00 0.00 0.00 0.00 0.00 0.01 0.01 0.02 0.02 0.02 0.01 0.01
0.00 0.00 0.00 0.00 0.00 0.00 0.00 0.00 0.00 0.00 0.00 0.00 0.00 0.00 0.00 0.00 0.00 0.00 0.01 0.01 0.01 0.03 0.16 0.31 0.28 0.22 0.10 0.02 0.00 0.00 0.01 0.02 0.02 0.01 0.00 0.00 0.00 0.00 0.00 0.00 0.00 0.01 0.02
0.00 0.00 0.00 0.00 0.00 0.00 0.00 0.00 0.00 0.00 0.00 0.00 0.00 0.00 0.00 0.00 0.00 0.00 0.01 0.02 0.05 0.21 0.30 0.37 0.29 0.10 0.01 0.00 0.01 0.05 0.15 0.13 0.07 0.00 0.01 0.01 0.00 0.00 0.00 0.00 0.01 0.03 0.04
0.00 0.00 0.00 0.00 0.00 0.00 0.00 0.00 0.00 0.00 0.00 0.00 0.00 0.00 0.00 0.00 0.00 0.00 0.01 0.06 0.17 0.23 0.21 0.12 0.03 0.00 0.01 0.05 0.21 0.20 0.09 0.08 0.04 0.01 0.04 0.06 0.00 0.01 0.01 0.01 0.00 0.01 0.02
0.00 0.00 0.00 0.00 0.00 0.00 0.00 0.00 0.00 0.00 0.00 0.00 0.00 0.00 0.00 0.00 0.01 0.03 0.07 0.19 0.13 0.08 0.01 0.00 0.00 0.02 0.06 0.08 0.06 0.07 0.06 0.07 0.03 0.00 0.02 0.10 0.01 0.00 0.00 0.00 0.00 0.01 0.01
0.00 0.00 0.00 0.00 0.00 0.00 0.00 0.00 0.00 0.00 0.00 0.00 0.00 0.00 0.02 0.02 0.01 0.08 0.13 0.19 0.06 0.00 0.00 0.01 0.07 0.04 0.01 0.00 0.01 0.11 0.16 0.15 0.08 0.01 0.00 0.03 0.02 0.01 0.00 0.00 0.00 0.01 0.04
0.00 0.00 0.00 0.00 0.00 0.00 0.00 0.00 0.00 0.00 0.00 0.00 0.00 0.00 0.01 0.02 0.04 0.18 0.12 0.03 0.00 0.00 0.07 0.06 0.01 0.00 0.00 0.00 0.01 0.03 0.17 0.43 0.18 0.13 0.00 0.16 0.10 0.06 0.25 0.02 0.00 0.01 0.00

GFSMA_prec_precacc24_030.txt.gz
Total_Precipitation_Accumulation
0.00 0.00 0.00 0.00 0.00 0.00 0.00 0.00 0.00 0.00 0.00 0.00 0.00 0.00 0.00 0.00 0.00 0.00 0.00 0.00 0.00 0.00 0.00 0.00 0.01 0.01 0.02 0.04 0.06 0.10 0.10 0.08 0.08 0.07 0.05 0.04 0.05 0.06 0.08 0.10 0.12 0.12 0.12
0.00 0.00 0.00 0.00 0.00 0.00 0.00 0.00 0.00 0.00 0.00 0.00 0.00 0.00 0.00 0.00 0.00 0.00 0.00 0.00 0.00 0.00 0.00 0.00 0.01 0.01 0.02 0.03 0.04 0.06 0.06 0.07 0.07 0.07 0.07 0.07 0.08 0.09 0.11 0.12 0.13 0.13 0.16
0.00 0.00 0.00 0.00 0.00 0.00 0.00 0.00 0.00 0.00 0.00 0.00 0.00 0.00 0.00 0.00 0.00 0.00 0.00 0.00 0.00 0.00 0.00 0.00 0.01 0.02 0.02 0.01 0.02 0.03 0.04 0.05 0.06 0.07 0.08 0.08 0.08 0.10 0.12 0.13 0.14 0.15 0.15
0.00 0.00 0.00 0.00 0.00 0.00 0.00 0.00 0.00 0.00 0.00 0.00 0.00 0.00 0.00 0.00 0.00 0.00 0.00 0.00 0.00 0.00 0.00 0.00 0.00 0.00 0.00 0.01 0.01 0.03 0.04 0.06 0.05 0.05 0.05 0.06 0.07 0.09 0.10 0.11 0.13 0.16 0.19
0.00 0.00 0.00 0.00 0.00 0.00 0.00 0.00 0.00 0.00 0.00 0.00 0.00 0.00 0.00 0.00 0.00 0.00 0.00 0.00 0.00 0.00 0.00 0.00 0.00 0.00 0.00 0.00 0.01 0.01 0.02 0.03 0.03 0.03 0.04 0.05 0.07 0.09 0.12 0.14 0.15 0.16 0.17
0.00 0.00 0.00 0.00 0.00 0.00 0.00 0.00 0.00 0.00 0.00 0.00 0.00 0.00 0.00 0.00 0.00 0.00 0.00 0.00 0.00 0.00 0.00 0.00 0.00 0.00 0.00 0.00 0.00 0.00 0.00 0.00 0.00 0.00 0.01 0.02 0.04 0.05 0.04 0.06 0.08 0.11 0.14
0.00 0.00 0.00 0.00 0.00 0.00 0.00 0.00 0.00 0.00 0.00 0.00 0.00 0.00 0.00 0.00 0.00 0.00 0.00 0.00 0.00 0.00 0.00 0.00 0.00 0.00 0.00 0.00 0.00 0.00 0.00 0.00 0.00 0.00 0.00 0.00 0.00 0.00 0.01 0.03 0.04 0.06 0.11
0.00 0.00 0.00 0.00 0.00 0.00 0.00 0.00 0.00 0.00 0.00 0.00 0.00 0.00 0.00 0.00 0.00 0.00 0.00 0.00 0.00 0.00 0.00 0.00 0.00 0.00 0.00 0.00 0.00 0.00 0.00 0.00 0.00 0.00 0.00 0.00 0.00 0.00 0.01 0.02 0.04 0.06 0.09
0.00 0.00 0.00 0.00 0.00 0.00 0.00 0.00 0.00 0.00 0.00 0.00 0.00 0.00 0.00 0.00 0.00 0.00 0.00 0.00 0.00 0.00 0.00 0.00 0.00 0.00 0.00 0.00 0.00 0.00 0.00 0.00 0.00 0.00 0.00 0.00 0.00 0.00 0.01 0.02 0.02 0.05 0.08
0.00 0.00 0.00 0.00 0.00 0.00 0.00 0.00 0.00 0.00 0.00 0.00 0.00 0.00 0.00 0.00 0.00 0.00 0.00 0.00 0.00 0.00 0.00 0.00 0.00 0.00 0.00 0.00 0.00 0.00 0.00 0.00 0.00 0.00 0.00 0.00 0.00 0.01 0.03 0.04 0.05 0.06 0.05
0.01 0.00 0.00 0.00 0.00 0.00 0.00 0.00 0.00 0.00 0.00 0.00 0.00 0.00 0.00 0.00 0.00 0.00 0.00 0.00 0.00 0.00 0.00 0.00 0.00 0.00 0.00 0.00 0.00 0.00 0.00 0.00 0.00 0.00 0.00 0.00 0.00 0.00 0.01 0.02 0.02 0.02 0.01
0.01 0.00 0.00 0.00 0.00 0.00 0.00 0.00 0.00 0.00 0.00 0.00 0.00 0.00 0.00 0.00 0.00 0.00 0.00 0.00 0.00 0.00 0.00 0.00 0.00 0.00 0.00 0.00 0.00 0.00 0.00 0.00 0.00 0.00 0.00 0.00 0.00 0.01 0.01 0.00 0.00 0.00 0.01
0.01 0.00 0.00 0.00 0.00 0.00 0.00 0.00 0.00 0.00 0.00 0.00 0.00 0.00 0.00 0.00 0.00 0.00 0.00 0.00 0.00 0.00 0.00 0.00 0.00 0.00 0.00 0.00 0.00 0.00 0.00 0.00 0.00 0.00 0.00 0.00 0.00 0.00 0.00 0.00 0.00 0.01 0.03
0.02 0.01 0.00 0.00 0.00 0.00 0.00 0.00 0.00 0.00 0.00 0.00 0.00 0.00 0.00 0.00 0.00 0.00 0.00 0.00 0.00 0.00 0.00 0.00 0.00 0.00 0.00 0.00 0.00 0.00 0.00 0.00 0.00 0.00 0.00 0.00 0.00 0.00 0.00 0.00 0.01 0.04 0.09
0.01 0.00 0.00 0.00 0.00 0.00 0.00 0.00 0.00 0.00 0.00 0.00 0.00 0.00 0.00 0.00 0.00 0.00 0.00 0.00 0.00 0.00 0.00 0.00 0.00 0.00 0.00 0.00 0.00 0.00 0.00 0.00 0.00 0.00 0.00 0.00 0.00 0.01 0.01 0.02 0.04 0.07 0.08
0.00 0.00 0.00 0.00 0.00 0.00 0.00 0.00 0.00 0.00 0.00 0.00 0.00 0.00 0.00 0.00 0.00 0.00 0.00 0.00 0.00 0.00 0.00 0.00 0.00 0.00 0.00 0.00 0.00 0.00 0.00 0.00 0.00 0.00 0.01 0.01 0.02 0.02 0.02 0.02 0.02 0.02 0.03
0.00 0.00 0.00 0.00 0.00 0.00 0.00 0.00 0.00 0.00 0.00 0.00 0.00 0.00 0.00 0.00 0.00 0.00 0.00 0.00 0.00 0.00 0.00 0.00 0.00 0.00 0.00 0.00 0.00 0.00 0.00 0.01 0.02 0.02 0.02 0.01 0.01 0.00 0.00 0.01 0.03 0.05 0.06
0.00 0.00 0.00 0.00 0.00 0.00 0.00 0.00 0.00 0.00 0.00 0.00 0.00 0.00 0.00 0.00 0.00 0.00 0.00 0.00 0.00 0.00 0.00 0.01 0.00 0.00 0.00 0.00 0.00 0.00 0.01 0.02 0.01 0.00 0.00 0.00 0.00 0.00 0.00 0.02 0.05 0.08 0.11
0.00 0.00 0.00 0.00 0.00 0.00 0.00 0.00 0.00 0.00 0.00 0.00 0.00 0.00 0.00 0.00 0.00 0.00 0.00 0.00 0.00 0.00 0.01 0.02 0.00 0.00 0.00 0.03 0.04 0.01 0.00 0.00 0.00 0.00 0.00 0.00 0.00 0.00 0.01 0.02 0.04 0.05 0.07
0.00 0.00 0.00 0.00 0.00 0.00 0.00 0.00 0.00 0.00 0.00 0.00 0.00 0.00 0.00 0.00 0.00 0.00 0.00 0.00 0.00 0.00 0.00 0.01 0.10 0.12 0.12 0.07 0.03 0.00 0.00 0.00 0.00 0.00 0.00 0.00 0.01 0.01 0.00 0.00 0.00 0.00 0.00
0.00 0.00 0.00 0.00 0.00 0.00 0.00 0.00 0.00 0.00 0.00 0.00 0.00 0.00 0.00 0.00 0.00 0.00 0.01 0.00 0.01 0.03 0.15 0.28 0.26 0.19 0.08 0.01 0.00 0.00 0.00 0.02 0.02 0.01 0.00 0.00 0.00 0.00 0.00 0.00 0.00 0.00 0.02
0.00 0.00 0.00 0.00 0.00 0.00 0.00 0.00 0.00 0.00 0.00 0.00 0.00 0.00 0.00 0.00 0.00 0.00 0.01 0.02 0.04 0.19 0.28 0.33 0.25 0.08 0.00 0.00 0.00 0.04 0.14 0.11 0.06 0.00 0.01 0.01 0.00 0.00 0.00 0.00 0.00 0.01 0.03
0.00 0.00 0.00 0.00 0.00 0.00 0.00 0.00 0.00 0.00 0.00 0.00 0.00 0.00 0.00 0.00 0.00 0.00 0.00 0.05 0.16 0.19 0.20 0.11 0.02 0.00 0.01 0.04 0.21 0.17 0.07 0.07 0.04 0.00 0.03 0.05 0.00 0.00 0.00 0.00 0.00 0.00 0.01
0.00 0.00 0.00 0.00 0.00 0.00 0.00 0.00 0.00 0.00 0.00 0.00 0.00 0.00 0.00 0.00 0.01 0.02 0.07 0.17 0.12 0.08 0.01 0.00 0.00 0.02 0.06 0.07 0.05 0.09 0.09 0.07 0.02 0.00 0.01 0.08 0.00 0.00 0.00 0.00 0.00 0.00 0.01
0.00 0.00 0.00 0.00 0.00 0.00 0.00 0.00 0.00 0.00 0.00 0.00 0.00 0.00 0.01 0.02 0.01 0.06 0.11 0.18 0.06 0.00 0.00 0.01 0.06 0.04 0.01 0.00 0.01 0.11 0.14 0.12 0.07 0.00 0.00 0.02 0.02 0.00 0.00 0.00 0.00 0.00 0.02
0.00 0.00 0.00 0.00 0.00 0.00 0.00 0.00 0.00 0.00 0.00 0.00 0.00 0.00 0.01 0.02 0.03 0.14 0.11 0.03 0.00 0.00 0.06 0.05 0.01 0.00 0.00 0.00 0.00 0.03 0.16 0.41 0.16 0.12 0.00 0.16 0.10 0.06 0.24 0.02 0.00 0.00 0.00

GFSMA_prec_precacc24_033.txt.gz
Total_Precipitation_Accumulation
0.00 0.00 0.00 0.00 0.00 0.00 0.00 0.00 0.00 0.00 0.00 0.00 0.00 0.00 0.00 0.00 0.00 0.00 0.00 0.00 0.00 0.00 0.00 0.00 0.00 0.00 0.01 0.02 0.04 0.07 0.07 0.05 0.05 0.05 0.05 0.04 0.05 0.05 0.07 0.09 0.11 0.11 0.12
0.00 0.00 0.00 0.00 0.00 0.00 0.00 0.00 0.00 0.00 0.00 0.00 0.00 0.00 0.00 0.00 0.00 0.00 0.00 0.00 0.00 0.00 0.00 0.00 0.00 0.00 0.00 0.01 0.01 0.02 0.03 0.03 0.03 0.04 0.04 0.04 0.06 0.07 0.09 0.10 0.11 0.12 0.14
0.00 0.00 0.00 0.00 0.00 0.00 0.00 0.00 0.00 0.00 0.00 0.00 0.00 0.00 0.00 0.00 0.00 0.00 0.00 0.00 0.00 0.00 0.00 0.00 0.00 0.00 0.00 0.00 0.00 0.00 0.01 0.01 0.01 0.02 0.02 0.02 0.03 0.05 0.07 0.09 0.11 0.12 0.12
0.00 0.00 0.00 0.00 0.00 0.00 0.00 0.00 0.00 0.00 0.00 0.00 0.00 0.00 0.00 0.00 0.00 0.00 0.00 0.00 0.00 0.00 0.00 0.00 0.00 0.00 0.00 0.00 0.00 0.00 0.00 0.00 0.00 0.00 0.00 0.00 0.00 0.01 0.02 0.03 0.06 0.10 0.14
0.00 0.00 0.00 0.00 0.00 0.00 0.00 0.00 0.00 0.00 0.00 0.00 0.00 0.00 0.00 0.00 0.00 0.00 0.00 0.00 0.00 0.00 0.00 0.00 0.00 0.00 0.00 0.00 0.00 0.00 0.00 0.00 0.00 0.00 0.00 0.00 0.00 0.00 0.00 0.00 0.02 0.02 0.04
0.00 0.00 0.00 0.00 0.00 0.00 0.00 0.00 0.00 0.00 0.00 0.00 0.00 0.00 0.00 0.00 0.00 0.00 0.00 0.00 0.00 0.00 0.00 0.00 0.00 0.00 0.00 0.00 0.00 0.00 0.00 0.00 0.00 0.00 0.00 0.00 0.00 0.00 0.00 0.00 0.00 0.00 0.01
0.00 0.00 0.00 0.00 0.00 0.00 0.00 0.00 0.00 0.00 0.00 0.00 0.00 0.00 0.00 0.00 0.00 0.00 0.00 0.00 0.00 0.00 0.00 0.00 0.00 0.00 0.00 0.00 0.00 0.00 0.00 0.00 0.00 0.00 0.00 0.00 0.00 0.00 0.00 0.00 0.00 0.01 0.01
0.00 0.00 0.00 0.00 0.00 0.00 0.00 0.00 0.00 0.00 0.00 0.00 0.00 0.00 0.00 0.00 0.00 0.00 0.00 0.00 0.00 0.00 0.00 0.00 0.00 0.00 0.00 0.00 0.00 0.00 0.00 0.00 0.00 0.00 0.00 0.00 0.00 0.00 0.00 0.00 0.00 0.01 0.02
0.01 0.00 0.00 0.00 0.00 0.00 0.00 0.00 0.00 0.00 0.00 0.00 0.00 0.00 0.00 0.00 0.00 0.00 0.00 0.00 0.00 0.00 0.00 0.00 0.00 0.00 0.00 0.00 0.00 0.00 0.00 0.00 0.00 0.00 0.00 0.00 0.00 0.00 0.00 0.00 0.00 0.01 0.02
0.01 0.00 0.00 0.00 0.00 0.00 0.00 0.00 0.00 0.00 0.00 0.00 0.00 0.00 0.00 0.00 0.00 0.00 0.00 0.00 0.00 0.00 0.00 0.00 0.00 0.00 0.00 0.00 0.00 0.00 0.00 0.00 0.00 0.00 0.00 0.00 0.00 0.00 0.00 0.00 0.00 0.01 0.02
0.03 0.02 0.01 0.00 0.00 0.00 0.00 0.00 0.00 0.00 0.00 0.00 0.00 0.00 0.00 0.00 0.00 0.00 0.00 0.00 0.00 0.00 0.00 0.00 0.00 0.00 0.00 0.00 0.00 0.00 0.00 0.00 0.00 0.00 0.00 0.00 0.00 0.00 0.00 0.00 0.00 0.01 0.01
0.05 0.02 0.01 0.01 0.00 0.00 0.00 0.00 0.00 0.00 0.00 0.00 0.00 0.00 0.00 0.00 0.00 0.00 0.00 0.00 0.00 0.00 0.00 0.00 0.00 0.00 0.00 0.00 0.00 0.00 0.00 0.00 0.00 0.00 0.00 0.00 0.00 0.00 0.00 0.00 0.00 0.00 0.01
0.03 0.02 0.01 0.01 0.01 0.00 0.00 0.00 0.00 0.00 0.00 0.00 0.00 0.00 0.00 0.00 0.00 0.00 0.00 0.00 0.00 0.00 0.00 0.00 0.00 0.00 0.00 0.00 0.00 0.00 0.00 0.00 0.00 0.00 0.00 0.00 0.00 0.00 0.00 0.00 0.00 0.01 0.03
0.03 0.02 0.02 0.01 0.01 0.00 0.00 0.00 0.00 0.00 0.00 0.00 0.00 0.00 0.00 0.00 0.00 0.00 0.00 0.00 0.00 0.00 0.00 0.00 0.00 0.00 0.00 0.00 0.00 0.00 0.00 0.00 0.00 0.00 0.00 0.00 0.00 0.00 0.00 0.00 0.02 0.04 0.09
0.02 0.02 0.02 0.01 0.01 0.00 0.00 0.00 0.00 0.00 0.00 0.00 0.00 0.00 0.00 0.00 0.00 0.00 0.00 0.00 0.00 0.00 0.00 0.00 0.00 0.00 0.00 0.00 0.00 0.00 0.00 0.00 0.00 0.00 0.00 0.00 0.00 0.01 0.02 0.02 0.04 0.07 0.08
0.00 0.01 0.02 0.01 0.01 0.00 0.00 0.00 0.00 0.00 0.00 0.00 0.00 0.00 0.00 0.00 0.00 0.00 0.00 0.00 0.00 0.00 0.00 0.00 0.00 0.00 0.00 0.00 0.00 0.00 0.00 0.00 0.00 0.00 0.01 0.01 0.02 0.02 0.02 0.02 0.02 0.02 0.04
0.01 0.01 0.01 0.01 0.00 0.00 0.00 0.00 0.00 0.00 0.00 0.00 0.00 0.00 0.00 0.00 0.00 0.00 0.00 0.00 0.00 0.00 0.00 0.00 0.00 0.00 0.00 0.00 0.00 0.00 0.00 0.01 0.02 0.02 0.02 0.01 0.01 0.00 0.00 0.01 0.03 0.05 0.06
0.02 0.01 0.02 0.00 0.00 0.00 0.00 0.00 0.00 0.00 0.00 0.00 0.00 0.00 0.00 0.00 0.00 0.00 0.00 0.00 0.00 0.00 0.00 0.01 0.00 0.00 0.00 0.00 0.00 0.00 0.01 0.02 0.01 0.00 0.00 0.00 0.00 0.00 0.00 0.02 0.05 0.08 0.10
0.02 0.01 0.00 0.00 0.00 0.00 0.00 0.00 0.00 0.00 0.00 0.00 0.00 0.00 0.00 0.00 0.00 0.00 0.00 0.00 0.00 0.00 0.01 0.02 0.00 0.00 0.00 0.02 0.04 0.01 0.00 0.00 0.00 0.00 0.00 0.00 0.00 0.00 0.01 0.02 0.04 0.05 0.07
0.01 0.01 0.00 0.00 0.00 0.00 0.00 0.00 0.00 0.00 0.00 0.00 0.00 0.00 0.00 0.00 0.00 0.00 0.00 0.00 0.00 0.00 0.00 0.01 0.07 0.09 0.11 0.06 0.02 0.00 0.00 0.00 0.00 0.00 0.00 0.00 0.00 0.01 0.00 0.00 0.00 0.00 0.00
0.01 0.00 0.01 0.01 0.00 0.00 0.00 0.00 0.00 0.00 0.00 0.00 0.00 0.00 0.00 0.00 0.00 0.00 0.01 0.00 0.00 0.02 0.13 0.23 0.20 0.17 0.08 0.02 0.00 0.00 0.00 0.02 0.02 0.01 0.00 0.00 0.00 0.00 0.00 0.00 0.00 0.00 0.01
0.07 0.05 0.04 0.02 0.00 0.01 0.02 0.01 0.00 0.00 0.00 0.00 0.00 0.00 0.00 0.00 0.00 0.00 0.01 0.02 0.03 0.16 0.22 0.25 0.23 0.09 0.01 0.00 0.00 0.04 0.13 0.09 0.04 0.00 0.00 0.01 0.00 0.00 0.00 0.00 0.00 0.01 0.01
0.09 0.10 0.09 0.08 0.07 0.03 0.00 0.00 0.00 0.00 0.00 0.00 0.00 0.00 0.00 0.00 0.00 0.00 0.00 0.04 0.13 0.13 0.16 0.11 0.02 0.00 0.00 0.04 0.16 0.13 0.06 0.07 0.05 0.00 0.03 0.04 0.00 0.00 0.00 0.00 0.00 0.00 0.01
0.17 0.07 0.04 0.01 0.00 0.00 0.00 0.00 0.00 0.00 0.00 0.00 0.00 0.00 0.00 0.00 0.01 0.02 0.06 0.16 0.10 0.07 0.00 0.00 0.00 0.01 0.05 0.06 0.04 0.11 0.11 0.07 0.02 0.00 0.00 0.07 0.00 0.00 0.00 0.00 0.00 0.00 0.00
0.04 0.01 0.00 0.00 0.00 0.00 0.00 0.00 0.00 0.00 0.00 0.00 0.00 0.00 0.01 0.01 0.01 0.05 0.10 0.12 0.04 0.00 0.00 0.01 0.04 0.02 0.01 0.00 0.00 0.10 0.12 0.10 0.06 0.00 0.00 0.02 0.01 0.00 0.00 0.00 0.00 0.00 0.00
0.00 0.00 0.00 0.00 0.00 0.00 0.00 0.00 0.00 0.00 0.00 0.00 0.00 0.00 0.01 0.01 0.03 0.11 0.07 0.02 0.00 0.00 0.06 0.04 0.00 0.00 0.00 0.00 0.00 0.02 0.14 0.35 0.14 0.11 0.00 0.16 0.09 0.06 0.23 0.01 0.00 0.00 0.00

GFSMA_prec_precacc24_036.txt.gz
Total_Precipitation_Accumulation
0.00 0.00 0.00 0.00 0.00 0.00 0.00 0.00 0.00 0.00 0.00 0.00 0.00 0.00 0.00 0.00 0.00 0.00 0.00 0.00 0.00 0.00 0.00 0.00 0.00 0.00 0.00 0.00 0.00 0.01 0.00 0.01 0.02 0.01 0.01 0.01 0.02 0.02 0.04 0.07 0.08 0.09 0.09
0.00 0.00 0.00 0.00 0.00 0.00 0.00 0.00 0.00 0.00 0.00 0.00 0.00 0.00 0.00 0.00 0.00 0.00 0.00 0.00 0.00 0.00 0.00 0.00 0.00 0.00 0.00 0.00 0.00 0.00 0.00 0.00 0.00 0.00 0.00 0.00 0.00 0.00 0.01 0.02 0.05 0.07 0.10
0.00 0.00 0.00 0.00 0.00 0.00 0.00 0.00 0.00 0.00 0.00 0.00 0.00 0.00 0.00 0.00 0.00 0.00 0.00 0.00 0.00 0.00 0.00 0.00 0.00 0.00 0.00 0.00 0.00 0.00 0.00 0.00 0.00 0.00 0.00 0.00 0.00 0.00 0.00 0.00 0.00 0.01 0.03
0.00 0.00 0.00 0.00 0.00 0.00 0.00 0.00 0.00 0.00 0.00 0.00 0.00 0.00 0.00 0.00 0.00 0.00 0.00 0.00 0.00 0.00 0.00 0.00 0.00 0.00 0.00 0.00 0.00 0.00 0.00 0.00 0.00 0.00 0.00 0.00 0.00 0.00 0.00 0.00 0.00 0.00 0.00
0.00 0.00 0.00 0.00 0.00 0.00 0.00 0.00 0.00 0.00 0.00 0.00 0.00 0.00 0.00 0.00 0.00 0.00 0.00 0.00 0.00 0.00 0.00 0.00 0.00 0.00 0.00 0.00 0.00 0.00 0.00 0.00 0.00 0.00 0.00 0.00 0.00 0.00 0.00 0.00 0.00 0.00 0.00
0.00 0.00 0.00 0.00 0.00 0.00 0.00 0.00 0.00 0.00 0.00 0.00 0.00 0.00 0.00 0.00 0.00 0.00 0.00 0.00 0.00 0.00 0.00 0.00 0.00 0.00 0.00 0.00 0.00 0.00 0.00 0.00 0.00 0.00 0.00 0.00 0.00 0.00 0.00 0.00 0.00 0.00 0.00
0.02 0.01 0.00 0.00 0.00 0.00 0.00 0.00 0.00 0.00 0.00 0.00 0.00 0.00 0.00 0.00 0.00 0.00 0.00 0.00 0.00 0.00 0.00 0.00 0.00 0.00 0.00 0.00 0.00 0.00 0.00 0.00 0.00 0.00 0.00 0.00 0.00 0.00 0.00 0.00 0.00 0.00 0.00
0.05 0.03 0.00 0.00 0.00 0.00 0.00 0.00 0.00 0.00 0.00 0.00 0.00 0.00 0.00 0.00 0.00 0.00 0.00 0.00 0.00 0.00 0.00 0.00 0.00 0.00 0.00 0.00 0.00 0.00 0.00 0.00 0.00 0.00 0.00 0.00 0.00 0.00 0.00 0.00 0.00 0.00 0.00
0.09 0.06 0.01 0.00 0.00 0.00 0.00 0.00 0.00 0.00 0.00 0.00 0.00 0.00 0.00 0.00 0.00 0.00 0.00 0.00 0.00 0.00 0.00 0.00 0.00 0.00 0.00 0.00 0.00 0.00 0.00 0.00 0.00 0.00 0.00 0.00 0.00 0.00 0.00 0.00 0.00 0.00 0.00
0.10 0.04 0.01 0.02 0.01 0.00 0.00 0.00 0.00 0.00 0.00 0.00 0.00 0.00 0.00 0.00 0.00 0.00 0.00 0.00 0.00 0.00 0.00 0.00 0.00 0.00 0.00 0.00 0.00 0.00 0.00 0.00 0.00 0.00 0.00 0.00 0.00 0.00 0.00 0.00 0.00 0.00 0.00
0.09 0.07 0.04 0.02 0.01 0.00 0.00 0.00 0.00 0.00 0.00 0.00 0.00 0.00 0.00 0.00 0.00 0.00 0.00 0.00 0.00 0.00 0.00 0.00 0.00 0.00 0.00 0.00 0.00 0.00 0.00 0.00 0.00 0.00 0.00 0.00 0.00 0.00 0.00 0.00 0.00 0.00 0.01
0.09 0.06 0.05 0.04 0.02 0.00 0.00 0.00 0.00 0.00 0.00 0.00 0.00 0.00 0.00 0.00 0.00 0.00 0.00 0.00 0.00 0.00 0.00 0.00 0.00 0.00 0.00 0.00 0.00 0.00 0.00 0.00 0.00 0.00 0.00 0.00 0.00 0.00 0.00 0.00 0.00 0.00 0.01
0.06 0.04 0.04 0.03 0.02 0.01 0.01 0.00 0.00 0.00 0.00 0.00 0.00 0.00 0.00 0.00 0.00 0.00 0.00 0.00 0.00 0.00 0.00 0.00 0.00 0.00 0.00 0.00 0.00 0.00 0.00 0.00 0.00 0.00 0.00 0.00 0.00 0.00 0.00 0.00 0.00 0.00 0.03
0.06 0.04 0.04 0.04 0.02 0.01 0.01 0.00 0.00 0.00 0.00 0.00 0.00 0.00 0.00 0.00 0.00 0.00 0.00 0.00 0.00 0.00 0.00 0.00 0.00 0.00 0.00 0.00 0.00 0.00 0.00 0.00 0.00 0.00 0.00 0.00 0.00 0.00 0.00 0.00 0.01 0.04 0.08
0.05 0.05 0.05 0.03 0.02 0.01 0.01 0.00 0.00 0.00 0.00 0.00 0.00 0.00 0.00 0.00 0.00 0.00 0.00 0.00 0.00 0.00 0.00 0.00 0.00 0.00 0.00 0.00 0.00 0.00 0.00 0.00 0.00 0.00 0.00 0.00 0.00 0.00 0.01 0.01 0.03 0.06 0.07
0.04 0.04 0.04 0.02 0.02 0.01 0.00 0.00 0.00 0.00 0.00 0.00 0.00 0.00 0.00 0.00 0.00 0.00 0.00 0.00 0.00 0.00 0.00 0.00 0.00 0.00 0.00 0.00 0.00 0.00 0.00 0.00 0.00 0.00 0.01 0.01 0.02 0.01 0.01 0.01 0.01 0.02 0.04
0.02 0.02 0.01 0.02 0.01 0.01 0.01 0.02 0.03 0.01 0.00 0.00 0.00 0.00 0.00 0.00 0.00 0.00 0.00 0.00 0.00 0.00 0.00 0.00 0.00 0.00 0.00 0.00 0.00 0.00 0.00 0.01 0.02 0.02 0.02 0.01 0.01 0.00 0.00 0.01 0.03 0.05 0.06
0.02 0.02 0.02 0.01 0.01 0.02 0.05 0.08 0.07 0.01 0.00 0.00 0.00 0.00 0.00 0.00 0.00 0.00 0.00 0.00 0.00 0.00 0.00 0.01 0.00 0.00 0.00 0.00 0.00 0.00 0.01 0.02 0.01 0.00 0.00 0.00 0.00 0.00 0.00 0.02 0.05 0.06 0.07
0.02 0.01 0.01 0.02 0.04 0.07 0.08 0.04 0.02 0.00 0.00 0.00 0.00 0.00 0.00 0.00 0.00 0.00 0.00 0.00 0.00 0.00 0.01 0.01 0.00 0.00 0.00 0.01 0.03 0.01 0.00 0.00 0.00 0.00 0.00 0.00 0.00 0.00 0.00 0.01 0.02 0.04 0.06
0.01 0.01 0.02 0.02 0.02 0.01 0.01 0.00 0.00 0.00 0.00 0.00 0.01 0.01 0.00 0.00 0.00 0.00 0.00 0.00 0.00 0.00 0.00 0.01 0.07 0.07 0.05 0.04 0.02 0.00 0.00 0.00 0.00 0.00 0.00 0.00 0.00 0.00 0.00 0.00 0.00 0.00 0.00
0.01 0.01 0.02 0.03 0.05 0.04 0.03 0.01 0.03 0.05 0.06 0.05 0.02 0.00 0.00 0.00 0.00 0.00 0.00 0.00 0.00 0.02 0.10 0.18 0.14 0.11 0.07 0.02 0.00 0.00 0.00 0.01 0.01 0.00 0.00 0.00 0.00 0.00 0.00 0.00 0.00 0.00 0.00
0.09 0.10 0.11 0.09 0.07 0.08 0.11 0.13 0.11 0.06 0.02 0.00 0.00 0.00 0.00 0.00 0.00 0.00 0.00 0.01 0.02 0.15 0.20 0.18 0.15 0.06 0.01 0.00 0.00 0.03 0.07 0.05 0.04 0.00 0.00 0.01 0.00 0.00 0.00 0.00 0.00 0.00 0.01
0.16 0.22 0.25 0.30 0.29 0.24 0.16 0.06 0.01 0.00 0.00 0.00 0.00 0.00 0.00 0.00 0.00 0.00 0.00 0.03 0.12 0.11 0.09 0.06 0.02 0.00 0.00 0.02 0.11 0.09 0.06 0.09 0.06 0.00 0.02 0.04 0.00 0.00 0.00 0.00 0.00 0.00 0.00
0.39 0.35 0.36 0.28 0.15 0.05 0.01 0.00 0.00 0.00 0.00 0.00 0.00 0.00 0.00 0.00 0.00 0.01 0.06 0.15 0.06 0.02 0.00 0.00 0.00 0.01 0.03 0.04 0.04 0.15 0.13 0.07 0.02 0.00 0.00 0.06 0.00 0.00 0.00 0.00 0.00 0.00 0.00
0.23 0.15 0.08 0.03 0.02 0.01 0.00 0.00 0.00 0.00 0.00 0.00 0.00 0.00 0.01 0.01 0.01 0.04 0.07 0.04 0.01 0.00 0.00 0.00 0.03 0.02 0.01 0.01 0.00 0.08 0.08 0.08 0.05 0.00 0.00 0.01 0.01 0.00 0.00 0.00 0.00 0.00 0.00
0.04 0.01 0.00 0.00 0.00 0.00 0.00 0.00 0.00 0.00 0.00 0.00 0.00 0.00 0.00 0.01 0.02 0.07 0.03 0.01 0.00 0.00 0.05 0.03 0.00 0.00 0.00 0.00 0.00 0.01 0.10 0.30 0.12 0.11 0.00 0.13 0.07 0.05 0.21 0.01 0.00 0.00 0.00

GFSMA_prec_precacc24_039.txt.gz
Total_Precipitation_Accumulation
0.00 0.00 0.00 0.00 0.00 0.00 0.00 0.00 0.00 0.00 0.00 0.00 0.00 0.00 0.00 0.00 0.00 0.00 0.00 0.00 0.00 0.00 0.00 0.00 0.00 0.00 0.00 0.00 0.00 0.00 0.00 0.00 0.00 0.00 0.00 0.00 0.00 0.00 0.00 0.00 0.00 0.01 0.03
0.00 0.00 0.00 0.00 0.00 0.00 0.00 0.00 0.00 0.00 0.00 0.00 0.00 0.00 0.00 0.00 0.00 0.00 0.00 0.00 0.00 0.00 0.00 0.00 0.00 0.00 0.00 0.00 0.00 0.00 0.00 0.00 0.00 0.00 0.00 0.00 0.00 0.00 0.00 0.00 0.00 0.00 0.00
0.00 0.00 0.00 0.00 0.00 0.00 0.00 0.00 0.00 0.00 0.00 0.00 0.00 0.00 0.00 0.00 0.00 0.00 0.00 0.00 0.00 0.00 0.00 0.00 0.00 0.00 0.00 0.00 0.00 0.00 0.00 0.00 0.00 0.00 0.00 0.00 0.00 0.00 0.00 0.00 0.00 0.00 0.00
0.00 0.00 0.00 0.00 0.00 0.00 0.00 0.00 0.00 0.00 0.00 0.00 0.00 0.00 0.00 0.00 0.00 0.00 0.00 0.00 0.00 0.00 0.00 0.00 0.00 0.00 0.00 0.00 0.00 0.00 0.00 0.00 0.00 0.00 0.00 0.00 0.00 0.00 0.00 0.00 0.00 0.00 0.00
0.00 0.00 0.00 0.00 0.00 0.00 0.00 0.00 0.00 0.00 0.00 0.00 0.00 0.00 0.00 0.00 0.00 0.00 0.00 0.00 0.00 0.00 0.00 0.00 0.00 0.00 0.00 0.00 0.00 0.00 0.00 0.00 0.00 0.00 0.00 0.00 0.00 0.00 0.00 0.00 0.00 0.00 0.00
0.00 0.00 0.00 0.00 0.00 0.00 0.00 0.00 0.00 0.00 0.00 0.00 0.00 0.00 0.00 0.00 0.00 0.00 0.00 0.00 0.00 0.00 0.00 0.00 0.00 0.00 0.00 0.00 0.00 0.00 0.00 0.00 0.00 0.00 0.00 0.00 0.00 0.00 0.00 0.00 0.00 0.00 0.00
0.07 0.04 0.00 0.00 0.00 0.00 0.00 0.00 0.00 0.00 0.00 0.00 0.00 0.00 0.00 0.00 0.00 0.00 0.00 0.00 0.00 0.00 0.00 0.00 0.00 0.00 0.00 0.00 0.00 0.00 0.00 0.00 0.00 0.00 0.00 0.00 0.00 0.00 0.00 0.00 0.00 0.00 0.00
0.14 0.08 0.01 0.00 0.00 0.00 0.00 0.00 0.00 0.00 0.00 0.00 0.00 0.00 0.00 0.00 0.00 0.00 0.00 0.00 0.00 0.00 0.00 0.00 0.00 0.00 0.00 0.00 0.00 0.00 0.00 0.00 0.00 0.00 0.00 0.00 0.00 0.00 0.00 0.00 0.00 0.00 0.00
0.19 0.16 0.05 0.00 0.00 0.00 0.00 0.00 0.00 0.00 0.00 0.00 0.00 0.00 0.00 0.00 0.00 0.00 0.00 0.00 0.00 0.00 0.00 0.00 0.00 0.00 0.00 0.00 0.00 0.00 0.00 0.00 0.00 0.00 0.00 0.00 0.00 0.00 0.00 0.00 0.00 0.00 0.00
0.19 0.15 0.09 0.05 0.04 0.01 0.01 0.01 0.00 0.00 0.00 0.00 0.00 0.00 0.00 0.00 0.00 0.00 0.00 0.00 0.00 0.00 0.00 0.00 0.00 0.00 0.00 0.00 0.00 0.00 0.00 0.00 0.00 0.00 0.00 0.00 0.00 0.00 0.00 0.00 0.00 0.00 0.00
0.14 0.13 0.11 0.07 0.06 0.07 0.05 0.02 0.00 0.00 0.00 0.00 0.00 0.00 0.00 0.00 0.00 0.00 0.00 0.00 0.00 0.00 0.00 0.00 0.00 0.00 0.00 0.00 0.00 0.00 0.00 0.00 0.00 0.00 0.00 0.00 0.00 0.00 0.00 0.00 0.00 0.00 0.01
0.12 0.09 0.09 0.09 0.07 0.05 0.04 0.02 0.01 0.00 0.00 0.00 0.00 0.00 0.00 0.00 0.00 0.00 0.00 0.00 0.00 0.00 0.00 0.00 0.00 0.00 0.00 0.00 0.00 0.00 0.00 0.00 0.00 0.00 0.00 0.00 0.00 0.00 0.00 0.00 0.00 0.00 0.01
0.07 0.05 0.07 0.08 0.06 0.04 0.03 0.02 0.02 0.01 0.00 0.00 0.00 0.00 0.00 0.00 0.00 0.00 0.00 0.00 0.00 0.00 0.00 0.00 0.00 0.00 0.00 0.00 0.00 0.00 0.00 0.00 0.00 0.00 0.00 0.00 0.00 0.00 0.00 0.00 0.00 0.00 0.03
0.09 0.06 0.07 0.07 0.05 0.04 0.03 0.02 0.02 0.01 0.01 0.00 0.00 0.00 0.00 0.00 0.00 0.00 0.00 0.00 0.00 0.00 0.00 0.00 0.00 0.00 0.00 0.00 0.00 0.00 0.00 0.00 0.00 0.00 0.00 0.00 0.00 0.00 0.00 0.00 0.01 0.04 0.07
0.07 0.07 0.07 0.06 0.05 0.03 0.02 0.01 0.01 0.01 0.00 0.00 0.00 0.00 0.00 0.00 0.00 0.00 0.00 0.00 0.00 0.00 0.00 0.00 0.00 0.00 0.00 0.00 0.00 0.00 0.00 0.00 0.00 0.00 0.00 0.00 0.00 0.00 0.01 0.01 0.02 0.05 0.06
0.06 0.07 0.06 0.05 0.04 0.02 0.01 0.00 0.01 0.01 0.01 0.01 0.01 0.00 0.00 0.00 0.00 0.00 0.00 0.00 0.00 0.00 0.00 0.00 0.00 0.00 0.00 0.00 0.00 0.00 0.00 0.00 0.00 0.00 0.01 0.01 0.02 0.01 0.01 0.01 0.01 0.01 0.02
0.03 0.03 0.03 0.03 0.02 0.01 0.01 0.02 0.03 0.04 0.04 0.03 0.02 0.01 0.00 0.00 0.00 0.00 0.00 0.00 0.00 0.00 0.00 0.00 0.00 0.00 0.00 0.00 0.00 0.00 0.00 0.00 0.02 0.02 0.02 0.01 0.01 0.00 0.00 0.01 0.02 0.04 0.05
0.05 0.04 0.03 0.02 0.01 0.02 0.05 0.09 0.13 0.12 0.10 0.08 0.07 0.05 0.00 0.00 0.00 0.00 0.00 0.00 0.00 0.00 0.00 0.00 0.00 0.00 0.00 0.00 0.00 0.00 0.01 0.01 0.01 0.00 0.00 0.00 0.00 0.00 0.00 0.01 0.04 0.04 0.05
0.04 0.03 0.02 0.02 0.04 0.07 0.08 0.07 0.05 0.03 0.02 0.02 0.02 0.01 0.00 0.00 0.00 0.00 0.00 0.00 0.00 0.00 0.00 0.01 0.00 0.00 0.00 0.01 0.01 0.00 0.00 0.00 0.00 0.00 0.00 0.00 0.00 0.00 0.00 0.01 0.01 0.01 0.03
0.02 0.02 0.02 0.03 0.02 0.02 0.02 0.02 0.03 0.02 0.02 0.02 0.02 0.02 0.03 0.03 0.01 0.00 0.00 0.00 0.00 0.00 0.00 0.01 0.04 0.06 0.04 0.02 0.01 0.00 0.00 0.00 0.00 0.00 0.00 0.00 0.00 0.00 0.00 0.00 0.00 0.00 0.00
0.01 0.01 0.02 0.04 0.05 0.06 0.07 0.08 0.11 0.16 0.22 0.22 0.18 0.10 0.04 0.01 0.00 0.00 0.00 0.00 0.00 0.01 0.07 0.15 0.13 0.07 0.03 0.01 0.00 0.00 0.00 0.00 0.00 0.00 0.00 0.00 0.00 0.00 0.00 0.00 0.00 0.00 0.00
0.09 0.11 0.12 0.09 0.08 0.11 0.21 0.26 0.28 0.27 0.20 0.13 0.07 0.03 0.01 0.00 0.00 0.00 0.00 0.01 0.02 0.13 0.18 0.11 0.07 0.04 0.01 0.00 0.00 0.01 0.04 0.04 0.05 0.00 0.00 0.01 0.00 0.00 0.00 0.00 0.00 0.00 0.00
0.18 0.23 0.27 0.36 0.43 0.44 0.42 0.32 0.19 0.09 0.04 0.02 0.01 0.00 0.00 0.00 0.00 0.00 0.00 0.02 0.10 0.07 0.05 0.04 0.02 0.00 0.00 0.01 0.07 0.07 0.06 0.09 0.06 0.00 0.02 0.03 0.00 0.00 0.00 0.00 0.00 0.00 0.00
0.47 0.44 0.46 0.43 0.35 0.28 0.18 0.11 0.05 0.03 0.01 0.01 0.00 0.00 0.00 0.00 0.00 0.01 0.03 0.10 0.03 0.01 0.00 0.00 0.00 0.00 0.02 0.03 0.05 0.17 0.16 0.06 0.01 0.00 0.00 0.04 0.00 0.00 0.00 0.00 0.00 0.00 0.00
0.51 0.38 0.28 0.16 0.07 0.03 0.01 0.01 0.00 0.00 0.00 0.00 0.00 0.00 0.00 0.01 0.00 0.02 0.05 0.03 0.01 0.00 0.00 0.00 0.02 0.01 0.01 0.01 0.00 0.04 0.05 0.06 0.04 0.00 0.00 0.01 0.00 0.00 0.00 0.00 0.00 0.00 0.00
0.18 0.10 0.04 0.02 0.00 0.00 0.00 0.00 0.00 0.00 0.00 0.00 0.00 0.00 0.00 0.00 0.01 0.05 0.03 0.01 0.00 0.00 0.04 0.03 0.00 0.00 0.00 0.00 0.00 0.01 0.06 0.24 0.11 0.11 0.00 0.11 0.06 0.05 0.17 0.01 0.00 0.00 0.00

GFSMA_prec_precacc24_042.txt.gz
Total_Precipitation_Accumulation
0.00 0.00 0.00 0.00 0.00 0.00 0.00 0.00 0.00 0.00 0.00 0.00 0.00 0.00 0.00 0.00 0.00 0.00 0.00 0.00 0.00 0.00 0.00 0.00 0.00 0.00 0.00 0.00 0.00 0.00 0.00 0.00 0.00 0.00 0.00 0.00 0.00 0.00 0.00 0.00 0.00 0.00 0.00
0.00 0.00 0.00 0.00 0.00 0.00 0.00 0.00 0.00 0.00 0.00 0.00 0.00 0.00 0.00 0.00 0.00 0.00 0.00 0.00 0.00 0.00 0.00 0.00 0.00 0.00 0.00 0.00 0.00 0.00 0.00 0.00 0.00 0.00 0.00 0.00 0.00 0.00 0.00 0.00 0.00 0.00 0.00
0.00 0.00 0.00 0.00 0.00 0.00 0.00 0.00 0.00 0.00 0.00 0.00 0.00 0.00 0.00 0.00 0.00 0.00 0.00 0.00 0.00 0.00 0.00 0.00 0.00 0.00 0.00 0.00 0.00 0.00 0.00 0.00 0.00 0.00 0.00 0.00 0.00 0.00 0.00 0.00 0.00 0.00 0.00
0.00 0.00 0.00 0.00 0.00 0.00 0.00 0.00 0.00 0.00 0.00 0.00 0.00 0.00 0.00 0.00 0.00 0.00 0.00 0.00 0.00 0.00 0.00 0.00 0.00 0.00 0.00 0.00 0.00 0.00 0.00 0.00 0.00 0.00 0.00 0.00 0.00 0.00 0.00 0.00 0.00 0.00 0.00
0.00 0.00 0.00 0.00 0.00 0.00 0.00 0.00 0.00 0.00 0.00 0.00 0.00 0.00 0.00 0.00 0.00 0.00 0.00 0.00 0.00 0.00 0.00 0.00 0.00 0.00 0.00 0.00 0.00 0.00 0.00 0.00 0.00 0.00 0.00 0.00 0.00 0.00 0.00 0.00 0.00 0.00 0.00
0.00 0.00 0.00 0.00 0.00 0.00 0.00 0.00 0.00 0.00 0.00 0.00 0.00 0.00 0.00 0.00 0.00 0.00 0.00 0.00 0.00 0.00 0.00 0.00 0.00 0.00 0.00 0.00 0.00 0.00 0.00 0.00 0.00 0.00 0.00 0.00 0.00 0.00 0.00 0.00 0.00 0.00 0.00
0.09 0.05 0.00 0.00 0.00 0.00 0.00 0.00 0.00 0.00 0.00 0.00 0.00 0.00 0.00 0.00 0.00 0.00 0.00 0.00 0.00 0.00 0.00 0.00 0.00 0.00 0.00 0.00 0.00 0.00 0.00 0.00 0.00 0.00 0.00 0.00 0.00 0.00 0.00 0.00 0.00 0.00 0.00
0.19 0.11 0.03 0.02 0.00 0.00 0.00 0.00 0.00 0.00 0.00 0.00 0.00 0.00 0.00 0.00 0.00 0.00 0.00 0.00 0.00 0.00 0.00 0.00 0.00 0.00 0.00 0.00 0.00 0.00 0.00 0.00 0.00 0.00 0.00 0.00 0.00 0.00 0.00 0.00 0.00 0.00 0.00
0.28 0.25 0.11 0.04 0.02 0.01 0.01 0.00 0.00 0.00 0.00 0.00 0.00 0.00 0.00 0.00 0.00 0.00 0.00 0.00 0.00 0.00 0.00 0.00 0.00 0.00 0.00 0.00 0.00 0.00 0.00 0.00 0.00 0.00 0.00 0.00 0.00 0.00 0.00 0.00 0.00 0.00 0.00
0.27 0.24 0.16 0.10 0.07 0.04 0.03 0.04 0.05 0.04 0.01 0.00 0.00 0.00 0.00 0.00 0.00 0.00 0.00 0.00 0.00 0.00 0.00 0.00 0.00 0.00 0.00 0.00 0.00 0.00 0.00 0.00 0.00 0.00 0.00 0.00 0.00 0.00 0.00 0.00 0.00 0.00 0.00
0.19 0.20 0.18 0.13 0.09 0.09 0.10 0.08 0.04 0.02 0.01 0.00 0.00 0.00 0.00 0.00 0.00 0.00 0.00 0.00 0.00 0.00 0.00 0.00 0.00 0.00 0.00 0.00 0.00 0.00 0.00 0.00 0.00 0.00 0.00 0.00 0.00 0.00 0.00 0.00 0.00 0.00 0.01
0.14 0.12 0.12 0.11 0.11 0.07 0.07 0.08 0.05 0.02 0.01 0.01 0.00 0.00 0.00 0.00 0.00 0.00 0.00 0.00 0.00 0.00 0.00 0.00 0.00 0.00 0.00 0.00 0.00 0.00 0.00 0.00 0.00 0.00 0.00 0.00 0.00 0.00 0.00 0.00 0.00 0.00 0.01
0.08 0.07 0.09 0.10 0.08 0.08 0.07 0.06 0.06 0.04 0.03 0.01 0.01 0.00 0.00 0.00 0.00 0.00 0.00 0.00 0.00 0.00 0.00 0.00 0.00 0.00 0.00 0.00 0.00 0.00 0.00 0.00 0.00 0.00 0.00 0.00 0.00 0.00 0.00 0.00 0.00 0.00 0.03
0.09 0.08 0.09 0.10 0.08 0.07 0.06 0.06 0.06 0.04 0.02 0.02 0.01 0.00 0.00 0.00 0.00 0.00 0.00 0.00 0.00 0.00 0.00 0.00 0.00 0.00 0.00 0.00 0.00 0.00 0.00 0.00 0.00 0.00 0.00 0.00 0.00 0.00 0.00 0.00 0.01 0.04 0.07
0.07 0.08 0.10 0.12 0.12 0.09 0.06 0.05 0.04 0.02 0.01 0.01 0.01 0.01 0.01 0.01 0.00 0.00 0.00 0.00 0.00 0.00 0.00 0.00 0.00 0.00 0.00 0.00 0.00 0.00 0.00 0.00 0.00 0.00 0.00 0.00 0.00 0.00 0.01 0.01 0.02 0.05 0.06
0.06 0.07 0.08 0.08 0.08 0.06 0.04 0.03 0.02 0.01 0.01 0.01 0.01 0.01 0.01 0.01 0.01 0.01 0.00 0.00 0.00 0.00 0.00 0.00 0.00 0.00 0.00 0.00 0.00 0.00 0.00 0.00 0.00 0.00 0.00 0.00 0.01 0.01 0.00 0.01 0.01 0.01 0.02
0.03 0.04 0.03 0.04 0.04 0.04 0.03 0.03 0.03 0.04 0.04 0.04 0.03 0.03 0.04 0.03 0.03 0.03 0.03 0.02 0.01 0.00 0.00 0.00 0.00 0.00 0.00 0.00 0.00 0.00 0.00 0.00 0.00 0.00 0.01 0.01 0.00 0.00 0.00 0.01 0.01 0.01 0.02
0.05 0.05 0.04 0.03 0.02 0.03 0.05 0.09 0.13 0.13 0.11 0.10 0.10 0.11 0.11 0.11 0.09 0.07 0.05 0.04 0.02 0.01 0.00 0.00 0.00 0.00 0.00 0.00 0.00 0.00 0.00 0.00 0.00 0.00 0.00 0.00 0.00 0.00 0.00 0.00 0.01 0.02 0.03
0.04 0.03 0.02 0.03 0.04 0.08 0.09 0.07 0.05 0.03 0.03 0.04 0.04 0.04 0.05 0.05 0.08 0.09 0.09 0.05 0.02 0.00 0.00 0.00 0.00 0.00 0.00 0.01 0.00 0.00 0.00 0.00 0.00 0.00 0.00 0.00 0.00 0.00 0.00 0.00 0.01 0.01 0.02
0.03 0.02 0.02 0.03 0.02 0.02 0.02 0.03 0.04 0.04 0.05 0.06 0.07 0.08 0.12 0.16 0.16 0.13 0.07 0.03 0.01 0.00 0.00 0.00 0.04 0.04 0.02 0.01 0.00 0.00 0.00 0.00 0.00 0.00 0.00 0.00 0.00 0.00 0.00 0.00 0.00 0.00 0.00
0.03 0.02 0.02 0.04 0.05 0.06 0.08 0.10 0.14 0.20 0.27 0.31 0.33 0.31 0.25 0.17 0.09 0.05 0.02 0.01 0.00 0.01 0.04 0.10 0.08 0.03 0.02 0.01 0.00 0.00 0.00 0.00 0.00 0.00 0.00 0.00 0.00 0.00 0.00 0.00 0.00 0.00 0.00
0.11 0.12 0.12 0.10 0.09 0.12 0.26 0.30 0.31 0.31 0.29 0.25 0.20 0.12 0.07 0.04 0.02 0.01 0.00 0.00 0.01 0.07 0.11 0.07 0.06 0.04 0.01 0.00 0.00 0.01 0.02 0.04 0.04 0.00 0.00 0.00 0.00 0.00 0.00 0.00 0.00 0.00 0.00
0.20 0.26 0.28 0.37 0.46 0.49 0.51 0.42 0.31 0.22 0.17 0.13 0.09 0.08 0.05 0.02 0.00 0.00 0.00 0.01 0.04 0.05 0.04 0.04 0.02 0.00 0.00 0.00 0.05 0.06 0.05 0.09 0.06 0.00 0.01 0.01 0.00 0.00 0.00 0.00 0.00 0.00 0.00
0.57 0.52 0.55 0.50 0.43 0.39 0.33 0.22 0.13 0.08 0.06 0.05 0.03 0.02 0.01 0.00 0.00 0.00 0.01 0.05 0.03 0.01 0.00 0.00 0.00 0.00 0.01 0.03 0.05 0.18 0.16 0.05 0.01 0.00 0.00 0.02 0.00 0.00 0.00 0.00 0.00 0.00 0.00
0.67 0.54 0.39 0.32 0.24 0.17 0.11 0.06 0.03 0.02 0.01 0.00 0.00 0.00 0.00 0.00 0.00 0.01 0.03 0.03 0.01 0.00 0.00 0.00 0.01 0.01 0.01 0.01 0.00 0.01 0.02 0.04 0.03 0.00 0.00 0.00 0.00 0.00 0.00 0.00 0.00 0.00 0.00
0.31 0.29 0.19 0.10 0.07 0.05 0.04 0.01 0.00 0.00 0.00 0.00 0.00 0.00 0.00 0.00 0.01 0.03 0.03 0.01 0.00 0.00 0.02 0.02 0.00 0.00 0.00 0.00 0.00 0.00 0.03 0.18 0.09 0.10 0.00 0.08 0.05 0.04 0.14 0.01 0.00 0.00 0.00

GFSMA_prec_precacc24_045.txt.gz
Total_Precipitation_Accumulation
0.00 0.00 0.00 0.00 0.00 0.00 0.00 0.00 0.00 0.00 0.00 0.00 0.00 0.00 0.00 0.00 0.00 0.00 0.00 0.00 0.00 0.00 0.00 0.00 0.00 0.00 0.00 0.00 0.00 0.00 0.00 0.00 0.00 0.00 0.00 0.00 0.00 0.00 0.00 0.00 0.00 0.00 0.00
0.00 0.00 0.00 0.00 0.00 0.00 0.00 0.00 0.00 0.00 0.00 0.00 0.00 0.00 0.00 0.00 0.00 0.00 0.00 0.00 0.00 0.00 0.00 0.00 0.00 0.00 0.00 0.00 0.00 0.00 0.00 0.00 0.00 0.00 0.00 0.00 0.00 0.00 0.00 0.00 0.00 0.00 0.00
0.00 0.00 0.00 0.00 0.00 0.00 0.00 0.00 0.00 0.00 0.00 0.00 0.00 0.00 0.00 0.00 0.00 0.00 0.00 0.00 0.00 0.00 0.00 0.00 0.00 0.00 0.00 0.00 0.00 0.00 0.00 0.00 0.00 0.00 0.00 0.00 0.00 0.00 0.00 0.00 0.00 0.00 0.00
0.00 0.00 0.00 0.00 0.00 0.00 0.00 0.00 0.00 0.00 0.00 0.00 0.00 0.00 0.00 0.00 0.00 0.00 0.00 0.00 0.00 0.00 0.00 0.00 0.00 0.00 0.00 0.00 0.00 0.00 0.00 0.00 0.00 0.00 0.00 0.00 0.00 0.00 0.00 0.00 0.00 0.00 0.00
0.00 0.00 0.00 0.00 0.00 0.00 0.00 0.00 0.00 0.00 0.00 0.00 0.00 0.00 0.00 0.00 0.00 0.00 0.00 0.00 0.00 0.00 0.00 0.00 0.00 0.00 0.00 0.00 0.00 0.00 0.00 0.00 0.00 0.00 0.00 0.00 0.00 0.00 0.00 0.00 0.00 0.00 0.00
0.01 0.00 0.00 0.00 0.00 0.00 0.00 0.00 0.00 0.00 0.00 0.00 0.00 0.00 0.00 0.00 0.00 0.00 0.00 0.00 0.00 0.00 0.00 0.00 0.00 0.00 0.00 0.00 0.00 0.00 0.00 0.00 0.00 0.00 0.00 0.00 0.00 0.00 0.00 0.00 0.00 0.00 0.00
0.13 0.06 0.00 0.00 0.00 0.00 0.00 0.00 0.00 0.00 0.00 0.00 0.00 0.00 0.00 0.00 0.00 0.00 0.00 0.00 0.00 0.00 0.00 0.00 0.00 0.00 0.00 0.00 0.00 0.00 0.00 0.00 0.00 0.00 0.00 0.00 0.00 0.00 0.00 0.00 0.00 0.00 0.00
0.21 0.15 0.05 0.03 0.00 0.00 0.00 0.00 0.00 0.00 0.00 0.00 0.00 0.00 0.00 0.00 0.00 0.00 0.00 0.00 0.00 0.00 0.00 0.00 0.00 0.00 0.00 0.00 0.00 0.00 0.00 0.00 0.00 0.00 0.00 0.00 0.00 0.00 0.00 0.00 0.00 0.00 0.00
0.30 0.29 0.13 0.06 0.05 0.02 0.01 0.00 0.00 0.00 0.00 0.00 0.00 0.00 0.00 0.00 0.00 0.00 0.00 0.00 0.00 0.00 0.00 0.00 0.00 0.00 0.00 0.00 0.00 0.00 0.00 0.00 0.00 0.00 0.00 0.00 0.00 0.00 0.00 0.00 0.00 0.00 0.00
0.29 0.28 0.19 0.15 0.12 0.07 0.03 0.06 0.05 0.05 0.03 0.01 0.00 0.00 0.00 0.00 0.00 0.00 0.00 0.00 0.00 0.00 0.00 0.00 0.00 0.00 0.00 0.00 0.00 0.00 0.00 0.00 0.00 0.00 0.00 0.00 0.00 0.00 0.00 0.00 0.00 0.00 0.00
0.21 0.25 0.22 0.17 0.11 0.12 0.13 0.10 0.06 0.04 0.03 0.02 0.00 0.00 0.00 0.00 0.00 0.00 0.00 0.00 0.00 0.00 0.00 0.00 0.00 0.00 0.00 0.00 0.00 0.00 0.00 0.00 0.00 0.00 0.00 0.00 0.00 0.00 0.00 0.00 0.00 0.00 0.01
0.16 0.16 0.16 0.13 0.14 0.09 0.09 0.11 0.10 0.07 0.04 0.03 0.02 0.01 0.00 0.00 0.00 0.00 0.00 0.00 0.00 0.00 0.00 0.00 0.00 0.00 0.00 0.00 0.00 0.00 0.00 0.00 0.00 0.00 0.00 0.00 0.00 0.00 0.00 0.00 0.00 0.00 0.01
0.08 0.08 0.12 0.14 0.11 0.12 0.13 0.15 0.11 0.09 0.06 0.05 0.03 0.01 0.00 0.00 0.00 0.00 0.00 0.00 0.00 0.00 0.00 0.00 0.00 0.00 0.00 0.00 0.00 0.00 0.00 0.00 0.00 0.00 0.00 0.00 0.00 0.00 0.00 0.00 0.00 0.00 0.02
0.09 0.08 0.13 0.15 0.14 0.14 0.11 0.17 0.14 0.08 0.05 0.03 0.01 0.01 0.00 0.00 0.00 0.00 0.02 0.04 0.04 0.01 0.00 0.00 0.00 0.00 0.00 0.00 0.00 0.00 0.00 0.00 0.00 0.00 0.00 0.00 0.00 0.00 0.00 0.00 0.01 0.02 0.05
0.07 0.08 0.11 0.14 0.15 0.14 0.14 0.12 0.12 0.09 0.05 0.02 0.02 0.02 0.02 0.02 0.02 0.02 0.01 0.01 0.00 0.00 0.00 0.00 0.00 0.00 0.00 0.00 0.00 0.00 0.00 0.00 0.00 0.00 0.00 0.00 0.00 0.00 0.00 0.00 0.01 0.03 0.04
0.06 0.07 0.08 0.08 0.08 0.07 0.07 0.07 0.07 0.06 0.06 0.03 0.02 0.01 0.01 0.02 0.02 0.02 0.01 0.01 0.01 0.00 0.00 0.00 0.00 0.00 0.00 0.00 0.00 0.00 0.00 0.00 0.00 0.00 0.00 0.00 0.00 0.00 0.00 0.00 0.01 0.01 0.02
0.03 0.04 0.03 0.04 0.04 0.04 0.04 0.04 0.05 0.05 0.05 0.04 0.03 0.03 0.04 0.05 0.05 0.05 0.06 0.06 0.06 0.05 0.05 0.03 0.03 0.03 0.04 0.02 0.01 0.00 0.00 0.00 0.00 0.00 0.00 0.00 0.00 0.00 0.00 0.01 0.00 0.00 0.01
0.05 0.05 0.04 0.03 0.02 0.03 0.05 0.09 0.13 0.13 0.11 0.11 0.11 0.13 0.14 0.14 0.13 0.12 0.09 0.09 0.09 0.10 0.09 0.04 0.01 0.02 0.03 0.01 0.00 0.00 0.00 0.00 0.00 0.00 0.00 0.00 0.00 0.00 0.00 0.00 0.01 0.00 0.01
0.04 0.03 0.02 0.03 0.04 0.08 0.09 0.07 0.05 0.03 0.04 0.06 0.07 0.08 0.09 0.11 0.15 0.18 0.19 0.17 0.15 0.10 0.06 0.03 0.01 0.01 0.01 0.01 0.00 0.00 0.00 0.00 0.00 0.00 0.00 0.00 0.00 0.00 0.00 0.00 0.01 0.00 0.01
0.03 0.02 0.02 0.03 0.02 0.02 0.03 0.03 0.05 0.06 0.09 0.10 0.14 0.17 0.21 0.26 0.29 0.26 0.20 0.13 0.08 0.04 0.03 0.02 0.02 0.02 0.01 0.01 0.00 0.00 0.00 0.00 0.00 0.00 0.00 0.00 0.00 0.00 0.00 0.00 0.00 0.00 0.00
0.03 0.02 0.03 0.04 0.06 0.06 0.09 0.11 0.15 0.23 0.31 0.38 0.43 0.42 0.36 0.28 0.20 0.13 0.08 0.05 0.03 0.02 0.02 0.04 0.05 0.03 0.02 0.01 0.00 0.00 0.00 0.00 0.00 0.00 0.00 0.00 0.00 0.00 0.00 0.00 0.00 0.00 0.00
0.12 0.13 0.12 0.10 0.10 0.13 0.29 0.32 0.33 0.34 0.32 0.29 0.25 0.18 0.13 0.10 0.08 0.07 0.05 0.03 0.02 0.02 0.06 0.07 0.06 0.04 0.01 0.00 0.00 0.00 0.01 0.03 0.04 0.00 0.00 0.00 0.00 0.00 0.00 0.00 0.00 0.00 0.00
0.21 0.30 0.38 0.43 0.48 0.53 0.56 0.46 0.35 0.27 0.24 0.20 0.16 0.14 0.10 0.06 0.04 0.02 0.01 0.00 0.01 0.04 0.04 0.04 0.02 0.00 0.00 0.00 0.02 0.04 0.04 0.09 0.06 0.00 0.00 0.00 0.00 0.00 0.00 0.00 0.00 0.00 0.00
0.60 0.54 0.61 0.67 0.48 0.46 0.42 0.30 0.19 0.12 0.10 0.09 0.08 0.05 0.03 0.01 0.00 0.00 0.01 0.02 0.02 0.01 0.00 0.00 0.00 0.00 0.00 0.01 0.05 0.18 0.16 0.04 0.00 0.00 0.00 0.01 0.00 0.00 0.00 0.00 0.00 0.00 0.00
0.76 0.65 0.50 0.41 0.35 0.28 0.16 0.09 0.07 0.08 0.07 0.05 0.03 0.01 0.00 0.00 0.00 0.00 0.02 0.03 0.01 0.00 0.00 0.00 0.00 0.01 0.01 0.01 0.00 0.00 0.01 0.03 0.03 0.00 0.00 0.00 0.00 0.00 0.00 0.00 0.00 0.00 0.00
0.44 0.38 0.32 0.24 0.16 0.10 0.07 0.04 0.03 0.03 0.01 0.00 0.00 0.00 0.00 0.00 0.00 0.01 0.02 0.01 0.00 0.00 0.00 0.01 0.00 0.00 0.00 0.00 0.00 0.00 0.01 0.14 0.08 0.09 0.00 0.06 0.04 0.03 0.11 0.00 0.00 0.00 0.00

GFSMA_prec_precacc24_048.txt.gz
Total_Precipitation_Accumulation
0.00 0.00 0.00 0.00 0.00 0.00 0.00 0.00 0.00 0.00 0.00 0.00 0.00 0.00 0.00 0.00 0.00 0.00 0.00 0.00 0.00 0.00 0.00 0.00 0.00 0.00 0.00 0.00 0.00 0.00 0.00 0.00 0.00 0.00 0.00 0.00 0.00 0.00 0.00 0.00 0.00 0.00 0.00
0.00 0.00 0.00 0.00 0.00 0.00 0.00 0.00 0.00 0.00 0.00 0.00 0.00 0.00 0.00 0.00 0.00 0.00 0.00 0.00 0.00 0.00 0.00 0.00 0.00 0.00 0.00 0.00 0.00 0.00 0.00 0.00 0.00 0.00 0.00 0.00 0.00 0.00 0.00 0.00 0.00 0.00 0.00
0.00 0.00 0.00 0.00 0.00 0.00 0.00 0.00 0.00 0.00 0.00 0.00 0.00 0.00 0.00 0.00 0.00 0.00 0.00 0.00 0.00 0.00 0.00 0.00 0.00 0.00 0.00 0.00 0.00 0.00 0.00 0.00 0.00 0.00 0.00 0.00 0.00 0.00 0.00 0.00 0.00 0.00 0.00
0.00 0.00 0.00 0.00 0.00 0.00 0.00 0.00 0.00 0.00 0.00 0.00 0.00 0.00 0.00 0.00 0.00 0.00 0.00 0.00 0.00 0.00 0.00 0.00 0.00 0.00 0.00 0.00 0.00 0.00 0.00 0.00 0.00 0.00 0.00 0.00 0.00 0.00 0.00 0.00 0.00 0.00 0.00
0.01 0.00 0.00 0.00 0.00 0.00 0.00 0.00 0.00 0.00 0.00 0.00 0.00 0.00 0.00 0.00 0.00 0.00 0.00 0.00 0.00 0.00 0.00 0.00 0.00 0.00 0.00 0.00 0.00 0.00 0.00 0.00 0.00 0.00 0.00 0.00 0.00 0.00 0.00 0.00 0.00 0.00 0.00
0.04 0.01 0.00 0.00 0.00 0.00 0.00 0.00 0.00 0.00 0.00 0.00 0.00 0.00 0.00 0.00 0.00 0.00 0.00 0.00 0.00 0.00 0.00 0.00 0.00 0.00 0.00 0.00 0.00 0.00 0.00 0.00 0.00 0.00 0.00 0.00 0.00 0.00 0.00 0.00 0.00 0.00 0.00
0.14 0.08 0.01 0.00 0.00 0.00 0.00 0.00 0.00 0.00 0.00 0.00 0.00 0.00 0.00 0.00 0.00 0.00 0.00 0.00 0.00 0.00 0.00 0.00 0.00 0.00 0.00 0.00 0.00 0.00 0.00 0.00 0.00 0.00 0.00 0.00 0.00 0.00 0.00 0.00 0.00 0.00 0.00
0.21 0.15 0.06 0.05 0.02 0.00 0.00 0.00 0.00 0.00 0.00 0.00 0.00 0.00 0.00 0.00 0.00 0.00 0.00 0.00 0.00 0.00 0.00 0.00 0.00 0.00 0.00 0.00 0.00 0.00 0.00 0.00 0.00 0.00 0.00 0.00 0.00 0.00 0.00 0.00 0.00 0.00 0.00
0.30 0.30 0.18 0.10 0.09 0.03 0.01 0.00 0.00 0.00 0.00 0.00 0.00 0.00 0.00 0.00 0.00 0.00 0.00 0.00 0.00 0.00 0.00 0.00 0.00 0.00 0.00 0.00 0.00 0.00 0.00 0.00 0.00 0.00 0.00 0.00 0.00 0.00 0.00 0.00 0.00 0.00 0.00
0.29 0.31 0.24 0.18 0.16 0.11 0.04 0.06 0.05 0.05 0.03 0.01 0.00 0.00 0.00 0.00 0.00 0.00 0.00 0.00 0.00 0.00 0.00 0.00 0.00 0.00 0.00 0.00 0.00 0.00 0.00 0.00 0.00 0.00 0.00 0.00 0.00 0.00 0.00 0.00 0.00 0.00 0.00
0.21 0.27 0.25 0.21 0.13 0.13 0.18 0.13 0.08 0.06 0.05 0.02 0.01 0.00 0.00 0.00 0.00 0.00 0.00 0.00 0.00 0.00 0.00 0.00 0.00 0.00 0.00 0.00 0.00 0.00 0.00 0.00 0.00 0.00 0.00 0.00 0.00 0.00 0.00 0.00 0.00 0.00 0.01
0.16 0.16 0.18 0.14 0.18 0.12 0.13 0.14 0.17 0.13 0.09 0.07 0.04 0.01 0.01 0.00 0.00 0.00 0.00 0.00 0.00 0.00 0.00 0.00 0.00 0.00 0.00 0.00 0.00 0.00 0.00 0.00 0.00 0.00 0.00 0.00 0.00 0.00 0.00 0.00 0.00 0.00 0.01
0.08 0.08 0.12 0.15 0.13 0.16 0.19 0.25 0.20 0.16 0.13 0.10 0.07 0.04 0.03 0.01 0.00 0.00 0.00 0.00 0.00 0.00 0.00 0.00 0.00 0.00 0.00 0.00 0.00 0.00 0.00 0.00 0.00 0.00 0.00 0.00 0.00 0.00 0.00 0.00 0.00 0.00 0.01
0.09 0.08 0.14 0.16 0.16 0.16 0.14 0.21 0.20 0.15 0.12 0.08 0.05 0.03 0.01 0.01 0.00 0.01 0.02 0.04 0.04 0.02 0.01 0.01 0.00 0.00 0.00 0.00 0.00 0.00 0.00 0.00 0.00 0.00 0.00 0.00 0.00 0.00 0.00 0.00 0.00 0.01 0.02
0.08 0.08 0.11 0.14 0.16 0.16 0.16 0.15 0.16 0.16 0.13 0.10 0.07 0.04 0.03 0.03 0.03 0.02 0.02 0.01 0.01 0.01 0.02 0.02 0.01 0.00 0.00 0.00 0.00 0.00 0.00 0.00 0.00 0.00 0.00 0.00 0.00 0.00 0.00 0.00 0.00 0.00 0.01
0.06 0.07 0.08 0.08 0.08 0.08 0.08 0.08 0.08 0.10 0.11 0.09 0.07 0.04 0.03 0.02 0.03 0.03 0.02 0.02 0.02 0.03 0.04 0.03 0.03 0.03 0.02 0.02 0.03 0.03 0.01 0.00 0.00 0.00 0.00 0.00 0.00 0.00 0.00 0.00 0.00 0.00 0.01
0.03 0.04 0.03 0.04 0.04 0.04 0.04 0.04 0.05 0.06 0.07 0.06 0.06 0.06 0.07 0.08 0.09 0.09 0.07 0.06 0.08 0.10 0.13 0.11 0.10 0.11 0.10 0.07 0.05 0.03 0.01 0.00 0.00 0.00 0.00 0.00 0.00 0.00 0.00 0.00 0.00 0.00 0.01
0.05 0.05 0.04 0.03 0.02 0.03 0.05 0.09 0.13 0.13 0.12 0.11 0.12 0.14 0.16 0.16 0.15 0.15 0.15 0.16 0.19 0.21 0.20 0.15 0.12 0.12 0.10 0.06 0.03 0.01 0.00 0.00 0.00 0.00 0.00 0.00 0.00 0.00 0.00 0.00 0.01 0.00 0.01
0.04 0.03 0.02 0.03 0.04 0.08 0.09 0.07 0.05 0.03 0.04 0.06 0.08 0.10 0.14 0.18 0.26 0.31 0.32 0.30 0.30 0.25 0.16 0.10 0.06 0.04 0.02 0.01 0.00 0.00 0.00 0.00 0.00 0.00 0.00 0.00 0.00 0.00 0.00 0.00 0.01 0.00 0.01
0.04 0.04 0.03 0.03 0.03 0.02 0.03 0.03 0.05 0.07 0.09 0.12 0.15 0.20 0.27 0.35 0.39 0.39 0.35 0.31 0.22 0.12 0.07 0.04 0.02 0.01 0.01 0.01 0.00 0.00 0.00 0.00 0.00 0.00 0.00 0.00 0.00 0.00 0.00 0.00 0.00 0.00 0.00
0.05 0.05 0.04 0.05 0.06 0.07 0.09 0.11 0.15 0.23 0.32 0.40 0.46 0.47 0.43 0.38 0.31 0.24 0.18 0.12 0.08 0.06 0.04 0.03 0.02 0.02 0.02 0.01 0.00 0.00 0.00 0.00 0.00 0.00 0.00 0.00 0.00 0.00 0.00 0.00 0.00 0.00 0.00
0.17 0.18 0.16 0.12 0.12 0.15 0.31 0.33 0.34 0.35 0.35 0.34 0.32 0.26 0.21 0.19 0.13 0.10 0.06 0.03 0.02 0.01 0.02 0.03 0.04 0.04 0.01 0.00 0.00 0.00 0.00 0.02 0.03 0.00 0.00 0.00 0.00 0.00 0.00 0.00 0.00 0.00 0.00
0.30 0.33 0.42 0.48 0.53 0.58 0.63 0.50 0.40 0.30 0.27 0.24 0.21 0.18 0.14 0.09 0.05 0.03 0.01 0.00 0.00 0.01 0.02 0.03 0.01 0.00 0.00 0.00 0.00 0.02 0.04 0.08 0.05 0.00 0.00 0.00 0.00 0.00 0.00 0.00 0.00 0.00 0.00
0.81 0.60 0.62 0.78 0.76 0.57 0.48 0.38 0.24 0.15 0.13 0.11 0.09 0.06 0.03 0.01 0.00 0.00 0.00 0.00 0.01 0.00 0.00 0.00 0.00 0.00 0.00 0.00 0.03 0.17 0.15 0.04 0.00 0.00 0.00 0.01 0.00 0.00 0.00 0.00 0.00 0.00 0.00
0.79 0.70 0.54 0.45 0.42 0.36 0.24 0.14 0.10 0.09 0.07 0.05 0.03 0.01 0.00 0.00 0.00 0.00 0.01 0.01 0.00 0.00 0.00 0.00 0.00 0.00 0.01 0.01 0.00 0.00 0.00 0.02 0.02 0.00 0.00 0.00 0.00 0.00 0.00 0.00 0.00 0.00 0.00
0.57 0.46 0.37 0.32 0.23 0.13 0.08 0.05 0.04 0.03 0.02 0.01 0.00 0.00 0.00 0.00 0.00 0.00 0.02 0.01 0.00 0.00 0.00 0.00 0.00 0.00 0.00 0.00 0.00 0.00 0.01 0.10 0.07 0.08 0.00 0.05 0.03 0.03 0.09 0.00 0.00 0.00 0.00

GFSMA_prec_precacc24_051.txt.gz
Total_Precipitation_Accumulation
0.00 0.00 0.00 0.00 0.00 0.00 0.00 0.00 0.00 0.00 0.00 0.00 0.00 0.00 0.00 0.00 0.00 0.00 0.00 0.00 0.00 0.00 0.00 0.00 0.00 0.00 0.00 0.00 0.00 0.00 0.00 0.00 0.00 0.00 0.00 0.00 0.00 0.00 0.00 0.00 0.00 0.00 0.00
0.00 0.00 0.00 0.00 0.00 0.00 0.00 0.00 0.00 0.00 0.00 0.00 0.00 0.00 0.00 0.00 0.00 0.00 0.00 0.00 0.00 0.00 0.00 0.00 0.00 0.00 0.00 0.00 0.00 0.00 0.00 0.00 0.00 0.00 0.00 0.00 0.00 0.00 0.00 0.00 0.00 0.00 0.00
0.00 0.00 0.00 0.00 0.00 0.00 0.00 0.00 0.00 0.00 0.00 0.00 0.00 0.00 0.00 0.00 0.00 0.00 0.00 0.00 0.00 0.00 0.00 0.00 0.00 0.00 0.00 0.00 0.00 0.00 0.00 0.00 0.00 0.00 0.00 0.00 0.00 0.00 0.00 0.00 0.00 0.00 0.00
0.00 0.00 0.00 0.00 0.00 0.00 0.00 0.00 0.00 0.00 0.00 0.00 0.00 0.00 0.00 0.00 0.00 0.00 0.00 0.00 0.00 0.00 0.00 0.00 0.00 0.00 0.00 0.00 0.00 0.00 0.00 0.00 0.00 0.00 0.00 0.00 0.00 0.00 0.00 0.00 0.00 0.00 0.00
0.02 0.00 0.00 0.00 0.00 0.00 0.00 0.00 0.00 0.00 0.00 0.00 0.00 0.00 0.00 0.00 0.00 0.00 0.00 0.00 0.00 0.00 0.00 0.00 0.00 0.00 0.00 0.00 0.00 0.00 0.00 0.00 0.00 0.00 0.00 0.00 0.00 0.00 0.00 0.00 0.00 0.00 0.00
0.04 0.02 0.00 0.00 0.00 0.00 0.00 0.00 0.00 0.00 0.00 0.00 0.00 0.00 0.00 0.00 0.00 0.00 0.00 0.00 0.00 0.00 0.00 0.00 0.00 0.00 0.00 0.00 0.00 0.00 0.00 0.00 0.00 0.00 0.00 0.00 0.00 0.00 0.00 0.00 0.00 0.00 0.00
0.14 0.08 0.01 0.00 0.00 0.00 0.00 0.00 0.00 0.00 0.00 0.00 0.00 0.00 0.00 0.00 0.00 0.00 0.00 0.00 0.00 0.00 0.00 0.00 0.00 0.00 0.00 0.00 0.00 0.00 0.00 0.00 0.00 0.00 0.00 0.00 0.00 0.00 0.00 0.00 0.00 0.00 0.00
0.21 0.15 0.06 0.06 0.02 0.00 0.00 0.00 0.00 0.00 0.00 0.00 0.00 0.00 0.00 0.00 0.00 0.00 0.00 0.00 0.00 0.00 0.00 0.00 0.00 0.00 0.00 0.00 0.00 0.00 0.00 0.00 0.00 0.00 0.00 0.00 0.00 0.00 0.00 0.00 0.00 0.00 0.00
0.30 0.30 0.18 0.11 0.09 0.03 0.01 0.00 0.00 0.00 0.00 0.00 0.00 0.00 0.00 0.00 0.00 0.00 0.00 0.00 0.00 0.00 0.00 0.00 0.00 0.00 0.00 0.00 0.00 0.00 0.00 0.00 0.00 0.00 0.00 0.00 0.00 0.00 0.00 0.00 0.00 0.00 0.00
0.29 0.32 0.25 0.20 0.17 0.11 0.04 0.07 0.06 0.07 0.03 0.01 0.00 0.00 0.00 0.00 0.00 0.00 0.00 0.00 0.00 0.00 0.00 0.00 0.00 0.00 0.00 0.00 0.00 0.00 0.00 0.00 0.00 0.00 0.00 0.00 0.00 0.00 0.00 0.00 0.00 0.00 0.00
0.21 0.27 0.26 0.23 0.14 0.14 0.22 0.15 0.09 0.08 0.07 0.04 0.02 0.01 0.00 0.00 0.00 0.00 0.00 0.00 0.00 0.00 0.00 0.00 0.00 0.00 0.00 0.00 0.00 0.00 0.00 0.00 0.00 0.00 0.00 0.00 0.00 0.00 0.00 0.00 0.00 0.00 0.01
0.16 0.16 0.18 0.14 0.18 0.15 0.14 0.17 0.23 0.17 0.12 0.11 0.06 0.04 0.03 0.03 0.01 0.01 0.01 0.00 0.00 0.00 0.00 0.00 0.00 0.00 0.00 0.00 0.00 0.00 0.00 0.00 0.00 0.00 0.00 0.00 0.00 0.00 0.00 0.00 0.00 0.00 0.00
0.08 0.08 0.12 0.15 0.13 0.16 0.21 0.28 0.24 0.20 0.18 0.14 0.11 0.07 0.06 0.04 0.03 0.02 0.01 0.01 0.01 0.00 0.00 0.00 0.00 0.00 0.00 0.00 0.00 0.00 0.00 0.00 0.00 0.00 0.00 0.00 0.00 0.00 0.00 0.00 0.00 0.00 0.00
0.09 0.08 0.15 0.17 0.17 0.16 0.15 0.22 0.21 0.16 0.14 0.11 0.09 0.06 0.04 0.03 0.03 0.02 0.03 0.06 0.06 0.03 0.02 0.01 0.00 0.00 0.00 0.00 0.00 0.00 0.00 0.00 0.00 0.00 0.00 0.00 0.00 0.00 0.00 0.00 0.00 0.00 0.01
0.08 0.08 0.11 0.15 0.17 0.17 0.18 0.18 0.19 0.18 0.16 0.13 0.12 0.10 0.08 0.07 0.07 0.06 0.06 0.07 0.08 0.04 0.03 0.03 0.02 0.00 0.00 0.00 0.00 0.00 0.00 0.00 0.00 0.00 0.00 0.00 0.00 0.00 0.00 0.00 0.00 0.00 0.01
0.06 0.07 0.08 0.08 0.08 0.09 0.11 0.13 0.14 0.16 0.17 0.15 0.11 0.09 0.07 0.06 0.06 0.05 0.05 0.06 0.08 0.10 0.14 0.12 0.10 0.05 0.03 0.04 0.05 0.06 0.02 0.02 0.00 0.00 0.00 0.00 0.00 0.00 0.00 0.00 0.00 0.00 0.01
0.03 0.04 0.03 0.04 0.04 0.05 0.05 0.06 0.07 0.09 0.12 0.11 0.10 0.10 0.10 0.11 0.12 0.12 0.13 0.15 0.16 0.18 0.22 0.16 0.16 0.17 0.18 0.16 0.14 0.10 0.04 0.01 0.00 0.00 0.00 0.00 0.00 0.00 0.00 0.00 0.00 0.00 0.00
0.05 0.05 0.04 0.03 0.02 0.03 0.06 0.10 0.14 0.14 0.13 0.14 0.15 0.16 0.16 0.17 0.16 0.16 0.19 0.23 0.31 0.36 0.38 0.37 0.32 0.29 0.22 0.18 0.11 0.03 0.00 0.00 0.00 0.00 0.00 0.00 0.00 0.00 0.00 0.00 0.01 0.00 0.01
0.04 0.04 0.03 0.04 0.06 0.09 0.10 0.08 0.06 0.04 0.05 0.07 0.09 0.12 0.15 0.19 0.27 0.33 0.36 0.39 0.42 0.39 0.32 0.26 0.20 0.15 0.10 0.05 0.01 0.00 0.00 0.00 0.00 0.00 0.00 0.00 0.00 0.00 0.00 0.00 0.01 0.00 0.00
0.04 0.04 0.03 0.04 0.03 0.04 0.04 0.04 0.05 0.07 0.10 0.12 0.16 0.21 0.28 0.36 0.41 0.42 0.39 0.35 0.27 0.18 0.12 0.08 0.04 0.02 0.01 0.01 0.00 0.00 0.00 0.00 0.00 0.00 0.00 0.00 0.00 0.00 0.00 0.00 0.00 0.00 0.00
0.05 0.05 0.05 0.05 0.06 0.07 0.09 0.11 0.15 0.23 0.32 0.41 0.47 0.47 0.44 0.41 0.36 0.29 0.21 0.15 0.11 0.09 0.06 0.04 0.01 0.00 0.01 0.01 0.00 0.00 0.00 0.00 0.00 0.00 0.00 0.00 0.00 0.00 0.00 0.00 0.00 0.00 0.00
0.17 0.20 0.22 0.16 0.15 0.22 0.36 0.34 0.34 0.36 0.36 0.34 0.32 0.28 0.25 0.25 0.19 0.15 0.11 0.07 0.04 0.01 0.01 0.00 0.02 0.02 0.01 0.00 0.00 0.00 0.00 0.00 0.02 0.00 0.00 0.00 0.00 0.00 0.00 0.00 0.00 0.00 0.00
0.38 0.53 0.56 0.59 0.66 0.73 0.84 0.67 0.46 0.32 0.31 0.26 0.24 0.22 0.16 0.11 0.06 0.04 0.01 0.00 0.00 0.00 0.01 0.01 0.01 0.00 0.00 0.00 0.00 0.01 0.03 0.07 0.05 0.00 0.00 0.00 0.00 0.00 0.00 0.00 0.00 0.00 0.00
0.88 0.78 0.69 0.82 0.88 0.81 0.67 0.50 0.38 0.26 0.20 0.15 0.10 0.06 0.03 0.01 0.00 0.00 0.00 0.00 0.00 0.00 0.00 0.00 0.00 0.00 0.00 0.00 0.02 0.15 0.15 0.04 0.00 0.00 0.00 0.00 0.00 0.00 0.00 0.00 0.00 0.00 0.00
0.81 0.71 0.57 0.48 0.45 0.42 0.29 0.17 0.11 0.10 0.08 0.05 0.03 0.01 0.00 0.00 0.00 0.00 0.00 0.00 0.00 0.00 0.00 0.00 0.00 0.00 0.01 0.01 0.00 0.00 0.00 0.01 0.02 0.00 0.00 0.00 0.00 0.00 0.00 0.00 0.00 0.00 0.00
0.60 0.49 0.38 0.33 0.24 0.14 0.08 0.05 0.04 0.03 0.02 0.01 0.00 0.00 0.00 0.00 0.00 0.00 0.01 0.01 0.00 0.00 0.00 0.00 0.00 0.00 0.00 0.00 0.00 0.00 0.00 0.06 0.06 0.07 0.00 0.04 0.02 0.02 0.08 0.00 0.00 0.00 0.00

GFSMA_prec_precacc24_054.txt.gz
Total_Precipitation_Accumulation
0.00 0.00 0.00 0.00 0.00 0.00 0.00 0.00 0.00 0.00 0.00 0.00 0.00 0.00 0.00 0.00 0.00 0.00 0.00 0.00 0.00 0.00 0.00 0.00 0.00 0.00 0.00 0.00 0.00 0.00 0.00 0.00 0.00 0.00 0.00 0.00 0.00 0.00 0.00 0.00 0.00 0.00 0.00
0.00 0.00 0.00 0.00 0.00 0.00 0.00 0.00 0.00 0.00 0.00 0.00 0.00 0.00 0.00 0.00 0.00 0.00 0.00 0.00 0.00 0.00 0.00 0.00 0.00 0.00 0.00 0.00 0.00 0.00 0.00 0.00 0.00 0.00 0.00 0.00 0.00 0.00 0.00 0.00 0.00 0.00 0.00
0.00 0.00 0.00 0.00 0.00 0.00 0.00 0.00 0.00 0.00 0.00 0.00 0.00 0.00 0.00 0.00 0.00 0.00 0.00 0.00 0.00 0.00 0.00 0.00 0.00 0.00 0.00 0.00 0.00 0.00 0.00 0.00 0.00 0.00 0.00 0.00 0.00 0.00 0.00 0.00 0.00 0.00 0.00
0.00 0.00 0.00 0.00 0.00 0.00 0.00 0.00 0.00 0.00 0.00 0.00 0.00 0.00 0.00 0.00 0.00 0.00 0.00 0.00 0.00 0.00 0.00 0.00 0.00 0.00 0.00 0.00 0.00 0.00 0.00 0.00 0.00 0.00 0.00 0.00 0.00 0.00 0.00 0.00 0.00 0.00 0.00
0.02 0.00 0.00 0.00 0.00 0.00 0.00 0.00 0.00 0.00 0.00 0.00 0.00 0.00 0.00 0.00 0.00 0.00 0.00 0.00 0.00 0.00 0.00 0.00 0.00 0.00 0.00 0.00 0.00 0.00 0.00 0.00 0.00 0.00 0.00 0.00 0.00 0.00 0.00 0.00 0.00 0.00 0.00
0.06 0.02 0.00 0.00 0.00 0.00 0.00 0.00 0.00 0.00 0.00 0.00 0.00 0.00 0.00 0.00 0.00 0.00 0.00 0.00 0.00 0.00 0.00 0.00 0.00 0.00 0.00 0.00 0.00 0.00 0.00 0.00 0.00 0.00 0.00 0.00 0.00 0.00 0.00 0.00 0.00 0.00 0.00
0.15 0.11 0.03 0.01 0.00 0.00 0.00 0.00 0.00 0.00 0.00 0.00 0.00 0.00 0.00 0.00 0.00 0.00 0.00 0.00 0.00 0.00 0.00 0.00 0.00 0.00 0.00 0.00 0.00 0.00 0.00 0.00 0.00 0.00 0.00 0.00 0.00 0.00 0.00 0.00 0.00 0.00 0.00
0.23 0.16 0.10 0.10 0.04 0.02 0.00 0.00 0.00 0.00 0.00 0.00 0.00 0.00 0.00 0.00 0.00 0.00 0.00 0.00 0.00 0.00 0.00 0.00 0.00 0.00 0.00 0.00 0.00 0.00 0.00 0.00 0.00 0.00 0.00 0.00 0.00 0.00 0.00 0.00 0.00 0.00 0.00
0.34 0.31 0.19 0.13 0.15 0.08 0.07 0.01 0.05 0.03 0.02 0.01 0.00 0.00 0.00 0.00 0.00 0.00 0.00 0.00 0.00 0.00 0.00 0.00 0.00 0.00 0.00 0.00 0.00 0.00 0.00 0.00 0.00 0.00 0.00 0.00 0.00 0.00 0.00 0.00 0.00 0.00 0.00
0.30 0.35 0.29 0.22 0.17 0.13 0.08 0.11 0.13 0.14 0.07 0.02 0.01 0.00 0.00 0.00 0.00 0.00 0.00 0.00 0.00 0.00 0.00 0.00 0.00 0.00 0.00 0.00 0.00 0.00 0.00 0.00 0.00 0.00 0.00 0.00 0.00 0.00 0.00 0.00 0.00 0.00 0.00
0.21 0.27 0.26 0.24 0.16 0.15 0.24 0.18 0.15 0.15 0.13 0.10 0.04 0.04 0.02 0.00 0.00 0.00 0.00 0.00 0.00 0.00 0.00 0.00 0.00 0.00 0.00 0.00 0.00 0.00 0.00 0.00 0.00 0.00 0.00 0.00 0.00 0.00 0.00 0.00 0.00 0.00 0.00
0.15 0.17 0.19 0.14 0.18 0.16 0.15 0.18 0.26 0.23 0.19 0.17 0.11 0.08 0.07 0.07 0.04 0.03 0.02 0.01 0.01 0.00 0.00 0.00 0.00 0.00 0.00 0.00 0.00 0.00 0.00 0.00 0.00 0.00 0.00 0.00 0.00 0.00 0.00 0.00 0.00 0.00 0.00
0.07 0.09 0.16 0.17 0.14 0.17 0.22 0.29 0.26 0.24 0.26 0.21 0.18 0.12 0.11 0.10 0.09 0.07 0.05 0.03 0.02 0.01 0.01 0.01 0.02 0.03 0.03 0.01 0.01 0.00 0.00 0.00 0.00 0.00 0.00 0.00 0.00 0.00 0.00 0.00 0.00 0.00 0.00
0.07 0.08 0.18 0.21 0.20 0.18 0.17 0.24 0.23 0.18 0.19 0.17 0.16 0.14 0.09 0.08 0.08 0.08 0.08 0.11 0.12 0.10 0.10 0.11 0.13 0.13 0.11 0.05 0.02 0.00 0.00 0.00 0.00 0.00 0.00 0.00 0.00 0.00 0.00 0.00 0.00 0.00 0.00
0.07 0.08 0.12 0.18 0.19 0.18 0.19 0.21 0.22 0.21 0.20 0.19 0.20 0.19 0.15 0.10 0.08 0.10 0.10 0.12 0.19 0.24 0.24 0.23 0.17 0.11 0.08 0.07 0.08 0.05 0.04 0.02 0.00 0.00 0.00 0.00 0.00 0.00 0.00 0.00 0.00 0.00 0.00
0.06 0.07 0.08 0.08 0.09 0.09 0.12 0.15 0.17 0.19 0.23 0.22 0.18 0.18 0.15 0.10 0.10 0.09 0.09 0.11 0.16 0.28 0.39 0.35 0.28 0.21 0.17 0.16 0.16 0.13 0.05 0.05 0.03 0.02 0.01 0.00 0.00 0.00 0.00 0.00 0.00 0.00 0.01
0.03 0.04 0.03 0.04 0.04 0.05 0.06 0.07 0.09 0.12 0.16 0.16 0.17 0.18 0.18 0.17 0.16 0.16 0.18 0.22 0.28 0.35 0.46 0.47 0.45 0.40 0.39 0.35 0.28 0.19 0.10 0.06 0.02 0.01 0.01 0.00 0.00 0.00 0.00 0.00 0.00 0.00 0.00
0.05 0.05 0.04 0.03 0.02 0.03 0.06 0.12 0.16 0.17 0.16 0.17 0.17 0.20 0.21 0.20 0.20 0.21 0.26 0.32 0.43 0.51 0.55 0.48 0.40 0.36 0.31 0.24 0.15 0.07 0.02 0.01 0.00 0.00 0.00 0.00 0.00 0.00 0.00 0.00 0.01 0.00 0.01
0.03 0.04 0.03 0.04 0.06 0.10 0.11 0.11 0.09 0.06 0.07 0.09 0.11 0.14 0.17 0.21 0.29 0.34 0.38 0.40 0.43 0.40 0.34 0.28 0.21 0.16 0.11 0.06 0.02 0.00 0.00 0.00 0.00 0.00 0.00 0.00 0.00 0.00 0.00 0.00 0.01 0.00 0.00
0.04 0.04 0.03 0.04 0.03 0.04 0.04 0.05 0.06 0.08 0.10 0.13 0.17 0.22 0.29 0.37 0.42 0.43 0.40 0.36 0.28 0.19 0.14 0.10 0.07 0.04 0.02 0.01 0.00 0.00 0.00 0.00 0.00 0.00 0.00 0.00 0.00 0.00 0.00 0.00 0.00 0.00 0.00
0.05 0.05 0.05 0.05 0.06 0.07 0.10 0.12 0.15 0.23 0.32 0.41 0.47 0.48 0.45 0.43 0.37 0.30 0.23 0.16 0.12 0.10 0.07 0.04 0.02 0.00 0.00 0.00 0.00 0.00 0.00 0.00 0.00 0.00 0.00 0.00 0.00 0.00 0.00 0.00 0.00 0.00 0.00
0.17 0.20 0.22 0.16 0.16 0.24 0.42 0.36 0.35 0.37 0.37 0.36 0.34 0.30 0.28 0.28 0.21 0.18 0.13 0.08 0.05 0.02 0.01 0.00 0.00 0.00 0.00 0.00 0.00 0.00 0.00 0.00 0.01 0.00 0.00 0.00 0.00 0.00 0.00 0.00 0.00 0.00 0.00
0.38 0.53 0.56 0.60 0.70 0.81 0.89 0.75 0.60 0.46 0.42 0.34 0.30 0.25 0.19 0.13 0.07 0.04 0.02 0.00 0.00 0.00 0.00 0.01 0.00 0.00 0.00 0.00 0.00 0.01 0.02 0.06 0.04 0.00 0.00 0.00 0.00 0.00 0.00 0.00 0.00 0.00 0.00
0.88 0.78 0.69 0.82 0.89 0.82 0.69 0.53 0.48 0.36 0.31 0.28 0.22 0.09 0.03 0.01 0.00 0.00 0.00 0.00 0.00 0.00 0.00 0.00 0.00 0.00 0.00 0.00 0.02 0.11 0.11 0.03 0.00 0.00 0.00 0.00 0.00 0.00 0.00 0.00 0.00 0.00 0.00
0.81 0.71 0.57 0.48 0.45 0.43 0.29 0.17 0.11 0.10 0.08 0.05 0.03 0.01 0.00 0.00 0.00 0.00 0.00 0.00 0.00 0.00 0.00 0.00 0.00 0.00 0.01 0.01 0.00 0.00 0.00 0.01 0.01 0.00 0.00 0.00 0.00 0.00 0.00 0.00 0.00 0.00 0.00
0.60 0.49 0.38 0.33 0.24 0.14 0.08 0.05 0.04 0.03 0.02 0.01 0.00 0.00 0.00 0.00 0.00 0.00 0.01 0.00 0.00 0.00 0.00 0.00 0.00 0.00 0.00 0.00 0.00 0.00 0.00 0.03 0.04 0.06 0.00 0.03 0.01 0.01 0.06 0.00 0.00 0.00 0.00

GFSMA_prec_precacc24_057.txt.gz
Total_Precipitation_Accumulation
0.00 0.00 0.00 0.00 0.00 0.00 0.00 0.00 0.00 0.00 0.00 0.00 0.00 0.00 0.00 0.00 0.00 0.00 0.00 0.00 0.00 0.00 0.00 0.00 0.00 0.00 0.00 0.00 0.00 0.00 0.00 0.00 0.00 0.00 0.00 0.00 0.00 0.00 0.00 0.00 0.00 0.00 0.00
0.00 0.00 0.00 0.00 0.00 0.00 0.00 0.00 0.00 0.00 0.00 0.00 0.00 0.00 0.00 0.00 0.00 0.00 0.00 0.00 0.00 0.00 0.00 0.00 0.00 0.00 0.00 0.00 0.00 0.00 0.00 0.00 0.00 0.00 0.00 0.00 0.00 0.00 0.00 0.00 0.00 0.00 0.00
0.00 0.00 0.00 0.00 0.00 0.00 0.00 0.00 0.00 0.00 0.00 0.00 0.00 0.00 0.00 0.00 0.00 0.00 0.00 0.00 0.00 0.00 0.00 0.00 0.00 0.00 0.00 0.00 0.00 0.00 0.00 0.00 0.00 0.00 0.00 0.00 0.00 0.00 0.00 0.00 0.00 0.00 0.00
0.00 0.00 0.00 0.00 0.00 0.00 0.00 0.00 0.00 0.00 0.00 0.00 0.00 0.00 0.00 0.00 0.00 0.00 0.00 0.00 0.00 0.00 0.00 0.00 0.00 0.00 0.00 0.00 0.00 0.00 0.00 0.00 0.00 0.00 0.00 0.00 0.00 0.00 0.00 0.00 0.00 0.00 0.00
0.02 0.00 0.00 0.00 0.00 0.00 0.00 0.00 0.00 0.00 0.00 0.00 0.00 0.00 0.00 0.00 0.00 0.00 0.00 0.00 0.00 0.00 0.00 0.00 0.00 0.00 0.00 0.00 0.00 0.00 0.00 0.00 0.00 0.00 0.00 0.00 0.00 0.00 0.00 0.00 0.00 0.00 0.00
0.06 0.04 0.01 0.00 0.00 0.00 0.00 0.00 0.00 0.00 0.00 0.00 0.00 0.00 0.00 0.00 0.00 0.00 0.00 0.00 0.00 0.00 0.00 0.00 0.00 0.00 0.00 0.00 0.00 0.00 0.00 0.00 0.00 0.00 0.00 0.00 0.00 0.00 0.00 0.00 0.00 0.00 0.00
0.18 0.14 0.04 0.01 0.01 0.00 0.00 0.00 0.00 0.00 0.00 0.00 0.00 0.00 0.00 0.00 0.00 0.00 0.00 0.00 0.00 0.00 0.00 0.00 0.00 0.00 0.00 0.00 0.00 0.00 0.00 0.00 0.00 0.00 0.00 0.00 0.00 0.00 0.00 0.00 0.00 0.00 0.00
0.27 0.20 0.14 0.13 0.08 0.03 0.02 0.01 0.02 0.06 0.02 0.02 0.01 0.00 0.00 0.00 0.00 0.00 0.00 0.00 0.00 0.00 0.00 0.00 0.00 0.00 0.00 0.00 0.00 0.00 0.00 0.00 0.00 0.00 0.00 0.00 0.00 0.00 0.00 0.00 0.00 0.00 0.00
0.34 0.34 0.21 0.16 0.22 0.16 0.13 0.06 0.10 0.12 0.10 0.07 0.03 0.01 0.00 0.00 0.00 0.00 0.00 0.00 0.00 0.00 0.00 0.00 0.00 0.00 0.00 0.00 0.00 0.00 0.00 0.00 0.00 0.00 0.00 0.00 0.00 0.00 0.00 0.00 0.00 0.00 0.00
0.29 0.35 0.31 0.28 0.23 0.17 0.14 0.20 0.24 0.23 0.19 0.10 0.07 0.03 0.02 0.01 0.00 0.00 0.00 0.00 0.00 0.00 0.00 0.00 0.00 0.00 0.00 0.00 0.00 0.00 0.00 0.00 0.00 0.00 0.00 0.00 0.00 0.00 0.00 0.00 0.00 0.00 0.00
0.19 0.26 0.25 0.24 0.18 0.20 0.29 0.23 0.20 0.20 0.17 0.16 0.12 0.11 0.09 0.05 0.02 0.00 0.00 0.02 0.02 0.01 0.00 0.00 0.00 0.00 0.00 0.00 0.00 0.00 0.00 0.00 0.00 0.00 0.00 0.00 0.00 0.00 0.00 0.00 0.00 0.00 0.00
0.11 0.15 0.18 0.15 0.19 0.17 0.17 0.22 0.33 0.31 0.27 0.27 0.18 0.15 0.15 0.16 0.12 0.08 0.05 0.04 0.05 0.03 0.01 0.00 0.00 0.00 0.01 0.00 0.00 0.00 0.00 0.00 0.00 0.00 0.00 0.00 0.00 0.00 0.00 0.00 0.00 0.00 0.00
0.06 0.07 0.15 0.18 0.15 0.18 0.23 0.31 0.28 0.30 0.37 0.32 0.31 0.21 0.20 0.18 0.19 0.16 0.11 0.06 0.06 0.03 0.02 0.02 0.03 0.04 0.06 0.07 0.05 0.04 0.06 0.06 0.03 0.02 0.02 0.01 0.01 0.00 0.00 0.00 0.00 0.00 0.00
0.06 0.07 0.16 0.19 0.19 0.19 0.17 0.24 0.24 0.19 0.24 0.26 0.30 0.32 0.26 0.20 0.20 0.19 0.17 0.19 0.17 0.14 0.12 0.13 0.14 0.16 0.16 0.18 0.23 0.27 0.23 0.16 0.10 0.09 0.10 0.09 0.04 0.01 0.00 0.00 0.00 0.00 0.00
0.05 0.06 0.10 0.16 0.18 0.18 0.20 0.21 0.23 0.22 0.22 0.24 0.30 0.32 0.35 0.25 0.21 0.20 0.18 0.18 0.23 0.29 0.26 0.25 0.25 0.24 0.22 0.23 0.24 0.20 0.22 0.22 0.18 0.18 0.15 0.10 0.05 0.01 0.00 0.00 0.00 0.00 0.00
0.05 0.06 0.06 0.07 0.08 0.09 0.12 0.16 0.18 0.20 0.25 0.25 0.23 0.25 0.25 0.22 0.24 0.25 0.22 0.21 0.21 0.31 0.42 0.37 0.36 0.38 0.40 0.41 0.41 0.37 0.29 0.26 0.19 0.11 0.05 0.03 0.02 0.01 0.01 0.00 0.00 0.00 0.00
0.03 0.02 0.02 0.03 0.04 0.05 0.06 0.07 0.09 0.12 0.16 0.17 0.18 0.20 0.22 0.24 0.26 0.29 0.35 0.42 0.53 0.64 0.64 0.60 0.58 0.58 0.58 0.54 0.43 0.29 0.15 0.08 0.04 0.03 0.01 0.01 0.00 0.00 0.00 0.00 0.00 0.00 0.00
0.03 0.03 0.03 0.02 0.02 0.03 0.06 0.12 0.16 0.18 0.18 0.18 0.18 0.22 0.23 0.22 0.23 0.27 0.36 0.49 0.66 0.83 0.96 0.96 0.81 0.61 0.47 0.33 0.18 0.08 0.03 0.01 0.00 0.00 0.00 0.00 0.00 0.00 0.00 0.00 0.00 0.00 0.01
0.02 0.03 0.03 0.04 0.06 0.10 0.11 0.11 0.09 0.07 0.08 0.11 0.13 0.17 0.20 0.23 0.30 0.35 0.39 0.42 0.45 0.42 0.37 0.30 0.23 0.17 0.12 0.06 0.02 0.00 0.00 0.00 0.00 0.00 0.00 0.00 0.00 0.00 0.00 0.00 0.01 0.00 0.00
0.03 0.03 0.03 0.04 0.03 0.04 0.04 0.05 0.06 0.08 0.10 0.13 0.17 0.22 0.29 0.37 0.42 0.43 0.41 0.36 0.28 0.19 0.15 0.11 0.07 0.05 0.03 0.01 0.00 0.00 0.00 0.00 0.00 0.00 0.00 0.00 0.00 0.00 0.00 0.00 0.00 0.00 0.00
0.04 0.04 0.04 0.05 0.06 0.07 0.10 0.11 0.15 0.23 0.32 0.41 0.48 0.48 0.45 0.43 0.37 0.30 0.23 0.17 0.12 0.10 0.08 0.05 0.02 0.00 0.00 0.00 0.00 0.00 0.00 0.00 0.00 0.00 0.00 0.00 0.00 0.00 0.00 0.00 0.00 0.00 0.00
0.10 0.16 0.18 0.14 0.15 0.22 0.40 0.35 0.35 0.37 0.37 0.36 0.35 0.31 0.30 0.32 0.24 0.19 0.14 0.09 0.05 0.03 0.01 0.00 0.00 0.00 0.00 0.00 0.00 0.00 0.00 0.00 0.01 0.00 0.00 0.00 0.00 0.00 0.00 0.00 0.00 0.00 0.00
0.29 0.43 0.47 0.52 0.63 0.78 0.89 0.75 0.60 0.46 0.43 0.37 0.33 0.29 0.22 0.14 0.09 0.06 0.03 0.00 0.00 0.00 0.00 0.00 0.00 0.00 0.00 0.00 0.00 0.00 0.01 0.04 0.03 0.00 0.00 0.00 0.00 0.00 0.00 0.00 0.00 0.00 0.00
0.70 0.71 0.65 0.81 0.89 0.82 0.69 0.53 0.48 0.36 0.31 0.28 0.24 0.12 0.05 0.01 0.00 0.00 0.00 0.00 0.00 0.00 0.00 0.00 0.00 0.00 0.00 0.00 0.02 0.08 0.09 0.02 0.00 0.00 0.00 0.00 0.00 0.00 0.00 0.00 0.00 0.00 0.00
0.76 0.70 0.57 0.48 0.45 0.43 0.29 0.17 0.11 0.10 0.08 0.05 0.03 0.01 0.00 0.00 0.00 0.00 0.00 0.00 0.00 0.00 0.00 0.00 0.00 0.00 0.00 0.00 0.00 0.00 0.00 0.01 0.01 0.00 0.00 0.00 0.00 0.00 0.00 0.00 0.00 0.00 0.00
0.60 0.49 0.38 0.33 0.24 0.14 0.08 0.05 0.04 0.03 0.02 0.01 0.00 0.00 0.00 0.00 0.00 0.00 0.00 0.00 0.00 0.00 0.00 0.00 0.00 0.00 0.00 0.00 0.00 0.00 0.00 0.02 0.03 0.05 0.00 0.01 0.01 0.01 0.05 0.00 0.00 0.00 0.00

GFSMA_prec_precacc24_060.txt.gz
Total_Precipitation_Accumulation
0.00 0.00 0.00 0.00 0.00 0.00 0.00 0.00 0.00 0.00 0.00 0.00 0.00 0.00 0.00 0.00 0.00 0.00 0.00 0.00 0.00 0.00 0.00 0.00 0.00 0.00 0.00 0.00 0.00 0.00 0.00 0.00 0.00 0.00 0.00 0.00 0.00 0.00 0.00 0.00 0.00 0.00 0.00
0.00 0.00 0.00 0.00 0.00 0.00 0.00 0.00 0.00 0.00 0.00 0.00 0.00 0.00 0.00 0.00 0.00 0.00 0.00 0.00 0.00 0.00 0.00 0.00 0.00 0.00 0.00 0.00 0.00 0.00 0.00 0.00 0.00 0.00 0.00 0.00 0.00 0.00 0.00 0.00 0.00 0.00 0.00
0.00 0.00 0.00 0.00 0.00 0.00 0.00 0.00 0.00 0.00 0.00 0.00 0.00 0.00 0.00 0.00 0.00 0.00 0.00 0.00 0.00 0.00 0.00 0.00 0.00 0.00 0.00 0.00 0.00 0.00 0.00 0.00 0.00 0.00 0.00 0.00 0.00 0.00 0.00 0.00 0.00 0.00 0.00
0.00 0.00 0.00 0.00 0.00 0.00 0.00 0.00 0.00 0.00 0.00 0.00 0.00 0.00 0.00 0.00 0.00 0.00 0.00 0.00 0.00 0.00 0.00 0.00 0.00 0.00 0.00 0.00 0.00 0.00 0.00 0.00 0.00 0.00 0.00 0.00 0.00 0.00 0.00 0.00 0.00 0.00 0.00
0.02 0.01 0.00 0.00 0.00 0.00 0.00 0.00 0.00 0.00 0.00 0.00 0.00 0.00 0.00 0.00 0.00 0.00 0.00 0.00 0.00 0.00 0.00 0.00 0.00 0.00 0.00 0.00 0.00 0.00 0.00 0.00 0.00 0.00 0.00 0.00 0.00 0.00 0.00 0.00 0.00 0.00 0.00
0.07 0.07 0.03 0.02 0.01 0.00 0.00 0.00 0.00 0.00 0.00 0.00 0.00 0.00 0.00 0.00 0.00 0.00 0.00 0.00 0.00 0.00 0.00 0.00 0.00 0.00 0.00 0.00 0.00 0.00 0.00 0.00 0.00 0.00 0.00 0.00 0.00 0.00 0.00 0.00 0.00 0.00 0.00
0.22 0.18 0.07 0.04 0.05 0.02 0.01 0.01 0.00 0.00 0.01 0.05 0.02 0.00 0.00 0.00 0.00 0.00 0.00 0.00 0.00 0.00 0.00 0.00 0.00 0.00 0.00 0.00 0.00 0.00 0.00 0.00 0.00 0.00 0.00 0.00 0.00 0.00 0.00 0.00 0.00 0.00 0.00
0.27 0.22 0.17 0.15 0.10 0.07 0.05 0.03 0.04 0.07 0.06 0.11 0.10 0.03 0.00 0.00 0.00 0.00 0.00 0.00 0.00 0.00 0.00 0.00 0.00 0.00 0.00 0.00 0.00 0.00 0.00 0.00 0.00 0.00 0.00 0.00 0.00 0.00 0.00 0.00 0.00 0.00 0.00
0.27 0.29 0.21 0.17 0.23 0.18 0.15 0.09 0.14 0.15 0.14 0.12 0.09 0.08 0.01 0.00 0.00 0.00 0.00 0.00 0.00 0.00 0.00 0.00 0.00 0.00 0.00 0.00 0.00 0.00 0.00 0.00 0.00 0.00 0.00 0.00 0.00 0.00 0.00 0.00 0.00 0.00 0.00
0.20 0.31 0.30 0.26 0.23 0.19 0.16 0.22 0.29 0.28 0.26 0.14 0.12 0.07 0.08 0.03 0.01 0.00 0.00 0.01 0.00 0.00 0.00 0.00 0.00 0.00 0.00 0.00 0.00 0.00 0.00 0.00 0.00 0.00 0.00 0.00 0.00 0.00 0.00 0.00 0.00 0.00 0.00
0.13 0.21 0.22 0.23 0.18 0.20 0.30 0.24 0.21 0.22 0.22 0.22 0.16 0.16 0.15 0.10 0.06 0.03 0.01 0.04 0.05 0.04 0.02 0.01 0.00 0.00 0.00 0.00 0.00 0.00 0.00 0.00 0.00 0.00 0.00 0.00 0.01 0.01 0.01 0.00 0.00 0.00 0.00
0.07 0.12 0.15 0.11 0.18 0.18 0.18 0.24 0.34 0.33 0.31 0.32 0.25 0.22 0.24 0.24 0.19 0.15 0.10 0.07 0.09 0.08 0.04 0.01 0.01 0.01 0.02 0.02 0.03 0.06 0.08 0.05 0.04 0.04 0.04 0.05 0.06 0.05 0.02 0.00 0.00 0.00 0.00
0.03 0.05 0.12 0.16 0.14 0.17 0.22 0.31 0.28 0.31 0.40 0.38 0.36 0.25 0.26 0.26 0.30 0.27 0.19 0.12 0.12 0.10 0.06 0.03 0.04 0.04 0.06 0.08 0.09 0.13 0.18 0.18 0.20 0.24 0.23 0.24 0.18 0.14 0.11 0.09 0.07 0.03 0.01
0.03 0.05 0.14 0.17 0.18 0.18 0.16 0.24 0.24 0.19 0.24 0.28 0.32 0.37 0.29 0.25 0.28 0.28 0.30 0.43 0.52 0.42 0.29 0.23 0.22 0.20 0.19 0.23 0.31 0.39 0.38 0.36 0.31 0.33 0.34 0.32 0.28 0.23 0.20 0.17 0.13 0.08 0.04
0.02 0.03 0.07 0.15 0.17 0.17 0.19 0.21 0.22 0.22 0.22 0.25 0.30 0.32 0.36 0.26 0.24 0.24 0.27 0.38 0.54 0.64 0.51 0.44 0.42 0.35 0.27 0.28 0.29 0.28 0.34 0.41 0.41 0.40 0.36 0.32 0.29 0.23 0.16 0.09 0.05 0.03 0.01
0.02 0.03 0.05 0.06 0.07 0.08 0.11 0.15 0.17 0.20 0.25 0.25 0.23 0.25 0.26 0.23 0.25 0.28 0.29 0.41 0.57 0.72 0.79 0.60 0.53 0.50 0.49 0.49 0.51 0.48 0.44 0.46 0.38 0.27 0.18 0.15 0.12 0.06 0.03 0.02 0.02 0.01 0.00
0.02 0.02 0.02 0.02 0.03 0.03 0.04 0.05 0.06 0.11 0.16 0.17 0.18 0.20 0.23 0.24 0.27 0.30 0.38 0.47 0.60 0.73 0.87 0.85 0.81 0.78 0.75 0.70 0.64 0.49 0.35 0.20 0.10 0.07 0.04 0.03 0.03 0.03 0.02 0.01 0.00 0.00 0.00
0.03 0.03 0.02 0.01 0.01 0.01 0.01 0.04 0.10 0.17 0.18 0.18 0.19 0.23 0.24 0.23 0.24 0.28 0.37 0.49 0.67 0.85 1.01 1.06 1.03 0.94 0.77 0.57 0.37 0.18 0.07 0.02 0.00 0.02 0.03 0.02 0.02 0.01 0.00 0.00 0.00 0.00 0.00
0.02 0.02 0.02 0.02 0.02 0.03 0.03 0.07 0.07 0.07 0.08 0.11 0.14 0.17 0.21 0.24 0.31 0.36 0.39 0.42 0.45 0.43 0.38 0.32 0.26 0.21 0.17 0.12 0.05 0.02 0.01 0.00 0.00 0.01 0.01 0.00 0.00 0.00 0.00 0.00 0.01 0.00 0.00
0.02 0.02 0.01 0.01 0.02 0.02 0.03 0.04 0.06 0.08 0.10 0.13 0.16 0.22 0.29 0.37 0.42 0.43 0.41 0.36 0.28 0.20 0.15 0.11 0.08 0.06 0.04 0.02 0.01 0.00 0.00 0.00 0.00 0.00 0.00 0.00 0.00 0.00 0.00 0.00 0.00 0.00 0.00
0.03 0.04 0.03 0.02 0.01 0.02 0.06 0.10 0.12 0.18 0.26 0.36 0.46 0.48 0.46 0.43 0.38 0.30 0.23 0.17 0.12 0.11 0.08 0.05 0.02 0.01 0.01 0.00 0.00 0.00 0.00 0.00 0.00 0.00 0.00 0.00 0.00 0.00 0.00 0.00 0.00 0.00 0.00
0.08 0.10 0.10 0.07 0.09 0.16 0.31 0.24 0.25 0.31 0.35 0.36 0.35 0.31 0.30 0.33 0.25 0.20 0.15 0.09 0.06 0.03 0.01 0.00 0.00 0.00 0.00 0.00 0.00 0.00 0.00 0.00 0.01 0.00 0.00 0.00 0.00 0.00 0.00 0.00 0.00 0.00 0.00
0.22 0.31 0.31 0.30 0.41 0.58 0.74 0.69 0.59 0.46 0.43 0.37 0.33 0.29 0.22 0.14 0.09 0.06 0.03 0.01 0.00 0.00 0.00 0.00 0.00 0.00 0.00 0.00 0.00 0.00 0.00 0.02 0.02 0.00 0.00 0.00 0.00 0.00 0.00 0.00 0.00 0.00 0.00
0.49 0.43 0.33 0.55 0.74 0.77 0.69 0.53 0.48 0.36 0.31 0.28 0.24 0.12 0.05 0.01 0.00 0.00 0.00 0.00 0.00 0.00 0.00 0.00 0.00 0.00 0.00 0.00 0.01 0.04 0.06 0.02 0.00 0.00 0.00 0.00 0.00 0.00 0.00 0.00 0.00 0.00 0.00
0.57 0.56 0.50 0.45 0.43 0.41 0.28 0.17 0.11 0.10 0.08 0.05 0.03 0.01 0.00 0.00 0.00 0.00 0.00 0.00 0.00 0.00 0.00 0.00 0.00 0.00 0.00 0.00 0.00 0.00 0.00 0.00 0.01 0.00 0.00 0.00 0.00 0.00 0.00 0.00 0.00 0.00 0.00
0.56 0.47 0.38 0.33 0.24 0.14 0.08 0.05 0.04 0.03 0.02 0.01 0.00 0.00 0.00 0.00 0.00 0.00 0.00 0.00 0.00 0.00 0.00 0.00 0.00 0.00 0.00 0.00 0.00 0.00 0.00 0.01 0.02 0.03 0.00 0.01 0.00 0.01 0.03 0.00 0.00 0.00 0.00

GFSMA_prec_precacc24_063.txt.gz
Total_Precipitation_Accumulation
0.00 0.00 0.00 0.00 0.00 0.00 0.00 0.00 0.00 0.00 0.00 0.00 0.00 0.00 0.00 0.00 0.00 0.00 0.00 0.00 0.00 0.00 0.00 0.00 0.00 0.00 0.00 0.00 0.00 0.00 0.00 0.00 0.00 0.00 0.00 0.00 0.00 0.00 0.00 0.00 0.00 0.00 0.00
0.00 0.00 0.00 0.00 0.00 0.00 0.00 0.00 0.00 0.00 0.00 0.00 0.00 0.00 0.00 0.00 0.00 0.00 0.00 0.00 0.00 0.00 0.00 0.00 0.00 0.00 0.00 0.00 0.00 0.00 0.00 0.00 0.00 0.00 0.00 0.00 0.00 0.00 0.00 0.00 0.00 0.00 0.00
0.00 0.00 0.00 0.00 0.00 0.00 0.00 0.00 0.00 0.00 0.00 0.00 0.00 0.00 0.00 0.00 0.00 0.00 0.00 0.00 0.00 0.00 0.00 0.00 0.00 0.00 0.00 0.00 0.00 0.00 0.00 0.00 0.00 0.00 0.00 0.00 0.00 0.00 0.00 0.00 0.00 0.00 0.00
0.00 0.00 0.00 0.00 0.00 0.00 0.00 0.00 0.00 0.00 0.00 0.00 0.00 0.00 0.00 0.00 0.00 0.00 0.00 0.00 0.00 0.00 0.00 0.00 0.00 0.00 0.00 0.00 0.00 0.00 0.00 0.00 0.00 0.00 0.00 0.00 0.00 0.00 0.00 0.00 0.00 0.00 0.00
0.02 0.01 0.00 0.00 0.00 0.00 0.00 0.00 0.00 0.00 0.00 0.00 0.00 0.00 0.00 0.00 0.00 0.00 0.00 0.00 0.00 0.00 0.00 0.00 0.00 0.00 0.00 0.00 0.00 0.00 0.00 0.00 0.00 0.00 0.00 0.00 0.00 0.00 0.00 0.00 0.00 0.00 0.00
0.07 0.07 0.03 0.02 0.01 0.00 0.00 0.00 0.00 0.00 0.00 0.00 0.00 0.00 0.00 0.00 0.00 0.00 0.00 0.00 0.00 0.00 0.00 0.00 0.00 0.00 0.00 0.00 0.00 0.00 0.00 0.00 0.00 0.00 0.00 0.00 0.00 0.00 0.00 0.00 0.00 0.00 0.00
0.19 0.18 0.09 0.07 0.07 0.04 0.03 0.01 0.00 0.00 0.01 0.05 0.03 0.00 0.00 0.00 0.00 0.00 0.00 0.00 0.00 0.00 0.00 0.00 0.00 0.00 0.00 0.00 0.00 0.00 0.00 0.00 0.00 0.00 0.00 0.00 0.00 0.00 0.00 0.00 0.00 0.00 0.00
0.19 0.18 0.18 0.16 0.10 0.07 0.06 0.04 0.05 0.08 0.07 0.14 0.14 0.05 0.00 0.00 0.00 0.00 0.00 0.00 0.00 0.00 0.00 0.00 0.00 0.00 0.00 0.00 0.00 0.00 0.00 0.00 0.00 0.00 0.00 0.00 0.00 0.00 0.00 0.00 0.00 0.00 0.00
0.17 0.19 0.17 0.17 0.23 0.18 0.15 0.09 0.14 0.16 0.16 0.14 0.12 0.13 0.03 0.00 0.00 0.00 0.00 0.00 0.00 0.00 0.00 0.01 0.01 0.01 0.01 0.00 0.00 0.00 0.00 0.00 0.00 0.00 0.00 0.00 0.00 0.00 0.00 0.00 0.00 0.00 0.00
0.11 0.20 0.23 0.23 0.20 0.18 0.15 0.21 0.29 0.28 0.26 0.15 0.14 0.09 0.11 0.05 0.03 0.01 0.00 0.01 0.01 0.01 0.02 0.03 0.03 0.02 0.01 0.00 0.00 0.00 0.00 0.00 0.00 0.00 0.00 0.00 0.00 0.00 0.00 0.00 0.00 0.00 0.00
0.08 0.14 0.16 0.19 0.13 0.14 0.25 0.22 0.21 0.22 0.22 0.23 0.16 0.17 0.16 0.11 0.08 0.04 0.02 0.04 0.05 0.06 0.05 0.04 0.02 0.01 0.01 0.01 0.03 0.02 0.02 0.02 0.02 0.01 0.00 0.00 0.01 0.02 0.03 0.04 0.04 0.02 0.01
0.04 0.08 0.10 0.07 0.14 0.13 0.14 0.21 0.34 0.34 0.32 0.33 0.26 0.23 0.26 0.26 0.21 0.18 0.13 0.09 0.11 0.11 0.08 0.05 0.03 0.02 0.02 0.04 0.09 0.16 0.18 0.16 0.19 0.24 0.22 0.19 0.20 0.19 0.15 0.14 0.15 0.16 0.14
0.02 0.04 0.09 0.12 0.10 0.14 0.20 0.29 0.27 0.31 0.40 0.38 0.36 0.26 0.27 0.27 0.32 0.30 0.24 0.15 0.14 0.11 0.08 0.06 0.06 0.07 0.09 0.11 0.15 0.26 0.35 0.41 0.47 0.53 0.54 0.54 0.47 0.36 0.31 0.27 0.25 0.22 0.20
0.00 0.03 0.11 0.14 0.15 0.15 0.14 0.22 0.22 0.18 0.24 0.28 0.32 0.37 0.30 0.26 0.28 0.29 0.33 0.48 0.56 0.43 0.30 0.25 0.25 0.28 0.32 0.37 0.48 0.60 0.60 0.65 0.62 0.68 0.69 0.64 0.50 0.37 0.31 0.28 0.25 0.23 0.23
0.00 0.01 0.05 0.12 0.14 0.15 0.17 0.20 0.21 0.21 0.22 0.25 0.30 0.32 0.36 0.26 0.25 0.25 0.28 0.39 0.58 0.69 0.53 0.46 0.48 0.48 0.46 0.46 0.50 0.53 0.57 0.68 0.65 0.57 0.53 0.51 0.44 0.35 0.27 0.20 0.14 0.12 0.10
0.00 0.01 0.02 0.03 0.05 0.07 0.11 0.15 0.17 0.19 0.24 0.24 0.23 0.25 0.26 0.23 0.25 0.28 0.31 0.43 0.59 0.75 0.81 0.61 0.54 0.55 0.60 0.66 0.73 0.68 0.66 0.73 0.63 0.52 0.40 0.30 0.20 0.12 0.08 0.06 0.05 0.04 0.04
0.00 0.00 0.00 0.01 0.03 0.03 0.04 0.05 0.06 0.08 0.12 0.14 0.16 0.19 0.22 0.24 0.28 0.31 0.38 0.48 0.60 0.74 0.88 0.86 0.81 0.79 0.80 0.79 0.71 0.56 0.49 0.36 0.24 0.18 0.13 0.08 0.06 0.06 0.05 0.04 0.04 0.03 0.01
0.00 0.01 0.01 0.01 0.01 0.01 0.01 0.03 0.04 0.05 0.07 0.10 0.12 0.17 0.24 0.23 0.24 0.28 0.38 0.50 0.67 0.85 1.02 1.06 1.03 0.94 0.79 0.61 0.41 0.25 0.15 0.08 0.04 0.07 0.06 0.04 0.05 0.04 0.02 0.02 0.01 0.00 0.00
0.00 0.01 0.02 0.02 0.02 0.03 0.03 0.04 0.04 0.04 0.06 0.09 0.12 0.17 0.21 0.24 0.31 0.36 0.39 0.42 0.45 0.43 0.38 0.32 0.26 0.22 0.20 0.15 0.08 0.05 0.02 0.02 0.02 0.03 0.03 0.02 0.02 0.01 0.00 0.00 0.00 0.00 0.00
0.01 0.02 0.01 0.01 0.01 0.02 0.02 0.03 0.03 0.05 0.08 0.11 0.15 0.20 0.26 0.35 0.41 0.43 0.40 0.36 0.28 0.20 0.15 0.11 0.08 0.06 0.04 0.02 0.01 0.01 0.01 0.01 0.00 0.00 0.00 0.00 0.00 0.00 0.00 0.00 0.00 0.00 0.00
0.03 0.04 0.03 0.02 0.01 0.01 0.03 0.04 0.04 0.07 0.11 0.19 0.30 0.38 0.42 0.42 0.38 0.30 0.23 0.17 0.12 0.11 0.08 0.05 0.02 0.01 0.01 0.01 0.01 0.00 0.01 0.00 0.00 0.00 0.00 0.00 0.00 0.00 0.00 0.00 0.00 0.00 0.00
0.08 0.10 0.10 0.06 0.07 0.14 0.22 0.11 0.07 0.10 0.17 0.23 0.28 0.28 0.30 0.33 0.25 0.21 0.15 0.09 0.06 0.03 0.01 0.00 0.00 0.00 0.00 0.00 0.00 0.00 0.00 0.00 0.01 0.00 0.00 0.00 0.00 0.00 0.00 0.00 0.00 0.00 0.00
0.20 0.30 0.29 0.24 0.27 0.37 0.48 0.42 0.41 0.38 0.39 0.35 0.32 0.29 0.21 0.14 0.09 0.06 0.03 0.01 0.00 0.00 0.00 0.00 0.00 0.00 0.00 0.00 0.00 0.00 0.00 0.01 0.01 0.00 0.00 0.00 0.00 0.00 0.00 0.00 0.00 0.00 0.00
0.40 0.34 0.22 0.40 0.53 0.54 0.51 0.42 0.43 0.33 0.29 0.27 0.24 0.12 0.05 0.01 0.00 0.00 0.00 0.00 0.00 0.00 0.00 0.00 0.00 0.00 0.00 0.00 0.00 0.01 0.03 0.01 0.00 0.00 0.00 0.00 0.00 0.00 0.00 0.00 0.00 0.00 0.00
0.30 0.33 0.29 0.32 0.37 0.40 0.27 0.17 0.11 0.10 0.08 0.05 0.03 0.01 0.00 0.00 0.00 0.00 0.00 0.00 0.00 0.00 0.00 0.00 0.00 0.00 0.00 0.00 0.00 0.00 0.00 0.00 0.00 0.00 0.00 0.00 0.00 0.00 0.00 0.00 0.00 0.00 0.00
0.42 0.39 0.34 0.32 0.24 0.14 0.08 0.05 0.04 0.03 0.02 0.01 0.00 0.00 0.00 0.00 0.00 0.00 0.00 0.00 0.00 0.00 0.00 0.00 0.00 0.00 0.00 0.00 0.00 0.00 0.00 0.00 0.02 0.02 0.00 0.01 0.00 0.01 0.03 0.00 0.00 0.00 0.00

GFSMA_prec_precacc24_069.txt.gz
Total_Precipitation_Accumulation
0.00 0.00 0.00 0.00 0.00 0.00 0.00 0.00 0.00 0.00 0.00 0.00 0.00 0.00 0.00 0.00 0.00 0.00 0.00 0.00 0.00 0.00 0.00 0.00 0.00 0.00 0.00 0.00 0.00 0.00 0.00 0.00 0.00 0.00 0.00 0.00 0.00 0.00 0.00 0.00 0.00 0.00 0.00
0.00 0.00 0.00 0.00 0.00 0.00 0.00 0.00 0.00 0.00 0.00 0.00 0.00 0.00 0.00 0.00 0.00 0.00 0.00 0.00 0.00 0.00 0.00 0.00 0.00 0.00 0.00 0.00 0.00 0.00 0.00 0.00 0.00 0.00 0.00 0.00 0.00 0.00 0.00 0.00 0.00 0.00 0.00
0.00 0.00 0.00 0.00 0.00 0.00 0.00 0.00 0.00 0.00 0.00 0.00 0.00 0.00 0.00 0.00 0.00 0.00 0.00 0.00 0.00 0.00 0.00 0.00 0.00 0.00 0.00 0.00 0.00 0.00 0.00 0.00 0.00 0.00 0.00 0.00 0.00 0.00 0.00 0.00 0.00 0.00 0.00
0.00 0.00 0.00 0.00 0.00 0.00 0.00 0.00 0.00 0.00 0.00 0.00 0.00 0.00 0.00 0.00 0.00 0.00 0.00 0.00 0.00 0.00 0.00 0.00 0.00 0.00 0.00 0.00 0.00 0.00 0.00 0.00 0.00 0.00 0.00 0.00 0.00 0.00 0.00 0.00 0.00 0.00 0.00
0.02 0.01 0.00 0.00 0.00 0.00 0.00 0.00 0.00 0.00 0.00 0.00 0.00 0.00 0.00 0.00 0.00 0.00 0.00 0.00 0.00 0.00 0.00 0.00 0.00 0.00 0.00 0.00 0.00 0.00 0.00 0.00 0.00 0.00 0.00 0.00 0.00 0.00 0.00 0.00 0.00 0.00 0.00
0.06 0.07 0.03 0.02 0.01 0.00 0.00 0.00 0.00 0.00 0.00 0.00 0.00 0.00 0.00 0.00 0.00 0.00 0.00 0.00 0.01 0.01 0.00 0.01 0.00 0.00 0.00 0.00 0.00 0.00 0.00 0.00 0.00 0.00 0.00 0.00 0.00 0.00 0.00 0.00 0.00 0.00 0.00
0.13 0.16 0.09 0.07 0.08 0.04 0.04 0.02 0.01 0.00 0.01 0.05 0.03 0.00 0.00 0.00 0.00 0.00 0.00 0.01 0.01 0.02 0.01 0.01 0.01 0.01 0.00 0.00 0.00 0.00 0.00 0.00 0.01 0.00 0.00 0.00 0.00 0.00 0.00 0.00 0.00 0.00 0.00
0.13 0.12 0.15 0.14 0.11 0.08 0.06 0.04 0.05 0.08 0.07 0.14 0.14 0.05 0.00 0.00 0.00 0.00 0.00 0.00 0.00 0.00 0.01 0.01 0.01 0.01 0.01 0.00 0.00 0.00 0.00 0.00 0.01 0.03 0.02 0.00 0.00 0.00 0.00 0.00 0.00 0.00 0.00
0.08 0.06 0.10 0.12 0.18 0.16 0.14 0.09 0.14 0.16 0.16 0.14 0.12 0.15 0.03 0.00 0.00 0.00 0.00 0.00 0.00 0.00 0.00 0.02 0.02 0.02 0.01 0.01 0.00 0.00 0.00 0.00 0.00 0.02 0.08 0.08 0.03 0.00 0.00 0.00 0.00 0.00 0.00
0.01 0.07 0.12 0.14 0.12 0.12 0.12 0.16 0.24 0.23 0.24 0.15 0.14 0.10 0.11 0.05 0.03 0.01 0.00 0.01 0.01 0.01 0.02 0.03 0.03 0.03 0.02 0.01 0.01 0.00 0.01 0.02 0.04 0.07 0.12 0.24 0.35 0.13 0.02 0.01 0.01 0.01 0.02
0.00 0.02 0.04 0.09 0.08 0.09 0.17 0.14 0.15 0.18 0.20 0.22 0.16 0.18 0.16 0.11 0.08 0.05 0.02 0.04 0.06 0.06 0.05 0.04 0.02 0.01 0.01 0.01 0.03 0.06 0.11 0.16 0.19 0.23 0.27 0.38 0.62 0.60 0.24 0.11 0.10 0.10 0.11
0.00 0.02 0.04 0.03 0.06 0.09 0.09 0.13 0.26 0.28 0.28 0.30 0.25 0.23 0.26 0.27 0.22 0.18 0.13 0.09 0.11 0.11 0.08 0.05 0.03 0.02 0.03 0.04 0.09 0.18 0.26 0.34 0.42 0.55 0.68 0.75 0.81 0.90 0.80 0.63 0.53 0.46 0.38
0.01 0.01 0.04 0.06 0.05 0.06 0.10 0.17 0.18 0.24 0.34 0.34 0.34 0.26 0.27 0.28 0.33 0.31 0.25 0.15 0.13 0.11 0.08 0.06 0.06 0.07 0.09 0.11 0.16 0.27 0.42 0.57 0.66 0.77 0.92 1.08 1.05 0.77 0.67 0.68 0.68 0.61 0.52
0.00 0.01 0.05 0.06 0.06 0.06 0.06 0.08 0.10 0.12 0.20 0.25 0.32 0.37 0.30 0.26 0.29 0.29 0.32 0.46 0.53 0.42 0.30 0.25 0.25 0.28 0.32 0.37 0.48 0.60 0.61 0.69 0.73 0.85 0.99 1.08 1.09 0.80 0.50 0.47 0.54 0.56 0.55
0.00 0.00 0.01 0.04 0.04 0.04 0.06 0.09 0.11 0.13 0.17 0.22 0.28 0.31 0.35 0.24 0.23 0.24 0.26 0.38 0.58 0.70 0.54 0.46 0.48 0.48 0.46 0.46 0.50 0.53 0.58 0.74 0.82 0.82 0.84 0.91 1.03 0.99 0.60 0.45 0.38 0.35 0.33
0.00 0.00 0.00 0.00 0.01 0.02 0.04 0.08 0.11 0.14 0.20 0.22 0.22 0.24 0.25 0.21 0.22 0.26 0.29 0.42 0.58 0.75 0.81 0.61 0.54 0.55 0.59 0.65 0.73 0.68 0.67 0.78 0.79 0.80 0.75 0.68 0.66 0.53 0.38 0.35 0.29 0.20 0.16
0.00 0.00 0.00 0.00 0.00 0.00 0.01 0.03 0.04 0.07 0.10 0.13 0.15 0.17 0.18 0.19 0.23 0.26 0.33 0.43 0.55 0.69 0.83 0.82 0.78 0.76 0.77 0.78 0.72 0.57 0.50 0.39 0.36 0.39 0.36 0.29 0.23 0.21 0.19 0.16 0.14 0.12 0.09
0.00 0.00 0.00 0.00 0.00 0.00 0.01 0.03 0.04 0.05 0.06 0.07 0.08 0.10 0.11 0.09 0.11 0.16 0.29 0.42 0.58 0.75 0.93 1.02 1.02 0.92 0.77 0.59 0.43 0.26 0.16 0.09 0.06 0.12 0.10 0.07 0.08 0.09 0.07 0.05 0.05 0.03 0.01
0.00 0.01 0.01 0.01 0.02 0.02 0.02 0.04 0.03 0.03 0.04 0.05 0.07 0.09 0.12 0.14 0.17 0.18 0.20 0.25 0.31 0.33 0.33 0.30 0.25 0.21 0.19 0.15 0.09 0.05 0.03 0.02 0.02 0.05 0.05 0.03 0.03 0.02 0.01 0.01 0.00 0.00 0.00
0.00 0.01 0.01 0.01 0.01 0.01 0.01 0.01 0.01 0.01 0.01 0.03 0.04 0.05 0.08 0.11 0.14 0.17 0.21 0.23 0.20 0.16 0.13 0.10 0.08 0.06 0.04 0.02 0.01 0.01 0.02 0.01 0.01 0.00 0.01 0.00 0.00 0.00 0.00 0.00 0.00 0.00 0.00
0.02 0.03 0.03 0.01 0.00 0.00 0.01 0.01 0.00 0.00 0.01 0.03 0.05 0.07 0.10 0.16 0.18 0.17 0.15 0.12 0.10 0.09 0.07 0.05 0.02 0.01 0.01 0.01 0.01 0.01 0.01 0.00 0.00 0.00 0.00 0.00 0.00 0.00 0.00 0.00 0.00 0.00 0.00
0.05 0.07 0.09 0.06 0.06 0.12 0.14 0.05 0.02 0.03 0.05 0.07 0.10 0.13 0.18 0.23 0.17 0.14 0.10 0.07 0.04 0.02 0.01 0.00 0.00 0.00 0.00 0.00 0.00 0.00 0.00 0.00 0.00 0.00 0.00 0.00 0.00 0.00 0.00 0.00 0.00 0.00 0.00
0.17 0.23 0.18 0.17 0.22 0.29 0.33 0.29 0.25 0.20 0.19 0.17 0.17 0.16 0.11 0.08 0.05 0.04 0.02 0.01 0.00 0.00 0.00 0.00 0.00 0.00 0.00 0.00 0.00 0.00 0.00 0.00 0.00 0.00 0.00 0.00 0.00 0.00 0.00 0.00 0.00 0.00 0.00
0.28 0.24 0.08 0.15 0.40 0.36 0.27 0.23 0.29 0.24 0.21 0.19 0.16 0.07 0.02 0.01 0.00 0.00 0.00 0.00 0.00 0.00 0.00 0.00 0.00 0.00 0.00 0.00 0.00 0.00 0.00 0.00 0.00 0.00 0.00 0.00 0.00 0.00 0.00 0.00 0.00 0.00 0.00
0.05 0.06 0.07 0.07 0.09 0.15 0.12 0.09 0.04 0.02 0.01 0.00 0.00 0.00 0.00 0.00 0.00 0.00 0.00 0.00 0.00 0.00 0.00 0.00 0.00 0.00 0.00 0.00 0.00 0.00 0.00 0.00 0.00 0.00 0.00 0.00 0.00 0.00 0.00 0.00 0.00 0.00 0.00
0.16 0.11 0.06 0.10 0.09 0.04 0.01 0.01 0.01 0.00 0.00 0.00 0.00 0.00 0.00 0.00 0.00 0.00 0.00 0.00 0.00 0.00 0.00 0.00 0.00 0.00 0.00 0.00 0.00 0.00 0.00 0.00 0.00 0.01 0.00 0.00 0.00 0.00 0.02 0.00 0.00 0.00 0.00

GFSMA_prec_precacc24_072.txt.gz
Total_Precipitation_Accumulation
0.00 0.00 0.00 0.00 0.00 0.00 0.00 0.00 0.00 0.00 0.00 0.00 0.00 0.00 0.00 0.00 0.00 0.00 0.00 0.00 0.00 0.00 0.00 0.00 0.00 0.00 0.00 0.00 0.00 0.00 0.00 0.00 0.00 0.00 0.00 0.00 0.00 0.00 0.00 0.00 0.00 0.00 0.00
0.00 0.00 0.00 0.00 0.00 0.00 0.00 0.00 0.00 0.00 0.00 0.00 0.00 0.00 0.00 0.00 0.00 0.00 0.00 0.00 0.00 0.00 0.00 0.00 0.00 0.00 0.00 0.00 0.00 0.00 0.00 0.00 0.00 0.00 0.00 0.00 0.00 0.00 0.00 0.00 0.00 0.00 0.00
0.00 0.00 0.00 0.00 0.00 0.00 0.00 0.00 0.00 0.00 0.00 0.00 0.00 0.00 0.00 0.00 0.00 0.00 0.00 0.00 0.00 0.00 0.00 0.00 0.00 0.00 0.00 0.00 0.00 0.00 0.00 0.00 0.00 0.00 0.00 0.00 0.00 0.00 0.00 0.00 0.00 0.00 0.00
0.00 0.00 0.00 0.00 0.00 0.00 0.00 0.00 0.00 0.00 0.00 0.00 0.00 0.00 0.00 0.00 0.00 0.00 0.00 0.00 0.00 0.00 0.00 0.00 0.00 0.00 0.00 0.00 0.00 0.00 0.00 0.00 0.00 0.00 0.00 0.00 0.00 0.00 0.00 0.00 0.00 0.00 0.00
0.01 0.01 0.00 0.00 0.00 0.00 0.00 0.00 0.00 0.00 0.00 0.00 0.00 0.00 0.00 0.00 0.00 0.00 0.00 0.00 0.00 0.00 0.00 0.00 0.00 0.00 0.00 0.00 0.00 0.00 0.01 0.00 0.00 0.00 0.00 0.00 0.00 0.00 0.00 0.00 0.00 0.00 0.00
0.02 0.05 0.03 0.02 0.01 0.00 0.00 0.00 0.00 0.00 0.00 0.00 0.00 0.00 0.00 0.00 0.00 0.00 0.00 0.00 0.01 0.01 0.00 0.01 0.00 0.00 0.00 0.00 0.00 0.00 0.01 0.02 0.01 0.00 0.00 0.00 0.00 0.00 0.00 0.00 0.00 0.00 0.00
0.12 0.13 0.08 0.07 0.08 0.04 0.04 0.02 0.01 0.00 0.01 0.05 0.03 0.00 0.00 0.00 0.00 0.00 0.00 0.01 0.01 0.02 0.01 0.01 0.01 0.01 0.00 0.00 0.00 0.00 0.00 0.01 0.04 0.04 0.00 0.00 0.00 0.00 0.00 0.00 0.00 0.00 0.00
0.12 0.12 0.14 0.12 0.10 0.08 0.06 0.04 0.05 0.08 0.07 0.14 0.14 0.05 0.00 0.00 0.00 0.00 0.00 0.00 0.00 0.00 0.01 0.01 0.01 0.01 0.01 0.00 0.00 0.00 0.00 0.01 0.03 0.08 0.09 0.04 0.01 0.00 0.00 0.00 0.00 0.00 0.00
0.07 0.05 0.05 0.07 0.14 0.15 0.14 0.10 0.15 0.17 0.16 0.14 0.12 0.15 0.04 0.00 0.00 0.00 0.00 0.00 0.00 0.00 0.00 0.02 0.02 0.02 0.01 0.01 0.00 0.00 0.00 0.01 0.04 0.07 0.14 0.20 0.10 0.03 0.01 0.00 0.00 0.01 0.01
0.01 0.04 0.08 0.10 0.08 0.08 0.11 0.16 0.24 0.23 0.24 0.15 0.14 0.10 0.12 0.05 0.04 0.02 0.00 0.01 0.01 0.01 0.02 0.03 0.03 0.03 0.02 0.01 0.01 0.00 0.01 0.02 0.04 0.10 0.18 0.32 0.51 0.39 0.13 0.06 0.03 0.02 0.02
0.00 0.01 0.01 0.05 0.07 0.08 0.11 0.11 0.14 0.16 0.18 0.22 0.16 0.18 0.16 0.11 0.08 0.05 0.03 0.04 0.06 0.06 0.05 0.04 0.02 0.01 0.01 0.01 0.03 0.06 0.11 0.16 0.19 0.23 0.30 0.44 0.77 0.91 0.66 0.36 0.22 0.14 0.16
0.00 0.01 0.02 0.02 0.02 0.06 0.06 0.11 0.18 0.22 0.23 0.27 0.23 0.23 0.26 0.27 0.22 0.18 0.13 0.09 0.11 0.11 0.08 0.05 0.03 0.02 0.03 0.04 0.09 0.18 0.26 0.34 0.42 0.55 0.68 0.78 0.92 1.10 1.09 0.83 0.63 0.51 0.44
0.01 0.01 0.04 0.05 0.03 0.02 0.04 0.06 0.09 0.16 0.29 0.30 0.32 0.24 0.26 0.28 0.33 0.31 0.26 0.16 0.14 0.11 0.08 0.06 0.06 0.07 0.09 0.11 0.16 0.27 0.42 0.57 0.66 0.77 0.92 1.09 1.11 0.92 0.84 0.89 0.81 0.72 0.65
0.00 0.01 0.04 0.04 0.04 0.03 0.03 0.03 0.04 0.05 0.14 0.20 0.29 0.36 0.30 0.26 0.29 0.29 0.32 0.45 0.53 0.41 0.28 0.23 0.24 0.28 0.32 0.37 0.48 0.60 0.61 0.69 0.73 0.85 0.99 1.09 1.10 0.89 0.74 0.72 0.85 0.83 0.82
0.00 0.00 0.01 0.04 0.03 0.02 0.04 0.07 0.07 0.07 0.10 0.15 0.23 0.28 0.34 0.24 0.22 0.23 0.26 0.38 0.58 0.69 0.53 0.44 0.47 0.48 0.46 0.46 0.50 0.53 0.58 0.74 0.82 0.82 0.84 0.93 1.03 1.09 0.86 0.86 0.77 0.58 0.52
0.00 0.00 0.00 0.00 0.00 0.01 0.03 0.07 0.09 0.10 0.14 0.16 0.16 0.21 0.23 0.20 0.22 0.25 0.28 0.41 0.58 0.73 0.78 0.58 0.51 0.52 0.58 0.63 0.70 0.65 0.67 0.79 0.79 0.81 0.76 0.69 0.67 0.57 0.42 0.40 0.39 0.31 0.21
0.00 0.00 0.00 0.00 0.00 0.00 0.01 0.02 0.04 0.06 0.09 0.11 0.12 0.15 0.15 0.16 0.19 0.22 0.31 0.42 0.53 0.64 0.75 0.75 0.72 0.69 0.71 0.73 0.68 0.55 0.49 0.39 0.36 0.39 0.36 0.30 0.23 0.23 0.21 0.20 0.18 0.16 0.12
0.00 0.00 0.00 0.00 0.00 0.00 0.01 0.02 0.04 0.05 0.06 0.07 0.07 0.08 0.09 0.07 0.10 0.14 0.23 0.34 0.48 0.64 0.81 0.91 0.92 0.83 0.70 0.55 0.40 0.25 0.16 0.09 0.06 0.12 0.10 0.08 0.08 0.09 0.07 0.06 0.05 0.04 0.02
0.00 0.00 0.01 0.01 0.02 0.02 0.02 0.04 0.03 0.03 0.03 0.05 0.06 0.07 0.07 0.06 0.06 0.05 0.07 0.13 0.15 0.18 0.23 0.22 0.20 0.18 0.18 0.15 0.08 0.05 0.03 0.02 0.02 0.05 0.05 0.03 0.03 0.02 0.01 0.01 0.00 0.00 0.00
0.00 0.00 0.00 0.00 0.01 0.01 0.01 0.01 0.01 0.01 0.01 0.02 0.02 0.03 0.02 0.03 0.04 0.04 0.05 0.05 0.06 0.08 0.08 0.07 0.07 0.06 0.03 0.02 0.01 0.01 0.02 0.01 0.01 0.00 0.01 0.00 0.00 0.00 0.00 0.00 0.00 0.00 0.00
0.00 0.00 0.01 0.01 0.00 0.00 0.01 0.00 0.00 0.00 0.00 0.01 0.02 0.02 0.03 0.06 0.07 0.06 0.05 0.04 0.04 0.05 0.04 0.03 0.01 0.01 0.01 0.01 0.01 0.01 0.01 0.00 0.00 0.00 0.00 0.00 0.00 0.00 0.00 0.00 0.00 0.00 0.00
0.00 0.02 0.06 0.03 0.04 0.10 0.12 0.04 0.01 0.02 0.02 0.02 0.03 0.05 0.09 0.14 0.12 0.11 0.09 0.06 0.04 0.02 0.01 0.00 0.00 0.00 0.00 0.00 0.00 0.00 0.00 0.00 0.00 0.00 0.00 0.00 0.00 0.00 0.00 0.00 0.00 0.00 0.00
0.09 0.19 0.14 0.12 0.17 0.24 0.27 0.25 0.20 0.16 0.16 0.14 0.12 0.11 0.08 0.05 0.04 0.03 0.02 0.00 0.00 0.00 0.00 0.00 0.00 0.00 0.00 0.00 0.00 0.00 0.00 0.00 0.00 0.00 0.00 0.00 0.00 0.00 0.00 0.00 0.00 0.00 0.00
0.07 0.19 0.06 0.04 0.13 0.25 0.21 0.15 0.24 0.21 0.18 0.17 0.15 0.06 0.02 0.00 0.00 0.00 0.00 0.00 0.00 0.00 0.00 0.00 0.00 0.00 0.00 0.00 0.00 0.00 0.00 0.00 0.00 0.00 0.00 0.00 0.00 0.00 0.00 0.00 0.00 0.00 0.00
0.01 0.01 0.03 0.04 0.03 0.07 0.05 0.03 0.02 0.01 0.01 0.00 0.00 0.00 0.00 0.00 0.00 0.00 0.00 0.00 0.00 0.00 0.00 0.00 0.00 0.00 0.00 0.00 0.00 0.00 0.00 0.00 0.00 0.00 0.00 0.00 0.00 0.00 0.00 0.00 0.00 0.00 0.00
0.02 0.03 0.01 0.01 0.01 0.01 0.00 0.00 0.00 0.00 0.00 0.00 0.00 0.00 0.00 0.00 0.00 0.00 0.00 0.00 0.00 0.00 0.00 0.00 0.00 0.00 0.00 0.00 0.00 0.00 0.00 0.00 0.00 0.00 0.00 0.00 0.00 0.00 0.01 0.00 0.00 0.00 0.00

GFSMA_prec_precacc24_075.txt.gz
Total_Precipitation_Accumulation
0.00 0.00 0.00 0.00 0.00 0.00 0.00 0.00 0.00 0.00 0.00 0.00 0.00 0.00 0.00 0.00 0.00 0.00 0.00 0.00 0.00 0.00 0.00 0.00 0.00 0.00 0.00 0.00 0.00 0.00 0.00 0.00 0.00 0.00 0.00 0.00 0.00 0.00 0.00 0.00 0.00 0.00 0.00
0.00 0.00 0.00 0.00 0.00 0.00 0.00 0.00 0.00 0.00 0.00 0.00 0.00 0.00 0.00 0.00 0.00 0.00 0.00 0.00 0.00 0.00 0.00 0.00 0.00 0.00 0.00 0.00 0.00 0.00 0.00 0.00 0.00 0.00 0.00 0.00 0.00 0.00 0.00 0.00 0.00 0.00 0.00
0.00 0.00 0.00 0.00 0.00 0.00 0.00 0.00 0.00 0.00 0.00 0.00 0.00 0.00 0.00 0.00 0.00 0.00 0.00 0.00 0.00 0.00 0.00 0.00 0.00 0.00 0.00 0.00 0.00 0.00 0.00 0.00 0.00 0.00 0.00 0.00 0.00 0.00 0.00 0.00 0.00 0.00 0.00
0.00 0.00 0.00 0.00 0.00 0.00 0.00 0.00 0.00 0.00 0.00 0.00 0.00 0.00 0.00 0.00 0.00 0.00 0.00 0.00 0.00 0.00 0.00 0.00 0.00 0.00 0.00 0.00 0.01 0.01 0.01 0.00 0.00 0.00 0.00 0.00 0.00 0.00 0.00 0.00 0.00 0.00 0.00
0.00 0.01 0.00 0.00 0.00 0.00 0.00 0.00 0.00 0.00 0.00 0.00 0.00 0.00 0.00 0.00 0.00 0.00 0.00 0.00 0.00 0.00 0.00 0.00 0.00 0.00 0.00 0.00 0.00 0.01 0.02 0.02 0.00 0.00 0.00 0.00 0.00 0.00 0.00 0.00 0.00 0.00 0.00
0.02 0.05 0.03 0.02 0.01 0.00 0.00 0.00 0.00 0.00 0.00 0.00 0.00 0.00 0.00 0.00 0.00 0.00 0.00 0.00 0.01 0.01 0.00 0.01 0.00 0.00 0.00 0.00 0.00 0.00 0.01 0.03 0.05 0.01 0.00 0.00 0.00 0.00 0.00 0.00 0.00 0.00 0.00
0.12 0.13 0.08 0.07 0.08 0.04 0.04 0.03 0.02 0.01 0.01 0.05 0.03 0.00 0.00 0.00 0.00 0.00 0.00 0.01 0.01 0.02 0.01 0.01 0.01 0.01 0.00 0.00 0.00 0.00 0.01 0.04 0.09 0.13 0.07 0.02 0.00 0.00 0.00 0.00 0.00 0.00 0.00
0.12 0.12 0.13 0.12 0.10 0.08 0.06 0.04 0.05 0.09 0.07 0.14 0.15 0.06 0.01 0.00 0.00 0.00 0.00 0.00 0.00 0.00 0.01 0.01 0.01 0.01 0.01 0.00 0.00 0.00 0.00 0.02 0.06 0.14 0.20 0.17 0.08 0.02 0.00 0.00 0.00 0.00 0.00
0.07 0.05 0.04 0.07 0.14 0.16 0.15 0.10 0.16 0.17 0.16 0.14 0.13 0.16 0.05 0.01 0.00 0.00 0.00 0.00 0.00 0.00 0.00 0.02 0.02 0.02 0.01 0.01 0.00 0.00 0.00 0.01 0.04 0.08 0.17 0.28 0.24 0.13 0.07 0.03 0.01 0.01 0.01
0.01 0.03 0.06 0.08 0.07 0.08 0.11 0.16 0.23 0.22 0.24 0.15 0.14 0.10 0.13 0.07 0.05 0.03 0.01 0.01 0.01 0.01 0.02 0.03 0.03 0.03 0.02 0.01 0.01 0.00 0.01 0.02 0.04 0.10 0.18 0.33 0.58 0.52 0.33 0.33 0.26 0.14 0.07
0.00 0.00 0.00 0.03 0.05 0.07 0.08 0.09 0.13 0.14 0.16 0.21 0.16 0.18 0.16 0.12 0.09 0.06 0.04 0.05 0.06 0.06 0.05 0.04 0.02 0.01 0.01 0.01 0.03 0.06 0.11 0.16 0.19 0.23 0.30 0.44 0.78 0.97 0.80 0.65 0.61 0.42 0.24
0.00 0.01 0.02 0.02 0.02 0.03 0.04 0.07 0.12 0.18 0.20 0.23 0.23 0.22 0.25 0.26 0.21 0.18 0.13 0.09 0.11 0.11 0.08 0.05 0.03 0.02 0.03 0.04 0.09 0.18 0.26 0.34 0.42 0.55 0.68 0.79 0.93 1.13 1.18 0.99 0.87 0.71 0.56
0.00 0.01 0.04 0.05 0.03 0.02 0.02 0.03 0.05 0.12 0.23 0.26 0.28 0.22 0.23 0.25 0.32 0.31 0.25 0.16 0.14 0.11 0.07 0.06 0.06 0.07 0.09 0.11 0.16 0.27 0.42 0.57 0.66 0.77 0.92 1.09 1.11 0.92 0.85 0.95 1.13 1.29 0.90
0.00 0.00 0.04 0.04 0.03 0.03 0.02 0.02 0.03 0.04 0.11 0.18 0.25 0.33 0.28 0.24 0.27 0.29 0.31 0.44 0.51 0.40 0.28 0.24 0.24 0.28 0.32 0.37 0.48 0.60 0.61 0.69 0.73 0.85 0.99 1.09 1.10 0.89 0.74 0.72 0.92 1.18 1.17
0.00 0.00 0.01 0.03 0.02 0.01 0.02 0.03 0.03 0.04 0.07 0.12 0.19 0.23 0.29 0.20 0.19 0.20 0.22 0.32 0.52 0.67 0.52 0.43 0.46 0.48 0.46 0.45 0.50 0.53 0.58 0.74 0.82 0.83 0.84 0.93 1.03 1.09 0.87 0.89 0.85 0.92 1.10
0.00 0.00 0.00 0.00 0.00 0.00 0.01 0.02 0.04 0.04 0.09 0.11 0.12 0.16 0.19 0.17 0.19 0.23 0.26 0.37 0.52 0.66 0.68 0.48 0.45 0.50 0.57 0.62 0.68 0.63 0.65 0.77 0.79 0.81 0.77 0.71 0.68 0.57 0.43 0.44 0.50 0.43 0.31
0.00 0.00 0.00 0.00 0.00 0.00 0.01 0.01 0.02 0.03 0.04 0.06 0.08 0.11 0.13 0.14 0.16 0.19 0.26 0.33 0.45 0.56 0.66 0.69 0.66 0.62 0.63 0.64 0.59 0.47 0.46 0.38 0.36 0.40 0.37 0.31 0.24 0.23 0.21 0.20 0.19 0.19 0.19
0.00 0.00 0.00 0.00 0.00 0.00 0.01 0.02 0.03 0.03 0.04 0.04 0.04 0.06 0.08 0.06 0.08 0.12 0.19 0.27 0.37 0.48 0.63 0.69 0.71 0.65 0.57 0.43 0.32 0.22 0.15 0.09 0.06 0.12 0.10 0.08 0.08 0.09 0.07 0.06 0.05 0.04 0.03
0.00 0.00 0.00 0.00 0.00 0.01 0.01 0.03 0.03 0.03 0.03 0.04 0.05 0.06 0.06 0.05 0.05 0.03 0.03 0.03 0.03 0.04 0.06 0.06 0.06 0.07 0.10 0.11 0.07 0.05 0.03 0.02 0.02 0.05 0.05 0.03 0.03 0.02 0.01 0.01 0.00 0.00 0.00
0.00 0.00 0.00 0.00 0.00 0.00 0.00 0.01 0.01 0.01 0.00 0.01 0.01 0.01 0.02 0.02 0.02 0.02 0.02 0.01 0.01 0.02 0.03 0.03 0.04 0.04 0.03 0.01 0.01 0.01 0.02 0.01 0.01 0.00 0.01 0.00 0.00 0.00 0.00 0.00 0.00 0.00 0.00
0.00 0.00 0.00 0.00 0.00 0.00 0.01 0.00 0.00 0.00 0.00 0.00 0.01 0.01 0.01 0.02 0.03 0.02 0.02 0.01 0.02 0.02 0.02 0.01 0.01 0.01 0.01 0.01 0.01 0.01 0.01 0.00 0.00 0.00 0.00 0.00 0.00 0.00 0.00 0.00 0.00 0.00 0.00
0.00 0.00 0.00 0.00 0.00 0.02 0.08 0.03 0.01 0.01 0.01 0.02 0.03 0.03 0.06 0.08 0.06 0.06 0.04 0.02 0.02 0.01 0.00 0.00 0.00 0.00 0.00 0.00 0.00 0.00 0.00 0.00 0.00 0.00 0.00 0.00 0.00 0.00 0.00 0.00 0.00 0.00 0.00
0.00 0.00 0.00 0.01 0.04 0.09 0.06 0.08 0.15 0.14 0.12 0.11 0.09 0.07 0.05 0.03 0.03 0.03 0.01 0.00 0.00 0.00 0.00 0.00 0.00 0.00 0.00 0.00 0.00 0.00 0.00 0.00 0.00 0.00 0.00 0.00 0.00 0.00 0.00 0.00 0.00 0.00 0.00
0.00 0.00 0.00 0.00 0.00 0.01 0.02 0.03 0.10 0.10 0.11 0.14 0.14 0.06 0.01 0.00 0.00 0.00 0.00 0.00 0.00 0.00 0.00 0.00 0.00 0.00 0.00 0.00 0.00 0.00 0.00 0.00 0.00 0.00 0.00 0.00 0.00 0.00 0.00 0.00 0.00 0.00 0.00
0.00 0.00 0.00 0.00 0.00 0.00 0.00 0.00 0.00 0.00 0.00 0.00 0.00 0.00 0.00 0.00 0.00 0.00 0.00 0.00 0.00 0.00 0.00 0.00 0.00 0.00 0.00 0.00 0.00 0.00 0.00 0.00 0.00 0.00 0.00 0.00 0.00 0.00 0.00 0.00 0.00 0.00 0.00
0.00 0.00 0.00 0.00 0.00 0.00 0.00 0.00 0.00 0.00 0.00 0.00 0.00 0.00 0.00 0.00 0.00 0.00 0.00 0.00 0.00 0.00 0.00 0.00 0.00 0.00 0.00 0.00 0.00 0.00 0.00 0.00 0.00 0.00 0.00 0.00 0.00 0.00 0.00 0.00 0.00 0.00 0.00

GFSMA_prec_precacc24_078.txt.gz
Total_Precipitation_Accumulation
0.00 0.00 0.00 0.00 0.00 0.00 0.00 0.00 0.00 0.00 0.00 0.00 0.00 0.00 0.00 0.00 0.00 0.00 0.00 0.00 0.00 0.00 0.00 0.00 0.00 0.00 0.00 0.00 0.00 0.00 0.00 0.00 0.00 0.00 0.00 0.00 0.00 0.00 0.00 0.00 0.00 0.00 0.00
0.00 0.00 0.00 0.00 0.00 0.00 0.00 0.00 0.00 0.00 0.00 0.00 0.00 0.00 0.00 0.00 0.00 0.00 0.00 0.00 0.00 0.00 0.00 0.00 0.00 0.00 0.00 0.00 0.00 0.00 0.00 0.00 0.00 0.00 0.00 0.00 0.00 0.00 0.00 0.00 0.00 0.00 0.00
0.00 0.00 0.00 0.00 0.00 0.00 0.00 0.00 0.00 0.00 0.00 0.00 0.00 0.00 0.00 0.00 0.00 0.00 0.00 0.00 0.00 0.00 0.00 0.00 0.00 0.00 0.00 0.00 0.01 0.00 0.00 0.00 0.00 0.00 0.00 0.00 0.00 0.00 0.00 0.00 0.00 0.00 0.00
0.00 0.00 0.00 0.00 0.00 0.00 0.00 0.00 0.00 0.00 0.00 0.00 0.00 0.00 0.00 0.00 0.00 0.00 0.00 0.00 0.00 0.00 0.00 0.00 0.00 0.00 0.00 0.00 0.01 0.03 0.03 0.01 0.00 0.00 0.00 0.00 0.00 0.00 0.00 0.00 0.00 0.00 0.00
0.00 0.01 0.00 0.00 0.00 0.00 0.00 0.00 0.00 0.00 0.00 0.00 0.00 0.00 0.00 0.00 0.00 0.00 0.00 0.00 0.00 0.00 0.00 0.00 0.00 0.00 0.00 0.00 0.00 0.02 0.04 0.07 0.03 0.00 0.00 0.00 0.00 0.00 0.00 0.00 0.00 0.00 0.00
0.01 0.04 0.03 0.02 0.01 0.00 0.00 0.00 0.00 0.00 0.00 0.01 0.00 0.00 0.00 0.00 0.00 0.00 0.00 0.00 0.01 0.01 0.00 0.01 0.00 0.00 0.00 0.00 0.00 0.00 0.01 0.05 0.11 0.07 0.05 0.01 0.00 0.00 0.00 0.00 0.00 0.00 0.00
0.11 0.10 0.07 0.06 0.08 0.04 0.04 0.03 0.03 0.01 0.01 0.06 0.04 0.00 0.00 0.00 0.00 0.00 0.00 0.01 0.01 0.02 0.01 0.01 0.01 0.01 0.00 0.00 0.00 0.00 0.01 0.04 0.12 0.19 0.17 0.13 0.07 0.02 0.00 0.00 0.00 0.00 0.00
0.11 0.10 0.10 0.07 0.07 0.06 0.06 0.05 0.06 0.09 0.08 0.15 0.15 0.07 0.01 0.00 0.00 0.00 0.00 0.00 0.00 0.00 0.01 0.01 0.01 0.01 0.01 0.00 0.00 0.00 0.00 0.02 0.06 0.15 0.24 0.26 0.22 0.18 0.08 0.02 0.00 0.00 0.00
0.03 0.04 0.03 0.05 0.09 0.12 0.09 0.09 0.11 0.16 0.16 0.14 0.13 0.18 0.06 0.01 0.00 0.00 0.00 0.00 0.00 0.00 0.00 0.02 0.02 0.02 0.01 0.01 0.00 0.00 0.00 0.01 0.04 0.08 0.17 0.29 0.27 0.22 0.18 0.15 0.15 0.21 0.11
0.00 0.00 0.03 0.06 0.07 0.06 0.07 0.12 0.17 0.15 0.21 0.15 0.14 0.11 0.13 0.08 0.06 0.03 0.01 0.01 0.01 0.01 0.02 0.03 0.03 0.03 0.02 0.01 0.01 0.00 0.01 0.02 0.04 0.10 0.18 0.33 0.58 0.54 0.39 0.44 0.56 0.68 0.64
0.00 0.00 0.00 0.02 0.04 0.06 0.06 0.06 0.07 0.07 0.10 0.15 0.14 0.15 0.15 0.12 0.09 0.07 0.05 0.05 0.06 0.06 0.05 0.04 0.02 0.01 0.01 0.01 0.03 0.06 0.11 0.16 0.19 0.23 0.30 0.44 0.78 0.98 0.81 0.69 0.66 0.60 0.46
0.00 0.00 0.01 0.01 0.02 0.02 0.03 0.06 0.09 0.12 0.14 0.17 0.18 0.18 0.21 0.22 0.19 0.17 0.12 0.09 0.11 0.11 0.08 0.05 0.03 0.02 0.03 0.04 0.09 0.18 0.26 0.34 0.42 0.55 0.68 0.79 0.93 1.13 1.18 1.00 0.89 0.78 0.67
0.00 0.00 0.00 0.02 0.02 0.01 0.01 0.02 0.03 0.09 0.16 0.19 0.21 0.18 0.20 0.21 0.28 0.28 0.23 0.15 0.14 0.11 0.07 0.05 0.04 0.04 0.05 0.10 0.15 0.27 0.42 0.58 0.66 0.77 0.93 1.09 1.12 0.92 0.85 0.95 1.13 1.34 1.22
0.00 0.00 0.00 0.00 0.00 0.01 0.00 0.01 0.01 0.02 0.06 0.12 0.19 0.25 0.24 0.20 0.22 0.24 0.28 0.41 0.47 0.34 0.20 0.14 0.12 0.15 0.21 0.33 0.46 0.60 0.61 0.69 0.73 0.87 1.00 1.10 1.11 0.90 0.74 0.72 0.92 1.18 1.19
0.00 0.00 0.00 0.00 0.00 0.00 0.00 0.01 0.01 0.01 0.03 0.06 0.11 0.14 0.22 0.18 0.18 0.17 0.20 0.29 0.41 0.47 0.31 0.23 0.31 0.37 0.38 0.39 0.43 0.47 0.53 0.73 0.82 0.83 0.86 0.94 1.03 1.09 0.87 0.89 0.86 0.93 1.11
0.00 0.00 0.00 0.00 0.00 0.00 0.00 0.00 0.01 0.01 0.02 0.03 0.05 0.08 0.11 0.13 0.15 0.19 0.22 0.32 0.43 0.48 0.43 0.26 0.26 0.34 0.43 0.49 0.57 0.55 0.62 0.74 0.77 0.81 0.77 0.71 0.68 0.58 0.43 0.44 0.51 0.47 0.35
0.00 0.00 0.00 0.00 0.00 0.00 0.00 0.00 0.00 0.00 0.00 0.01 0.01 0.02 0.04 0.07 0.11 0.16 0.20 0.26 0.33 0.39 0.42 0.39 0.37 0.39 0.41 0.45 0.45 0.38 0.40 0.33 0.33 0.38 0.36 0.31 0.24 0.23 0.22 0.20 0.19 0.20 0.21
0.00 0.00 0.00 0.00 0.00 0.00 0.00 0.00 0.00 0.01 0.01 0.01 0.01 0.03 0.04 0.03 0.05 0.08 0.12 0.18 0.25 0.34 0.47 0.59 0.63 0.58 0.48 0.37 0.28 0.19 0.13 0.08 0.06 0.12 0.10 0.08 0.09 0.09 0.07 0.06 0.05 0.04 0.03
0.00 0.00 0.00 0.00 0.00 0.00 0.00 0.00 0.00 0.01 0.01 0.02 0.02 0.03 0.04 0.03 0.03 0.02 0.01 0.02 0.02 0.03 0.04 0.04 0.05 0.06 0.08 0.10 0.06 0.05 0.03 0.02 0.02 0.05 0.05 0.03 0.03 0.02 0.01 0.01 0.00 0.00 0.00
0.00 0.00 0.00 0.00 0.00 0.00 0.00 0.00 0.00 0.00 0.00 0.00 0.00 0.01 0.01 0.01 0.01 0.00 0.00 0.00 0.00 0.01 0.01 0.01 0.02 0.02 0.01 0.01 0.01 0.01 0.02 0.01 0.01 0.00 0.01 0.00 0.00 0.00 0.00 0.00 0.00 0.00 0.00
0.00 0.00 0.00 0.00 0.00 0.00 0.00 0.00 0.00 0.00 0.00 0.00 0.01 0.01 0.01 0.01 0.01 0.01 0.00 0.00 0.00 0.00 0.01 0.00 0.00 0.00 0.01 0.01 0.01 0.01 0.01 0.00 0.00 0.00 0.00 0.00 0.00 0.00 0.00 0.00 0.00 0.00 0.00
0.00 0.00 0.00 0.00 0.00 0.00 0.01 0.00 0.00 0.00 0.00 0.01 0.01 0.00 0.02 0.05 0.04 0.03 0.02 0.01 0.01 0.00 0.00 0.00 0.00 0.00 0.00 0.00 0.00 0.00 0.00 0.00 0.00 0.00 0.00 0.00 0.00 0.00 0.00 0.00 0.00 0.00 0.00
0.00 0.00 0.00 0.00 0.00 0.00 0.01 0.00 0.00 0.00 0.01 0.03 0.03 0.04 0.03 0.01 0.02 0.02 0.01 0.00 0.00 0.00 0.00 0.00 0.00 0.00 0.00 0.00 0.00 0.00 0.00 0.00 0.00 0.00 0.00 0.00 0.00 0.00 0.00 0.00 0.00 0.00 0.00
0.00 0.00 0.00 0.00 0.00 0.00 0.00 0.00 0.00 0.00 0.00 0.01 0.02 0.03 0.01 0.00 0.00 0.00 0.00 0.00 0.00 0.00 0.00 0.00 0.00 0.00 0.00 0.00 0.00 0.00 0.00 0.00 0.00 0.00 0.00 0.00 0.00 0.00 0.00 0.00 0.00 0.00 0.00
0.00 0.00 0.00 0.00 0.00 0.00 0.00 0.00 0.00 0.00 0.00 0.00 0.00 0.00 0.00 0.00 0.00 0.00 0.00 0.00 0.00 0.00 0.00 0.00 0.00 0.00 0.00 0.00 0.00 0.00 0.00 0.00 0.00 0.00 0.00 0.00 0.00 0.00 0.00 0.00 0.00 0.00 0.00
0.00 0.00 0.00 0.00 0.00 0.00 0.00 0.00 0.00 0.00 0.00 0.00 0.00 0.00 0.00 0.00 0.00 0.00 0.00 0.00 0.00 0.00 0.00 0.00 0.00 0.00 0.00 0.00 0.00 0.00 0.00 0.00 0.00 0.00 0.00 0.00 0.00 0.00 0.00 0.00 0.00 0.00 0.00

GFSMA_prec_precacc24_081.txt.gz
Total_Precipitation_Accumulation
0.00 0.00 0.00 0.00 0.00 0.00 0.00 0.00 0.00 0.00 0.00 0.00 0.00 0.00 0.00 0.00 0.00 0.00 0.00 0.00 0.00 0.00 0.00 0.00 0.00 0.00 0.00 0.00 0.00 0.00 0.00 0.00 0.00 0.00 0.00 0.00 0.00 0.00 0.00 0.00 0.00 0.00 0.00
0.00 0.00 0.00 0.00 0.00 0.00 0.00 0.00 0.00 0.00 0.00 0.00 0.00 0.00 0.00 0.00 0.00 0.00 0.00 0.00 0.00 0.00 0.00 0.00 0.00 0.00 0.00 0.01 0.02 0.02 0.00 0.00 0.00 0.00 0.00 0.00 0.00 0.00 0.00 0.00 0.00 0.00 0.00
0.00 0.00 0.00 0.00 0.00 0.00 0.00 0.00 0.00 0.00 0.00 0.00 0.00 0.00 0.00 0.00 0.00 0.00 0.00 0.00 0.00 0.00 0.00 0.00 0.00 0.00 0.00 0.01 0.03 0.04 0.04 0.01 0.00 0.00 0.00 0.00 0.00 0.00 0.00 0.00 0.00 0.00 0.00
0.00 0.00 0.00 0.00 0.00 0.00 0.00 0.00 0.00 0.00 0.00 0.00 0.00 0.00 0.00 0.00 0.00 0.00 0.00 0.00 0.00 0.00 0.00 0.00 0.00 0.00 0.00 0.00 0.03 0.08 0.12 0.09 0.03 0.00 0.00 0.00 0.00 0.00 0.00 0.00 0.00 0.00 0.00
0.00 0.00 0.00 0.00 0.00 0.00 0.00 0.00 0.00 0.00 0.00 0.00 0.00 0.00 0.00 0.00 0.00 0.00 0.00 0.00 0.00 0.00 0.00 0.00 0.00 0.00 0.00 0.00 0.00 0.03 0.10 0.17 0.12 0.08 0.03 0.00 0.00 0.00 0.00 0.00 0.00 0.00 0.00
0.00 0.03 0.02 0.02 0.01 0.00 0.00 0.00 0.00 0.00 0.00 0.01 0.00 0.00 0.00 0.00 0.00 0.00 0.00 0.00 0.01 0.01 0.00 0.01 0.00 0.00 0.00 0.00 0.00 0.00 0.01 0.05 0.14 0.14 0.14 0.11 0.04 0.00 0.00 0.00 0.00 0.00 0.00
0.08 0.07 0.05 0.06 0.07 0.04 0.04 0.03 0.02 0.01 0.01 0.06 0.04 0.01 0.00 0.00 0.00 0.00 0.00 0.01 0.01 0.02 0.01 0.01 0.01 0.01 0.00 0.00 0.00 0.00 0.01 0.04 0.12 0.19 0.20 0.20 0.21 0.14 0.04 0.00 0.00 0.00 0.00
0.07 0.06 0.06 0.04 0.04 0.05 0.05 0.04 0.04 0.03 0.06 0.12 0.15 0.08 0.02 0.00 0.00 0.00 0.00 0.00 0.00 0.00 0.01 0.01 0.01 0.01 0.01 0.00 0.00 0.00 0.00 0.02 0.06 0.15 0.24 0.27 0.25 0.29 0.26 0.15 0.06 0.02 0.01
0.01 0.01 0.01 0.01 0.02 0.03 0.03 0.04 0.06 0.07 0.08 0.08 0.11 0.18 0.06 0.01 0.00 0.00 0.00 0.00 0.00 0.00 0.00 0.02 0.02 0.02 0.01 0.01 0.00 0.00 0.00 0.01 0.04 0.08 0.17 0.29 0.27 0.22 0.22 0.25 0.29 0.40 0.56
0.00 0.00 0.00 0.00 0.01 0.02 0.02 0.03 0.06 0.06 0.09 0.06 0.08 0.08 0.11 0.09 0.07 0.03 0.01 0.01 0.01 0.01 0.02 0.03 0.03 0.03 0.02 0.01 0.01 0.00 0.01 0.02 0.04 0.10 0.18 0.33 0.58 0.54 0.40 0.46 0.61 0.79 0.87
0.00 0.00 0.00 0.01 0.01 0.01 0.01 0.01 0.01 0.02 0.06 0.09 0.06 0.08 0.08 0.07 0.07 0.08 0.05 0.03 0.04 0.05 0.05 0.04 0.02 0.01 0.01 0.01 0.03 0.06 0.11 0.16 0.19 0.23 0.30 0.44 0.79 0.98 0.82 0.70 0.67 0.62 0.51
0.00 0.00 0.00 0.00 0.00 0.01 0.01 0.02 0.03 0.04 0.05 0.07 0.10 0.11 0.13 0.13 0.12 0.13 0.11 0.07 0.07 0.08 0.07 0.05 0.02 0.01 0.01 0.04 0.09 0.18 0.26 0.33 0.42 0.55 0.68 0.80 0.94 1.14 1.18 1.00 0.89 0.78 0.69
0.00 0.00 0.00 0.00 0.00 0.00 0.00 0.00 0.01 0.02 0.04 0.08 0.09 0.08 0.11 0.12 0.18 0.19 0.18 0.13 0.10 0.08 0.06 0.04 0.03 0.03 0.03 0.04 0.11 0.23 0.36 0.52 0.63 0.76 0.92 1.09 1.12 0.92 0.85 0.95 1.13 1.34 1.22
0.00 0.00 0.00 0.00 0.00 0.00 0.00 0.00 0.00 0.00 0.02 0.03 0.04 0.07 0.07 0.08 0.11 0.14 0.20 0.34 0.42 0.31 0.18 0.12 0.11 0.13 0.16 0.19 0.25 0.33 0.38 0.53 0.64 0.79 0.92 1.02 1.07 0.89 0.75 0.73 0.93 1.18 1.19
0.00 0.00 0.00 0.00 0.00 0.00 0.00 0.00 0.00 0.00 0.00 0.01 0.01 0.01 0.02 0.03 0.05 0.07 0.12 0.23 0.37 0.43 0.29 0.21 0.23 0.24 0.24 0.23 0.26 0.32 0.36 0.52 0.65 0.66 0.73 0.85 1.00 1.09 0.87 0.90 0.86 0.93 1.11
0.00 0.00 0.00 0.00 0.00 0.00 0.00 0.00 0.00 0.00 0.00 0.00 0.00 0.00 0.00 0.01 0.01 0.03 0.08 0.23 0.38 0.46 0.41 0.24 0.18 0.17 0.19 0.25 0.32 0.31 0.39 0.53 0.61 0.72 0.74 0.68 0.66 0.57 0.43 0.44 0.51 0.47 0.35
0.00 0.00 0.00 0.00 0.00 0.00 0.00 0.00 0.00 0.00 0.00 0.00 0.00 0.00 0.00 0.00 0.02 0.02 0.04 0.06 0.07 0.10 0.24 0.26 0.24 0.22 0.23 0.26 0.30 0.29 0.35 0.31 0.32 0.37 0.36 0.30 0.23 0.23 0.22 0.20 0.19 0.20 0.22
0.00 0.00 0.00 0.00 0.00 0.00 0.00 0.00 0.00 0.00 0.00 0.00 0.00 0.01 0.01 0.01 0.02 0.02 0.02 0.01 0.01 0.02 0.06 0.11 0.22 0.33 0.32 0.28 0.25 0.18 0.13 0.08 0.06 0.11 0.10 0.07 0.09 0.09 0.07 0.06 0.05 0.04 0.03
0.00 0.00 0.00 0.00 0.00 0.00 0.00 0.00 0.00 0.00 0.00 0.00 0.00 0.00 0.01 0.01 0.02 0.01 0.01 0.00 0.00 0.01 0.01 0.02 0.03 0.04 0.08 0.09 0.06 0.05 0.03 0.02 0.02 0.05 0.05 0.03 0.03 0.02 0.01 0.01 0.00 0.00 0.00
0.00 0.00 0.00 0.00 0.00 0.00 0.00 0.00 0.00 0.00 0.00 0.00 0.00 0.00 0.00 0.00 0.00 0.00 0.00 0.00 0.00 0.00 0.00 0.00 0.01 0.01 0.01 0.01 0.01 0.01 0.02 0.01 0.01 0.00 0.01 0.00 0.00 0.00 0.00 0.00 0.00 0.00 0.00
0.00 0.00 0.00 0.00 0.00 0.00 0.00 0.00 0.00 0.00 0.00 0.00 0.00 0.00 0.01 0.01 0.01 0.01 0.00 0.00 0.00 0.00 0.00 0.00 0.00 0.00 0.01 0.01 0.01 0.01 0.01 0.00 0.00 0.00 0.00 0.00 0.00 0.00 0.00 0.00 0.00 0.00 0.00
0.00 0.00 0.00 0.00 0.00 0.00 0.01 0.00 0.00 0.00 0.00 0.00 0.00 0.00 0.00 0.01 0.01 0.01 0.01 0.01 0.00 0.00 0.00 0.00 0.00 0.00 0.00 0.00 0.00 0.00 0.00 0.00 0.00 0.00 0.00 0.00 0.00 0.00 0.00 0.00 0.00 0.00 0.00
0.00 0.00 0.00 0.00 0.00 0.00 0.00 0.00 0.00 0.00 0.00 0.00 0.00 0.00 0.00 0.00 0.00 0.00 0.00 0.00 0.00 0.00 0.00 0.00 0.00 0.00 0.00 0.00 0.00 0.00 0.00 0.00 0.00 0.00 0.00 0.00 0.00 0.00 0.00 0.00 0.00 0.00 0.00
0.00 0.00 0.00 0.00 0.00 0.00 0.00 0.00 0.00 0.00 0.00 0.00 0.00 0.00 0.00 0.00 0.00 0.00 0.00 0.00 0.00 0.00 0.00 0.00 0.00 0.00 0.00 0.00 0.00 0.00 0.00 0.00 0.00 0.00 0.00 0.00 0.00 0.00 0.00 0.00 0.00 0.00 0.00
0.00 0.00 0.00 0.00 0.00 0.00 0.00 0.00 0.00 0.00 0.00 0.00 0.00 0.00 0.00 0.00 0.00 0.00 0.00 0.00 0.00 0.00 0.00 0.00 0.00 0.00 0.00 0.00 0.00 0.00 0.00 0.00 0.00 0.00 0.00 0.00 0.00 0.00 0.00 0.00 0.00 0.00 0.00
0.00 0.00 0.00 0.00 0.00 0.00 0.00 0.00 0.00 0.00 0.00 0.00 0.00 0.00 0.00 0.00 0.00 0.00 0.00 0.00 0.00 0.00 0.00 0.00 0.00 0.00 0.00 0.00 0.00 0.00 0.00 0.00 0.00 0.00 0.00 0.00 0.00 0.00 0.00 0.00 0.00 0.00 0.00

GFSMA_prec_precacc24_084.txt.gz
Total_Precipitation_Accumulation
0.00 0.00 0.00 0.00 0.00 0.00 0.00 0.00 0.00 0.00 0.00 0.00 0.00 0.00 0.00 0.00 0.00 0.00 0.00 0.00 0.00 0.00 0.00 0.00 0.00 0.00 0.00 0.01 0.01 0.00 0.00 0.00 0.00 0.00 0.00 0.00 0.00 0.00 0.00 0.00 0.00 0.00 0.00
0.00 0.00 0.00 0.00 0.00 0.00 0.00 0.00 0.00 0.00 0.00 0.00 0.00 0.00 0.00 0.00 0.00 0.00 0.00 0.00 0.00 0.00 0.00 0.00 0.00 0.00 0.00 0.02 0.06 0.07 0.04 0.00 0.00 0.00 0.00 0.00 0.00 0.00 0.00 0.00 0.00 0.00 0.00
0.00 0.00 0.00 0.00 0.00 0.00 0.00 0.00 0.00 0.00 0.00 0.00 0.00 0.00 0.00 0.00 0.00 0.00 0.00 0.00 0.00 0.00 0.00 0.00 0.00 0.01 0.01 0.02 0.07 0.10 0.16 0.11 0.02 0.00 0.00 0.00 0.00 0.00 0.00 0.00 0.00 0.00 0.00
0.00 0.00 0.00 0.00 0.00 0.00 0.00 0.00 0.00 0.00 0.00 0.00 0.00 0.00 0.00 0.00 0.00 0.00 0.00 0.00 0.00 0.00 0.00 0.00 0.00 0.02 0.01 0.01 0.03 0.08 0.16 0.23 0.16 0.07 0.02 0.00 0.00 0.00 0.00 0.00 0.00 0.00 0.00
0.00 0.00 0.00 0.00 0.00 0.00 0.00 0.00 0.00 0.00 0.00 0.00 0.00 0.00 0.00 0.00 0.00 0.00 0.00 0.00 0.00 0.00 0.00 0.00 0.00 0.00 0.00 0.00 0.00 0.03 0.10 0.20 0.18 0.16 0.13 0.07 0.02 0.00 0.00 0.00 0.00 0.00 0.00
0.00 0.00 0.00 0.00 0.00 0.00 0.00 0.00 0.00 0.00 0.00 0.01 0.01 0.00 0.00 0.00 0.00 0.00 0.00 0.00 0.01 0.01 0.00 0.01 0.00 0.00 0.00 0.00 0.00 0.00 0.01 0.05 0.14 0.15 0.17 0.21 0.19 0.09 0.02 0.00 0.00 0.00 0.00
0.02 0.02 0.02 0.02 0.03 0.02 0.02 0.02 0.02 0.01 0.00 0.01 0.02 0.01 0.00 0.00 0.00 0.00 0.00 0.01 0.01 0.02 0.01 0.01 0.01 0.01 0.00 0.00 0.00 0.00 0.01 0.04 0.12 0.19 0.20 0.21 0.27 0.28 0.22 0.08 0.02 0.00 0.00
0.02 0.01 0.02 0.03 0.02 0.01 0.01 0.02 0.02 0.02 0.02 0.03 0.06 0.06 0.02 0.00 0.00 0.00 0.00 0.00 0.00 0.00 0.01 0.01 0.01 0.01 0.01 0.00 0.00 0.00 0.00 0.02 0.06 0.15 0.24 0.27 0.25 0.30 0.32 0.32 0.23 0.12 0.03
0.08 0.03 0.00 0.00 0.01 0.01 0.01 0.01 0.03 0.04 0.04 0.03 0.05 0.13 0.06 0.01 0.00 0.00 0.00 0.00 0.00 0.00 0.00 0.01 0.02 0.02 0.01 0.01 0.00 0.00 0.00 0.01 0.04 0.08 0.17 0.29 0.27 0.22 0.23 0.26 0.35 0.54 0.78
0.04 0.00 0.00 0.00 0.00 0.00 0.00 0.01 0.00 0.01 0.03 0.02 0.02 0.03 0.06 0.06 0.06 0.03 0.00 0.00 0.00 0.01 0.02 0.02 0.03 0.02 0.01 0.01 0.01 0.00 0.01 0.02 0.04 0.10 0.18 0.33 0.58 0.55 0.41 0.47 0.62 0.82 0.94
0.00 0.00 0.00 0.00 0.00 0.00 0.00 0.00 0.00 0.00 0.00 0.02 0.02 0.02 0.02 0.03 0.04 0.06 0.04 0.01 0.01 0.02 0.03 0.03 0.02 0.01 0.01 0.01 0.03 0.06 0.11 0.16 0.19 0.23 0.30 0.45 0.79 0.97 0.81 0.70 0.67 0.63 0.52
0.00 0.00 0.00 0.00 0.00 0.00 0.00 0.00 0.01 0.01 0.01 0.02 0.03 0.04 0.04 0.05 0.05 0.06 0.07 0.04 0.03 0.03 0.04 0.03 0.02 0.02 0.01 0.02 0.06 0.12 0.19 0.29 0.38 0.51 0.65 0.76 0.89 1.09 1.16 1.00 0.89 0.78 0.69
0.00 0.00 0.00 0.00 0.00 0.00 0.00 0.00 0.00 0.01 0.02 0.02 0.04 0.04 0.04 0.05 0.07 0.09 0.11 0.07 0.05 0.02 0.02 0.02 0.02 0.03 0.03 0.03 0.07 0.15 0.24 0.40 0.46 0.55 0.73 0.88 0.95 0.80 0.76 0.87 1.07 1.31 1.22
0.00 0.00 0.00 0.00 0.00 0.00 0.00 0.00 0.00 0.00 0.01 0.01 0.02 0.02 0.03 0.03 0.03 0.05 0.08 0.10 0.08 0.03 0.02 0.02 0.02 0.09 0.13 0.15 0.17 0.21 0.22 0.33 0.43 0.55 0.68 0.79 0.84 0.68 0.56 0.56 0.80 1.10 1.15
0.00 0.00 0.00 0.00 0.00 0.00 0.00 0.00 0.00 0.00 0.00 0.00 0.00 0.00 0.01 0.01 0.02 0.03 0.03 0.03 0.07 0.08 0.04 0.02 0.06 0.13 0.19 0.18 0.22 0.25 0.24 0.34 0.42 0.45 0.51 0.63 0.76 0.88 0.72 0.81 0.82 0.91 1.11
0.00 0.00 0.00 0.00 0.00 0.00 0.00 0.00 0.00 0.00 0.00 0.00 0.00 0.00 0.00 0.00 0.00 0.01 0.01 0.02 0.03 0.04 0.03 0.00 0.02 0.05 0.11 0.17 0.22 0.20 0.24 0.33 0.42 0.56 0.61 0.58 0.57 0.52 0.41 0.43 0.50 0.47 0.36
0.00 0.00 0.00 0.00 0.00 0.00 0.00 0.00 0.00 0.00 0.00 0.00 0.00 0.00 0.00 0.00 0.00 0.01 0.01 0.01 0.01 0.01 0.01 0.00 0.00 0.01 0.05 0.10 0.09 0.09 0.15 0.19 0.26 0.33 0.33 0.28 0.21 0.21 0.19 0.19 0.19 0.20 0.22
0.00 0.00 0.00 0.00 0.00 0.00 0.00 0.00 0.00 0.00 0.00 0.00 0.00 0.00 0.00 0.00 0.00 0.01 0.01 0.01 0.00 0.00 0.00 0.00 0.00 0.00 0.02 0.04 0.06 0.08 0.09 0.07 0.06 0.10 0.07 0.06 0.07 0.08 0.07 0.06 0.05 0.04 0.03
0.00 0.00 0.00 0.00 0.00 0.00 0.00 0.00 0.00 0.00 0.00 0.00 0.00 0.00 0.00 0.00 0.00 0.00 0.00 0.00 0.00 0.00 0.00 0.00 0.00 0.01 0.03 0.04 0.04 0.03 0.02 0.02 0.02 0.04 0.04 0.03 0.03 0.02 0.01 0.01 0.00 0.00 0.00
0.00 0.00 0.00 0.00 0.00 0.00 0.00 0.00 0.00 0.00 0.00 0.00 0.00 0.00 0.00 0.00 0.00 0.00 0.00 0.00 0.00 0.00 0.00 0.00 0.00 0.00 0.00 0.00 0.00 0.01 0.01 0.01 0.01 0.00 0.01 0.00 0.00 0.00 0.00 0.00 0.00 0.00 0.00
0.00 0.00 0.00 0.00 0.00 0.00 0.00 0.00 0.00 0.00 0.00 0.00 0.00 0.00 0.00 0.00 0.01 0.00 0.00 0.00 0.00 0.00 0.00 0.00 0.00 0.00 0.00 0.00 0.00 0.00 0.01 0.00 0.00 0.00 0.00 0.00 0.00 0.00 0.00 0.00 0.00 0.00 0.00
0.00 0.00 0.00 0.00 0.00 0.00 0.01 0.00 0.00 0.00 0.00 0.00 0.00 0.00 0.00 0.00 0.00 0.00 0.00 0.00 0.00 0.00 0.00 0.00 0.00 0.00 0.00 0.00 0.00 0.00 0.00 0.00 0.00 0.00 0.00 0.00 0.00 0.00 0.00 0.00 0.00 0.00 0.00
0.00 0.00 0.00 0.00 0.00 0.00 0.00 0.00 0.00 0.00 0.00 0.00 0.00 0.00 0.00 0.00 0.00 0.00 0.00 0.00 0.00 0.00 0.00 0.00 0.00 0.00 0.00 0.00 0.00 0.00 0.00 0.00 0.00 0.00 0.00 0.00 0.00 0.00 0.00 0.00 0.00 0.00 0.00
0.00 0.00 0.00 0.00 0.00 0.00 0.00 0.00 0.00 0.00 0.00 0.00 0.00 0.00 0.00 0.00 0.00 0.00 0.00 0.00 0.00 0.00 0.00 0.00 0.00 0.00 0.00 0.00 0.00 0.00 0.00 0.00 0.00 0.00 0.00 0.00 0.00 0.00 0.00 0.00 0.00 0.00 0.00
0.00 0.00 0.00 0.00 0.00 0.00 0.00 0.00 0.00 0.00 0.00 0.00 0.00 0.00 0.00 0.00 0.00 0.00 0.00 0.00 0.00 0.00 0.00 0.00 0.00 0.00 0.00 0.00 0.00 0.00 0.00 0.00 0.00 0.00 0.00 0.00 0.00 0.00 0.00 0.00 0.00 0.00 0.00
0.00 0.00 0.00 0.00 0.00 0.00 0.00 0.00 0.00 0.00 0.00 0.00 0.00 0.00 0.00 0.00 0.00 0.00 0.00 0.00 0.00 0.00 0.00 0.00 0.00 0.00 0.00 0.00 0.00 0.00 0.00 0.00 0.00 0.00 0.00 0.00 0.00 0.00 0.00 0.00 0.00 0.00 0.00

GFSMA_prec_precacc24_087.txt.gz
Total_Precipitation_Accumulation
0.00 0.00 0.00 0.00 0.00 0.00 0.00 0.00 0.00 0.00 0.00 0.00 0.00 0.00 0.00 0.00 0.00 0.00 0.00 0.00 0.00 0.00 0.00 0.00 0.00 0.00 0.00 0.02 0.03 0.01 0.00 0.00 0.00 0.00 0.00 0.00 0.00 0.00 0.00 0.00 0.00 0.00 0.00
0.00 0.00 0.00 0.00 0.00 0.00 0.00 0.00 0.00 0.00 0.00 0.00 0.00 0.00 0.00 0.00 0.00 0.00 0.00 0.00 0.00 0.00 0.00 0.00 0.00 0.01 0.00 0.05 0.11 0.13 0.14 0.04 0.00 0.00 0.00 0.00 0.00 0.00 0.00 0.00 0.00 0.00 0.00
0.00 0.00 0.00 0.00 0.00 0.00 0.00 0.00 0.00 0.00 0.00 0.00 0.00 0.00 0.00 0.00 0.00 0.00 0.00 0.00 0.00 0.00 0.00 0.00 0.00 0.02 0.04 0.04 0.11 0.14 0.21 0.17 0.10 0.05 0.02 0.00 0.00 0.00 0.00 0.00 0.00 0.00 0.00
0.00 0.00 0.00 0.00 0.00 0.00 0.00 0.00 0.00 0.00 0.00 0.00 0.00 0.00 0.00 0.00 0.00 0.00 0.00 0.00 0.00 0.00 0.00 0.00 0.01 0.03 0.02 0.01 0.03 0.08 0.16 0.23 0.18 0.15 0.12 0.03 0.00 0.00 0.00 0.00 0.00 0.00 0.00
0.00 0.00 0.00 0.00 0.00 0.00 0.00 0.00 0.00 0.00 0.00 0.00 0.00 0.00 0.00 0.00 0.00 0.00 0.00 0.00 0.00 0.00 0.00 0.00 0.00 0.00 0.00 0.00 0.00 0.03 0.10 0.20 0.18 0.16 0.17 0.18 0.15 0.03 0.00 0.00 0.00 0.00 0.00
0.00 0.00 0.00 0.00 0.00 0.00 0.00 0.00 0.00 0.00 0.00 0.01 0.01 0.00 0.00 0.00 0.00 0.00 0.00 0.00 0.01 0.01 0.00 0.01 0.00 0.00 0.00 0.00 0.00 0.00 0.01 0.05 0.14 0.15 0.17 0.22 0.24 0.21 0.14 0.04 0.00 0.00 0.00
0.00 0.00 0.00 0.00 0.00 0.00 0.01 0.01 0.02 0.01 0.01 0.01 0.01 0.01 0.00 0.00 0.00 0.00 0.00 0.00 0.00 0.01 0.01 0.01 0.01 0.01 0.00 0.00 0.00 0.00 0.01 0.04 0.12 0.19 0.20 0.21 0.27 0.29 0.29 0.22 0.15 0.05 0.01
0.04 0.02 0.01 0.01 0.01 0.01 0.00 0.01 0.02 0.01 0.01 0.00 0.03 0.04 0.02 0.00 0.00 0.00 0.00 0.00 0.00 0.00 0.00 0.00 0.00 0.00 0.00 0.00 0.00 0.00 0.00 0.02 0.06 0.15 0.24 0.27 0.25 0.30 0.32 0.33 0.31 0.35 0.27
0.31 0.22 0.16 0.12 0.08 0.03 0.01 0.01 0.02 0.02 0.02 0.01 0.02 0.07 0.04 0.01 0.00 0.00 0.00 0.00 0.00 0.00 0.00 0.00 0.01 0.01 0.01 0.00 0.00 0.00 0.00 0.01 0.04 0.08 0.17 0.29 0.28 0.22 0.23 0.27 0.36 0.56 0.88
0.18 0.11 0.08 0.08 0.04 0.01 0.00 0.00 0.00 0.01 0.02 0.01 0.01 0.01 0.03 0.04 0.05 0.03 0.00 0.00 0.00 0.00 0.00 0.00 0.00 0.00 0.00 0.00 0.00 0.00 0.01 0.01 0.04 0.10 0.18 0.34 0.59 0.55 0.41 0.47 0.63 0.82 0.94
0.13 0.11 0.08 0.05 0.03 0.01 0.00 0.00 0.00 0.00 0.00 0.02 0.02 0.01 0.01 0.02 0.02 0.04 0.03 0.01 0.01 0.00 0.00 0.00 0.00 0.00 0.00 0.00 0.00 0.04 0.09 0.13 0.17 0.22 0.30 0.46 0.80 0.97 0.80 0.67 0.64 0.61 0.51
0.11 0.06 0.04 0.02 0.01 0.00 0.00 0.00 0.00 0.00 0.00 0.01 0.02 0.02 0.03 0.03 0.02 0.03 0.03 0.02 0.01 0.00 0.00 0.00 0.00 0.01 0.01 0.00 0.00 0.02 0.09 0.18 0.23 0.31 0.49 0.64 0.75 0.97 1.05 0.87 0.75 0.63 0.56
0.02 0.01 0.00 0.00 0.00 0.00 0.00 0.00 0.00 0.00 0.01 0.02 0.03 0.04 0.04 0.03 0.05 0.05 0.07 0.05 0.04 0.01 0.00 0.00 0.00 0.00 0.00 0.00 0.00 0.01 0.07 0.16 0.19 0.26 0.43 0.58 0.66 0.58 0.57 0.71 0.91 1.14 1.04
0.01 0.00 0.00 0.00 0.00 0.00 0.00 0.00 0.00 0.00 0.01 0.01 0.02 0.02 0.03 0.02 0.03 0.04 0.05 0.06 0.05 0.02 0.02 0.01 0.01 0.01 0.00 0.00 0.00 0.00 0.00 0.05 0.12 0.20 0.33 0.47 0.62 0.54 0.45 0.47 0.69 0.96 0.97
0.00 0.00 0.00 0.00 0.00 0.00 0.00 0.00 0.00 0.00 0.00 0.00 0.00 0.00 0.01 0.01 0.01 0.02 0.03 0.02 0.04 0.04 0.03 0.00 0.00 0.00 0.00 0.00 0.00 0.00 0.00 0.07 0.19 0.28 0.34 0.45 0.61 0.77 0.62 0.71 0.73 0.82 1.03
0.00 0.00 0.00 0.00 0.00 0.00 0.00 0.00 0.00 0.00 0.00 0.00 0.00 0.00 0.00 0.00 0.00 0.01 0.01 0.01 0.01 0.02 0.02 0.00 0.00 0.01 0.00 0.00 0.00 0.00 0.01 0.06 0.17 0.31 0.39 0.43 0.50 0.47 0.36 0.40 0.48 0.44 0.33
0.00 0.00 0.00 0.00 0.00 0.00 0.00 0.00 0.00 0.00 0.00 0.00 0.00 0.00 0.00 0.00 0.00 0.00 0.00 0.01 0.01 0.00 0.01 0.00 0.00 0.00 0.00 0.01 0.02 0.01 0.01 0.03 0.12 0.22 0.25 0.23 0.18 0.18 0.16 0.16 0.16 0.17 0.21
0.00 0.00 0.00 0.00 0.00 0.00 0.00 0.00 0.00 0.00 0.00 0.00 0.00 0.00 0.00 0.00 0.00 0.00 0.00 0.00 0.00 0.00 0.00 0.00 0.00 0.00 0.00 0.00 0.02 0.01 0.01 0.01 0.02 0.05 0.04 0.04 0.04 0.05 0.04 0.04 0.04 0.04 0.03
0.00 0.00 0.00 0.00 0.00 0.00 0.00 0.00 0.00 0.00 0.00 0.00 0.00 0.00 0.00 0.00 0.00 0.00 0.00 0.00 0.00 0.00 0.00 0.00 0.00 0.00 0.00 0.00 0.00 0.00 0.01 0.00 0.00 0.01 0.02 0.01 0.01 0.01 0.01 0.01 0.00 0.00 0.00
0.00 0.00 0.00 0.00 0.00 0.00 0.00 0.00 0.00 0.00 0.00 0.00 0.00 0.00 0.00 0.00 0.00 0.00 0.00 0.00 0.00 0.00 0.00 0.00 0.00 0.00 0.00 0.00 0.00 0.00 0.00 0.00 0.00 0.00 0.01 0.00 0.00 0.00 0.00 0.00 0.00 0.00 0.00
0.00 0.00 0.00 0.00 0.00 0.00 0.00 0.00 0.00 0.00 0.00 0.00 0.00 0.00 0.00 0.00 0.00 0.00 0.00 0.00 0.00 0.00 0.00 0.00 0.00 0.00 0.00 0.00 0.00 0.00 0.00 0.00 0.00 0.00 0.00 0.00 0.00 0.00 0.00 0.00 0.00 0.00 0.00
0.00 0.00 0.00 0.00 0.00 0.00 0.01 0.00 0.00 0.00 0.00 0.00 0.00 0.00 0.00 0.00 0.00 0.00 0.00 0.00 0.00 0.00 0.00 0.00 0.00 0.00 0.00 0.00 0.00 0.00 0.00 0.00 0.00 0.00 0.00 0.00 0.00 0.00 0.00 0.00 0.00 0.00 0.00
0.00 0.00 0.00 0.00 0.00 0.00 0.01 0.00 0.00 0.00 0.00 0.00 0.00 0.00 0.00 0.00 0.00 0.00 0.00 0.00 0.00 0.00 0.00 0.00 0.00 0.00 0.00 0.00 0.00 0.00 0.00 0.00 0.00 0.00 0.00 0.00 0.00 0.00 0.00 0.00 0.00 0.00 0.00
0.00 0.00 0.00 0.00 0.00 0.00 0.00 0.00 0.00 0.00 0.00 0.00 0.00 0.00 0.00 0.00 0.00 0.00 0.00 0.00 0.00 0.00 0.00 0.00 0.00 0.00 0.00 0.00 0.00 0.00 0.00 0.00 0.00 0.00 0.00 0.00 0.00 0.00 0.00 0.00 0.00 0.00 0.00
0.00 0.00 0.00 0.00 0.00 0.00 0.00 0.00 0.00 0.00 0.00 0.00 0.00 0.00 0.00 0.00 0.00 0.00 0.00 0.00 0.00 0.00 0.00 0.00 0.00 0.00 0.00 0.00 0.00 0.00 0.00 0.00 0.00 0.00 0.00 0.00 0.00 0.00 0.00 0.00 0.00 0.00 0.00
0.00 0.00 0.00 0.00 0.00 0.00 0.00 0.00 0.00 0.00 0.00 0.00 0.00 0.00 0.00 0.00 0.00 0.00 0.00 0.00 0.00 0.00 0.00 0.00 0.00 0.00 0.00 0.00 0.00 0.00 0.00 0.00 0.00 0.00 0.00 0.00 0.00 0.00 0.00 0.00 0.00 0.00 0.00

GFSMA_prec_precacc24_090.txt.gz
Total_Precipitation_Accumulation
0.00 0.00 0.00 0.00 0.00 0.00 0.00 0.00 0.00 0.00 0.00 0.00 0.00 0.00 0.00 0.00 0.00 0.00 0.00 0.00 0.00 0.00 0.00 0.00 0.00 0.00 0.01 0.05 0.11 0.06 0.03 0.01 0.00 0.00 0.00 0.00 0.00 0.00 0.00 0.00 0.00 0.00 0.00
0.00 0.00 0.00 0.00 0.00 0.00 0.00 0.00 0.00 0.00 0.00 0.00 0.00 0.00 0.00 0.00 0.00 0.00 0.00 0.00 0.00 0.00 0.00 0.00 0.00 0.02 0.03 0.11 0.13 0.17 0.18 0.07 0.02 0.01 0.00 0.00 0.00 0.00 0.00 0.00 0.00 0.00 0.00
0.00 0.00 0.00 0.00 0.00 0.00 0.00 0.00 0.00 0.00 0.00 0.00 0.00 0.00 0.00 0.00 0.00 0.00 0.00 0.00 0.00 0.00 0.00 0.00 0.00 0.03 0.08 0.05 0.13 0.17 0.21 0.17 0.12 0.10 0.05 0.00 0.00 0.00 0.00 0.00 0.00 0.00 0.00
0.00 0.00 0.00 0.00 0.00 0.00 0.00 0.00 0.00 0.00 0.00 0.00 0.00 0.00 0.00 0.00 0.00 0.00 0.00 0.00 0.00 0.00 0.00 0.00 0.01 0.04 0.02 0.01 0.04 0.09 0.16 0.23 0.18 0.15 0.16 0.09 0.04 0.01 0.00 0.00 0.00 0.00 0.00
0.00 0.00 0.00 0.00 0.00 0.00 0.00 0.00 0.00 0.00 0.00 0.00 0.00 0.00 0.00 0.00 0.00 0.00 0.00 0.00 0.00 0.00 0.00 0.00 0.00 0.00 0.00 0.00 0.00 0.03 0.10 0.20 0.18 0.16 0.17 0.20 0.21 0.11 0.04 0.00 0.00 0.00 0.00
0.00 0.00 0.00 0.00 0.00 0.00 0.00 0.00 0.00 0.00 0.00 0.01 0.01 0.00 0.00 0.00 0.00 0.00 0.00 0.00 0.00 0.00 0.00 0.01 0.00 0.00 0.00 0.01 0.00 0.00 0.01 0.05 0.14 0.15 0.17 0.22 0.24 0.23 0.19 0.14 0.08 0.01 0.00
0.00 0.00 0.00 0.00 0.00 0.00 0.00 0.01 0.02 0.02 0.01 0.01 0.02 0.01 0.00 0.00 0.00 0.00 0.00 0.00 0.00 0.00 0.00 0.00 0.00 0.00 0.00 0.00 0.00 0.00 0.01 0.04 0.11 0.19 0.20 0.21 0.28 0.29 0.30 0.23 0.23 0.17 0.07
0.22 0.13 0.03 0.02 0.02 0.01 0.00 0.01 0.02 0.01 0.01 0.00 0.02 0.04 0.02 0.00 0.00 0.00 0.00 0.00 0.00 0.00 0.00 0.00 0.00 0.00 0.00 0.00 0.00 0.00 0.00 0.02 0.06 0.15 0.24 0.27 0.26 0.30 0.33 0.33 0.32 0.39 0.42
0.38 0.39 0.35 0.35 0.30 0.16 0.05 0.02 0.02 0.02 0.02 0.01 0.02 0.06 0.04 0.01 0.00 0.00 0.00 0.00 0.00 0.00 0.00 0.00 0.00 0.00 0.00 0.00 0.00 0.00 0.00 0.01 0.04 0.07 0.16 0.29 0.28 0.23 0.24 0.27 0.36 0.57 0.90
0.31 0.34 0.26 0.18 0.14 0.12 0.12 0.08 0.02 0.01 0.02 0.01 0.01 0.01 0.03 0.04 0.04 0.02 0.00 0.00 0.00 0.00 0.00 0.00 0.00 0.00 0.00 0.00 0.00 0.00 0.00 0.00 0.01 0.05 0.11 0.28 0.59 0.56 0.42 0.47 0.63 0.82 0.94
0.33 0.28 0.24 0.20 0.17 0.13 0.08 0.05 0.01 0.00 0.00 0.01 0.01 0.01 0.01 0.01 0.02 0.04 0.03 0.01 0.00 0.00 0.00 0.00 0.00 0.00 0.00 0.00 0.00 0.00 0.00 0.00 0.01 0.05 0.13 0.29 0.65 0.89 0.77 0.67 0.64 0.60 0.48
0.16 0.10 0.08 0.07 0.04 0.02 0.01 0.00 0.00 0.00 0.00 0.01 0.02 0.02 0.02 0.02 0.02 0.03 0.03 0.02 0.01 0.00 0.00 0.00 0.01 0.01 0.01 0.00 0.00 0.00 0.00 0.00 0.00 0.04 0.15 0.24 0.40 0.70 0.82 0.69 0.62 0.53 0.45
0.09 0.01 0.00 0.00 0.00 0.00 0.00 0.00 0.00 0.00 0.01 0.02 0.03 0.03 0.03 0.03 0.04 0.05 0.06 0.04 0.03 0.01 0.00 0.00 0.01 0.01 0.01 0.00 0.00 0.00 0.00 0.00 0.00 0.04 0.13 0.18 0.31 0.32 0.33 0.51 0.74 1.00 0.94
0.08 0.02 0.00 0.00 0.00 0.00 0.00 0.00 0.00 0.00 0.01 0.01 0.02 0.02 0.02 0.02 0.02 0.03 0.05 0.06 0.05 0.02 0.02 0.01 0.01 0.01 0.00 0.01 0.00 0.00 0.00 0.01 0.01 0.04 0.09 0.16 0.33 0.36 0.33 0.37 0.60 0.88 0.92
0.01 0.00 0.00 0.00 0.00 0.00 0.00 0.00 0.00 0.00 0.00 0.00 0.00 0.00 0.00 0.01 0.01 0.02 0.03 0.02 0.04 0.04 0.02 0.01 0.00 0.00 0.00 0.00 0.00 0.00 0.00 0.01 0.02 0.05 0.10 0.19 0.35 0.55 0.46 0.59 0.65 0.78 0.98
0.00 0.00 0.00 0.00 0.00 0.00 0.00 0.00 0.00 0.00 0.00 0.00 0.00 0.00 0.00 0.00 0.00 0.01 0.01 0.01 0.01 0.02 0.03 0.00 0.00 0.01 0.01 0.00 0.01 0.00 0.00 0.01 0.01 0.04 0.09 0.13 0.20 0.27 0.24 0.32 0.45 0.42 0.31
0.00 0.00 0.00 0.00 0.00 0.00 0.00 0.00 0.00 0.00 0.00 0.00 0.00 0.00 0.00 0.00 0.00 0.00 0.00 0.00 0.01 0.01 0.01 0.01 0.00 0.01 0.01 0.00 0.00 0.00 0.00 0.00 0.00 0.03 0.06 0.09 0.09 0.12 0.13 0.13 0.13 0.14 0.18
0.00 0.00 0.00 0.00 0.00 0.00 0.00 0.00 0.00 0.00 0.00 0.00 0.00 0.00 0.00 0.00 0.00 0.00 0.00 0.00 0.00 0.00 0.00 0.00 0.00 0.01 0.00 0.00 0.00 0.00 0.00 0.00 0.00 0.01 0.01 0.01 0.01 0.02 0.03 0.02 0.02 0.02 0.03
0.00 0.00 0.00 0.00 0.00 0.00 0.00 0.00 0.00 0.00 0.00 0.00 0.00 0.00 0.00 0.00 0.00 0.00 0.00 0.00 0.00 0.00 0.00 0.00 0.00 0.00 0.00 0.00 0.00 0.00 0.00 0.00 0.00 0.00 0.00 0.00 0.00 0.00 0.00 0.00 0.00 0.00 0.00
0.00 0.00 0.00 0.00 0.00 0.00 0.00 0.00 0.00 0.00 0.00 0.00 0.00 0.00 0.00 0.00 0.00 0.00 0.00 0.00 0.00 0.00 0.00 0.01 0.01 0.01 0.00 0.00 0.00 0.00 0.00 0.00 0.00 0.00 0.00 0.00 0.00 0.00 0.00 0.00 0.00 0.00 0.00
0.00 0.00 0.00 0.00 0.00 0.00 0.00 0.00 0.00 0.00 0.00 0.00 0.00 0.00 0.00 0.00 0.00 0.00 0.00 0.00 0.00 0.00 0.00 0.00 0.00 0.00 0.00 0.00 0.00 0.00 0.00 0.00 0.00 0.00 0.00 0.00 0.00 0.00 0.00 0.00 0.00 0.00 0.00
0.00 0.00 0.00 0.00 0.00 0.00 0.00 0.00 0.00 0.00 0.00 0.00 0.00 0.00 0.00 0.00 0.00 0.00 0.00 0.00 0.00 0.00 0.00 0.00 0.00 0.00 0.00 0.00 0.00 0.00 0.00 0.00 0.00 0.00 0.00 0.00 0.00 0.00 0.00 0.00 0.00 0.00 0.00
0.00 0.00 0.00 0.00 0.00 0.00 0.01 0.00 0.00 0.00 0.00 0.00 0.00 0.00 0.00 0.00 0.00 0.00 0.00 0.00 0.00 0.00 0.00 0.00 0.00 0.00 0.00 0.00 0.00 0.00 0.00 0.00 0.00 0.00 0.00 0.00 0.00 0.00 0.00 0.00 0.00 0.00 0.00
0.00 0.00 0.00 0.00 0.00 0.00 0.00 0.00 0.00 0.00 0.00 0.00 0.00 0.00 0.00 0.00 0.00 0.00 0.00 0.00 0.00 0.00 0.00 0.00 0.00 0.00 0.00 0.00 0.00 0.00 0.00 0.00 0.00 0.00 0.00 0.00 0.00 0.00 0.00 0.00 0.00 0.00 0.00
0.00 0.00 0.00 0.00 0.00 0.00 0.00 0.00 0.00 0.00 0.00 0.00 0.00 0.00 0.00 0.00 0.00 0.00 0.00 0.00 0.00 0.00 0.00 0.00 0.00 0.00 0.00 0.00 0.00 0.00 0.00 0.00 0.00 0.00 0.00 0.00 0.00 0.00 0.00 0.00 0.00 0.00 0.00
0.00 0.00 0.00 0.00 0.00 0.00 0.00 0.00 0.00 0.00 0.00 0.00 0.00 0.00 0.00 0.00 0.00 0.00 0.00 0.00 0.00 0.00 0.00 0.00 0.00 0.00 0.00 0.00 0.00 0.00 0.00 0.00 0.00 0.00 0.00 0.00 0.00 0.00 0.00 0.00 0.00 0.00 0.00

GFSMA_prec_precacc24_093.txt.gz
Total_Precipitation_Accumulation
0.00 0.00 0.00 0.00 0.00 0.00 0.00 0.00 0.00 0.00 0.00 0.00 0.00 0.00 0.00 0.00 0.00 0.00 0.00 0.00 0.00 0.00 0.00 0.00 0.00 0.00 0.01 0.11 0.14 0.08 0.06 0.03 0.00 0.00 0.00 0.00 0.00 0.00 0.00 0.00 0.00 0.00 0.00
0.00 0.00 0.00 0.00 0.00 0.00 0.00 0.00 0.00 0.00 0.00 0.00 0.00 0.00 0.00 0.00 0.00 0.00 0.00 0.00 0.00 0.00 0.00 0.00 0.00 0.02 0.06 0.14 0.15 0.18 0.19 0.09 0.02 0.02 0.00 0.00 0.00 0.00 0.00 0.00 0.00 0.00 0.00
0.00 0.00 0.00 0.00 0.00 0.00 0.00 0.00 0.00 0.00 0.00 0.00 0.00 0.00 0.00 0.00 0.00 0.00 0.00 0.00 0.00 0.00 0.00 0.00 0.00 0.04 0.09 0.06 0.14 0.18 0.23 0.18 0.12 0.10 0.06 0.01 0.00 0.00 0.00 0.00 0.00 0.00 0.00
0.00 0.00 0.00 0.00 0.00 0.00 0.00 0.00 0.00 0.00 0.00 0.00 0.00 0.00 0.00 0.00 0.00 0.00 0.00 0.00 0.00 0.00 0.00 0.00 0.01 0.04 0.03 0.02 0.05 0.10 0.16 0.23 0.18 0.15 0.16 0.10 0.07 0.04 0.01 0.00 0.00 0.00 0.00
0.00 0.00 0.00 0.00 0.00 0.00 0.00 0.00 0.00 0.00 0.00 0.00 0.00 0.00 0.00 0.00 0.00 0.00 0.00 0.00 0.00 0.00 0.00 0.00 0.00 0.00 0.01 0.01 0.02 0.03 0.10 0.20 0.18 0.16 0.17 0.20 0.21 0.13 0.07 0.05 0.03 0.00 0.00
0.00 0.00 0.00 0.00 0.00 0.00 0.00 0.00 0.00 0.00 0.00 0.01 0.01 0.00 0.00 0.00 0.00 0.00 0.00 0.00 0.00 0.00 0.00 0.00 0.00 0.00 0.00 0.01 0.00 0.00 0.01 0.05 0.14 0.15 0.17 0.22 0.24 0.23 0.19 0.16 0.16 0.10 0.02
0.00 0.00 0.00 0.00 0.00 0.00 0.00 0.01 0.02 0.02 0.01 0.01 0.02 0.01 0.00 0.00 0.00 0.00 0.00 0.00 0.00 0.00 0.00 0.00 0.00 0.00 0.00 0.00 0.00 0.00 0.01 0.04 0.10 0.19 0.20 0.21 0.28 0.29 0.30 0.23 0.23 0.20 0.14
0.33 0.25 0.08 0.03 0.03 0.03 0.02 0.01 0.02 0.01 0.01 0.00 0.02 0.04 0.02 0.00 0.00 0.00 0.00 0.00 0.00 0.00 0.00 0.00 0.00 0.00 0.00 0.00 0.00 0.00 0.00 0.02 0.06 0.12 0.22 0.26 0.26 0.30 0.33 0.34 0.33 0.40 0.43
0.53 0.57 0.55 0.56 0.48 0.35 0.23 0.16 0.08 0.04 0.02 0.01 0.02 0.05 0.04 0.01 0.00 0.00 0.00 0.00 0.00 0.00 0.00 0.00 0.00 0.00 0.00 0.00 0.00 0.00 0.00 0.01 0.04 0.06 0.10 0.21 0.25 0.24 0.26 0.27 0.37 0.57 0.90
0.48 0.53 0.53 0.44 0.33 0.21 0.20 0.18 0.12 0.08 0.05 0.02 0.01 0.01 0.03 0.04 0.04 0.02 0.00 0.00 0.00 0.00 0.00 0.00 0.00 0.00 0.00 0.00 0.00 0.00 0.00 0.00 0.00 0.03 0.07 0.10 0.28 0.45 0.41 0.47 0.62 0.82 0.93
0.82 0.78 0.67 0.57 0.43 0.28 0.18 0.14 0.09 0.04 0.01 0.01 0.01 0.01 0.01 0.01 0.02 0.04 0.03 0.01 0.00 0.00 0.00 0.00 0.00 0.00 0.00 0.00 0.00 0.00 0.00 0.00 0.00 0.00 0.04 0.13 0.23 0.40 0.61 0.66 0.62 0.56 0.43
0.72 0.69 0.49 0.31 0.21 0.09 0.04 0.05 0.03 0.01 0.00 0.00 0.02 0.02 0.02 0.02 0.02 0.03 0.03 0.02 0.01 0.00 0.00 0.00 0.01 0.01 0.01 0.00 0.01 0.01 0.00 0.00 0.00 0.00 0.05 0.11 0.14 0.26 0.43 0.45 0.43 0.36 0.33
0.26 0.19 0.15 0.08 0.02 0.00 0.00 0.01 0.00 0.00 0.00 0.01 0.02 0.02 0.03 0.02 0.04 0.04 0.05 0.04 0.03 0.01 0.00 0.00 0.01 0.01 0.01 0.00 0.00 0.01 0.01 0.00 0.00 0.02 0.06 0.05 0.09 0.17 0.22 0.31 0.49 0.77 0.75
0.20 0.12 0.06 0.03 0.00 0.00 0.00 0.00 0.00 0.00 0.00 0.00 0.01 0.01 0.02 0.01 0.02 0.03 0.05 0.06 0.05 0.02 0.02 0.01 0.01 0.01 0.00 0.01 0.01 0.03 0.00 0.01 0.01 0.03 0.04 0.03 0.04 0.12 0.26 0.28 0.42 0.66 0.68
0.04 0.02 0.00 0.00 0.00 0.00 0.00 0.00 0.00 0.00 0.00 0.00 0.00 0.00 0.00 0.01 0.01 0.02 0.03 0.02 0.04 0.04 0.02 0.00 0.00 0.00 0.00 0.00 0.01 0.00 0.00 0.01 0.02 0.03 0.04 0.05 0.03 0.14 0.30 0.46 0.50 0.60 0.81
0.00 0.00 0.00 0.00 0.00 0.00 0.00 0.00 0.00 0.00 0.00 0.00 0.00 0.00 0.00 0.00 0.00 0.01 0.01 0.01 0.01 0.02 0.03 0.00 0.00 0.01 0.01 0.00 0.01 0.00 0.00 0.01 0.01 0.03 0.04 0.04 0.04 0.06 0.06 0.11 0.25 0.28 0.22
0.00 0.00 0.00 0.00 0.00 0.00 0.00 0.00 0.00 0.00 0.00 0.00 0.00 0.00 0.00 0.00 0.00 0.00 0.00 0.00 0.00 0.01 0.01 0.01 0.00 0.01 0.01 0.01 0.00 0.00 0.00 0.00 0.00 0.01 0.01 0.02 0.02 0.02 0.03 0.04 0.05 0.08 0.13
0.00 0.00 0.00 0.00 0.00 0.00 0.00 0.00 0.00 0.00 0.00 0.00 0.00 0.00 0.00 0.00 0.00 0.00 0.00 0.00 0.00 0.00 0.00 0.00 0.00 0.01 0.00 0.01 0.00 0.01 0.00 0.00 0.00 0.00 0.00 0.00 0.00 0.00 0.00 0.00 0.00 0.01 0.02
0.00 0.00 0.00 0.00 0.00 0.00 0.00 0.00 0.00 0.00 0.00 0.00 0.00 0.00 0.00 0.00 0.00 0.00 0.00 0.00 0.00 0.00 0.00 0.00 0.00 0.00 0.00 0.00 0.00 0.00 0.00 0.00 0.00 0.00 0.00 0.00 0.00 0.00 0.00 0.00 0.00 0.00 0.00
0.00 0.00 0.00 0.00 0.00 0.00 0.00 0.00 0.00 0.00 0.00 0.00 0.00 0.00 0.00 0.00 0.00 0.00 0.00 0.00 0.00 0.00 0.00 0.01 0.01 0.01 0.01 0.00 0.00 0.00 0.00 0.00 0.00 0.00 0.00 0.00 0.00 0.00 0.00 0.00 0.00 0.00 0.00
0.00 0.00 0.00 0.00 0.00 0.00 0.00 0.00 0.00 0.00 0.00 0.00 0.00 0.00 0.00 0.00 0.00 0.00 0.00 0.00 0.00 0.00 0.00 0.00 0.00 0.00 0.00 0.00 0.00 0.00 0.00 0.00 0.00 0.00 0.00 0.00 0.00 0.00 0.00 0.00 0.00 0.00 0.00
0.00 0.00 0.00 0.00 0.00 0.00 0.00 0.00 0.00 0.00 0.00 0.00 0.00 0.00 0.00 0.00 0.00 0.00 0.00 0.00 0.00 0.00 0.00 0.00 0.00 0.00 0.00 0.00 0.00 0.00 0.00 0.00 0.00 0.00 0.00 0.00 0.00 0.00 0.00 0.00 0.00 0.00 0.00
0.00 0.00 0.00 0.00 0.00 0.00 0.01 0.00 0.00 0.00 0.00 0.00 0.00 0.00 0.00 0.00 0.00 0.00 0.00 0.00 0.00 0.00 0.00 0.00 0.00 0.00 0.00 0.00 0.00 0.00 0.00 0.00 0.00 0.00 0.00 0.00 0.00 0.00 0.00 0.00 0.00 0.00 0.00
0.00 0.00 0.00 0.00 0.00 0.00 0.00 0.00 0.00 0.00 0.00 0.00 0.00 0.00 0.00 0.00 0.00 0.00 0.00 0.00 0.00 0.00 0.00 0.00 0.00 0.00 0.00 0.00 0.00 0.00 0.00 0.00 0.00 0.00 0.00 0.00 0.00 0.00 0.00 0.00 0.00 0.00 0.00
0.00 0.00 0.00 0.00 0.00 0.00 0.00 0.00 0.00 0.00 0.00 0.00 0.00 0.00 0.00 0.00 0.00 0.00 0.00 0.00 0.00 0.00 0.00 0.00 0.00 0.00 0.00 0.00 0.00 0.00 0.00 0.00 0.00 0.00 0.00 0.00 0.00 0.00 0.00 0.00 0.00 0.00 0.00
0.00 0.00 0.00 0.00 0.00 0.00 0.00 0.00 0.00 0.00 0.00 0.00 0.00 0.00 0.00 0.00 0.00 0.00 0.00 0.00 0.00 0.00 0.00 0.00 0.00 0.00 0.00 0.00 0.00 0.00 0.00 0.00 0.00 0.00 0.00 0.00 0.00 0.00 0.00 0.00 0.00 0.00 0.00

GFSMA_prec_precacc24_096.txt.gz
Total_Precipitation_Accumulation
0.00 0.00 0.00 0.00 0.00 0.00 0.00 0.00 0.00 0.00 0.00 0.00 0.00 0.00 0.00 0.00 0.00 0.00 0.00 0.00 0.00 0.00 0.00 0.00 0.00 0.01 0.03 0.14 0.14 0.09 0.06 0.03 0.00 0.00 0.00 0.00 0.00 0.00 0.00 0.00 0.00 0.00 0.00
0.00 0.00 0.00 0.00 0.00 0.00 0.00 0.00 0.00 0.00 0.00 0.00 0.00 0.00 0.00 0.00 0.00 0.00 0.00 0.00 0.00 0.00 0.00 0.00 0.00 0.04 0.08 0.16 0.15 0.18 0.19 0.09 0.02 0.02 0.00 0.00 0.00 0.00 0.00 0.00 0.00 0.00 0.00
0.00 0.00 0.00 0.00 0.00 0.00 0.00 0.00 0.00 0.00 0.00 0.00 0.00 0.00 0.00 0.00 0.00 0.00 0.00 0.00 0.00 0.00 0.00 0.00 0.01 0.06 0.13 0.08 0.15 0.18 0.23 0.18 0.12 0.10 0.06 0.01 0.01 0.00 0.00 0.00 0.00 0.00 0.00
0.00 0.00 0.00 0.00 0.00 0.00 0.00 0.00 0.00 0.00 0.00 0.00 0.00 0.00 0.00 0.00 0.00 0.00 0.00 0.00 0.00 0.00 0.00 0.00 0.01 0.05 0.05 0.04 0.07 0.12 0.16 0.23 0.18 0.15 0.16 0.10 0.08 0.06 0.05 0.03 0.00 0.00 0.00
0.00 0.00 0.00 0.00 0.00 0.00 0.00 0.00 0.00 0.00 0.00 0.00 0.00 0.00 0.00 0.00 0.00 0.00 0.00 0.00 0.00 0.00 0.00 0.00 0.00 0.00 0.01 0.04 0.03 0.04 0.09 0.19 0.18 0.16 0.17 0.20 0.21 0.13 0.07 0.08 0.09 0.05 0.00
0.00 0.00 0.00 0.00 0.00 0.00 0.00 0.00 0.00 0.00 0.00 0.01 0.01 0.00 0.00 0.00 0.00 0.00 0.00 0.00 0.00 0.00 0.00 0.00 0.00 0.00 0.00 0.03 0.02 0.00 0.01 0.03 0.13 0.15 0.17 0.22 0.24 0.23 0.19 0.16 0.17 0.16 0.07
0.01 0.01 0.01 0.00 0.00 0.00 0.00 0.01 0.01 0.02 0.01 0.01 0.02 0.01 0.00 0.00 0.00 0.00 0.00 0.00 0.00 0.00 0.00 0.00 0.00 0.00 0.00 0.00 0.00 0.00 0.01 0.03 0.07 0.16 0.19 0.21 0.28 0.29 0.30 0.23 0.24 0.21 0.16
0.39 0.31 0.14 0.05 0.04 0.03 0.02 0.03 0.05 0.04 0.02 0.00 0.03 0.04 0.02 0.00 0.00 0.00 0.00 0.00 0.00 0.00 0.00 0.00 0.00 0.00 0.00 0.00 0.00 0.00 0.00 0.01 0.03 0.07 0.14 0.23 0.25 0.31 0.34 0.36 0.33 0.40 0.44
0.61 0.69 0.70 0.72 0.59 0.43 0.29 0.21 0.12 0.06 0.08 0.04 0.02 0.06 0.03 0.00 0.00 0.00 0.00 0.00 0.00 0.00 0.00 0.00 0.00 0.00 0.00 0.00 0.00 0.00 0.00 0.00 0.00 0.01 0.04 0.10 0.18 0.23 0.27 0.28 0.36 0.57 0.90
0.52 0.66 0.78 0.70 0.76 0.54 0.33 0.23 0.13 0.09 0.06 0.03 0.01 0.01 0.02 0.04 0.04 0.02 0.00 0.00 0.00 0.00 0.00 0.00 0.00 0.00 0.00 0.00 0.00 0.00 0.00 0.00 0.00 0.00 0.00 0.03 0.12 0.21 0.31 0.42 0.61 0.82 0.93
0.95 0.93 0.94 0.97 0.93 0.89 0.61 0.32 0.18 0.08 0.02 0.00 0.01 0.01 0.01 0.01 0.02 0.03 0.02 0.01 0.00 0.00 0.00 0.00 0.00 0.00 0.00 0.00 0.00 0.00 0.00 0.00 0.00 0.00 0.01 0.07 0.08 0.10 0.20 0.42 0.54 0.55 0.38
0.88 1.03 1.01 0.94 0.84 0.49 0.29 0.18 0.08 0.04 0.01 0.01 0.01 0.01 0.01 0.02 0.02 0.02 0.03 0.02 0.01 0.00 0.00 0.00 0.01 0.01 0.01 0.00 0.01 0.01 0.01 0.00 0.00 0.00 0.05 0.08 0.03 0.06 0.14 0.26 0.33 0.32 0.27
0.34 0.31 0.34 0.34 0.33 0.24 0.09 0.02 0.01 0.00 0.00 0.01 0.01 0.02 0.02 0.02 0.03 0.04 0.04 0.03 0.03 0.01 0.00 0.00 0.01 0.01 0.01 0.00 0.00 0.01 0.01 0.01 0.01 0.02 0.06 0.04 0.03 0.03 0.04 0.11 0.36 0.67 0.62
0.29 0.19 0.12 0.07 0.04 0.02 0.00 0.00 0.00 0.00 0.00 0.00 0.00 0.00 0.01 0.01 0.01 0.03 0.04 0.05 0.04 0.02 0.02 0.01 0.01 0.01 0.00 0.01 0.01 0.03 0.01 0.01 0.01 0.03 0.04 0.03 0.03 0.02 0.03 0.04 0.11 0.39 0.41
0.08 0.06 0.03 0.02 0.00 0.00 0.00 0.00 0.00 0.00 0.00 0.00 0.00 0.00 0.00 0.01 0.01 0.02 0.03 0.02 0.04 0.03 0.02 0.00 0.00 0.00 0.00 0.00 0.01 0.00 0.00 0.02 0.02 0.03 0.04 0.03 0.03 0.03 0.03 0.05 0.12 0.39 0.63
0.02 0.02 0.02 0.01 0.00 0.00 0.00 0.00 0.00 0.00 0.00 0.00 0.00 0.00 0.00 0.00 0.00 0.01 0.01 0.01 0.01 0.02 0.03 0.00 0.00 0.01 0.01 0.00 0.02 0.00 0.00 0.00 0.01 0.02 0.03 0.03 0.02 0.03 0.02 0.06 0.15 0.18 0.17
0.00 0.00 0.00 0.00 0.00 0.00 0.00 0.00 0.00 0.00 0.00 0.00 0.00 0.00 0.00 0.00 0.00 0.00 0.00 0.00 0.00 0.01 0.02 0.01 0.00 0.01 0.01 0.01 0.00 0.00 0.00 0.00 0.00 0.01 0.01 0.01 0.01 0.01 0.00 0.01 0.01 0.04 0.10
0.00 0.00 0.00 0.00 0.00 0.00 0.00 0.00 0.00 0.00 0.00 0.00 0.00 0.00 0.00 0.00 0.00 0.00 0.00 0.00 0.00 0.00 0.00 0.01 0.00 0.01 0.00 0.01 0.00 0.01 0.00 0.00 0.00 0.00 0.00 0.00 0.00 0.00 0.00 0.00 0.00 0.00 0.01
0.00 0.00 0.00 0.00 0.00 0.00 0.00 0.00 0.00 0.00 0.00 0.00 0.00 0.00 0.00 0.00 0.00 0.00 0.00 0.00 0.00 0.00 0.00 0.00 0.00 0.00 0.00 0.00 0.00 0.00 0.00 0.00 0.00 0.00 0.00 0.00 0.00 0.00 0.00 0.00 0.00 0.00 0.00
0.00 0.00 0.00 0.00 0.00 0.00 0.00 0.00 0.00 0.00 0.00 0.00 0.00 0.00 0.00 0.00 0.00 0.00 0.00 0.00 0.00 0.00 0.00 0.01 0.01 0.01 0.01 0.00 0.00 0.00 0.00 0.00 0.00 0.00 0.00 0.00 0.00 0.00 0.00 0.00 0.00 0.00 0.00
0.00 0.00 0.00 0.00 0.00 0.00 0.00 0.00 0.00 0.00 0.00 0.00 0.00 0.00 0.00 0.00 0.00 0.00 0.00 0.00 0.00 0.00 0.00 0.00 0.00 0.00 0.00 0.00 0.00 0.00 0.00 0.00 0.00 0.00 0.00 0.00 0.00 0.00 0.00 0.00 0.00 0.00 0.00
0.00 0.00 0.00 0.00 0.00 0.00 0.00 0.00 0.00 0.00 0.00 0.00 0.00 0.00 0.00 0.00 0.00 0.00 0.00 0.00 0.00 0.00 0.00 0.00 0.00 0.00 0.00 0.00 0.00 0.00 0.00 0.00 0.00 0.00 0.00 0.00 0.00 0.00 0.00 0.00 0.00 0.00 0.00
0.00 0.00 0.00 0.00 0.00 0.00 0.01 0.00 0.00 0.00 0.00 0.00 0.00 0.00 0.00 0.00 0.00 0.00 0.00 0.00 0.00 0.00 0.00 0.00 0.00 0.00 0.00 0.00 0.00 0.00 0.00 0.00 0.00 0.00 0.00 0.00 0.00 0.00 0.00 0.00 0.00 0.00 0.00
0.00 0.00 0.00 0.00 0.00 0.00 0.00 0.00 0.00 0.00 0.00 0.00 0.00 0.00 0.00 0.00 0.00 0.00 0.00 0.00 0.00 0.00 0.00 0.00 0.00 0.00 0.00 0.00 0.00 0.00 0.00 0.00 0.00 0.00 0.00 0.00 0.00 0.00 0.00 0.00 0.00 0.00 0.00
0.00 0.00 0.00 0.00 0.00 0.00 0.00 0.00 0.00 0.00 0.00 0.00 0.00 0.00 0.00 0.00 0.00 0.00 0.00 0.00 0.00 0.00 0.00 0.00 0.00 0.00 0.00 0.00 0.00 0.00 0.00 0.00 0.00 0.00 0.00 0.00 0.00 0.00 0.00 0.00 0.00 0.00 0.00
0.00 0.00 0.00 0.00 0.00 0.00 0.00 0.00 0.00 0.00 0.00 0.00 0.00 0.00 0.00 0.00 0.00 0.00 0.00 0.00 0.00 0.00 0.00 0.00 0.00 0.00 0.00 0.00 0.00 0.00 0.00 0.00 0.00 0.00 0.00 0.00 0.00 0.00 0.00 0.00 0.00 0.00 0.00

GFSMA_prec_precacc24_099.txt.gz
Total_Precipitation_Accumulation
0.00 0.00 0.00 0.00 0.00 0.00 0.00 0.00 0.00 0.00 0.00 0.00 0.00 0.00 0.00 0.00 0.00 0.00 0.00 0.00 0.00 0.00 0.00 0.00 0.01 0.02 0.04 0.20 0.15 0.10 0.08 0.05 0.00 0.00 0.00 0.00 0.00 0.00 0.00 0.00 0.00 0.00 0.00
0.00 0.00 0.00 0.00 0.00 0.00 0.00 0.00 0.00 0.00 0.00 0.00 0.00 0.00 0.00 0.00 0.00 0.00 0.00 0.00 0.00 0.00 0.00 0.00 0.01 0.05 0.12 0.19 0.16 0.18 0.20 0.09 0.02 0.02 0.00 0.00 0.00 0.00 0.00 0.00 0.00 0.00 0.00
0.00 0.00 0.00 0.00 0.00 0.00 0.00 0.00 0.00 0.00 0.00 0.00 0.00 0.00 0.00 0.00 0.00 0.00 0.00 0.00 0.00 0.00 0.00 0.00 0.01 0.07 0.17 0.10 0.16 0.20 0.25 0.18 0.12 0.10 0.06 0.01 0.02 0.03 0.03 0.01 0.00 0.00 0.00
0.00 0.00 0.00 0.00 0.00 0.00 0.00 0.00 0.00 0.00 0.00 0.00 0.00 0.00 0.00 0.00 0.00 0.00 0.00 0.00 0.00 0.00 0.00 0.00 0.01 0.05 0.05 0.06 0.09 0.14 0.17 0.23 0.18 0.15 0.16 0.10 0.08 0.07 0.07 0.08 0.06 0.02 0.00
0.00 0.00 0.00 0.00 0.00 0.00 0.00 0.00 0.00 0.00 0.00 0.00 0.00 0.00 0.00 0.00 0.00 0.00 0.00 0.00 0.00 0.00 0.00 0.00 0.00 0.00 0.01 0.05 0.05 0.05 0.08 0.17 0.17 0.16 0.17 0.20 0.21 0.13 0.07 0.09 0.12 0.13 0.07
0.00 0.00 0.00 0.00 0.00 0.00 0.00 0.00 0.00 0.00 0.00 0.00 0.01 0.00 0.00 0.00 0.00 0.00 0.00 0.00 0.00 0.00 0.00 0.00 0.00 0.00 0.00 0.04 0.05 0.01 0.00 0.02 0.09 0.14 0.16 0.22 0.24 0.23 0.19 0.16 0.17 0.17 0.11
0.01 0.01 0.01 0.00 0.00 0.00 0.00 0.00 0.00 0.01 0.00 0.01 0.01 0.01 0.00 0.00 0.00 0.00 0.00 0.00 0.00 0.00 0.00 0.00 0.00 0.00 0.00 0.00 0.00 0.00 0.00 0.00 0.02 0.06 0.13 0.19 0.27 0.29 0.30 0.24 0.25 0.21 0.17
0.39 0.32 0.15 0.06 0.05 0.03 0.02 0.03 0.05 0.07 0.05 0.02 0.03 0.04 0.01 0.00 0.00 0.00 0.00 0.00 0.00 0.00 0.00 0.00 0.00 0.00 0.00 0.00 0.00 0.00 0.00 0.00 0.00 0.00 0.03 0.10 0.17 0.28 0.34 0.37 0.34 0.40 0.44
0.62 0.69 0.71 0.74 0.60 0.45 0.34 0.27 0.15 0.13 0.18 0.11 0.05 0.05 0.02 0.00 0.00 0.00 0.00 0.00 0.00 0.00 0.00 0.00 0.00 0.00 0.00 0.00 0.00 0.00 0.00 0.00 0.00 0.00 0.00 0.01 0.04 0.13 0.21 0.25 0.36 0.57 0.89
0.52 0.67 0.78 0.71 0.83 0.83 0.66 0.45 0.26 0.16 0.09 0.07 0.02 0.01 0.01 0.03 0.02 0.01 0.00 0.00 0.00 0.00 0.00 0.00 0.00 0.00 0.00 0.00 0.00 0.00 0.00 0.00 0.00 0.00 0.00 0.02 0.06 0.08 0.12 0.17 0.39 0.70 0.89
0.98 0.94 0.95 1.00 1.00 1.08 1.09 0.92 0.64 0.34 0.16 0.07 0.02 0.00 0.00 0.01 0.01 0.02 0.01 0.00 0.00 0.00 0.00 0.00 0.00 0.00 0.00 0.00 0.00 0.00 0.00 0.00 0.00 0.00 0.02 0.07 0.07 0.03 0.06 0.13 0.17 0.30 0.32
0.95 1.11 1.09 1.05 1.00 0.80 0.66 0.54 0.34 0.19 0.08 0.03 0.02 0.01 0.00 0.01 0.01 0.02 0.02 0.01 0.01 0.00 0.00 0.00 0.01 0.01 0.01 0.00 0.01 0.01 0.01 0.00 0.00 0.01 0.05 0.08 0.03 0.03 0.06 0.10 0.10 0.13 0.16
0.46 0.41 0.43 0.46 0.50 0.48 0.28 0.15 0.08 0.02 0.00 0.00 0.01 0.01 0.01 0.01 0.02 0.02 0.04 0.03 0.02 0.01 0.00 0.00 0.01 0.01 0.01 0.00 0.00 0.01 0.01 0.01 0.01 0.02 0.06 0.04 0.02 0.03 0.03 0.05 0.06 0.11 0.38
0.45 0.30 0.21 0.14 0.11 0.06 0.04 0.01 0.00 0.00 0.00 0.00 0.00 0.00 0.00 0.00 0.00 0.02 0.03 0.05 0.04 0.02 0.02 0.01 0.01 0.01 0.00 0.01 0.01 0.03 0.01 0.01 0.01 0.03 0.04 0.02 0.03 0.02 0.03 0.05 0.04 0.05 0.08
0.12 0.15 0.15 0.10 0.06 0.03 0.01 0.01 0.00 0.00 0.00 0.00 0.00 0.00 0.00 0.01 0.01 0.01 0.02 0.02 0.04 0.03 0.02 0.00 0.00 0.00 0.00 0.00 0.01 0.00 0.00 0.02 0.02 0.03 0.04 0.03 0.03 0.03 0.02 0.03 0.04 0.04 0.05
0.03 0.04 0.06 0.07 0.02 0.01 0.01 0.00 0.00 0.00 0.00 0.00 0.00 0.00 0.00 0.00 0.00 0.01 0.01 0.01 0.01 0.02 0.03 0.00 0.00 0.01 0.01 0.00 0.02 0.00 0.00 0.01 0.00 0.02 0.02 0.02 0.02 0.03 0.02 0.02 0.04 0.06 0.07
0.00 0.01 0.01 0.02 0.02 0.01 0.00 0.00 0.00 0.00 0.00 0.00 0.00 0.00 0.00 0.00 0.00 0.00 0.00 0.00 0.00 0.02 0.03 0.01 0.00 0.01 0.01 0.01 0.00 0.00 0.00 0.00 0.00 0.01 0.00 0.01 0.00 0.01 0.00 0.00 0.00 0.00 0.03
0.00 0.00 0.01 0.02 0.02 0.01 0.00 0.00 0.00 0.00 0.00 0.00 0.00 0.00 0.00 0.00 0.00 0.00 0.00 0.00 0.00 0.00 0.01 0.01 0.00 0.01 0.00 0.01 0.00 0.01 0.00 0.00 0.00 0.02 0.00 0.00 0.00 0.00 0.00 0.00 0.00 0.00 0.00
0.00 0.00 0.00 0.00 0.00 0.00 0.00 0.00 0.00 0.00 0.00 0.00 0.00 0.00 0.00 0.00 0.00 0.00 0.00 0.00 0.00 0.00 0.00 0.01 0.01 0.00 0.00 0.00 0.00 0.00 0.00 0.00 0.00 0.00 0.00 0.00 0.00 0.00 0.00 0.00 0.00 0.00 0.00
0.00 0.00 0.00 0.00 0.00 0.00 0.00 0.00 0.00 0.00 0.00 0.00 0.00 0.00 0.00 0.00 0.00 0.00 0.00 0.00 0.00 0.00 0.00 0.01 0.01 0.01 0.01 0.00 0.00 0.00 0.00 0.00 0.00 0.00 0.00 0.00 0.00 0.00 0.00 0.00 0.00 0.00 0.00
0.00 0.00 0.00 0.00 0.00 0.00 0.00 0.00 0.00 0.00 0.00 0.00 0.00 0.00 0.00 0.00 0.00 0.00 0.00 0.00 0.00 0.00 0.00 0.00 0.00 0.00 0.00 0.00 0.00 0.00 0.00 0.00 0.00 0.00 0.00 0.00 0.00 0.00 0.00 0.00 0.00 0.00 0.00
0.00 0.00 0.00 0.00 0.00 0.00 0.00 0.00 0.00 0.00 0.00 0.00 0.00 0.00 0.00 0.00 0.00 0.00 0.00 0.00 0.00 0.00 0.00 0.00 0.00 0.00 0.00 0.00 0.00 0.00 0.00 0.00 0.00 0.00 0.00 0.00 0.00 0.00 0.00 0.00 0.00 0.00 0.00
0.00 0.00 0.00 0.00 0.00 0.00 0.01 0.00 0.00 0.00 0.00 0.00 0.00 0.00 0.00 0.00 0.00 0.00 0.00 0.00 0.00 0.00 0.00 0.00 0.00 0.00 0.00 0.00 0.00 0.00 0.00 0.00 0.00 0.00 0.00 0.00 0.00 0.00 0.00 0.00 0.00 0.00 0.00
0.00 0.00 0.00 0.00 0.00 0.00 0.00 0.00 0.00 0.00 0.00 0.00 0.00 0.00 0.00 0.00 0.00 0.00 0.00 0.00 0.00 0.00 0.00 0.00 0.00 0.00 0.00 0.00 0.00 0.00 0.00 0.00 0.00 0.00 0.00 0.00 0.00 0.00 0.00 0.00 0.00 0.00 0.00
0.00 0.00 0.00 0.00 0.00 0.00 0.00 0.00 0.00 0.00 0.00 0.00 0.00 0.00 0.00 0.00 0.00 0.00 0.00 0.00 0.00 0.00 0.00 0.00 0.00 0.00 0.00 0.00 0.00 0.00 0.00 0.00 0.00 0.00 0.00 0.00 0.00 0.00 0.00 0.00 0.00 0.00 0.00
0.00 0.00 0.00 0.00 0.00 0.00 0.00 0.00 0.00 0.00 0.00 0.00 0.00 0.00 0.00 0.00 0.00 0.00 0.00 0.00 0.00 0.00 0.00 0.00 0.00 0.00 0.00 0.00 0.00 0.00 0.00 0.00 0.00 0.00 0.00 0.00 0.00 0.00 0.00 0.00 0.00 0.00 0.00

GFSMA_prec_precacc24_102.txt.gz
Total_Precipitation_Accumulation
0.00 0.00 0.00 0.00 0.00 0.00 0.00 0.00 0.00 0.00 0.00 0.00 0.00 0.00 0.00 0.00 0.00 0.00 0.00 0.00 0.00 0.00 0.00 0.00 0.01 0.02 0.06 0.22 0.16 0.10 0.08 0.05 0.01 0.00 0.00 0.00 0.00 0.00 0.00 0.00 0.00 0.00 0.00
0.00 0.00 0.00 0.00 0.00 0.00 0.00 0.00 0.00 0.00 0.00 0.00 0.00 0.00 0.00 0.00 0.00 0.00 0.00 0.00 0.00 0.00 0.00 0.00 0.01 0.06 0.14 0.19 0.16 0.19 0.20 0.09 0.02 0.02 0.00 0.00 0.00 0.00 0.01 0.01 0.00 0.00 0.00
0.00 0.00 0.00 0.00 0.00 0.00 0.00 0.00 0.00 0.00 0.00 0.00 0.00 0.00 0.00 0.00 0.00 0.00 0.00 0.00 0.00 0.00 0.00 0.00 0.01 0.07 0.17 0.10 0.16 0.20 0.25 0.18 0.12 0.10 0.06 0.01 0.02 0.03 0.04 0.05 0.04 0.02 0.00
0.00 0.00 0.00 0.00 0.00 0.00 0.00 0.00 0.00 0.00 0.00 0.00 0.00 0.00 0.00 0.00 0.00 0.00 0.00 0.00 0.00 0.00 0.00 0.00 0.01 0.05 0.05 0.06 0.08 0.12 0.15 0.23 0.18 0.15 0.16 0.10 0.08 0.07 0.07 0.08 0.07 0.07 0.05
0.00 0.00 0.00 0.00 0.00 0.00 0.00 0.00 0.00 0.00 0.00 0.00 0.00 0.00 0.00 0.00 0.00 0.00 0.00 0.00 0.00 0.00 0.00 0.00 0.00 0.00 0.01 0.05 0.06 0.04 0.06 0.13 0.15 0.16 0.17 0.20 0.21 0.13 0.07 0.09 0.12 0.13 0.11
0.00 0.00 0.00 0.00 0.00 0.00 0.00 0.00 0.00 0.00 0.00 0.00 0.00 0.00 0.00 0.00 0.00 0.00 0.00 0.00 0.00 0.00 0.00 0.00 0.00 0.00 0.00 0.04 0.07 0.01 0.00 0.00 0.03 0.08 0.12 0.21 0.24 0.23 0.19 0.16 0.18 0.17 0.11
0.01 0.01 0.01 0.00 0.00 0.00 0.00 0.00 0.00 0.00 0.00 0.00 0.01 0.00 0.00 0.00 0.00 0.00 0.00 0.00 0.00 0.00 0.00 0.00 0.00 0.00 0.00 0.00 0.00 0.00 0.00 0.00 0.00 0.00 0.02 0.09 0.21 0.27 0.30 0.24 0.26 0.22 0.17
0.39 0.32 0.15 0.07 0.05 0.03 0.02 0.03 0.04 0.06 0.06 0.05 0.05 0.03 0.01 0.00 0.00 0.00 0.00 0.00 0.00 0.00 0.00 0.00 0.00 0.00 0.00 0.00 0.00 0.00 0.00 0.00 0.00 0.00 0.00 0.01 0.03 0.13 0.26 0.36 0.34 0.40 0.44
0.62 0.69 0.71 0.74 0.61 0.45 0.34 0.29 0.16 0.16 0.26 0.20 0.11 0.06 0.02 0.00 0.00 0.00 0.00 0.00 0.00 0.00 0.00 0.00 0.00 0.00 0.00 0.00 0.00 0.00 0.00 0.00 0.00 0.00 0.00 0.01 0.01 0.05 0.11 0.14 0.22 0.37 0.79
0.60 0.72 0.81 0.72 0.84 0.85 0.69 0.49 0.33 0.25 0.19 0.19 0.12 0.05 0.03 0.01 0.01 0.00 0.00 0.00 0.00 0.00 0.00 0.00 0.00 0.00 0.00 0.00 0.00 0.00 0.00 0.00 0.00 0.00 0.00 0.02 0.07 0.07 0.06 0.06 0.09 0.17 0.33
1.02 0.99 0.97 1.01 1.00 1.08 1.10 0.93 0.73 0.55 0.42 0.29 0.17 0.06 0.01 0.00 0.00 0.01 0.00 0.00 0.00 0.00 0.00 0.00 0.00 0.00 0.00 0.00 0.00 0.00 0.00 0.00 0.00 0.00 0.04 0.09 0.07 0.03 0.05 0.09 0.12 0.12 0.11
0.99 1.16 1.13 1.07 1.00 0.82 0.68 0.59 0.39 0.31 0.23 0.14 0.08 0.02 0.00 0.00 0.00 0.01 0.01 0.01 0.00 0.00 0.00 0.00 0.01 0.01 0.01 0.00 0.01 0.01 0.01 0.00 0.00 0.01 0.05 0.08 0.02 0.03 0.06 0.09 0.09 0.06 0.05
0.50 0.43 0.44 0.47 0.51 0.51 0.42 0.34 0.20 0.12 0.07 0.02 0.01 0.00 0.00 0.00 0.00 0.01 0.02 0.01 0.02 0.00 0.00 0.00 0.01 0.01 0.01 0.00 0.00 0.01 0.01 0.01 0.01 0.02 0.06 0.04 0.02 0.03 0.03 0.05 0.06 0.06 0.06
0.63 0.47 0.31 0.23 0.18 0.11 0.07 0.05 0.01 0.01 0.00 0.00 0.00 0.00 0.00 0.00 0.00 0.01 0.02 0.03 0.03 0.02 0.02 0.01 0.01 0.01 0.00 0.01 0.01 0.03 0.01 0.01 0.01 0.02 0.03 0.02 0.02 0.02 0.03 0.04 0.04 0.05 0.06
0.28 0.29 0.30 0.25 0.16 0.10 0.05 0.03 0.01 0.00 0.00 0.00 0.00 0.00 0.00 0.00 0.00 0.00 0.00 0.01 0.03 0.03 0.02 0.00 0.00 0.00 0.00 0.00 0.01 0.00 0.00 0.02 0.01 0.01 0.02 0.02 0.03 0.03 0.02 0.02 0.03 0.04 0.04
0.10 0.08 0.11 0.12 0.07 0.07 0.07 0.03 0.03 0.05 0.02 0.01 0.00 0.00 0.00 0.00 0.00 0.00 0.00 0.01 0.01 0.02 0.03 0.00 0.00 0.01 0.01 0.00 0.02 0.00 0.00 0.01 0.00 0.00 0.01 0.01 0.02 0.02 0.01 0.02 0.03 0.02 0.04
0.01 0.01 0.01 0.03 0.03 0.01 0.01 0.01 0.01 0.01 0.01 0.00 0.00 0.00 0.00 0.00 0.00 0.00 0.00 0.00 0.00 0.02 0.03 0.01 0.00 0.01 0.01 0.01 0.00 0.00 0.00 0.00 0.00 0.01 0.00 0.00 0.00 0.01 0.00 0.00 0.00 0.00 0.01
0.00 0.00 0.01 0.02 0.03 0.03 0.02 0.02 0.02 0.02 0.00 0.00 0.00 0.00 0.00 0.00 0.00 0.00 0.00 0.00 0.00 0.00 0.01 0.01 0.00 0.01 0.00 0.01 0.00 0.01 0.00 0.00 0.00 0.02 0.00 0.00 0.00 0.00 0.00 0.00 0.00 0.00 0.00
0.00 0.00 0.00 0.00 0.01 0.01 0.02 0.02 0.03 0.02 0.00 0.00 0.00 0.00 0.00 0.00 0.00 0.00 0.00 0.00 0.00 0.00 0.00 0.01 0.01 0.00 0.00 0.00 0.00 0.00 0.00 0.00 0.00 0.00 0.00 0.00 0.00 0.00 0.00 0.00 0.00 0.00 0.00
0.00 0.00 0.00 0.00 0.00 0.01 0.01 0.01 0.01 0.01 0.00 0.00 0.00 0.00 0.00 0.00 0.00 0.00 0.00 0.00 0.00 0.00 0.00 0.01 0.01 0.01 0.01 0.00 0.00 0.00 0.00 0.00 0.00 0.00 0.00 0.00 0.00 0.00 0.00 0.00 0.00 0.00 0.00
0.00 0.00 0.00 0.00 0.00 0.00 0.00 0.00 0.00 0.00 0.00 0.00 0.00 0.00 0.00 0.00 0.00 0.00 0.00 0.00 0.00 0.00 0.00 0.00 0.00 0.00 0.00 0.00 0.00 0.00 0.00 0.00 0.00 0.00 0.00 0.00 0.00 0.00 0.00 0.00 0.00 0.00 0.00
0.00 0.00 0.00 0.00 0.00 0.00 0.00 0.00 0.00 0.00 0.00 0.00 0.00 0.00 0.00 0.00 0.00 0.00 0.00 0.00 0.00 0.00 0.00 0.00 0.00 0.00 0.00 0.00 0.00 0.00 0.00 0.00 0.00 0.00 0.00 0.00 0.00 0.00 0.00 0.00 0.00 0.00 0.00
0.00 0.00 0.00 0.00 0.00 0.00 0.01 0.00 0.00 0.00 0.00 0.00 0.00 0.00 0.00 0.00 0.00 0.00 0.00 0.00 0.00 0.00 0.00 0.00 0.00 0.00 0.00 0.00 0.00 0.00 0.00 0.00 0.00 0.00 0.00 0.00 0.00 0.00 0.00 0.00 0.00 0.00 0.00
0.00 0.00 0.00 0.00 0.00 0.00 0.00 0.00 0.00 0.00 0.00 0.00 0.00 0.00 0.00 0.00 0.00 0.00 0.00 0.00 0.00 0.00 0.00 0.00 0.00 0.00 0.00 0.00 0.00 0.00 0.00 0.00 0.00 0.00 0.00 0.00 0.00 0.00 0.00 0.00 0.00 0.00 0.00
0.00 0.00 0.00 0.00 0.00 0.00 0.00 0.00 0.00 0.00 0.00 0.00 0.00 0.00 0.00 0.00 0.00 0.00 0.00 0.00 0.00 0.00 0.00 0.00 0.00 0.00 0.00 0.00 0.00 0.00 0.00 0.00 0.00 0.00 0.00 0.00 0.00 0.00 0.00 0.00 0.00 0.00 0.00
0.00 0.00 0.00 0.00 0.00 0.00 0.00 0.00 0.00 0.00 0.00 0.00 0.00 0.00 0.00 0.00 0.00 0.00 0.00 0.00 0.00 0.00 0.00 0.00 0.00 0.00 0.00 0.00 0.00 0.00 0.00 0.00 0.00 0.00 0.00 0.00 0.00 0.00 0.00 0.00 0.00 0.00 0.00

GFSMA_prec_precacc24_105.txt.gz
Total_Precipitation_Accumulation
0.00 0.00 0.00 0.00 0.00 0.00 0.00 0.00 0.00 0.00 0.00 0.00 0.00 0.00 0.00 0.00 0.00 0.00 0.00 0.00 0.00 0.00 0.00 0.00 0.01 0.02 0.07 0.22 0.16 0.11 0.08 0.05 0.01 0.00 0.00 0.00 0.00 0.00 0.00 0.00 0.00 0.00 0.00
0.00 0.00 0.00 0.00 0.00 0.00 0.00 0.00 0.00 0.00 0.00 0.00 0.00 0.00 0.00 0.00 0.00 0.00 0.00 0.00 0.00 0.00 0.00 0.00 0.01 0.06 0.15 0.18 0.14 0.17 0.19 0.09 0.02 0.02 0.00 0.00 0.00 0.00 0.02 0.02 0.02 0.01 0.00
0.00 0.00 0.00 0.00 0.00 0.00 0.00 0.00 0.00 0.00 0.00 0.00 0.00 0.00 0.00 0.00 0.00 0.00 0.00 0.00 0.00 0.00 0.00 0.00 0.01 0.07 0.17 0.09 0.13 0.17 0.21 0.17 0.12 0.10 0.06 0.01 0.02 0.03 0.04 0.05 0.04 0.04 0.02
0.00 0.00 0.00 0.00 0.00 0.00 0.00 0.00 0.00 0.00 0.00 0.00 0.00 0.00 0.00 0.00 0.00 0.00 0.00 0.00 0.00 0.00 0.00 0.00 0.01 0.05 0.05 0.06 0.07 0.08 0.06 0.14 0.15 0.15 0.16 0.10 0.08 0.07 0.07 0.08 0.07 0.07 0.06
0.00 0.00 0.00 0.00 0.00 0.00 0.00 0.00 0.00 0.00 0.00 0.00 0.00 0.00 0.00 0.00 0.00 0.00 0.00 0.00 0.00 0.00 0.00 0.00 0.00 0.00 0.01 0.05 0.06 0.04 0.00 0.03 0.06 0.09 0.14 0.19 0.21 0.13 0.07 0.09 0.12 0.13 0.12
0.00 0.00 0.00 0.00 0.00 0.00 0.00 0.00 0.00 0.00 0.00 0.00 0.00 0.00 0.00 0.00 0.00 0.00 0.00 0.00 0.00 0.00 0.00 0.00 0.00 0.00 0.00 0.04 0.07 0.02 0.00 0.00 0.00 0.01 0.03 0.11 0.21 0.22 0.19 0.16 0.18 0.18 0.12
0.01 0.01 0.01 0.00 0.00 0.00 0.00 0.00 0.00 0.00 0.00 0.00 0.00 0.00 0.00 0.00 0.00 0.00 0.00 0.00 0.00 0.00 0.00 0.00 0.00 0.00 0.00 0.00 0.01 0.00 0.00 0.00 0.00 0.00 0.00 0.01 0.06 0.15 0.25 0.23 0.26 0.22 0.17
0.42 0.32 0.15 0.07 0.05 0.03 0.02 0.03 0.04 0.06 0.06 0.05 0.04 0.02 0.00 0.00 0.00 0.00 0.00 0.00 0.00 0.00 0.00 0.00 0.00 0.00 0.00 0.00 0.01 0.01 0.01 0.00 0.00 0.00 0.00 0.00 0.01 0.02 0.09 0.22 0.29 0.39 0.44
0.66 0.69 0.71 0.74 0.61 0.45 0.34 0.29 0.18 0.17 0.26 0.20 0.12 0.06 0.02 0.00 0.00 0.00 0.00 0.00 0.00 0.00 0.00 0.00 0.00 0.00 0.00 0.00 0.00 0.00 0.00 0.00 0.00 0.00 0.01 0.01 0.01 0.04 0.08 0.04 0.08 0.18 0.35
0.66 0.77 0.92 0.85 0.96 0.98 0.81 0.67 0.46 0.31 0.23 0.21 0.16 0.08 0.05 0.00 0.01 0.00 0.00 0.00 0.00 0.00 0.00 0.00 0.00 0.00 0.00 0.00 0.00 0.00 0.00 0.00 0.00 0.00 0.00 0.03 0.07 0.06 0.05 0.04 0.04 0.06 0.10
1.18 1.17 1.17 1.20 1.13 1.18 1.17 1.00 0.87 0.72 0.62 0.40 0.24 0.12 0.03 0.01 0.00 0.00 0.00 0.00 0.00 0.00 0.00 0.00 0.00 0.00 0.00 0.00 0.00 0.00 0.00 0.00 0.00 0.00 0.05 0.10 0.07 0.02 0.04 0.08 0.11 0.10 0.06
1.03 1.17 1.16 1.15 1.08 0.87 0.72 0.63 0.43 0.37 0.33 0.21 0.11 0.04 0.02 0.00 0.00 0.00 0.00 0.00 0.00 0.00 0.00 0.00 0.01 0.01 0.01 0.00 0.01 0.01 0.01 0.00 0.00 0.01 0.06 0.08 0.01 0.02 0.06 0.09 0.09 0.06 0.04
0.57 0.45 0.47 0.51 0.54 0.53 0.43 0.35 0.22 0.16 0.13 0.08 0.02 0.01 0.01 0.00 0.00 0.00 0.01 0.01 0.01 0.00 0.00 0.00 0.01 0.01 0.01 0.00 0.00 0.01 0.01 0.01 0.00 0.01 0.05 0.03 0.01 0.02 0.03 0.05 0.06 0.06 0.06
0.67 0.52 0.36 0.28 0.24 0.16 0.12 0.10 0.05 0.02 0.02 0.01 0.01 0.01 0.00 0.00 0.00 0.00 0.01 0.02 0.02 0.01 0.01 0.01 0.01 0.01 0.00 0.01 0.01 0.03 0.01 0.01 0.01 0.01 0.01 0.01 0.02 0.01 0.02 0.04 0.04 0.05 0.07
0.31 0.38 0.36 0.34 0.29 0.19 0.12 0.09 0.05 0.01 0.00 0.00 0.00 0.00 0.00 0.00 0.00 0.00 0.00 0.00 0.03 0.02 0.02 0.00 0.00 0.00 0.00 0.00 0.01 0.00 0.00 0.02 0.01 0.01 0.01 0.01 0.02 0.02 0.01 0.01 0.03 0.04 0.04
0.13 0.12 0.15 0.15 0.10 0.10 0.10 0.05 0.04 0.06 0.07 0.03 0.01 0.00 0.00 0.00 0.00 0.00 0.00 0.01 0.01 0.02 0.03 0.00 0.00 0.01 0.01 0.00 0.02 0.00 0.00 0.01 0.00 0.00 0.00 0.01 0.01 0.01 0.01 0.01 0.02 0.02 0.03
0.04 0.04 0.04 0.04 0.04 0.02 0.02 0.01 0.01 0.02 0.05 0.04 0.02 0.01 0.00 0.00 0.00 0.00 0.00 0.00 0.00 0.02 0.03 0.01 0.00 0.01 0.01 0.01 0.00 0.00 0.00 0.00 0.00 0.01 0.00 0.00 0.00 0.01 0.00 0.00 0.00 0.00 0.00
0.00 0.00 0.02 0.03 0.04 0.03 0.02 0.03 0.03 0.03 0.04 0.03 0.01 0.00 0.00 0.00 0.00 0.00 0.00 0.00 0.00 0.00 0.01 0.01 0.00 0.01 0.00 0.01 0.00 0.01 0.00 0.00 0.00 0.02 0.00 0.00 0.00 0.00 0.00 0.00 0.00 0.00 0.00
0.00 0.00 0.00 0.00 0.01 0.01 0.02 0.03 0.05 0.04 0.04 0.03 0.01 0.00 0.00 0.00 0.00 0.00 0.00 0.00 0.00 0.00 0.00 0.01 0.01 0.00 0.00 0.00 0.00 0.00 0.00 0.00 0.00 0.00 0.00 0.00 0.00 0.00 0.00 0.00 0.00 0.00 0.00
0.00 0.00 0.00 0.00 0.00 0.01 0.01 0.01 0.02 0.03 0.04 0.03 0.02 0.01 0.00 0.00 0.00 0.00 0.00 0.00 0.00 0.00 0.00 0.01 0.01 0.01 0.01 0.00 0.00 0.00 0.00 0.00 0.00 0.00 0.00 0.00 0.00 0.00 0.00 0.00 0.00 0.00 0.00
0.00 0.00 0.00 0.00 0.00 0.00 0.00 0.00 0.01 0.01 0.02 0.02 0.02 0.02 0.01 0.01 0.00 0.00 0.00 0.00 0.00 0.00 0.00 0.00 0.00 0.00 0.00 0.00 0.00 0.00 0.00 0.00 0.00 0.00 0.00 0.00 0.00 0.00 0.00 0.00 0.00 0.00 0.00
0.00 0.00 0.00 0.00 0.00 0.00 0.00 0.00 0.00 0.00 0.00 0.00 0.00 0.00 0.00 0.00 0.00 0.00 0.00 0.00 0.00 0.00 0.00 0.00 0.00 0.00 0.00 0.00 0.00 0.00 0.00 0.00 0.00 0.00 0.00 0.00 0.00 0.00 0.00 0.00 0.00 0.00 0.00
0.00 0.00 0.00 0.00 0.00 0.00 0.01 0.00 0.00 0.00 0.00 0.00 0.00 0.00 0.00 0.00 0.00 0.00 0.00 0.00 0.00 0.00 0.00 0.00 0.00 0.00 0.00 0.00 0.00 0.00 0.00 0.00 0.00 0.00 0.00 0.00 0.00 0.00 0.00 0.00 0.00 0.00 0.00
0.00 0.00 0.00 0.00 0.00 0.00 0.00 0.00 0.00 0.00 0.00 0.00 0.00 0.00 0.00 0.00 0.00 0.00 0.00 0.00 0.00 0.00 0.00 0.00 0.00 0.00 0.00 0.00 0.00 0.00 0.00 0.00 0.00 0.00 0.00 0.00 0.00 0.00 0.00 0.00 0.00 0.00 0.00
0.00 0.00 0.00 0.00 0.00 0.00 0.00 0.00 0.00 0.00 0.00 0.00 0.00 0.00 0.00 0.00 0.00 0.00 0.00 0.00 0.00 0.00 0.00 0.00 0.00 0.00 0.00 0.00 0.00 0.00 0.00 0.00 0.00 0.00 0.00 0.00 0.00 0.00 0.00 0.00 0.00 0.00 0.00
0.00 0.00 0.00 0.00 0.00 0.00 0.00 0.00 0.00 0.00 0.00 0.00 0.00 0.00 0.00 0.00 0.00 0.00 0.00 0.00 0.00 0.00 0.00 0.00 0.00 0.00 0.00 0.00 0.00 0.00 0.00 0.00 0.00 0.00 0.00 0.00 0.00 0.00 0.00 0.00 0.00 0.00 0.00

GFSMA_prec_precacc24_108.txt.gz
Total_Precipitation_Accumulation
0.01 0.00 0.00 0.00 0.00 0.00 0.00 0.00 0.00 0.00 0.00 0.00 0.00 0.00 0.00 0.00 0.00 0.00 0.00 0.00 0.00 0.00 0.00 0.00 0.01 0.03 0.07 0.21 0.15 0.11 0.08 0.05 0.01 0.00 0.00 0.00 0.00 0.00 0.00 0.00 0.01 0.00 0.00
0.00 0.00 0.00 0.00 0.00 0.00 0.00 0.00 0.00 0.00 0.00 0.00 0.00 0.00 0.00 0.00 0.00 0.00 0.00 0.00 0.00 0.00 0.00 0.00 0.01 0.06 0.15 0.17 0.10 0.12 0.15 0.09 0.02 0.02 0.00 0.00 0.00 0.00 0.02 0.02 0.02 0.02 0.01
0.00 0.00 0.00 0.00 0.00 0.00 0.00 0.00 0.00 0.00 0.00 0.00 0.00 0.00 0.00 0.00 0.00 0.00 0.00 0.00 0.00 0.00 0.00 0.00 0.01 0.06 0.16 0.09 0.09 0.12 0.09 0.08 0.10 0.10 0.06 0.01 0.02 0.03 0.04 0.05 0.04 0.04 0.03
0.00 0.00 0.00 0.00 0.00 0.00 0.00 0.00 0.00 0.00 0.00 0.00 0.00 0.00 0.00 0.00 0.00 0.00 0.00 0.00 0.00 0.00 0.00 0.00 0.00 0.03 0.03 0.06 0.07 0.08 0.01 0.00 0.02 0.08 0.14 0.10 0.08 0.07 0.07 0.08 0.07 0.07 0.06
0.00 0.00 0.00 0.00 0.00 0.00 0.00 0.00 0.00 0.00 0.00 0.00 0.00 0.00 0.00 0.00 0.00 0.00 0.00 0.00 0.00 0.00 0.00 0.00 0.00 0.00 0.01 0.05 0.06 0.05 0.01 0.00 0.00 0.00 0.04 0.13 0.19 0.13 0.07 0.09 0.12 0.13 0.13
0.00 0.00 0.00 0.00 0.00 0.00 0.00 0.00 0.00 0.00 0.00 0.00 0.00 0.00 0.00 0.00 0.00 0.00 0.00 0.00 0.00 0.00 0.00 0.00 0.00 0.00 0.00 0.04 0.07 0.04 0.01 0.00 0.00 0.00 0.00 0.01 0.05 0.14 0.17 0.16 0.18 0.18 0.12
0.02 0.01 0.01 0.00 0.00 0.00 0.00 0.00 0.00 0.00 0.00 0.00 0.00 0.00 0.00 0.00 0.00 0.00 0.00 0.00 0.00 0.00 0.00 0.00 0.00 0.00 0.00 0.00 0.01 0.02 0.01 0.00 0.00 0.00 0.00 0.00 0.00 0.01 0.07 0.16 0.24 0.22 0.17
0.43 0.32 0.15 0.07 0.05 0.03 0.02 0.03 0.04 0.06 0.05 0.05 0.03 0.01 0.00 0.00 0.00 0.00 0.00 0.00 0.00 0.00 0.00 0.00 0.00 0.00 0.00 0.00 0.01 0.01 0.01 0.00 0.00 0.00 0.00 0.00 0.01 0.00 0.02 0.06 0.12 0.29 0.41
0.59 0.67 0.70 0.74 0.61 0.45 0.35 0.29 0.18 0.18 0.27 0.20 0.12 0.09 0.04 0.00 0.00 0.00 0.00 0.00 0.00 0.00 0.00 0.00 0.00 0.00 0.00 0.00 0.00 0.00 0.00 0.00 0.00 0.00 0.01 0.01 0.01 0.04 0.07 0.03 0.02 0.04 0.13
0.65 0.78 0.93 0.85 0.97 1.02 0.90 0.77 0.57 0.44 0.30 0.23 0.22 0.17 0.11 0.01 0.00 0.00 0.00 0.00 0.00 0.00 0.00 0.00 0.00 0.00 0.00 0.00 0.00 0.00 0.00 0.00 0.00 0.00 0.01 0.03 0.08 0.06 0.05 0.03 0.02 0.04 0.04
1.44 1.32 1.33 1.38 1.29 1.32 1.34 1.15 1.05 0.90 0.78 0.56 0.38 0.25 0.12 0.05 0.02 0.01 0.00 0.00 0.00 0.00 0.00 0.00 0.00 0.00 0.00 0.00 0.00 0.00 0.00 0.00 0.00 0.00 0.05 0.10 0.06 0.02 0.04 0.08 0.10 0.09 0.05
1.21 1.43 1.39 1.29 1.20 0.97 0.80 0.70 0.53 0.48 0.45 0.32 0.18 0.07 0.03 0.01 0.01 0.00 0.00 0.00 0.00 0.00 0.00 0.00 0.00 0.00 0.00 0.00 0.01 0.01 0.01 0.00 0.00 0.00 0.05 0.08 0.01 0.01 0.05 0.09 0.08 0.06 0.04
0.75 0.62 0.62 0.61 0.60 0.56 0.45 0.37 0.23 0.17 0.18 0.14 0.08 0.04 0.02 0.03 0.05 0.05 0.03 0.01 0.00 0.00 0.00 0.00 0.00 0.00 0.00 0.00 0.00 0.01 0.01 0.01 0.00 0.00 0.03 0.03 0.00 0.01 0.02 0.04 0.05 0.05 0.06
0.88 0.69 0.44 0.32 0.25 0.17 0.14 0.11 0.06 0.05 0.05 0.05 0.03 0.02 0.01 0.02 0.02 0.01 0.02 0.02 0.01 0.01 0.01 0.01 0.01 0.01 0.00 0.01 0.01 0.03 0.01 0.01 0.01 0.00 0.01 0.01 0.01 0.01 0.01 0.03 0.03 0.04 0.06
0.34 0.43 0.40 0.37 0.31 0.22 0.14 0.11 0.07 0.03 0.01 0.01 0.02 0.01 0.00 0.00 0.00 0.00 0.00 0.00 0.02 0.02 0.01 0.00 0.00 0.00 0.00 0.00 0.01 0.00 0.00 0.02 0.01 0.00 0.01 0.01 0.01 0.01 0.01 0.01 0.02 0.03 0.03
0.15 0.13 0.15 0.15 0.10 0.12 0.12 0.06 0.05 0.06 0.07 0.03 0.01 0.00 0.00 0.00 0.00 0.00 0.00 0.01 0.01 0.02 0.03 0.00 0.00 0.01 0.01 0.00 0.02 0.00 0.00 0.01 0.00 0.00 0.00 0.00 0.01 0.01 0.00 0.01 0.02 0.02 0.02
0.06 0.06 0.06 0.05 0.05 0.03 0.03 0.02 0.02 0.02 0.05 0.05 0.03 0.02 0.01 0.00 0.00 0.00 0.00 0.00 0.00 0.02 0.03 0.01 0.00 0.01 0.01 0.01 0.00 0.00 0.00 0.00 0.00 0.01 0.00 0.00 0.00 0.00 0.00 0.00 0.00 0.00 0.00
0.00 0.01 0.02 0.04 0.05 0.04 0.04 0.05 0.06 0.06 0.08 0.08 0.07 0.06 0.06 0.07 0.02 0.03 0.02 0.00 0.00 0.00 0.01 0.01 0.00 0.01 0.00 0.01 0.00 0.01 0.00 0.00 0.00 0.02 0.00 0.00 0.00 0.00 0.00 0.00 0.00 0.00 0.00
0.00 0.00 0.00 0.00 0.01 0.01 0.03 0.05 0.07 0.08 0.10 0.12 0.12 0.12 0.10 0.08 0.02 0.02 0.02 0.00 0.00 0.00 0.00 0.01 0.01 0.00 0.00 0.00 0.00 0.00 0.00 0.00 0.00 0.00 0.00 0.00 0.00 0.00 0.00 0.00 0.00 0.00 0.00
0.00 0.00 0.00 0.00 0.00 0.01 0.01 0.01 0.03 0.04 0.06 0.06 0.07 0.08 0.08 0.07 0.04 0.03 0.01 0.01 0.01 0.00 0.00 0.01 0.01 0.01 0.01 0.00 0.00 0.00 0.00 0.00 0.00 0.00 0.00 0.00 0.00 0.00 0.00 0.00 0.00 0.00 0.00
0.00 0.00 0.00 0.00 0.00 0.00 0.00 0.00 0.01 0.01 0.02 0.03 0.03 0.03 0.04 0.05 0.06 0.06 0.02 0.03 0.04 0.00 0.00 0.00 0.00 0.00 0.00 0.00 0.00 0.00 0.00 0.00 0.00 0.00 0.00 0.00 0.00 0.00 0.00 0.00 0.00 0.00 0.00
0.00 0.00 0.00 0.00 0.00 0.00 0.00 0.00 0.00 0.00 0.00 0.00 0.00 0.00 0.01 0.01 0.01 0.01 0.01 0.02 0.02 0.01 0.01 0.00 0.00 0.00 0.00 0.00 0.00 0.00 0.00 0.00 0.00 0.00 0.00 0.00 0.00 0.00 0.00 0.00 0.00 0.00 0.00
0.00 0.00 0.00 0.00 0.00 0.00 0.00 0.00 0.00 0.00 0.00 0.00 0.00 0.00 0.00 0.00 0.01 0.00 0.00 0.01 0.01 0.01 0.01 0.00 0.00 0.00 0.00 0.00 0.00 0.00 0.00 0.00 0.00 0.00 0.00 0.00 0.00 0.00 0.00 0.00 0.00 0.00 0.00
0.00 0.00 0.00 0.00 0.00 0.00 0.00 0.00 0.00 0.00 0.00 0.00 0.00 0.00 0.00 0.00 0.00 0.00 0.00 0.00 0.00 0.00 0.00 0.00 0.00 0.00 0.00 0.00 0.00 0.00 0.00 0.00 0.00 0.00 0.00 0.00 0.00 0.00 0.00 0.00 0.00 0.00 0.00
0.00 0.00 0.00 0.00 0.00 0.00 0.00 0.00 0.00 0.00 0.00 0.00 0.00 0.00 0.00 0.00 0.00 0.00 0.00 0.00 0.00 0.00 0.00 0.00 0.00 0.00 0.00 0.00 0.00 0.00 0.00 0.00 0.00 0.00 0.00 0.00 0.00 0.00 0.00 0.00 0.00 0.00 0.00
0.00 0.00 0.00 0.00 0.00 0.00 0.00 0.00 0.00 0.00 0.00 0.00 0.00 0.00 0.00 0.00 0.00 0.00 0.00 0.00 0.00 0.00 0.00 0.00 0.00 0.00 0.00 0.00 0.00 0.00 0.00 0.00 0.00 0.00 0.00 0.00 0.00 0.00 0.00 0.00 0.00 0.00 0.00

GFSMA_prec_precacc24_111.txt.gz
Total_Precipitation_Accumulation
0.01 0.01 0.00 0.00 0.00 0.00 0.00 0.00 0.00 0.00 0.00 0.00 0.00 0.00 0.00 0.00 0.00 0.00 0.00 0.00 0.00 0.00 0.00 0.00 0.01 0.03 0.07 0.21 0.13 0.10 0.08 0.05 0.01 0.00 0.00 0.00 0.00 0.00 0.00 0.01 0.01 0.02 0.02
0.01 0.01 0.00 0.00 0.00 0.00 0.00 0.00 0.00 0.00 0.00 0.00 0.00 0.00 0.00 0.00 0.00 0.00 0.00 0.00 0.00 0.00 0.00 0.00 0.01 0.05 0.14 0.14 0.06 0.07 0.06 0.05 0.02 0.02 0.00 0.00 0.00 0.00 0.02 0.02 0.02 0.02 0.02
0.02 0.01 0.00 0.00 0.00 0.00 0.00 0.00 0.00 0.00 0.00 0.00 0.00 0.00 0.00 0.00 0.00 0.00 0.00 0.00 0.00 0.00 0.00 0.00 0.01 0.05 0.13 0.06 0.06 0.08 0.05 0.01 0.02 0.05 0.04 0.01 0.02 0.03 0.04 0.05 0.04 0.04 0.03
0.08 0.03 0.01 0.00 0.00 0.00 0.00 0.00 0.00 0.00 0.00 0.00 0.00 0.00 0.00 0.00 0.00 0.00 0.00 0.00 0.00 0.00 0.00 0.00 0.00 0.02 0.03 0.05 0.07 0.08 0.03 0.00 0.00 0.00 0.04 0.06 0.08 0.07 0.07 0.08 0.07 0.07 0.06
0.27 0.07 0.03 0.00 0.00 0.00 0.00 0.00 0.00 0.00 0.00 0.00 0.00 0.00 0.00 0.00 0.00 0.00 0.00 0.00 0.00 0.00 0.00 0.00 0.00 0.00 0.01 0.05 0.06 0.05 0.04 0.00 0.00 0.00 0.00 0.02 0.06 0.09 0.07 0.09 0.12 0.13 0.13
0.48 0.28 0.07 0.01 0.00 0.00 0.00 0.00 0.00 0.00 0.00 0.00 0.00 0.00 0.00 0.00 0.00 0.00 0.00 0.00 0.00 0.00 0.00 0.00 0.00 0.00 0.00 0.04 0.07 0.04 0.02 0.00 0.00 0.00 0.00 0.00 0.00 0.01 0.05 0.11 0.18 0.18 0.12
0.38 0.30 0.09 0.04 0.01 0.00 0.00 0.00 0.00 0.00 0.00 0.00 0.00 0.00 0.00 0.00 0.00 0.00 0.00 0.00 0.00 0.00 0.00 0.00 0.00 0.00 0.00 0.00 0.01 0.02 0.01 0.00 0.00 0.00 0.00 0.00 0.00 0.00 0.00 0.02 0.11 0.17 0.17
0.48 0.46 0.23 0.08 0.05 0.03 0.02 0.03 0.04 0.06 0.05 0.05 0.03 0.01 0.00 0.00 0.00 0.00 0.00 0.00 0.00 0.00 0.00 0.00 0.00 0.00 0.00 0.00 0.01 0.01 0.01 0.00 0.00 0.00 0.00 0.00 0.00 0.00 0.02 0.04 0.04 0.05 0.18
0.46 0.56 0.61 0.67 0.54 0.43 0.35 0.29 0.18 0.18 0.27 0.20 0.12 0.10 0.05 0.01 0.01 0.00 0.00 0.00 0.00 0.00 0.00 0.00 0.00 0.00 0.00 0.00 0.00 0.00 0.00 0.00 0.00 0.00 0.01 0.01 0.01 0.04 0.07 0.02 0.01 0.02 0.04
0.63 0.77 0.93 0.81 0.94 1.01 0.91 0.77 0.58 0.44 0.31 0.24 0.24 0.17 0.11 0.02 0.01 0.00 0.00 0.00 0.00 0.00 0.00 0.00 0.00 0.00 0.00 0.00 0.00 0.00 0.00 0.00 0.00 0.00 0.01 0.04 0.09 0.07 0.04 0.02 0.02 0.03 0.03
1.41 1.32 1.31 1.37 1.28 1.32 1.38 1.22 1.13 0.97 0.83 0.62 0.45 0.32 0.20 0.11 0.05 0.02 0.01 0.00 0.00 0.00 0.00 0.00 0.00 0.00 0.00 0.00 0.00 0.00 0.00 0.00 0.00 0.00 0.06 0.10 0.05 0.02 0.03 0.08 0.10 0.09 0.05
1.16 1.49 1.58 1.52 1.42 1.14 0.98 0.86 0.63 0.55 0.49 0.35 0.23 0.12 0.09 0.08 0.04 0.03 0.02 0.01 0.01 0.01 0.00 0.00 0.00 0.00 0.00 0.00 0.01 0.01 0.01 0.00 0.00 0.00 0.04 0.08 0.01 0.00 0.03 0.08 0.08 0.05 0.03
0.79 0.66 0.70 0.78 0.80 0.74 0.60 0.48 0.29 0.19 0.20 0.16 0.09 0.05 0.03 0.05 0.06 0.06 0.06 0.04 0.03 0.02 0.02 0.00 0.00 0.00 0.00 0.00 0.00 0.01 0.01 0.01 0.00 0.00 0.03 0.04 0.00 0.00 0.01 0.02 0.03 0.04 0.05
1.00 0.81 0.55 0.46 0.41 0.27 0.21 0.17 0.09 0.06 0.05 0.06 0.05 0.04 0.03 0.05 0.06 0.06 0.08 0.10 0.10 0.05 0.02 0.01 0.00 0.00 0.00 0.01 0.01 0.03 0.01 0.01 0.00 0.00 0.01 0.01 0.00 0.00 0.01 0.02 0.03 0.04 0.05
0.44 0.52 0.47 0.44 0.38 0.27 0.17 0.13 0.10 0.06 0.03 0.04 0.06 0.05 0.04 0.04 0.03 0.03 0.08 0.11 0.11 0.09 0.04 0.01 0.00 0.00 0.00 0.00 0.01 0.00 0.00 0.02 0.01 0.00 0.01 0.01 0.01 0.01 0.00 0.01 0.01 0.03 0.02
0.25 0.20 0.19 0.18 0.13 0.13 0.14 0.08 0.08 0.08 0.08 0.05 0.03 0.02 0.03 0.02 0.00 0.00 0.00 0.00 0.01 0.02 0.02 0.00 0.00 0.00 0.00 0.00 0.01 0.00 0.00 0.01 0.00 0.00 0.00 0.00 0.00 0.00 0.00 0.01 0.01 0.01 0.01
0.09 0.09 0.06 0.06 0.05 0.04 0.05 0.04 0.03 0.03 0.06 0.06 0.05 0.04 0.03 0.02 0.01 0.00 0.00 0.01 0.02 0.02 0.03 0.01 0.00 0.01 0.01 0.01 0.00 0.00 0.00 0.00 0.00 0.01 0.00 0.00 0.00 0.00 0.00 0.00 0.00 0.00 0.00
0.00 0.01 0.02 0.04 0.05 0.04 0.05 0.07 0.07 0.07 0.08 0.09 0.08 0.09 0.10 0.14 0.13 0.12 0.10 0.06 0.04 0.03 0.03 0.01 0.00 0.01 0.00 0.01 0.00 0.01 0.00 0.00 0.00 0.02 0.00 0.00 0.00 0.00 0.00 0.00 0.00 0.00 0.00
0.00 0.00 0.00 0.00 0.01 0.01 0.03 0.05 0.07 0.08 0.10 0.13 0.13 0.14 0.14 0.19 0.26 0.34 0.36 0.28 0.17 0.08 0.04 0.02 0.01 0.00 0.00 0.00 0.00 0.00 0.00 0.00 0.00 0.00 0.00 0.00 0.00 0.00 0.00 0.00 0.00 0.00 0.00
0.00 0.00 0.00 0.00 0.00 0.01 0.01 0.01 0.03 0.04 0.06 0.06 0.08 0.09 0.09 0.09 0.10 0.12 0.16 0.19 0.20 0.13 0.05 0.03 0.02 0.01 0.01 0.00 0.00 0.00 0.00 0.00 0.00 0.00 0.00 0.00 0.00 0.00 0.00 0.00 0.00 0.00 0.00
0.00 0.00 0.00 0.00 0.00 0.00 0.00 0.00 0.01 0.01 0.02 0.03 0.03 0.03 0.05 0.07 0.08 0.09 0.12 0.16 0.21 0.25 0.21 0.16 0.09 0.05 0.03 0.01 0.00 0.00 0.00 0.00 0.00 0.00 0.00 0.00 0.00 0.00 0.00 0.00 0.00 0.00 0.00
0.00 0.00 0.00 0.00 0.00 0.00 0.00 0.00 0.00 0.00 0.00 0.00 0.00 0.00 0.01 0.02 0.02 0.02 0.03 0.06 0.09 0.14 0.17 0.18 0.18 0.12 0.08 0.07 0.02 0.00 0.00 0.00 0.00 0.00 0.00 0.00 0.00 0.00 0.00 0.00 0.00 0.00 0.00
0.00 0.00 0.00 0.00 0.00 0.00 0.00 0.00 0.00 0.00 0.00 0.00 0.00 0.00 0.00 0.00 0.01 0.00 0.02 0.03 0.03 0.03 0.03 0.04 0.07 0.07 0.08 0.06 0.03 0.00 0.00 0.00 0.00 0.00 0.00 0.00 0.00 0.00 0.00 0.00 0.00 0.00 0.00
0.00 0.00 0.00 0.00 0.00 0.00 0.00 0.00 0.00 0.00 0.00 0.00 0.00 0.00 0.00 0.00 0.00 0.00 0.00 0.00 0.00 0.01 0.02 0.02 0.01 0.01 0.00 0.00 0.00 0.00 0.00 0.00 0.00 0.00 0.00 0.00 0.00 0.00 0.00 0.00 0.00 0.00 0.00
0.00 0.00 0.00 0.00 0.00 0.00 0.00 0.00 0.00 0.00 0.00 0.00 0.00 0.00 0.00 0.00 0.00 0.01 0.00 0.00 0.00 0.00 0.00 0.00 0.00 0.00 0.00 0.00 0.00 0.00 0.00 0.00 0.00 0.00 0.00 0.00 0.00 0.00 0.00 0.00 0.00 0.00 0.00
0.00 0.00 0.00 0.00 0.00 0.00 0.00 0.00 0.00 0.00 0.00 0.00 0.00 0.00 0.00 0.00 0.01 0.01 0.01 0.00 0.00 0.01 0.02 0.03 0.02 0.00 0.00 0.00 0.00 0.00 0.00 0.00 0.00 0.00 0.00 0.00 0.00 0.00 0.00 0.00 0.00 0.00 0.00

GFSMA_prec_precacc24_114.txt.gz
Total_Precipitation_Accumulation
0.02 0.01 0.00 0.00 0.00 0.00 0.00 0.00 0.00 0.00 0.00 0.00 0.00 0.00 0.00 0.00 0.00 0.00 0.00 0.00 0.00 0.00 0.00 0.00 0.01 0.03 0.07 0.18 0.06 0.06 0.06 0.04 0.01 0.00 0.00 0.00 0.00 0.00 0.00 0.01 0.01 0.02 0.02
0.02 0.01 0.00 0.00 0.00 0.00 0.00 0.00 0.00 0.00 0.00 0.00 0.00 0.00 0.00 0.00 0.00 0.00 0.00 0.00 0.00 0.00 0.00 0.00 0.00 0.04 0.12 0.09 0.04 0.03 0.03 0.02 0.01 0.01 0.00 0.00 0.00 0.00 0.02 0.02 0.02 0.02 0.02
0.03 0.02 0.01 0.02 0.02 0.01 0.00 0.00 0.00 0.00 0.00 0.00 0.00 0.00 0.00 0.00 0.00 0.00 0.00 0.00 0.00 0.00 0.00 0.00 0.01 0.04 0.10 0.06 0.04 0.05 0.06 0.01 0.00 0.00 0.00 0.01 0.02 0.03 0.04 0.05 0.04 0.04 0.03
0.16 0.08 0.03 0.03 0.04 0.03 0.00 0.00 0.00 0.00 0.00 0.00 0.00 0.00 0.00 0.00 0.00 0.00 0.00 0.00 0.00 0.00 0.00 0.00 0.00 0.01 0.03 0.05 0.06 0.07 0.03 0.01 0.00 0.00 0.00 0.01 0.04 0.06 0.07 0.08 0.07 0.07 0.07
0.36 0.22 0.12 0.07 0.06 0.07 0.01 0.00 0.00 0.00 0.00 0.00 0.00 0.00 0.00 0.00 0.00 0.00 0.00 0.00 0.00 0.00 0.00 0.00 0.00 0.00 0.01 0.04 0.06 0.05 0.05 0.00 0.00 0.00 0.00 0.00 0.00 0.02 0.04 0.08 0.12 0.13 0.13
0.53 0.62 0.44 0.30 0.30 0.29 0.08 0.00 0.00 0.00 0.00 0.00 0.00 0.00 0.00 0.00 0.00 0.00 0.00 0.00 0.00 0.00 0.00 0.00 0.00 0.00 0.00 0.03 0.07 0.04 0.03 0.00 0.00 0.00 0.00 0.00 0.00 0.00 0.00 0.02 0.10 0.17 0.12
0.40 0.46 0.53 0.56 0.50 0.47 0.19 0.03 0.00 0.00 0.00 0.00 0.00 0.00 0.00 0.00 0.00 0.00 0.00 0.00 0.00 0.00 0.00 0.00 0.00 0.00 0.00 0.00 0.01 0.02 0.01 0.01 0.00 0.00 0.00 0.00 0.00 0.00 0.00 0.01 0.03 0.06 0.11
0.32 0.40 0.30 0.22 0.27 0.29 0.16 0.11 0.07 0.06 0.05 0.05 0.03 0.01 0.00 0.00 0.00 0.00 0.00 0.00 0.00 0.00 0.00 0.00 0.00 0.00 0.00 0.00 0.01 0.02 0.01 0.01 0.00 0.00 0.00 0.00 0.00 0.00 0.02 0.04 0.03 0.02 0.03
0.40 0.44 0.47 0.47 0.36 0.36 0.37 0.34 0.22 0.19 0.27 0.20 0.12 0.10 0.05 0.01 0.01 0.00 0.00 0.00 0.00 0.00 0.00 0.00 0.00 0.00 0.00 0.00 0.00 0.00 0.00 0.00 0.00 0.00 0.02 0.02 0.02 0.04 0.07 0.03 0.01 0.01 0.02
0.53 0.61 0.84 0.82 0.94 0.94 0.80 0.71 0.57 0.44 0.31 0.24 0.24 0.17 0.11 0.02 0.00 0.00 0.00 0.00 0.01 0.00 0.00 0.00 0.00 0.00 0.00 0.00 0.00 0.00 0.00 0.00 0.00 0.00 0.01 0.04 0.09 0.08 0.05 0.02 0.02 0.03 0.03
1.26 1.25 1.31 1.40 1.32 1.32 1.35 1.20 1.12 0.97 0.84 0.62 0.45 0.32 0.20 0.11 0.06 0.03 0.01 0.00 0.00 0.00 0.00 0.00 0.00 0.00 0.00 0.00 0.00 0.00 0.00 0.00 0.00 0.00 0.05 0.07 0.04 0.01 0.01 0.07 0.09 0.08 0.04
1.30 1.61 1.65 1.59 1.54 1.25 1.09 0.97 0.78 0.69 0.61 0.45 0.31 0.19 0.14 0.11 0.05 0.06 0.04 0.02 0.01 0.01 0.01 0.01 0.01 0.00 0.00 0.00 0.01 0.01 0.01 0.00 0.00 0.00 0.03 0.07 0.02 0.00 0.01 0.04 0.05 0.04 0.02
0.85 0.83 0.92 0.91 0.89 0.82 0.70 0.59 0.40 0.32 0.33 0.26 0.18 0.12 0.09 0.07 0.08 0.08 0.07 0.05 0.03 0.03 0.02 0.02 0.01 0.00 0.00 0.00 0.00 0.01 0.01 0.01 0.00 0.00 0.03 0.04 0.00 0.00 0.00 0.01 0.02 0.02 0.03
1.10 0.91 0.64 0.57 0.50 0.36 0.28 0.26 0.17 0.13 0.13 0.12 0.10 0.06 0.05 0.06 0.07 0.08 0.09 0.11 0.13 0.10 0.06 0.03 0.03 0.04 0.04 0.04 0.03 0.03 0.01 0.01 0.00 0.00 0.00 0.01 0.00 0.00 0.00 0.01 0.01 0.02 0.03
0.58 0.67 0.59 0.52 0.47 0.35 0.24 0.18 0.12 0.08 0.07 0.07 0.08 0.06 0.06 0.05 0.05 0.06 0.12 0.17 0.26 0.28 0.15 0.08 0.08 0.07 0.07 0.07 0.05 0.01 0.00 0.02 0.01 0.00 0.00 0.00 0.00 0.00 0.00 0.00 0.01 0.02 0.02
0.35 0.31 0.28 0.23 0.17 0.17 0.17 0.11 0.10 0.11 0.12 0.07 0.04 0.04 0.05 0.06 0.07 0.08 0.10 0.11 0.10 0.08 0.04 0.01 0.02 0.05 0.06 0.06 0.03 0.01 0.00 0.01 0.00 0.00 0.00 0.00 0.00 0.00 0.00 0.00 0.01 0.01 0.01
0.17 0.16 0.13 0.11 0.08 0.05 0.07 0.05 0.04 0.05 0.09 0.08 0.06 0.04 0.03 0.04 0.06 0.06 0.06 0.05 0.04 0.05 0.06 0.05 0.04 0.05 0.05 0.03 0.01 0.00 0.00 0.00 0.00 0.01 0.00 0.00 0.00 0.00 0.00 0.00 0.00 0.00 0.00
0.01 0.01 0.03 0.05 0.07 0.07 0.07 0.08 0.09 0.10 0.11 0.12 0.10 0.12 0.12 0.15 0.15 0.16 0.18 0.18 0.21 0.24 0.25 0.16 0.13 0.14 0.09 0.03 0.02 0.01 0.00 0.00 0.00 0.02 0.00 0.00 0.00 0.00 0.00 0.00 0.00 0.00 0.00
0.00 0.00 0.00 0.00 0.01 0.01 0.03 0.05 0.07 0.08 0.11 0.13 0.14 0.15 0.15 0.20 0.28 0.35 0.40 0.42 0.42 0.40 0.39 0.30 0.21 0.16 0.13 0.11 0.09 0.04 0.00 0.00 0.00 0.00 0.00 0.00 0.00 0.00 0.00 0.00 0.00 0.00 0.00
0.00 0.00 0.00 0.00 0.00 0.01 0.01 0.01 0.03 0.04 0.06 0.06 0.08 0.09 0.09 0.09 0.10 0.13 0.17 0.21 0.23 0.27 0.28 0.26 0.21 0.17 0.15 0.15 0.17 0.13 0.08 0.03 0.00 0.00 0.00 0.00 0.00 0.00 0.00 0.00 0.00 0.00 0.00
0.00 0.00 0.00 0.00 0.00 0.00 0.00 0.00 0.01 0.01 0.02 0.03 0.03 0.03 0.05 0.07 0.08 0.10 0.13 0.17 0.24 0.30 0.30 0.30 0.28 0.26 0.22 0.19 0.19 0.17 0.14 0.07 0.02 0.00 0.00 0.00 0.00 0.00 0.00 0.00 0.00 0.00 0.00
0.00 0.00 0.00 0.00 0.00 0.00 0.00 0.00 0.00 0.00 0.00 0.00 0.00 0.00 0.01 0.02 0.02 0.03 0.05 0.08 0.11 0.15 0.20 0.22 0.22 0.21 0.18 0.19 0.19 0.14 0.11 0.08 0.05 0.00 0.00 0.00 0.00 0.00 0.00 0.00 0.00 0.00 0.00
0.00 0.00 0.00 0.00 0.00 0.00 0.00 0.00 0.00 0.00 0.00 0.00 0.00 0.00 0.00 0.00 0.01 0.00 0.02 0.04 0.04 0.06 0.06 0.06 0.08 0.10 0.11 0.11 0.13 0.10 0.07 0.04 0.01 0.00 0.00 0.00 0.00 0.00 0.00 0.00 0.00 0.00 0.00
0.00 0.00 0.00 0.00 0.00 0.00 0.00 0.00 0.00 0.00 0.00 0.00 0.00 0.00 0.00 0.00 0.00 0.00 0.00 0.00 0.00 0.02 0.03 0.05 0.04 0.05 0.05 0.06 0.05 0.02 0.01 0.00 0.00 0.00 0.00 0.00 0.00 0.00 0.00 0.00 0.00 0.00 0.00
0.00 0.00 0.00 0.00 0.00 0.00 0.00 0.00 0.00 0.00 0.00 0.00 0.00 0.00 0.00 0.00 0.00 0.01 0.00 0.00 0.00 0.01 0.01 0.03 0.02 0.03 0.04 0.04 0.03 0.02 0.01 0.00 0.00 0.00 0.00 0.00 0.00 0.00 0.00 0.00 0.00 0.00 0.00
0.00 0.00 0.00 0.00 0.00 0.00 0.00 0.00 0.00 0.00 0.00 0.00 0.00 0.00 0.00 0.00 0.01 0.01 0.01 0.01 0.02 0.02 0.04 0.08 0.11 0.10 0.05 0.01 0.01 0.00 0.00 0.00 0.00 0.00 0.00 0.00 0.00 0.00 0.00 0.00 0.00 0.00 0.00

GFSMA_prec_precacc24_117.txt.gz
Total_Precipitation_Accumulation
0.08 0.04 0.01 0.00 0.00 0.00 0.00 0.00 0.00 0.00 0.00 0.00 0.00 0.00 0.00 0.00 0.00 0.00 0.00 0.00 0.00 0.00 0.00 0.01 0.02 0.03 0.06 0.13 0.04 0.04 0.04 0.03 0.00 0.00 0.00 0.00 0.00 0.00 0.00 0.01 0.01 0.02 0.02
0.06 0.04 0.02 0.00 0.01 0.01 0.01 0.00 0.00 0.00 0.00 0.00 0.00 0.00 0.00 0.00 0.00 0.00 0.00 0.00 0.00 0.00 0.00 0.00 0.01 0.04 0.09 0.06 0.02 0.02 0.02 0.01 0.00 0.00 0.00 0.00 0.00 0.00 0.02 0.02 0.02 0.02 0.02
0.04 0.02 0.02 0.02 0.03 0.03 0.03 0.01 0.00 0.00 0.00 0.00 0.00 0.00 0.00 0.00 0.00 0.00 0.00 0.00 0.00 0.00 0.00 0.00 0.00 0.03 0.09 0.05 0.02 0.04 0.04 0.01 0.00 0.00 0.00 0.00 0.02 0.03 0.04 0.05 0.04 0.04 0.03
0.16 0.08 0.03 0.03 0.06 0.06 0.05 0.02 0.00 0.00 0.00 0.00 0.00 0.00 0.00 0.00 0.00 0.00 0.00 0.00 0.00 0.00 0.00 0.00 0.00 0.00 0.02 0.04 0.05 0.06 0.03 0.01 0.00 0.00 0.00 0.00 0.01 0.03 0.06 0.08 0.07 0.07 0.07
0.36 0.22 0.13 0.08 0.06 0.09 0.08 0.05 0.02 0.00 0.00 0.00 0.00 0.00 0.00 0.00 0.00 0.00 0.00 0.00 0.00 0.00 0.00 0.00 0.00 0.00 0.00 0.03 0.05 0.05 0.05 0.01 0.00 0.00 0.00 0.00 0.00 0.00 0.00 0.04 0.09 0.13 0.13
0.53 0.62 0.44 0.31 0.31 0.35 0.46 0.42 0.16 0.05 0.01 0.00 0.00 0.00 0.00 0.00 0.00 0.00 0.00 0.00 0.00 0.00 0.00 0.00 0.00 0.00 0.00 0.03 0.07 0.04 0.03 0.01 0.00 0.00 0.00 0.00 0.00 0.00 0.00 0.00 0.02 0.08 0.11
0.41 0.47 0.54 0.56 0.52 0.52 0.44 0.42 0.35 0.18 0.08 0.02 0.00 0.00 0.00 0.00 0.00 0.00 0.00 0.00 0.00 0.00 0.00 0.00 0.00 0.00 0.00 0.00 0.01 0.02 0.01 0.01 0.00 0.00 0.00 0.00 0.00 0.00 0.00 0.00 0.03 0.03 0.04
0.20 0.29 0.26 0.23 0.28 0.39 0.37 0.29 0.28 0.25 0.15 0.09 0.05 0.01 0.00 0.00 0.00 0.00 0.00 0.00 0.00 0.00 0.01 0.01 0.00 0.00 0.00 0.00 0.01 0.02 0.01 0.01 0.00 0.00 0.00 0.00 0.00 0.00 0.01 0.04 0.02 0.01 0.02
0.26 0.28 0.30 0.29 0.20 0.20 0.25 0.27 0.26 0.31 0.36 0.25 0.14 0.11 0.05 0.01 0.01 0.00 0.00 0.00 0.00 0.01 0.01 0.01 0.01 0.01 0.01 0.00 0.00 0.00 0.02 0.01 0.00 0.00 0.02 0.02 0.02 0.03 0.06 0.03 0.00 0.01 0.01
0.38 0.44 0.61 0.60 0.78 0.87 0.73 0.62 0.50 0.42 0.33 0.28 0.28 0.20 0.12 0.02 0.00 0.00 0.00 0.01 0.02 0.01 0.00 0.01 0.01 0.01 0.00 0.00 0.00 0.00 0.00 0.00 0.00 0.00 0.01 0.04 0.07 0.07 0.05 0.02 0.02 0.02 0.03
0.78 0.77 0.90 1.05 1.08 1.18 1.25 1.11 1.05 0.94 0.85 0.65 0.48 0.36 0.24 0.13 0.06 0.05 0.02 0.01 0.02 0.02 0.02 0.02 0.01 0.00 0.00 0.00 0.00 0.00 0.00 0.00 0.00 0.00 0.04 0.06 0.03 0.01 0.01 0.02 0.05 0.06 0.04
0.74 1.05 1.29 1.40 1.41 1.21 1.07 0.93 0.77 0.71 0.65 0.52 0.37 0.26 0.23 0.21 0.16 0.16 0.12 0.06 0.04 0.02 0.01 0.01 0.01 0.01 0.00 0.00 0.00 0.02 0.01 0.00 0.00 0.00 0.02 0.06 0.03 0.01 0.01 0.01 0.02 0.02 0.02
0.69 0.70 0.99 1.04 0.97 0.89 0.76 0.66 0.46 0.37 0.39 0.33 0.28 0.23 0.20 0.18 0.19 0.16 0.13 0.08 0.04 0.03 0.02 0.02 0.01 0.00 0.01 0.02 0.02 0.03 0.01 0.02 0.01 0.00 0.03 0.04 0.01 0.00 0.00 0.01 0.02 0.01 0.02
0.99 0.84 0.67 0.89 0.95 0.65 0.45 0.32 0.23 0.20 0.18 0.17 0.14 0.09 0.08 0.09 0.11 0.14 0.16 0.16 0.15 0.10 0.07 0.03 0.03 0.04 0.06 0.08 0.11 0.15 0.09 0.08 0.03 0.00 0.00 0.01 0.00 0.00 0.00 0.00 0.01 0.01 0.02
0.69 0.73 0.65 0.56 0.53 0.45 0.37 0.26 0.18 0.12 0.11 0.10 0.10 0.09 0.09 0.08 0.09 0.12 0.17 0.22 0.31 0.35 0.19 0.10 0.09 0.09 0.10 0.12 0.13 0.11 0.05 0.06 0.02 0.00 0.00 0.00 0.00 0.00 0.00 0.00 0.00 0.01 0.01
0.56 0.48 0.38 0.31 0.26 0.25 0.26 0.21 0.17 0.16 0.16 0.09 0.06 0.06 0.08 0.09 0.10 0.12 0.12 0.14 0.17 0.20 0.16 0.03 0.04 0.07 0.09 0.10 0.12 0.09 0.06 0.06 0.01 0.00 0.00 0.00 0.00 0.00 0.00 0.00 0.00 0.00 0.00
0.32 0.30 0.37 0.38 0.25 0.22 0.25 0.19 0.15 0.14 0.18 0.16 0.11 0.07 0.06 0.09 0.13 0.12 0.11 0.10 0.11 0.12 0.16 0.10 0.07 0.07 0.08 0.09 0.13 0.13 0.10 0.05 0.02 0.02 0.00 0.00 0.00 0.00 0.00 0.00 0.00 0.00 0.00
0.09 0.07 0.08 0.12 0.16 0.15 0.15 0.18 0.19 0.13 0.13 0.13 0.11 0.13 0.13 0.16 0.16 0.17 0.19 0.19 0.25 0.32 0.39 0.31 0.21 0.18 0.16 0.13 0.12 0.10 0.07 0.05 0.03 0.04 0.01 0.00 0.00 0.00 0.00 0.00 0.00 0.00 0.00
0.00 0.00 0.00 0.00 0.01 0.01 0.03 0.05 0.08 0.09 0.11 0.13 0.14 0.15 0.15 0.20 0.28 0.36 0.41 0.43 0.43 0.42 0.41 0.35 0.26 0.21 0.18 0.16 0.16 0.16 0.12 0.09 0.07 0.06 0.03 0.01 0.00 0.00 0.00 0.00 0.00 0.00 0.00
0.00 0.00 0.00 0.00 0.00 0.01 0.01 0.01 0.03 0.04 0.06 0.06 0.08 0.09 0.09 0.09 0.10 0.13 0.18 0.21 0.24 0.28 0.28 0.27 0.23 0.21 0.19 0.20 0.25 0.24 0.23 0.21 0.16 0.12 0.07 0.04 0.01 0.00 0.00 0.00 0.00 0.00 0.00
0.00 0.00 0.00 0.00 0.00 0.00 0.00 0.00 0.01 0.01 0.02 0.03 0.03 0.03 0.05 0.07 0.08 0.10 0.13 0.17 0.25 0.30 0.31 0.31 0.29 0.27 0.25 0.23 0.23 0.21 0.19 0.15 0.13 0.09 0.06 0.03 0.01 0.00 0.00 0.00 0.00 0.00 0.00
0.00 0.00 0.00 0.00 0.00 0.00 0.00 0.00 0.00 0.00 0.00 0.00 0.00 0.00 0.01 0.02 0.02 0.03 0.05 0.08 0.11 0.16 0.20 0.23 0.24 0.23 0.20 0.22 0.23 0.20 0.18 0.13 0.10 0.06 0.07 0.04 0.01 0.00 0.00 0.00 0.00 0.00 0.00
0.00 0.00 0.00 0.00 0.00 0.00 0.00 0.00 0.00 0.00 0.00 0.00 0.00 0.00 0.00 0.00 0.01 0.00 0.02 0.04 0.04 0.07 0.08 0.08 0.09 0.11 0.14 0.14 0.17 0.16 0.15 0.10 0.04 0.02 0.03 0.01 0.00 0.00 0.00 0.00 0.00 0.00 0.00
0.00 0.00 0.00 0.00 0.00 0.00 0.00 0.00 0.00 0.00 0.00 0.00 0.00 0.00 0.00 0.00 0.00 0.00 0.00 0.00 0.00 0.02 0.03 0.06 0.05 0.07 0.11 0.13 0.16 0.15 0.11 0.08 0.05 0.02 0.00 0.00 0.00 0.00 0.00 0.00 0.00 0.00 0.00
0.00 0.00 0.00 0.00 0.00 0.00 0.00 0.00 0.00 0.00 0.00 0.00 0.00 0.00 0.00 0.00 0.00 0.01 0.01 0.00 0.00 0.01 0.02 0.05 0.06 0.08 0.15 0.20 0.23 0.25 0.22 0.15 0.11 0.06 0.04 0.02 0.00 0.00 0.00 0.00 0.00 0.00 0.00
0.00 0.00 0.00 0.00 0.00 0.00 0.00 0.00 0.00 0.00 0.00 0.00 0.00 0.00 0.01 0.01 0.01 0.02 0.02 0.01 0.02 0.02 0.04 0.09 0.14 0.15 0.15 0.14 0.15 0.10 0.10 0.16 0.14 0.11 0.10 0.08 0.01 0.00 0.00 0.00 0.00 0.00 0.00

GFSMA_prec_precacc24_120.txt.gz
Total_Precipitation_Accumulation
0.10 0.06 0.06 0.04 0.01 0.00 0.01 0.00 0.00 0.00 0.00 0.00 0.00 0.00 0.00 0.00 0.00 0.00 0.00 0.00 0.00 0.00 0.00 0.01 0.04 0.05 0.06 0.10 0.04 0.04 0.04 0.03 0.01 0.00 0.00 0.00 0.00 0.00 0.00 0.01 0.01 0.02 0.02
0.16 0.08 0.06 0.03 0.01 0.01 0.01 0.01 0.00 0.00 0.00 0.00 0.00 0.00 0.00 0.00 0.00 0.00 0.00 0.00 0.00 0.00 0.00 0.00 0.00 0.04 0.08 0.04 0.03 0.03 0.02 0.01 0.00 0.00 0.00 0.00 0.00 0.00 0.02 0.02 0.02 0.02 0.02
0.06 0.05 0.05 0.05 0.04 0.05 0.03 0.03 0.01 0.00 0.00 0.00 0.00 0.00 0.00 0.00 0.00 0.00 0.00 0.00 0.00 0.00 0.00 0.00 0.00 0.01 0.06 0.03 0.03 0.03 0.04 0.01 0.00 0.00 0.00 0.00 0.01 0.02 0.04 0.05 0.04 0.04 0.03
0.16 0.09 0.03 0.04 0.08 0.09 0.07 0.03 0.01 0.00 0.00 0.00 0.00 0.00 0.00 0.00 0.00 0.00 0.00 0.00 0.00 0.00 0.00 0.00 0.00 0.00 0.00 0.03 0.05 0.05 0.03 0.01 0.00 0.00 0.00 0.00 0.00 0.00 0.02 0.05 0.07 0.07 0.07
0.36 0.22 0.13 0.08 0.06 0.09 0.09 0.06 0.03 0.01 0.00 0.00 0.00 0.00 0.00 0.00 0.00 0.00 0.00 0.00 0.00 0.00 0.00 0.00 0.00 0.00 0.00 0.01 0.03 0.04 0.05 0.01 0.00 0.00 0.00 0.00 0.00 0.00 0.00 0.00 0.03 0.09 0.12
0.53 0.62 0.45 0.31 0.31 0.36 0.46 0.42 0.16 0.06 0.02 0.00 0.00 0.00 0.00 0.00 0.00 0.00 0.00 0.00 0.00 0.00 0.00 0.00 0.00 0.00 0.00 0.00 0.05 0.04 0.03 0.01 0.00 0.00 0.00 0.00 0.00 0.00 0.00 0.00 0.01 0.02 0.05
0.40 0.46 0.53 0.57 0.52 0.53 0.44 0.42 0.38 0.20 0.09 0.04 0.02 0.00 0.00 0.00 0.00 0.00 0.00 0.00 0.00 0.00 0.00 0.00 0.00 0.00 0.00 0.00 0.01 0.02 0.01 0.01 0.00 0.00 0.00 0.00 0.00 0.00 0.00 0.01 0.02 0.02 0.02
0.15 0.22 0.20 0.21 0.28 0.40 0.38 0.28 0.27 0.25 0.16 0.11 0.07 0.02 0.00 0.00 0.00 0.00 0.00 0.00 0.00 0.00 0.01 0.01 0.02 0.04 0.02 0.01 0.02 0.02 0.01 0.01 0.01 0.00 0.00 0.00 0.00 0.00 0.01 0.03 0.02 0.01 0.01
0.18 0.16 0.15 0.13 0.10 0.14 0.20 0.23 0.23 0.30 0.34 0.25 0.16 0.13 0.07 0.01 0.01 0.00 0.00 0.00 0.00 0.01 0.01 0.03 0.06 0.07 0.05 0.03 0.01 0.00 0.03 0.07 0.06 0.03 0.03 0.02 0.02 0.03 0.05 0.03 0.01 0.01 0.02
0.33 0.31 0.37 0.34 0.36 0.57 0.62 0.59 0.50 0.42 0.33 0.27 0.28 0.21 0.14 0.05 0.04 0.02 0.01 0.02 0.04 0.05 0.08 0.09 0.08 0.06 0.02 0.00 0.00 0.00 0.00 0.01 0.03 0.02 0.02 0.05 0.07 0.07 0.04 0.03 0.03 0.03 0.03
0.64 0.62 0.63 0.65 0.58 0.60 0.84 0.95 0.97 0.90 0.85 0.65 0.48 0.36 0.25 0.16 0.11 0.13 0.07 0.04 0.05 0.04 0.04 0.04 0.03 0.01 0.01 0.01 0.00 0.00 0.00 0.00 0.00 0.00 0.05 0.07 0.04 0.02 0.01 0.03 0.03 0.04 0.03
0.59 0.71 0.78 0.78 0.79 0.81 0.84 0.82 0.73 0.69 0.64 0.51 0.37 0.26 0.24 0.23 0.17 0.20 0.16 0.09 0.07 0.04 0.03 0.02 0.01 0.01 0.01 0.01 0.01 0.01 0.01 0.00 0.01 0.01 0.04 0.06 0.03 0.02 0.02 0.03 0.02 0.02 0.01
0.62 0.59 0.80 0.79 0.67 0.67 0.70 0.66 0.47 0.39 0.40 0.34 0.29 0.25 0.23 0.21 0.23 0.22 0.22 0.16 0.13 0.07 0.04 0.02 0.01 0.02 0.02 0.02 0.02 0.05 0.02 0.03 0.04 0.05 0.06 0.06 0.01 0.01 0.01 0.01 0.01 0.01 0.02
0.91 0.77 0.61 0.85 0.93 0.71 0.53 0.46 0.34 0.24 0.21 0.20 0.17 0.15 0.14 0.14 0.16 0.19 0.22 0.25 0.24 0.13 0.07 0.03 0.03 0.05 0.07 0.09 0.12 0.17 0.13 0.14 0.09 0.05 0.03 0.02 0.01 0.00 0.00 0.00 0.00 0.01 0.02
0.68 0.72 0.62 0.55 0.53 0.50 0.52 0.47 0.37 0.25 0.18 0.16 0.17 0.19 0.17 0.16 0.17 0.19 0.25 0.31 0.43 0.44 0.22 0.11 0.10 0.09 0.11 0.13 0.14 0.11 0.07 0.09 0.07 0.02 0.01 0.00 0.00 0.00 0.00 0.00 0.00 0.00 0.01
0.68 0.70 0.58 0.38 0.31 0.28 0.30 0.28 0.26 0.28 0.30 0.22 0.19 0.16 0.16 0.17 0.16 0.16 0.17 0.21 0.28 0.34 0.27 0.05 0.05 0.08 0.09 0.11 0.12 0.09 0.07 0.10 0.04 0.01 0.00 0.00 0.00 0.00 0.00 0.00 0.00 0.00 0.00
0.44 0.36 0.50 0.53 0.31 0.27 0.33 0.28 0.25 0.24 0.26 0.27 0.24 0.19 0.11 0.10 0.14 0.15 0.16 0.17 0.16 0.18 0.21 0.12 0.07 0.07 0.09 0.10 0.14 0.16 0.12 0.07 0.05 0.04 0.01 0.00 0.00 0.00 0.00 0.00 0.00 0.00 0.00
0.24 0.18 0.16 0.22 0.31 0.24 0.21 0.26 0.28 0.22 0.17 0.16 0.15 0.16 0.15 0.18 0.18 0.19 0.22 0.21 0.26 0.32 0.39 0.32 0.21 0.18 0.16 0.13 0.12 0.11 0.08 0.06 0.04 0.05 0.03 0.01 0.00 0.00 0.00 0.00 0.00 0.00 0.00
0.03 0.02 0.01 0.02 0.01 0.01 0.04 0.07 0.10 0.12 0.14 0.15 0.14 0.15 0.15 0.20 0.28 0.36 0.41 0.43 0.43 0.42 0.42 0.36 0.26 0.21 0.18 0.16 0.17 0.17 0.14 0.11 0.08 0.09 0.06 0.03 0.01 0.01 0.00 0.00 0.00 0.00 0.00
0.00 0.00 0.00 0.00 0.00 0.01 0.01 0.01 0.03 0.04 0.06 0.06 0.08 0.09 0.09 0.09 0.10 0.13 0.18 0.22 0.24 0.28 0.28 0.27 0.24 0.21 0.19 0.20 0.26 0.27 0.26 0.24 0.20 0.16 0.12 0.06 0.04 0.02 0.01 0.00 0.00 0.00 0.00
0.00 0.00 0.00 0.00 0.00 0.00 0.00 0.00 0.01 0.01 0.02 0.03 0.03 0.03 0.05 0.07 0.08 0.10 0.13 0.17 0.25 0.30 0.31 0.30 0.29 0.27 0.25 0.23 0.24 0.23 0.23 0.20 0.20 0.16 0.14 0.10 0.06 0.03 0.02 0.02 0.00 0.00 0.00
0.00 0.00 0.00 0.00 0.00 0.00 0.00 0.00 0.00 0.00 0.00 0.00 0.00 0.00 0.01 0.02 0.02 0.03 0.05 0.08 0.11 0.16 0.20 0.23 0.24 0.24 0.20 0.22 0.24 0.23 0.23 0.24 0.23 0.15 0.16 0.12 0.09 0.08 0.04 0.01 0.00 0.00 0.00
0.00 0.00 0.00 0.00 0.00 0.00 0.00 0.00 0.00 0.00 0.00 0.00 0.00 0.00 0.00 0.00 0.01 0.00 0.02 0.04 0.04 0.07 0.08 0.08 0.10 0.12 0.14 0.15 0.20 0.21 0.20 0.19 0.15 0.09 0.10 0.09 0.05 0.03 0.02 0.02 0.03 0.01 0.00
0.00 0.00 0.00 0.00 0.00 0.00 0.00 0.00 0.00 0.00 0.00 0.00 0.00 0.00 0.00 0.00 0.00 0.00 0.00 0.00 0.01 0.02 0.04 0.06 0.06 0.08 0.12 0.14 0.19 0.21 0.20 0.21 0.20 0.14 0.09 0.07 0.02 0.02 0.02 0.02 0.01 0.00 0.00
0.00 0.00 0.00 0.00 0.00 0.00 0.00 0.00 0.00 0.00 0.00 0.00 0.00 0.00 0.00 0.00 0.00 0.01 0.01 0.01 0.01 0.01 0.02 0.05 0.06 0.09 0.17 0.25 0.28 0.33 0.34 0.29 0.27 0.18 0.16 0.17 0.09 0.05 0.02 0.02 0.00 0.00 0.00
0.00 0.00 0.00 0.00 0.00 0.00 0.00 0.00 0.00 0.00 0.00 0.00 0.00 0.00 0.01 0.01 0.01 0.02 0.02 0.01 0.02 0.02 0.04 0.10 0.14 0.15 0.16 0.16 0.22 0.16 0.17 0.27 0.31 0.28 0.28 0.35 0.28 0.23 0.17 0.07 0.02 0.00 0.00

GFSMA_prec_precacc24_123.txt.gz
Total_Precipitation_Accumulation
0.13 0.09 0.12 0.10 0.06 0.02 0.02 0.00 0.00 0.00 0.00 0.00 0.00 0.00 0.00 0.00 0.00 0.00 0.00 0.00 0.00 0.00 0.00 0.01 0.04 0.05 0.06 0.04 0.03 0.05 0.04 0.02 0.01 0.00 0.00 0.00 0.00 0.00 0.00 0.01 0.01 0.02 0.02
0.22 0.14 0.12 0.07 0.05 0.07 0.02 0.01 0.00 0.00 0.00 0.00 0.00 0.00 0.00 0.00 0.00 0.00 0.00 0.00 0.00 0.00 0.00 0.00 0.00 0.02 0.07 0.03 0.02 0.03 0.03 0.01 0.00 0.00 0.00 0.00 0.00 0.00 0.02 0.02 0.02 0.02 0.02
0.09 0.11 0.11 0.12 0.13 0.15 0.12 0.05 0.01 0.00 0.00 0.00 0.00 0.00 0.00 0.00 0.00 0.00 0.00 0.00 0.00 0.00 0.00 0.00 0.00 0.00 0.02 0.02 0.02 0.03 0.02 0.01 0.00 0.00 0.00 0.00 0.00 0.00 0.01 0.03 0.04 0.04 0.03
0.16 0.10 0.05 0.05 0.11 0.17 0.16 0.07 0.01 0.00 0.00 0.00 0.00 0.00 0.00 0.00 0.00 0.00 0.00 0.00 0.00 0.00 0.00 0.00 0.00 0.00 0.00 0.01 0.02 0.02 0.03 0.01 0.00 0.00 0.00 0.00 0.00 0.00 0.00 0.00 0.01 0.04 0.06
0.36 0.22 0.13 0.08 0.07 0.12 0.11 0.07 0.03 0.01 0.00 0.00 0.00 0.00 0.00 0.00 0.00 0.00 0.00 0.00 0.00 0.00 0.00 0.00 0.00 0.00 0.00 0.00 0.01 0.03 0.05 0.01 0.00 0.00 0.00 0.00 0.00 0.00 0.00 0.00 0.00 0.01 0.06
0.53 0.62 0.45 0.31 0.31 0.37 0.48 0.43 0.17 0.06 0.02 0.01 0.00 0.00 0.00 0.00 0.00 0.00 0.00 0.00 0.00 0.00 0.00 0.00 0.00 0.00 0.00 0.00 0.02 0.03 0.03 0.01 0.00 0.00 0.00 0.00 0.00 0.00 0.00 0.00 0.00 0.01 0.01
0.40 0.46 0.53 0.56 0.52 0.53 0.45 0.43 0.40 0.22 0.10 0.05 0.03 0.01 0.00 0.00 0.00 0.00 0.00 0.00 0.00 0.00 0.00 0.00 0.00 0.00 0.00 0.01 0.03 0.03 0.01 0.01 0.00 0.00 0.00 0.00 0.00 0.00 0.00 0.00 0.02 0.02 0.01
0.15 0.21 0.20 0.19 0.27 0.41 0.39 0.30 0.28 0.24 0.14 0.10 0.07 0.03 0.01 0.00 0.00 0.00 0.00 0.00 0.00 0.00 0.01 0.01 0.02 0.04 0.04 0.03 0.10 0.08 0.02 0.01 0.01 0.01 0.01 0.00 0.00 0.00 0.00 0.02 0.02 0.02 0.02
0.17 0.16 0.15 0.11 0.08 0.12 0.16 0.17 0.20 0.25 0.27 0.19 0.14 0.14 0.07 0.02 0.01 0.00 0.00 0.00 0.00 0.01 0.01 0.03 0.10 0.17 0.13 0.04 0.04 0.02 0.04 0.07 0.06 0.04 0.04 0.03 0.02 0.03 0.05 0.03 0.03 0.04 0.03
0.33 0.31 0.37 0.33 0.30 0.29 0.30 0.37 0.37 0.36 0.32 0.25 0.28 0.21 0.15 0.05 0.04 0.03 0.01 0.02 0.04 0.06 0.09 0.11 0.11 0.09 0.04 0.02 0.01 0.00 0.00 0.01 0.03 0.02 0.04 0.10 0.13 0.10 0.06 0.05 0.05 0.05 0.05
0.62 0.61 0.62 0.62 0.51 0.41 0.36 0.37 0.53 0.66 0.74 0.62 0.49 0.37 0.26 0.18 0.12 0.14 0.07 0.04 0.05 0.04 0.04 0.04 0.03 0.01 0.01 0.01 0.00 0.00 0.00 0.00 0.00 0.01 0.06 0.12 0.12 0.10 0.08 0.07 0.06 0.06 0.03
0.52 0.62 0.69 0.68 0.63 0.51 0.48 0.47 0.50 0.57 0.59 0.50 0.37 0.28 0.25 0.25 0.20 0.22 0.18 0.09 0.08 0.04 0.03 0.02 0.01 0.01 0.01 0.01 0.01 0.01 0.01 0.00 0.00 0.01 0.05 0.11 0.08 0.04 0.04 0.04 0.03 0.02 0.01
0.51 0.50 0.72 0.68 0.51 0.43 0.52 0.55 0.42 0.39 0.42 0.35 0.30 0.25 0.23 0.21 0.23 0.22 0.23 0.17 0.14 0.07 0.04 0.02 0.01 0.03 0.02 0.02 0.02 0.05 0.02 0.03 0.04 0.05 0.06 0.07 0.03 0.02 0.02 0.02 0.02 0.01 0.01
0.76 0.67 0.53 0.78 0.87 0.67 0.50 0.46 0.36 0.27 0.23 0.21 0.18 0.16 0.16 0.16 0.18 0.21 0.24 0.27 0.26 0.14 0.07 0.03 0.03 0.05 0.07 0.09 0.12 0.17 0.13 0.14 0.09 0.06 0.05 0.04 0.02 0.01 0.00 0.00 0.00 0.00 0.01
0.65 0.64 0.51 0.47 0.48 0.47 0.52 0.47 0.43 0.33 0.24 0.19 0.19 0.20 0.19 0.20 0.22 0.25 0.35 0.42 0.50 0.46 0.22 0.11 0.10 0.09 0.11 0.13 0.13 0.12 0.07 0.08 0.06 0.03 0.02 0.01 0.00 0.00 0.00 0.00 0.00 0.00 0.01
0.68 0.69 0.57 0.39 0.32 0.29 0.30 0.28 0.28 0.30 0.32 0.25 0.21 0.21 0.22 0.26 0.29 0.27 0.25 0.24 0.29 0.36 0.31 0.06 0.05 0.08 0.09 0.11 0.12 0.09 0.07 0.10 0.04 0.01 0.00 0.00 0.00 0.00 0.00 0.00 0.00 0.00 0.00
0.57 0.44 0.57 0.69 0.55 0.40 0.39 0.35 0.29 0.28 0.33 0.34 0.31 0.25 0.20 0.20 0.21 0.18 0.16 0.18 0.19 0.21 0.26 0.14 0.08 0.07 0.09 0.10 0.14 0.16 0.12 0.07 0.05 0.05 0.02 0.01 0.00 0.00 0.00 0.00 0.00 0.00 0.00
0.52 0.42 0.29 0.32 0.40 0.38 0.30 0.33 0.39 0.28 0.22 0.22 0.19 0.20 0.18 0.21 0.20 0.22 0.24 0.24 0.29 0.34 0.41 0.33 0.22 0.18 0.16 0.13 0.12 0.11 0.08 0.06 0.05 0.07 0.08 0.07 0.06 0.03 0.02 0.01 0.01 0.00 0.00
0.20 0.16 0.10 0.08 0.09 0.06 0.08 0.09 0.11 0.14 0.16 0.19 0.20 0.19 0.18 0.22 0.30 0.36 0.41 0.43 0.43 0.42 0.42 0.36 0.26 0.22 0.18 0.16 0.17 0.17 0.15 0.11 0.09 0.13 0.13 0.12 0.12 0.08 0.06 0.04 0.02 0.01 0.00
0.05 0.04 0.03 0.04 0.05 0.00 0.01 0.01 0.03 0.04 0.06 0.06 0.08 0.09 0.09 0.09 0.10 0.13 0.18 0.22 0.24 0.28 0.28 0.27 0.23 0.21 0.20 0.20 0.26 0.27 0.26 0.24 0.21 0.18 0.18 0.16 0.18 0.14 0.10 0.07 0.04 0.02 0.01
0.00 0.00 0.00 0.00 0.00 0.00 0.00 0.00 0.01 0.01 0.02 0.03 0.03 0.03 0.05 0.07 0.08 0.10 0.13 0.17 0.25 0.30 0.31 0.31 0.29 0.27 0.26 0.24 0.24 0.23 0.23 0.20 0.20 0.17 0.16 0.16 0.16 0.16 0.14 0.14 0.10 0.06 0.04
0.00 0.00 0.00 0.00 0.00 0.00 0.00 0.00 0.00 0.00 0.00 0.00 0.00 0.00 0.01 0.02 0.02 0.03 0.05 0.08 0.11 0.16 0.21 0.23 0.24 0.24 0.21 0.23 0.26 0.24 0.24 0.25 0.24 0.15 0.17 0.14 0.14 0.14 0.10 0.08 0.08 0.07 0.06
0.00 0.00 0.00 0.00 0.00 0.00 0.00 0.00 0.00 0.00 0.00 0.00 0.00 0.00 0.00 0.00 0.01 0.00 0.02 0.04 0.04 0.07 0.08 0.09 0.10 0.12 0.15 0.16 0.22 0.23 0.21 0.20 0.16 0.11 0.13 0.14 0.13 0.16 0.16 0.18 0.24 0.19 0.14
0.00 0.00 0.00 0.00 0.00 0.00 0.00 0.00 0.00 0.00 0.00 0.00 0.00 0.00 0.00 0.00 0.00 0.00 0.00 0.00 0.01 0.02 0.04 0.06 0.06 0.08 0.12 0.15 0.20 0.23 0.22 0.24 0.23 0.18 0.15 0.17 0.09 0.10 0.13 0.12 0.21 0.19 0.12
0.00 0.00 0.00 0.00 0.00 0.00 0.00 0.00 0.00 0.00 0.00 0.00 0.00 0.00 0.00 0.00 0.00 0.01 0.01 0.01 0.01 0.01 0.02 0.05 0.07 0.10 0.17 0.25 0.29 0.34 0.36 0.32 0.32 0.21 0.18 0.23 0.17 0.15 0.14 0.15 0.20 0.26 0.17
0.00 0.00 0.00 0.00 0.00 0.00 0.00 0.00 0.00 0.00 0.00 0.00 0.00 0.00 0.01 0.01 0.01 0.02 0.02 0.01 0.02 0.02 0.04 0.10 0.14 0.15 0.16 0.17 0.22 0.17 0.18 0.31 0.38 0.33 0.30 0.43 0.38 0.32 0.32 0.24 0.17 0.17 0.19

GFSMA_prec_precacc24_126.txt.gz
Total_Precipitation_Accumulation
0.13 0.10 0.13 0.11 0.07 0.03 0.02 0.00 0.00 0.00 0.00 0.00 0.00 0.00 0.00 0.00 0.00 0.00 0.00 0.00 0.00 0.00 0.00 0.01 0.04 0.05 0.05 0.02 0.03 0.04 0.05 0.02 0.00 0.00 0.00 0.00 0.00 0.00 0.00 0.01 0.01 0.02 0.02
0.23 0.15 0.15 0.09 0.06 0.08 0.04 0.02 0.00 0.00 0.00 0.00 0.00 0.00 0.00 0.00 0.00 0.00 0.00 0.00 0.00 0.00 0.00 0.00 0.00 0.02 0.05 0.03 0.02 0.04 0.04 0.01 0.00 0.00 0.00 0.00 0.00 0.00 0.01 0.02 0.02 0.02 0.02
0.09 0.13 0.14 0.15 0.17 0.23 0.19 0.10 0.02 0.00 0.00 0.00 0.00 0.00 0.00 0.00 0.00 0.00 0.00 0.00 0.00 0.00 0.00 0.00 0.00 0.00 0.02 0.02 0.02 0.02 0.04 0.02 0.00 0.00 0.00 0.00 0.00 0.00 0.00 0.00 0.01 0.02 0.03
0.17 0.10 0.07 0.06 0.16 0.24 0.24 0.12 0.03 0.01 0.00 0.00 0.00 0.00 0.00 0.00 0.00 0.00 0.00 0.00 0.00 0.00 0.00 0.00 0.00 0.00 0.00 0.01 0.02 0.01 0.04 0.04 0.02 0.00 0.00 0.00 0.00 0.00 0.00 0.00 0.00 0.00 0.02
0.37 0.23 0.14 0.10 0.16 0.21 0.18 0.14 0.09 0.03 0.00 0.00 0.00 0.00 0.00 0.00 0.00 0.00 0.00 0.00 0.00 0.00 0.00 0.00 0.00 0.00 0.00 0.00 0.00 0.03 0.08 0.07 0.01 0.00 0.00 0.00 0.00 0.00 0.00 0.00 0.00 0.00 0.01
0.56 0.62 0.45 0.31 0.33 0.41 0.53 0.50 0.19 0.09 0.02 0.01 0.00 0.00 0.00 0.00 0.00 0.00 0.00 0.00 0.00 0.00 0.00 0.00 0.00 0.00 0.00 0.00 0.01 0.03 0.03 0.03 0.02 0.02 0.00 0.01 0.00 0.00 0.00 0.00 0.00 0.01 0.01
0.41 0.46 0.56 0.60 0.53 0.53 0.45 0.45 0.42 0.24 0.11 0.06 0.06 0.02 0.00 0.00 0.00 0.00 0.00 0.00 0.00 0.00 0.00 0.00 0.00 0.00 0.00 0.01 0.03 0.03 0.01 0.01 0.02 0.02 0.01 0.03 0.02 0.01 0.00 0.00 0.01 0.01 0.02
0.15 0.21 0.20 0.19 0.27 0.41 0.39 0.30 0.29 0.25 0.14 0.08 0.07 0.04 0.02 0.00 0.00 0.00 0.00 0.00 0.00 0.00 0.01 0.01 0.02 0.05 0.04 0.04 0.12 0.12 0.04 0.01 0.01 0.01 0.01 0.01 0.01 0.01 0.02 0.03 0.02 0.02 0.03
0.19 0.16 0.15 0.11 0.07 0.11 0.15 0.16 0.19 0.22 0.18 0.10 0.10 0.15 0.08 0.02 0.01 0.00 0.00 0.00 0.00 0.01 0.01 0.03 0.11 0.17 0.13 0.05 0.04 0.02 0.04 0.07 0.06 0.04 0.04 0.03 0.08 0.11 0.10 0.07 0.04 0.04 0.05
0.29 0.26 0.36 0.34 0.29 0.27 0.28 0.34 0.31 0.27 0.24 0.14 0.19 0.18 0.13 0.06 0.05 0.03 0.01 0.02 0.04 0.06 0.09 0.11 0.12 0.09 0.04 0.02 0.01 0.00 0.00 0.01 0.03 0.02 0.04 0.10 0.18 0.18 0.17 0.13 0.10 0.09 0.08
0.63 0.61 0.62 0.62 0.51 0.41 0.36 0.36 0.44 0.46 0.48 0.42 0.38 0.34 0.27 0.21 0.16 0.18 0.08 0.04 0.05 0.04 0.05 0.04 0.03 0.01 0.01 0.01 0.00 0.00 0.00 0.00 0.00 0.01 0.04 0.11 0.15 0.19 0.24 0.29 0.31 0.14 0.09
0.52 0.61 0.66 0.66 0.63 0.50 0.45 0.43 0.45 0.46 0.46 0.42 0.33 0.30 0.28 0.28 0.25 0.32 0.31 0.17 0.11 0.05 0.04 0.02 0.01 0.01 0.01 0.01 0.01 0.01 0.01 0.00 0.00 0.01 0.04 0.11 0.11 0.13 0.16 0.16 0.14 0.06 0.05
0.48 0.53 0.73 0.70 0.50 0.41 0.38 0.36 0.30 0.29 0.36 0.35 0.33 0.29 0.26 0.23 0.24 0.23 0.24 0.18 0.14 0.07 0.04 0.03 0.01 0.03 0.02 0.02 0.02 0.05 0.02 0.03 0.04 0.05 0.06 0.08 0.06 0.06 0.05 0.04 0.02 0.03 0.03
0.63 0.55 0.46 0.73 0.81 0.62 0.47 0.43 0.36 0.26 0.24 0.23 0.21 0.21 0.22 0.18 0.19 0.21 0.24 0.28 0.26 0.14 0.07 0.03 0.03 0.05 0.07 0.09 0.12 0.18 0.13 0.14 0.09 0.06 0.05 0.04 0.03 0.02 0.00 0.00 0.00 0.01 0.02
0.52 0.52 0.38 0.34 0.41 0.42 0.49 0.47 0.43 0.34 0.25 0.23 0.26 0.30 0.28 0.22 0.23 0.25 0.35 0.43 0.53 0.48 0.23 0.11 0.10 0.09 0.11 0.13 0.13 0.12 0.07 0.08 0.06 0.03 0.02 0.01 0.00 0.00 0.00 0.00 0.00 0.00 0.00
0.63 0.68 0.54 0.43 0.32 0.24 0.26 0.28 0.26 0.27 0.31 0.26 0.25 0.25 0.27 0.29 0.31 0.30 0.28 0.27 0.31 0.39 0.34 0.07 0.05 0.08 0.09 0.11 0.12 0.10 0.07 0.09 0.04 0.01 0.00 0.00 0.00 0.00 0.00 0.00 0.00 0.00 0.00
0.58 0.45 0.57 0.70 0.55 0.41 0.41 0.43 0.41 0.43 0.41 0.37 0.35 0.29 0.26 0.25 0.26 0.24 0.20 0.20 0.20 0.23 0.29 0.16 0.10 0.08 0.09 0.10 0.14 0.16 0.12 0.07 0.05 0.05 0.02 0.02 0.01 0.01 0.01 0.01 0.01 0.01 0.01
0.56 0.45 0.32 0.39 0.56 0.62 0.60 0.52 0.63 0.56 0.38 0.32 0.27 0.28 0.25 0.26 0.25 0.24 0.25 0.25 0.30 0.37 0.45 0.35 0.23 0.18 0.16 0.13 0.13 0.11 0.08 0.06 0.05 0.07 0.08 0.07 0.07 0.06 0.05 0.06 0.06 0.06 0.05
0.28 0.30 0.32 0.30 0.26 0.29 0.37 0.33 0.24 0.30 0.37 0.29 0.23 0.22 0.22 0.25 0.32 0.38 0.42 0.43 0.43 0.42 0.42 0.36 0.26 0.22 0.18 0.16 0.17 0.17 0.15 0.11 0.09 0.13 0.13 0.13 0.13 0.11 0.08 0.07 0.07 0.07 0.08
0.19 0.22 0.26 0.26 0.25 0.13 0.13 0.05 0.03 0.04 0.06 0.06 0.08 0.09 0.09 0.09 0.10 0.13 0.18 0.22 0.24 0.28 0.28 0.27 0.24 0.21 0.20 0.21 0.26 0.27 0.26 0.24 0.21 0.18 0.18 0.16 0.18 0.15 0.12 0.10 0.08 0.06 0.05
0.04 0.03 0.03 0.02 0.04 0.03 0.01 0.00 0.00 0.01 0.02 0.03 0.03 0.03 0.05 0.07 0.08 0.10 0.13 0.17 0.25 0.30 0.31 0.31 0.29 0.28 0.26 0.24 0.24 0.24 0.24 0.20 0.21 0.17 0.16 0.16 0.16 0.16 0.16 0.18 0.15 0.12 0.09
0.00 0.00 0.00 0.00 0.00 0.00 0.00 0.00 0.00 0.00 0.00 0.00 0.00 0.00 0.01 0.02 0.02 0.03 0.05 0.08 0.11 0.16 0.21 0.23 0.24 0.24 0.21 0.23 0.26 0.24 0.24 0.25 0.24 0.16 0.17 0.15 0.14 0.14 0.10 0.09 0.13 0.13 0.13
0.00 0.00 0.00 0.00 0.00 0.00 0.00 0.00 0.00 0.00 0.00 0.00 0.00 0.00 0.00 0.00 0.01 0.00 0.02 0.04 0.04 0.07 0.08 0.09 0.10 0.12 0.15 0.16 0.22 0.23 0.22 0.21 0.17 0.12 0.14 0.15 0.13 0.16 0.16 0.18 0.29 0.29 0.27
0.00 0.00 0.00 0.00 0.00 0.00 0.00 0.00 0.00 0.00 0.00 0.00 0.00 0.00 0.00 0.00 0.00 0.00 0.00 0.00 0.01 0.02 0.04 0.06 0.06 0.08 0.12 0.15 0.20 0.23 0.23 0.25 0.24 0.18 0.15 0.18 0.10 0.10 0.14 0.14 0.26 0.32 0.32
0.00 0.00 0.00 0.00 0.00 0.00 0.00 0.00 0.00 0.00 0.00 0.00 0.00 0.00 0.00 0.00 0.00 0.01 0.01 0.01 0.01 0.01 0.02 0.05 0.07 0.10 0.17 0.25 0.30 0.36 0.37 0.33 0.33 0.22 0.18 0.23 0.18 0.16 0.15 0.16 0.24 0.42 0.41
0.00 0.00 0.00 0.00 0.00 0.00 0.00 0.00 0.00 0.00 0.00 0.00 0.00 0.00 0.01 0.01 0.01 0.02 0.02 0.01 0.02 0.02 0.04 0.10 0.14 0.15 0.16 0.17 0.22 0.18 0.19 0.33 0.40 0.36 0.30 0.44 0.40 0.35 0.33 0.24 0.17 0.19 0.30

GFSMA_prec_precacc24_129.txt.gz
Total_Precipitation_Accumulation
0.14 0.10 0.13 0.11 0.07 0.03 0.02 0.00 0.00 0.00 0.00 0.00 0.00 0.00 0.00 0.00 0.00 0.00 0.00 0.00 0.00 0.00 0.00 0.01 0.04 0.05 0.04 0.02 0.03 0.04 0.06 0.03 0.00 0.00 0.00 0.00 0.00 0.00 0.00 0.01 0.01 0.02 0.02
0.25 0.16 0.15 0.10 0.06 0.08 0.04 0.02 0.00 0.00 0.00 0.00 0.00 0.00 0.00 0.00 0.00 0.00 0.00 0.00 0.00 0.00 0.00 0.00 0.00 0.02 0.05 0.03 0.02 0.04 0.05 0.02 0.00 0.00 0.00 0.00 0.00 0.00 0.00 0.00 0.00 0.01 0.02
0.12 0.14 0.15 0.16 0.18 0.25 0.21 0.11 0.02 0.00 0.00 0.00 0.00 0.00 0.00 0.00 0.00 0.00 0.00 0.00 0.00 0.00 0.00 0.00 0.00 0.00 0.02 0.02 0.01 0.02 0.05 0.03 0.02 0.01 0.00 0.00 0.00 0.00 0.00 0.00 0.00 0.00 0.01
0.17 0.11 0.07 0.07 0.20 0.35 0.34 0.17 0.06 0.04 0.00 0.00 0.00 0.00 0.00 0.00 0.00 0.00 0.00 0.00 0.00 0.00 0.00 0.00 0.00 0.00 0.00 0.01 0.02 0.01 0.06 0.07 0.04 0.01 0.02 0.01 0.00 0.00 0.00 0.00 0.00 0.00 0.00
0.41 0.26 0.15 0.10 0.18 0.28 0.26 0.21 0.18 0.16 0.09 0.02 0.00 0.00 0.00 0.00 0.00 0.00 0.00 0.00 0.00 0.00 0.00 0.00 0.00 0.00 0.00 0.00 0.00 0.02 0.10 0.13 0.03 0.04 0.05 0.06 0.02 0.00 0.00 0.00 0.00 0.00 0.01
0.60 0.64 0.47 0.32 0.33 0.41 0.56 0.59 0.27 0.24 0.13 0.09 0.03 0.00 0.00 0.00 0.00 0.00 0.00 0.00 0.00 0.00 0.00 0.00 0.00 0.00 0.00 0.00 0.00 0.02 0.03 0.09 0.10 0.08 0.05 0.08 0.02 0.00 0.00 0.00 0.00 0.00 0.00
0.47 0.51 0.59 0.66 0.60 0.58 0.49 0.50 0.48 0.36 0.17 0.11 0.11 0.02 0.01 0.00 0.00 0.00 0.00 0.00 0.00 0.00 0.00 0.00 0.00 0.00 0.00 0.01 0.02 0.02 0.01 0.01 0.04 0.05 0.06 0.07 0.04 0.03 0.01 0.01 0.01 0.01 0.02
0.18 0.30 0.27 0.26 0.37 0.47 0.42 0.31 0.36 0.30 0.17 0.13 0.10 0.06 0.03 0.01 0.00 0.00 0.00 0.00 0.00 0.00 0.01 0.01 0.02 0.05 0.04 0.04 0.12 0.12 0.04 0.01 0.01 0.01 0.01 0.02 0.03 0.02 0.04 0.06 0.06 0.05 0.04
0.20 0.21 0.20 0.16 0.12 0.14 0.16 0.15 0.18 0.22 0.18 0.10 0.10 0.16 0.08 0.02 0.01 0.00 0.00 0.00 0.00 0.01 0.01 0.03 0.11 0.19 0.16 0.08 0.07 0.03 0.04 0.07 0.06 0.04 0.04 0.03 0.08 0.11 0.11 0.12 0.11 0.12 0.11
0.30 0.30 0.31 0.28 0.22 0.22 0.17 0.16 0.18 0.20 0.20 0.13 0.15 0.16 0.12 0.07 0.05 0.04 0.01 0.02 0.04 0.06 0.09 0.11 0.12 0.10 0.07 0.04 0.02 0.00 0.00 0.01 0.03 0.02 0.03 0.10 0.17 0.18 0.19 0.20 0.20 0.22 0.18
0.52 0.53 0.56 0.56 0.47 0.35 0.35 0.31 0.30 0.29 0.29 0.31 0.31 0.28 0.25 0.21 0.18 0.20 0.12 0.06 0.05 0.04 0.05 0.04 0.03 0.02 0.01 0.01 0.01 0.00 0.00 0.00 0.00 0.00 0.03 0.10 0.15 0.20 0.27 0.34 0.47 0.56 0.60
0.48 0.62 0.74 0.68 0.63 0.47 0.44 0.41 0.41 0.40 0.35 0.36 0.31 0.30 0.28 0.29 0.26 0.35 0.38 0.24 0.17 0.08 0.05 0.03 0.01 0.01 0.01 0.01 0.01 0.01 0.01 0.00 0.00 0.01 0.04 0.10 0.12 0.13 0.16 0.19 0.24 0.27 0.25
0.42 0.55 0.74 0.73 0.52 0.44 0.40 0.37 0.30 0.25 0.30 0.31 0.32 0.29 0.29 0.28 0.30 0.31 0.31 0.22 0.16 0.08 0.05 0.03 0.02 0.03 0.03 0.03 0.03 0.06 0.03 0.03 0.04 0.04 0.05 0.08 0.06 0.06 0.06 0.05 0.04 0.05 0.07
0.65 0.60 0.49 0.79 0.89 0.69 0.47 0.41 0.35 0.26 0.23 0.22 0.20 0.20 0.23 0.23 0.29 0.32 0.33 0.32 0.29 0.15 0.07 0.03 0.03 0.05 0.07 0.09 0.13 0.18 0.13 0.14 0.09 0.06 0.05 0.04 0.03 0.02 0.00 0.00 0.00 0.01 0.03
0.56 0.49 0.35 0.27 0.31 0.35 0.45 0.44 0.41 0.34 0.26 0.23 0.25 0.30 0.31 0.30 0.32 0.36 0.45 0.48 0.55 0.50 0.23 0.11 0.10 0.09 0.11 0.14 0.14 0.12 0.07 0.08 0.06 0.03 0.02 0.01 0.00 0.00 0.00 0.00 0.00 0.00 0.01
0.63 0.69 0.51 0.42 0.31 0.22 0.24 0.28 0.27 0.26 0.27 0.24 0.25 0.27 0.31 0.39 0.44 0.45 0.41 0.37 0.38 0.46 0.39 0.10 0.07 0.08 0.10 0.11 0.13 0.10 0.07 0.09 0.04 0.01 0.00 0.00 0.00 0.00 0.00 0.00 0.00 0.00 0.01
0.58 0.46 0.58 0.70 0.55 0.41 0.40 0.42 0.41 0.43 0.48 0.45 0.44 0.43 0.42 0.36 0.32 0.30 0.30 0.32 0.34 0.33 0.36 0.22 0.11 0.09 0.10 0.10 0.15 0.16 0.12 0.07 0.05 0.05 0.02 0.02 0.02 0.02 0.02 0.02 0.02 0.02 0.02
0.56 0.45 0.33 0.39 0.56 0.61 0.60 0.55 0.65 0.59 0.47 0.52 0.61 0.58 0.39 0.35 0.30 0.29 0.31 0.30 0.32 0.38 0.46 0.37 0.24 0.19 0.17 0.13 0.13 0.11 0.08 0.06 0.05 0.07 0.08 0.07 0.07 0.06 0.06 0.06 0.07 0.07 0.07
0.28 0.31 0.32 0.30 0.27 0.29 0.38 0.54 0.58 0.60 0.63 0.58 0.49 0.41 0.35 0.33 0.39 0.45 0.48 0.47 0.44 0.42 0.42 0.36 0.26 0.22 0.18 0.16 0.17 0.17 0.15 0.11 0.09 0.13 0.13 0.13 0.13 0.11 0.08 0.08 0.08 0.08 0.09
0.20 0.23 0.27 0.31 0.31 0.18 0.22 0.23 0.20 0.25 0.24 0.20 0.13 0.10 0.09 0.09 0.10 0.13 0.18 0.22 0.24 0.28 0.28 0.27 0.24 0.21 0.20 0.21 0.26 0.27 0.26 0.24 0.21 0.18 0.18 0.16 0.18 0.15 0.12 0.10 0.08 0.07 0.07
0.11 0.05 0.07 0.06 0.09 0.10 0.17 0.11 0.03 0.00 0.00 0.01 0.01 0.02 0.03 0.06 0.08 0.10 0.13 0.17 0.25 0.30 0.31 0.31 0.29 0.28 0.26 0.24 0.24 0.24 0.24 0.20 0.21 0.17 0.16 0.16 0.16 0.16 0.16 0.18 0.15 0.13 0.11
0.00 0.00 0.00 0.00 0.00 0.02 0.02 0.00 0.00 0.00 0.00 0.00 0.00 0.00 0.00 0.01 0.02 0.03 0.05 0.08 0.11 0.16 0.21 0.23 0.24 0.24 0.21 0.23 0.26 0.24 0.24 0.25 0.24 0.16 0.17 0.15 0.14 0.14 0.10 0.09 0.13 0.13 0.14
0.00 0.00 0.00 0.00 0.00 0.00 0.00 0.00 0.00 0.00 0.00 0.00 0.00 0.00 0.00 0.00 0.01 0.00 0.02 0.04 0.04 0.07 0.08 0.09 0.10 0.12 0.15 0.16 0.22 0.23 0.22 0.21 0.17 0.12 0.14 0.15 0.13 0.16 0.16 0.18 0.29 0.29 0.27
0.00 0.00 0.00 0.00 0.00 0.00 0.00 0.00 0.00 0.00 0.00 0.00 0.00 0.00 0.00 0.00 0.00 0.00 0.00 0.00 0.01 0.02 0.04 0.06 0.06 0.08 0.12 0.15 0.20 0.23 0.24 0.25 0.25 0.18 0.15 0.18 0.10 0.10 0.14 0.14 0.26 0.32 0.32
0.00 0.00 0.00 0.00 0.00 0.00 0.00 0.00 0.00 0.00 0.00 0.00 0.00 0.00 0.00 0.00 0.00 0.01 0.01 0.01 0.01 0.01 0.02 0.05 0.07 0.10 0.17 0.25 0.30 0.36 0.37 0.33 0.33 0.22 0.18 0.23 0.18 0.17 0.15 0.16 0.24 0.43 0.41
0.00 0.00 0.00 0.00 0.00 0.00 0.00 0.00 0.00 0.00 0.00 0.00 0.00 0.00 0.01 0.01 0.01 0.02 0.02 0.01 0.02 0.02 0.04 0.10 0.14 0.15 0.16 0.17 0.23 0.18 0.20 0.34 0.41 0.37 0.31 0.45 0.40 0.35 0.34 0.24 0.17 0.19 0.30

GFSMA_prec_precacc24_132.txt.gz
Total_Precipitation_Accumulation
0.12 0.10 0.13 0.11 0.07 0.03 0.02 0.00 0.00 0.00 0.00 0.00 0.00 0.00 0.00 0.00 0.00 0.00 0.00 0.00 0.00 0.00 0.00 0.01 0.04 0.05 0.04 0.01 0.02 0.04 0.07 0.03 0.00 0.00 0.00 0.00 0.00 0.00 0.00 0.00 0.00 0.01 0.02
0.33 0.16 0.15 0.10 0.06 0.09 0.04 0.02 0.00 0.00 0.00 0.00 0.00 0.00 0.00 0.00 0.00 0.00 0.00 0.00 0.00 0.00 0.00 0.00 0.00 0.02 0.05 0.03 0.02 0.04 0.05 0.02 0.01 0.01 0.00 0.00 0.00 0.00 0.00 0.00 0.00 0.00 0.00
0.17 0.16 0.15 0.16 0.18 0.26 0.25 0.14 0.04 0.01 0.00 0.00 0.00 0.00 0.00 0.00 0.00 0.00 0.00 0.00 0.00 0.00 0.00 0.00 0.00 0.00 0.01 0.02 0.01 0.02 0.06 0.05 0.03 0.02 0.01 0.01 0.01 0.00 0.00 0.00 0.00 0.00 0.00
0.23 0.14 0.08 0.07 0.21 0.37 0.40 0.25 0.11 0.06 0.00 0.00 0.00 0.00 0.00 0.00 0.00 0.00 0.00 0.00 0.00 0.00 0.00 0.00 0.00 0.00 0.00 0.01 0.02 0.01 0.08 0.10 0.05 0.02 0.03 0.04 0.03 0.00 0.00 0.00 0.00 0.00 0.00
0.45 0.34 0.20 0.13 0.21 0.32 0.29 0.24 0.25 0.20 0.12 0.08 0.03 0.01 0.00 0.00 0.00 0.00 0.00 0.00 0.00 0.00 0.00 0.00 0.00 0.00 0.00 0.00 0.00 0.01 0.09 0.16 0.06 0.06 0.06 0.09 0.05 0.02 0.00 0.00 0.00 0.00 0.00
0.61 0.69 0.51 0.36 0.39 0.46 0.58 0.59 0.27 0.29 0.27 0.28 0.18 0.06 0.01 0.00 0.00 0.00 0.00 0.00 0.00 0.00 0.00 0.00 0.00 0.00 0.00 0.00 0.00 0.00 0.02 0.10 0.13 0.11 0.08 0.11 0.05 0.03 0.01 0.01 0.00 0.00 0.01
0.47 0.55 0.64 0.71 0.64 0.60 0.51 0.55 0.57 0.43 0.24 0.26 0.28 0.13 0.07 0.01 0.00 0.00 0.00 0.00 0.00 0.00 0.00 0.00 0.00 0.00 0.00 0.01 0.02 0.01 0.01 0.04 0.11 0.11 0.12 0.12 0.08 0.05 0.02 0.02 0.03 0.02 0.02
0.18 0.32 0.30 0.31 0.43 0.55 0.53 0.43 0.42 0.38 0.24 0.19 0.16 0.13 0.06 0.01 0.00 0.00 0.00 0.00 0.00 0.00 0.01 0.01 0.02 0.05 0.04 0.04 0.12 0.13 0.06 0.03 0.06 0.06 0.08 0.14 0.12 0.10 0.11 0.10 0.08 0.08 0.08
0.20 0.22 0.26 0.25 0.19 0.21 0.25 0.24 0.27 0.33 0.23 0.16 0.16 0.15 0.05 0.02 0.01 0.00 0.00 0.00 0.00 0.01 0.01 0.03 0.11 0.19 0.16 0.09 0.11 0.10 0.12 0.11 0.08 0.05 0.08 0.10 0.18 0.19 0.15 0.14 0.15 0.18 0.20
0.26 0.30 0.35 0.37 0.33 0.31 0.18 0.12 0.10 0.19 0.19 0.12 0.10 0.08 0.06 0.06 0.05 0.04 0.01 0.02 0.04 0.06 0.09 0.11 0.12 0.10 0.07 0.05 0.05 0.04 0.02 0.01 0.03 0.02 0.06 0.16 0.21 0.21 0.20 0.23 0.27 0.32 0.28
0.26 0.38 0.41 0.43 0.37 0.30 0.36 0.33 0.26 0.24 0.22 0.19 0.18 0.15 0.17 0.18 0.17 0.20 0.12 0.06 0.05 0.04 0.05 0.04 0.04 0.02 0.02 0.02 0.02 0.02 0.00 0.00 0.00 0.06 0.13 0.13 0.15 0.21 0.30 0.38 0.53 0.63 0.67
0.31 0.37 0.52 0.55 0.53 0.43 0.46 0.55 0.51 0.45 0.36 0.30 0.25 0.27 0.27 0.29 0.26 0.35 0.39 0.25 0.18 0.08 0.05 0.03 0.01 0.02 0.02 0.01 0.02 0.02 0.01 0.01 0.01 0.03 0.06 0.09 0.13 0.16 0.19 0.20 0.25 0.29 0.29
0.25 0.40 0.63 0.68 0.53 0.50 0.50 0.49 0.42 0.36 0.34 0.34 0.31 0.27 0.27 0.24 0.26 0.28 0.33 0.28 0.21 0.10 0.06 0.03 0.02 0.04 0.04 0.04 0.05 0.10 0.05 0.05 0.05 0.04 0.05 0.07 0.07 0.07 0.06 0.05 0.04 0.06 0.08
0.44 0.44 0.42 0.80 0.95 0.76 0.55 0.49 0.39 0.27 0.23 0.19 0.19 0.19 0.22 0.21 0.27 0.32 0.35 0.40 0.39 0.21 0.11 0.06 0.05 0.06 0.08 0.10 0.14 0.21 0.14 0.16 0.10 0.06 0.05 0.04 0.03 0.02 0.00 0.00 0.01 0.02 0.03
0.52 0.43 0.32 0.26 0.31 0.34 0.47 0.50 0.46 0.37 0.27 0.22 0.24 0.30 0.31 0.30 0.33 0.37 0.47 0.55 0.66 0.60 0.29 0.13 0.12 0.10 0.12 0.15 0.17 0.15 0.08 0.11 0.08 0.03 0.02 0.01 0.00 0.00 0.00 0.00 0.01 0.01 0.01
0.61 0.68 0.52 0.42 0.31 0.21 0.22 0.28 0.28 0.29 0.30 0.26 0.26 0.28 0.32 0.40 0.48 0.50 0.50 0.51 0.59 0.66 0.53 0.17 0.14 0.15 0.15 0.17 0.17 0.11 0.07 0.10 0.04 0.01 0.00 0.00 0.00 0.00 0.00 0.01 0.01 0.01 0.01
0.56 0.44 0.58 0.73 0.59 0.44 0.41 0.43 0.41 0.43 0.47 0.45 0.43 0.42 0.42 0.40 0.41 0.38 0.36 0.39 0.44 0.47 0.49 0.35 0.27 0.22 0.19 0.16 0.16 0.16 0.12 0.07 0.05 0.05 0.02 0.02 0.02 0.02 0.02 0.02 0.02 0.02 0.02
0.57 0.45 0.32 0.37 0.55 0.61 0.58 0.52 0.62 0.56 0.43 0.47 0.55 0.58 0.52 0.47 0.49 0.46 0.46 0.45 0.43 0.46 0.52 0.44 0.31 0.24 0.20 0.14 0.13 0.11 0.08 0.06 0.05 0.07 0.08 0.07 0.07 0.06 0.06 0.06 0.07 0.07 0.07
0.29 0.31 0.33 0.30 0.27 0.29 0.38 0.52 0.56 0.57 0.59 0.54 0.43 0.38 0.41 0.53 0.70 0.74 0.74 0.71 0.61 0.53 0.48 0.39 0.27 0.22 0.18 0.16 0.17 0.17 0.15 0.11 0.09 0.13 0.13 0.13 0.13 0.11 0.08 0.08 0.08 0.08 0.09
0.22 0.23 0.27 0.31 0.31 0.19 0.22 0.23 0.19 0.25 0.25 0.28 0.25 0.17 0.11 0.09 0.13 0.16 0.22 0.23 0.24 0.28 0.28 0.27 0.24 0.21 0.20 0.21 0.26 0.27 0.26 0.24 0.21 0.18 0.18 0.16 0.18 0.15 0.12 0.10 0.08 0.07 0.07
0.19 0.11 0.09 0.07 0.12 0.13 0.23 0.16 0.04 0.01 0.01 0.04 0.04 0.02 0.01 0.02 0.02 0.04 0.10 0.14 0.21 0.30 0.31 0.31 0.29 0.28 0.26 0.24 0.24 0.24 0.24 0.20 0.21 0.17 0.16 0.16 0.16 0.16 0.16 0.18 0.15 0.13 0.11
0.01 0.01 0.00 0.00 0.00 0.03 0.09 0.02 0.00 0.00 0.00 0.00 0.00 0.00 0.00 0.00 0.01 0.02 0.03 0.06 0.09 0.14 0.20 0.23 0.24 0.24 0.21 0.23 0.26 0.24 0.24 0.25 0.24 0.16 0.17 0.15 0.14 0.14 0.10 0.09 0.13 0.13 0.14
0.00 0.00 0.00 0.00 0.00 0.00 0.00 0.00 0.00 0.00 0.00 0.00 0.00 0.00 0.00 0.00 0.00 0.00 0.02 0.03 0.03 0.05 0.07 0.08 0.10 0.12 0.15 0.16 0.22 0.23 0.22 0.21 0.17 0.12 0.15 0.15 0.13 0.16 0.16 0.18 0.29 0.29 0.27
0.00 0.00 0.00 0.00 0.00 0.00 0.00 0.00 0.00 0.00 0.00 0.00 0.00 0.00 0.00 0.00 0.00 0.00 0.00 0.00 0.01 0.02 0.04 0.06 0.06 0.08 0.12 0.15 0.20 0.24 0.25 0.26 0.25 0.18 0.15 0.18 0.10 0.10 0.14 0.14 0.26 0.32 0.32
0.00 0.00 0.00 0.00 0.00 0.00 0.00 0.00 0.00 0.00 0.00 0.00 0.00 0.00 0.00 0.00 0.00 0.01 0.01 0.01 0.01 0.01 0.02 0.05 0.07 0.10 0.17 0.26 0.30 0.37 0.37 0.34 0.34 0.22 0.18 0.24 0.18 0.17 0.15 0.16 0.24 0.43 0.41
0.00 0.00 0.00 0.00 0.00 0.00 0.00 0.00 0.00 0.00 0.00 0.00 0.00 0.00 0.01 0.01 0.01 0.02 0.02 0.01 0.02 0.02 0.04 0.10 0.14 0.15 0.16 0.17 0.23 0.18 0.20 0.35 0.42 0.38 0.31 0.45 0.41 0.35 0.34 0.24 0.17 0.19 0.30

GFSMA_prec_precacc24_135.txt.gz
Total_Precipitation_Accumulation
0.12 0.09 0.13 0.11 0.07 0.03 0.02 0.00 0.00 0.00 0.00 0.00 0.00 0.00 0.00 0.00 0.00 0.00 0.00 0.00 0.00 0.00 0.00 0.01 0.04 0.04 0.04 0.01 0.02 0.05 0.09 0.04 0.00 0.01 0.01 0.01 0.01 0.00 0.00 0.00 0.00 0.00 0.00
0.33 0.16 0.15 0.10 0.06 0.09 0.04 0.02 0.00 0.00 0.00 0.00 0.00 0.00 0.00 0.00 0.00 0.00 0.00 0.00 0.00 0.00 0.00 0.00 0.00 0.02 0.04 0.03 0.02 0.05 0.07 0.04 0.01 0.01 0.01 0.01 0.02 0.01 0.00 0.00 0.00 0.00 0.00
0.17 0.21 0.17 0.16 0.19 0.31 0.31 0.18 0.08 0.06 0.02 0.01 0.00 0.00 0.00 0.00 0.00 0.00 0.00 0.00 0.00 0.00 0.00 0.00 0.00 0.00 0.01 0.02 0.01 0.02 0.07 0.06 0.04 0.03 0.02 0.03 0.03 0.01 0.00 0.00 0.00 0.00 0.00
0.15 0.15 0.11 0.07 0.22 0.46 0.54 0.36 0.19 0.12 0.02 0.00 0.00 0.00 0.00 0.00 0.00 0.00 0.00 0.00 0.00 0.00 0.00 0.00 0.00 0.00 0.00 0.01 0.02 0.00 0.07 0.11 0.07 0.05 0.06 0.06 0.04 0.01 0.00 0.00 0.00 0.00 0.00
0.19 0.29 0.21 0.16 0.26 0.43 0.42 0.35 0.30 0.23 0.13 0.08 0.05 0.04 0.02 0.01 0.01 0.00 0.00 0.00 0.00 0.00 0.00 0.00 0.00 0.00 0.00 0.00 0.00 0.00 0.07 0.18 0.08 0.11 0.09 0.13 0.08 0.07 0.03 0.02 0.04 0.02 0.00
0.14 0.42 0.48 0.40 0.46 0.54 0.66 0.65 0.30 0.31 0.28 0.32 0.31 0.16 0.08 0.05 0.02 0.01 0.00 0.00 0.00 0.00 0.00 0.00 0.00 0.00 0.00 0.00 0.00 0.00 0.01 0.13 0.17 0.17 0.12 0.16 0.11 0.10 0.06 0.07 0.11 0.11 0.06
0.11 0.27 0.58 0.72 0.70 0.65 0.56 0.64 0.68 0.54 0.29 0.30 0.36 0.20 0.17 0.09 0.03 0.02 0.00 0.00 0.00 0.00 0.00 0.00 0.00 0.00 0.00 0.01 0.02 0.00 0.01 0.05 0.16 0.15 0.14 0.16 0.12 0.11 0.10 0.13 0.14 0.07 0.06
0.09 0.16 0.22 0.32 0.50 0.62 0.58 0.48 0.50 0.48 0.34 0.32 0.27 0.19 0.09 0.03 0.01 0.00 0.00 0.00 0.00 0.00 0.01 0.01 0.02 0.05 0.04 0.04 0.12 0.13 0.06 0.05 0.11 0.14 0.14 0.20 0.15 0.15 0.17 0.15 0.13 0.15 0.19
0.10 0.14 0.19 0.20 0.22 0.28 0.31 0.31 0.35 0.42 0.33 0.29 0.28 0.22 0.04 0.01 0.00 0.00 0.00 0.00 0.00 0.01 0.01 0.03 0.11 0.19 0.16 0.09 0.11 0.10 0.13 0.13 0.11 0.15 0.15 0.14 0.28 0.25 0.19 0.17 0.22 0.28 0.30
0.15 0.19 0.27 0.34 0.34 0.35 0.23 0.21 0.21 0.30 0.31 0.24 0.18 0.15 0.10 0.06 0.04 0.04 0.01 0.02 0.04 0.06 0.09 0.11 0.12 0.10 0.07 0.05 0.05 0.05 0.04 0.03 0.03 0.03 0.08 0.20 0.22 0.23 0.24 0.29 0.37 0.42 0.36
0.17 0.27 0.36 0.40 0.35 0.30 0.34 0.34 0.29 0.28 0.30 0.30 0.25 0.17 0.16 0.16 0.15 0.19 0.12 0.06 0.05 0.04 0.05 0.04 0.04 0.02 0.02 0.02 0.03 0.03 0.01 0.00 0.01 0.08 0.14 0.14 0.17 0.23 0.32 0.41 0.57 0.67 0.70
0.25 0.25 0.30 0.31 0.31 0.27 0.29 0.47 0.53 0.49 0.47 0.44 0.34 0.31 0.26 0.26 0.24 0.33 0.37 0.23 0.17 0.07 0.05 0.03 0.01 0.02 0.02 0.02 0.03 0.05 0.04 0.02 0.02 0.04 0.05 0.08 0.13 0.17 0.20 0.20 0.25 0.29 0.30
0.18 0.35 0.54 0.51 0.32 0.32 0.35 0.40 0.44 0.44 0.43 0.46 0.41 0.36 0.36 0.31 0.27 0.27 0.31 0.25 0.19 0.07 0.03 0.03 0.02 0.04 0.04 0.04 0.06 0.12 0.07 0.07 0.07 0.06 0.06 0.07 0.07 0.07 0.06 0.05 0.05 0.06 0.09
0.31 0.31 0.31 0.65 0.80 0.66 0.48 0.44 0.38 0.30 0.30 0.24 0.22 0.21 0.22 0.23 0.27 0.30 0.30 0.33 0.31 0.17 0.10 0.05 0.06 0.11 0.12 0.12 0.15 0.22 0.15 0.17 0.12 0.08 0.08 0.07 0.05 0.02 0.01 0.00 0.01 0.02 0.04
0.43 0.34 0.25 0.18 0.24 0.29 0.44 0.49 0.47 0.40 0.30 0.22 0.22 0.27 0.28 0.28 0.31 0.35 0.41 0.47 0.59 0.54 0.26 0.14 0.16 0.15 0.17 0.20 0.19 0.16 0.09 0.15 0.12 0.08 0.04 0.01 0.00 0.00 0.00 0.00 0.01 0.01 0.01
0.51 0.61 0.48 0.39 0.28 0.20 0.21 0.26 0.26 0.31 0.31 0.28 0.27 0.27 0.30 0.39 0.48 0.50 0.51 0.52 0.62 0.72 0.59 0.22 0.21 0.22 0.23 0.25 0.31 0.27 0.19 0.19 0.07 0.03 0.00 0.00 0.00 0.00 0.00 0.01 0.01 0.01 0.01
0.53 0.41 0.57 0.72 0.58 0.44 0.41 0.42 0.40 0.42 0.47 0.44 0.41 0.41 0.40 0.39 0.41 0.39 0.38 0.40 0.44 0.51 0.59 0.43 0.36 0.31 0.31 0.31 0.33 0.30 0.21 0.11 0.06 0.05 0.02 0.02 0.02 0.02 0.02 0.02 0.02 0.02 0.02
0.57 0.45 0.33 0.38 0.55 0.60 0.57 0.51 0.61 0.55 0.43 0.47 0.54 0.55 0.48 0.41 0.38 0.37 0.39 0.40 0.46 0.54 0.66 0.61 0.50 0.41 0.33 0.23 0.17 0.14 0.09 0.06 0.05 0.07 0.08 0.07 0.07 0.06 0.06 0.06 0.07 0.07 0.07
0.29 0.31 0.33 0.30 0.27 0.29 0.38 0.52 0.56 0.57 0.58 0.53 0.42 0.36 0.37 0.42 0.46 0.48 0.52 0.60 0.64 0.63 0.60 0.53 0.41 0.33 0.25 0.19 0.18 0.17 0.15 0.11 0.09 0.13 0.13 0.13 0.13 0.11 0.08 0.08 0.08 0.08 0.09
0.23 0.24 0.28 0.31 0.31 0.19 0.22 0.23 0.19 0.25 0.25 0.27 0.24 0.16 0.11 0.10 0.12 0.12 0.14 0.12 0.10 0.18 0.24 0.25 0.23 0.21 0.20 0.21 0.26 0.27 0.26 0.24 0.21 0.18 0.18 0.16 0.18 0.15 0.12 0.10 0.08 0.07 0.07
0.20 0.14 0.11 0.09 0.15 0.17 0.24 0.16 0.05 0.01 0.01 0.04 0.04 0.02 0.01 0.01 0.00 0.00 0.00 0.01 0.03 0.05 0.10 0.15 0.20 0.23 0.23 0.23 0.24 0.24 0.24 0.20 0.21 0.17 0.16 0.16 0.16 0.16 0.16 0.18 0.15 0.13 0.11
0.01 0.01 0.00 0.00 0.00 0.03 0.10 0.02 0.00 0.00 0.00 0.00 0.00 0.00 0.00 0.00 0.00 0.00 0.01 0.01 0.02 0.02 0.03 0.05 0.07 0.12 0.13 0.17 0.24 0.24 0.24 0.25 0.24 0.16 0.17 0.15 0.14 0.14 0.10 0.09 0.13 0.13 0.14
0.00 0.00 0.00 0.00 0.00 0.00 0.00 0.00 0.00 0.00 0.00 0.00 0.00 0.00 0.00 0.00 0.00 0.00 0.00 0.01 0.01 0.03 0.05 0.04 0.03 0.05 0.07 0.10 0.19 0.23 0.22 0.22 0.18 0.12 0.15 0.15 0.13 0.16 0.16 0.18 0.29 0.29 0.27
0.00 0.00 0.00 0.00 0.00 0.00 0.00 0.00 0.00 0.00 0.00 0.00 0.00 0.00 0.00 0.00 0.00 0.00 0.00 0.00 0.00 0.01 0.02 0.04 0.05 0.07 0.12 0.15 0.20 0.24 0.25 0.26 0.25 0.18 0.15 0.19 0.10 0.10 0.14 0.14 0.26 0.32 0.32
0.00 0.00 0.00 0.00 0.00 0.00 0.00 0.00 0.00 0.00 0.00 0.00 0.00 0.00 0.00 0.00 0.00 0.00 0.01 0.00 0.00 0.00 0.01 0.05 0.07 0.10 0.17 0.26 0.30 0.37 0.37 0.34 0.34 0.22 0.18 0.24 0.18 0.17 0.15 0.16 0.24 0.43 0.41
0.00 0.00 0.00 0.00 0.00 0.00 0.00 0.00 0.00 0.00 0.00 0.00 0.00 0.00 0.00 0.01 0.00 0.01 0.01 0.01 0.02 0.01 0.03 0.07 0.12 0.15 0.16 0.17 0.23 0.18 0.20 0.35 0.42 0.39 0.31 0.47 0.41 0.35 0.35 0.24 0.17 0.19 0.30

GFSMA_prec_precacc24_138.txt.gz
Total_Precipitation_Accumulation
0.12 0.10 0.13 0.11 0.07 0.03 0.02 0.00 0.00 0.00 0.00 0.00 0.00 0.00 0.00 0.00 0.00 0.00 0.00 0.00 0.00 0.00 0.00 0.01 0.04 0.04 0.04 0.01 0.02 0.05 0.09 0.04 0.01 0.02 0.02 0.01 0.01 0.00 0.00 0.00 0.00 0.00 0.00
0.33 0.17 0.16 0.10 0.06 0.08 0.05 0.03 0.02 0.01 0.00 0.00 0.00 0.00 0.00 0.00 0.00 0.00 0.00 0.00 0.00 0.00 0.00 0.00 0.00 0.02 0.04 0.03 0.02 0.05 0.08 0.05 0.02 0.02 0.02 0.02 0.03 0.02 0.00 0.00 0.00 0.00 0.00
0.16 0.22 0.18 0.16 0.19 0.31 0.38 0.28 0.18 0.14 0.05 0.03 0.01 0.00 0.01 0.01 0.00 0.00 0.00 0.00 0.00 0.00 0.00 0.00 0.00 0.00 0.01 0.01 0.01 0.02 0.07 0.07 0.05 0.05 0.05 0.05 0.06 0.03 0.01 0.00 0.00 0.00 0.00
0.08 0.11 0.10 0.06 0.21 0.47 0.62 0.48 0.33 0.27 0.16 0.12 0.08 0.03 0.03 0.02 0.00 0.00 0.00 0.00 0.00 0.00 0.00 0.00 0.00 0.00 0.00 0.01 0.02 0.00 0.07 0.11 0.08 0.07 0.07 0.08 0.05 0.03 0.02 0.00 0.02 0.03 0.02
0.10 0.15 0.13 0.10 0.23 0.40 0.46 0.45 0.42 0.39 0.27 0.19 0.13 0.12 0.06 0.02 0.01 0.00 0.00 0.00 0.00 0.00 0.00 0.00 0.00 0.00 0.00 0.00 0.00 0.00 0.07 0.19 0.10 0.13 0.11 0.15 0.10 0.09 0.06 0.05 0.11 0.14 0.07
0.09 0.09 0.11 0.11 0.18 0.27 0.61 0.72 0.36 0.40 0.35 0.45 0.48 0.28 0.20 0.11 0.04 0.02 0.03 0.02 0.01 0.01 0.01 0.00 0.00 0.00 0.00 0.00 0.00 0.00 0.01 0.13 0.19 0.19 0.16 0.18 0.13 0.12 0.10 0.11 0.17 0.18 0.09
0.09 0.11 0.14 0.20 0.22 0.19 0.39 0.68 0.74 0.58 0.36 0.41 0.49 0.28 0.23 0.16 0.09 0.07 0.08 0.06 0.03 0.01 0.00 0.00 0.00 0.00 0.00 0.01 0.02 0.00 0.00 0.05 0.18 0.20 0.17 0.17 0.14 0.13 0.13 0.17 0.16 0.08 0.08
0.08 0.11 0.12 0.16 0.26 0.36 0.45 0.43 0.51 0.53 0.40 0.41 0.33 0.24 0.12 0.06 0.02 0.02 0.08 0.08 0.05 0.03 0.02 0.04 0.03 0.05 0.04 0.04 0.12 0.13 0.06 0.05 0.11 0.16 0.18 0.22 0.17 0.17 0.18 0.16 0.15 0.19 0.26
0.08 0.09 0.15 0.18 0.18 0.22 0.24 0.28 0.35 0.46 0.38 0.40 0.38 0.33 0.11 0.02 0.01 0.00 0.00 0.01 0.01 0.03 0.02 0.04 0.11 0.19 0.16 0.09 0.11 0.10 0.13 0.13 0.11 0.17 0.20 0.17 0.32 0.28 0.18 0.17 0.24 0.34 0.38
0.11 0.13 0.17 0.22 0.25 0.31 0.22 0.21 0.23 0.37 0.39 0.30 0.28 0.23 0.24 0.13 0.06 0.04 0.01 0.01 0.03 0.06 0.09 0.11 0.12 0.10 0.07 0.05 0.05 0.05 0.04 0.03 0.03 0.04 0.09 0.22 0.24 0.24 0.28 0.35 0.43 0.45 0.39
0.11 0.16 0.20 0.23 0.18 0.18 0.30 0.31 0.30 0.32 0.35 0.34 0.32 0.29 0.28 0.27 0.21 0.21 0.11 0.06 0.05 0.04 0.04 0.04 0.03 0.02 0.02 0.02 0.03 0.03 0.01 0.00 0.01 0.08 0.14 0.14 0.17 0.25 0.35 0.44 0.58 0.67 0.70
0.07 0.08 0.18 0.19 0.16 0.15 0.18 0.35 0.40 0.38 0.40 0.38 0.33 0.35 0.30 0.31 0.30 0.34 0.37 0.23 0.17 0.07 0.04 0.02 0.01 0.01 0.02 0.01 0.03 0.05 0.05 0.04 0.04 0.05 0.08 0.10 0.15 0.18 0.20 0.21 0.26 0.29 0.30
0.05 0.17 0.32 0.38 0.24 0.24 0.25 0.28 0.32 0.33 0.33 0.38 0.37 0.37 0.44 0.46 0.46 0.45 0.49 0.34 0.20 0.07 0.03 0.01 0.01 0.03 0.04 0.04 0.06 0.11 0.07 0.08 0.08 0.07 0.06 0.07 0.08 0.07 0.07 0.05 0.05 0.07 0.09
0.14 0.20 0.22 0.55 0.70 0.57 0.41 0.35 0.30 0.22 0.22 0.20 0.21 0.24 0.30 0.40 0.64 0.75 0.66 0.61 0.47 0.18 0.06 0.02 0.03 0.07 0.07 0.08 0.14 0.23 0.16 0.19 0.13 0.09 0.08 0.07 0.05 0.03 0.01 0.01 0.01 0.02 0.04
0.27 0.19 0.14 0.11 0.15 0.21 0.37 0.44 0.44 0.38 0.29 0.22 0.23 0.29 0.29 0.28 0.34 0.48 0.55 0.54 0.55 0.39 0.16 0.07 0.09 0.08 0.10 0.14 0.21 0.20 0.12 0.19 0.15 0.11 0.09 0.06 0.05 0.03 0.01 0.01 0.01 0.01 0.01
0.41 0.49 0.39 0.34 0.24 0.16 0.18 0.24 0.27 0.31 0.33 0.31 0.30 0.32 0.31 0.36 0.43 0.44 0.43 0.42 0.55 0.68 0.58 0.21 0.19 0.19 0.17 0.21 0.31 0.30 0.26 0.31 0.22 0.17 0.12 0.08 0.04 0.02 0.01 0.01 0.01 0.01 0.01
0.45 0.34 0.51 0.67 0.55 0.42 0.39 0.41 0.40 0.41 0.46 0.43 0.41 0.41 0.40 0.37 0.36 0.34 0.33 0.37 0.42 0.49 0.56 0.40 0.34 0.30 0.31 0.32 0.35 0.33 0.26 0.16 0.13 0.11 0.06 0.05 0.03 0.02 0.02 0.02 0.02 0.02 0.02
0.56 0.45 0.32 0.37 0.53 0.58 0.56 0.49 0.59 0.53 0.40 0.44 0.52 0.52 0.46 0.40 0.37 0.33 0.31 0.29 0.29 0.33 0.43 0.47 0.42 0.36 0.34 0.29 0.23 0.20 0.16 0.12 0.08 0.08 0.08 0.07 0.07 0.06 0.06 0.06 0.07 0.07 0.07
0.29 0.31 0.33 0.31 0.27 0.29 0.38 0.52 0.56 0.56 0.58 0.53 0.42 0.36 0.37 0.41 0.45 0.47 0.48 0.46 0.39 0.32 0.29 0.31 0.27 0.22 0.17 0.11 0.10 0.15 0.15 0.12 0.09 0.13 0.13 0.13 0.13 0.11 0.08 0.08 0.08 0.08 0.09
0.23 0.24 0.28 0.31 0.31 0.19 0.22 0.23 0.19 0.25 0.25 0.27 0.24 0.16 0.11 0.10 0.12 0.12 0.13 0.10 0.07 0.04 0.02 0.03 0.04 0.05 0.05 0.06 0.10 0.15 0.18 0.21 0.20 0.18 0.18 0.16 0.18 0.15 0.12 0.10 0.08 0.07 0.07
0.20 0.14 0.12 0.10 0.16 0.17 0.24 0.16 0.05 0.01 0.02 0.04 0.05 0.02 0.01 0.01 0.00 0.00 0.00 0.00 0.00 0.00 0.01 0.01 0.01 0.02 0.04 0.05 0.06 0.07 0.09 0.13 0.19 0.17 0.16 0.16 0.16 0.16 0.16 0.18 0.15 0.13 0.11
0.01 0.01 0.00 0.00 0.00 0.03 0.10 0.02 0.00 0.00 0.00 0.00 0.00 0.00 0.00 0.00 0.00 0.00 0.00 0.00 0.00 0.01 0.01 0.01 0.02 0.03 0.03 0.04 0.07 0.10 0.13 0.17 0.20 0.15 0.17 0.15 0.14 0.14 0.10 0.09 0.13 0.13 0.14
0.00 0.00 0.00 0.00 0.00 0.00 0.00 0.00 0.00 0.00 0.00 0.00 0.00 0.00 0.00 0.00 0.00 0.00 0.00 0.00 0.00 0.01 0.02 0.03 0.02 0.02 0.03 0.05 0.10 0.13 0.16 0.18 0.16 0.12 0.15 0.15 0.13 0.16 0.16 0.18 0.29 0.29 0.28
0.00 0.00 0.00 0.00 0.00 0.00 0.00 0.00 0.00 0.00 0.00 0.00 0.00 0.00 0.00 0.00 0.00 0.00 0.00 0.00 0.00 0.00 0.00 0.01 0.02 0.03 0.07 0.09 0.16 0.22 0.24 0.26 0.25 0.18 0.15 0.19 0.10 0.10 0.14 0.14 0.26 0.32 0.33
0.00 0.00 0.00 0.00 0.00 0.00 0.00 0.00 0.00 0.00 0.00 0.00 0.00 0.00 0.00 0.00 0.00 0.00 0.00 0.00 0.00 0.00 0.00 0.02 0.04 0.07 0.14 0.21 0.27 0.35 0.36 0.34 0.34 0.22 0.18 0.24 0.18 0.17 0.15 0.16 0.24 0.43 0.41
0.00 0.00 0.00 0.00 0.00 0.00 0.00 0.00 0.00 0.00 0.00 0.00 0.00 0.00 0.00 0.00 0.00 0.00 0.01 0.00 0.00 0.00 0.00 0.02 0.03 0.05 0.11 0.16 0.22 0.18 0.20 0.35 0.42 0.39 0.31 0.47 0.41 0.36 0.36 0.24 0.17 0.19 0.30

GFSMA_prec_precacc24_141.txt.gz
Total_Precipitation_Accumulation
0.07 0.07 0.13 0.12 0.08 0.03 0.02 0.00 0.00 0.00 0.00 0.02 0.04 0.01 0.00 0.00 0.00 0.00 0.00 0.00 0.00 0.00 0.00 0.00 0.03 0.04 0.04 0.01 0.01 0.04 0.08 0.03 0.01 0.03 0.02 0.01 0.01 0.01 0.01 0.01 0.00 0.00 0.00
0.28 0.14 0.14 0.11 0.06 0.08 0.04 0.03 0.02 0.02 0.01 0.01 0.01 0.01 0.00 0.00 0.00 0.00 0.00 0.00 0.00 0.00 0.00 0.00 0.00 0.01 0.04 0.03 0.01 0.05 0.08 0.05 0.03 0.03 0.03 0.04 0.04 0.03 0.01 0.01 0.01 0.01 0.00
0.16 0.22 0.18 0.16 0.19 0.31 0.37 0.29 0.21 0.16 0.07 0.05 0.04 0.01 0.01 0.03 0.00 0.01 0.00 0.00 0.00 0.00 0.00 0.00 0.00 0.00 0.01 0.01 0.01 0.02 0.07 0.08 0.06 0.06 0.05 0.07 0.08 0.04 0.01 0.00 0.00 0.02 0.01
0.08 0.11 0.10 0.05 0.19 0.45 0.61 0.48 0.35 0.30 0.19 0.16 0.15 0.14 0.15 0.12 0.06 0.03 0.01 0.00 0.00 0.00 0.00 0.00 0.00 0.00 0.01 0.01 0.02 0.00 0.07 0.11 0.09 0.08 0.08 0.10 0.08 0.04 0.03 0.01 0.03 0.05 0.06
0.10 0.14 0.12 0.10 0.23 0.38 0.40 0.42 0.43 0.42 0.32 0.27 0.26 0.28 0.24 0.15 0.10 0.07 0.03 0.02 0.01 0.00 0.00 0.00 0.00 0.00 0.00 0.00 0.00 0.00 0.07 0.18 0.12 0.15 0.13 0.17 0.12 0.11 0.08 0.06 0.12 0.16 0.12
0.09 0.09 0.11 0.10 0.17 0.20 0.24 0.31 0.23 0.38 0.40 0.52 0.55 0.37 0.32 0.25 0.16 0.11 0.09 0.05 0.02 0.02 0.03 0.04 0.04 0.04 0.02 0.00 0.00 0.00 0.01 0.13 0.19 0.20 0.17 0.20 0.14 0.13 0.11 0.12 0.19 0.20 0.11
0.09 0.11 0.13 0.20 0.20 0.14 0.16 0.30 0.43 0.44 0.32 0.43 0.53 0.34 0.31 0.25 0.17 0.14 0.13 0.09 0.07 0.09 0.06 0.04 0.04 0.06 0.02 0.01 0.02 0.00 0.00 0.04 0.18 0.21 0.18 0.18 0.15 0.14 0.15 0.19 0.17 0.08 0.09
0.07 0.11 0.11 0.15 0.24 0.23 0.23 0.25 0.31 0.37 0.34 0.41 0.36 0.28 0.16 0.10 0.05 0.02 0.08 0.08 0.09 0.10 0.07 0.06 0.05 0.06 0.05 0.04 0.12 0.13 0.06 0.05 0.11 0.17 0.19 0.24 0.18 0.19 0.20 0.16 0.15 0.21 0.30
0.07 0.07 0.12 0.15 0.16 0.19 0.19 0.21 0.25 0.34 0.31 0.40 0.40 0.39 0.17 0.04 0.04 0.02 0.00 0.01 0.04 0.06 0.07 0.06 0.11 0.18 0.16 0.08 0.11 0.10 0.11 0.12 0.11 0.17 0.20 0.18 0.33 0.28 0.18 0.16 0.24 0.37 0.42
0.10 0.10 0.14 0.19 0.22 0.30 0.22 0.20 0.21 0.33 0.38 0.30 0.27 0.23 0.26 0.18 0.10 0.05 0.02 0.02 0.02 0.07 0.15 0.16 0.14 0.10 0.07 0.05 0.05 0.05 0.04 0.03 0.03 0.04 0.09 0.21 0.23 0.23 0.29 0.40 0.52 0.54 0.47
0.11 0.15 0.17 0.20 0.17 0.19 0.32 0.34 0.31 0.32 0.34 0.35 0.34 0.32 0.27 0.27 0.25 0.21 0.13 0.07 0.05 0.02 0.03 0.03 0.03 0.02 0.01 0.02 0.03 0.03 0.01 0.00 0.01 0.08 0.14 0.13 0.18 0.28 0.42 0.52 0.65 0.72 0.72
0.05 0.06 0.14 0.14 0.13 0.13 0.18 0.36 0.39 0.35 0.36 0.32 0.30 0.31 0.23 0.23 0.23 0.28 0.31 0.21 0.16 0.07 0.06 0.03 0.01 0.01 0.01 0.01 0.02 0.04 0.04 0.04 0.04 0.05 0.08 0.12 0.20 0.22 0.23 0.24 0.28 0.30 0.31
0.04 0.12 0.10 0.16 0.14 0.16 0.18 0.20 0.27 0.28 0.28 0.31 0.28 0.27 0.36 0.40 0.43 0.45 0.51 0.44 0.36 0.23 0.17 0.15 0.11 0.07 0.04 0.04 0.05 0.08 0.06 0.07 0.07 0.07 0.07 0.09 0.08 0.07 0.07 0.06 0.06 0.08 0.10
0.13 0.17 0.14 0.20 0.26 0.28 0.24 0.30 0.27 0.17 0.19 0.17 0.19 0.23 0.29 0.43 0.70 0.79 0.69 0.63 0.53 0.29 0.17 0.15 0.20 0.21 0.13 0.07 0.06 0.10 0.08 0.15 0.12 0.10 0.08 0.07 0.04 0.03 0.01 0.01 0.01 0.02 0.04
0.13 0.12 0.07 0.06 0.09 0.11 0.25 0.37 0.41 0.36 0.27 0.22 0.24 0.31 0.30 0.30 0.34 0.47 0.68 0.80 0.83 0.57 0.25 0.11 0.12 0.08 0.07 0.09 0.13 0.11 0.08 0.22 0.19 0.14 0.10 0.07 0.07 0.06 0.06 0.05 0.04 0.02 0.01
0.21 0.32 0.29 0.26 0.15 0.07 0.09 0.14 0.20 0.27 0.31 0.31 0.32 0.36 0.35 0.37 0.42 0.43 0.42 0.43 0.58 0.74 0.64 0.23 0.18 0.17 0.15 0.16 0.23 0.21 0.21 0.28 0.22 0.18 0.14 0.13 0.11 0.08 0.05 0.03 0.01 0.01 0.01
0.30 0.21 0.26 0.39 0.38 0.26 0.22 0.27 0.29 0.32 0.37 0.36 0.39 0.43 0.42 0.36 0.33 0.30 0.30 0.32 0.36 0.42 0.48 0.36 0.34 0.30 0.28 0.27 0.25 0.21 0.18 0.13 0.13 0.15 0.09 0.07 0.04 0.02 0.02 0.02 0.02 0.02 0.02
0.47 0.38 0.27 0.30 0.44 0.50 0.47 0.40 0.50 0.49 0.38 0.42 0.51 0.51 0.45 0.40 0.37 0.34 0.31 0.29 0.26 0.26 0.30 0.32 0.35 0.33 0.31 0.22 0.15 0.13 0.11 0.08 0.07 0.09 0.09 0.07 0.07 0.06 0.06 0.06 0.07 0.07 0.07
0.29 0.31 0.33 0.31 0.27 0.29 0.37 0.52 0.55 0.56 0.58 0.53 0.42 0.36 0.37 0.42 0.45 0.47 0.48 0.45 0.38 0.31 0.26 0.25 0.22 0.18 0.14 0.08 0.03 0.03 0.03 0.03 0.02 0.08 0.10 0.11 0.13 0.10 0.08 0.08 0.08 0.08 0.09
0.23 0.24 0.28 0.31 0.31 0.19 0.22 0.23 0.19 0.25 0.25 0.27 0.24 0.16 0.11 0.10 0.12 0.12 0.12 0.10 0.06 0.03 0.02 0.02 0.02 0.01 0.01 0.01 0.02 0.03 0.03 0.03 0.05 0.07 0.11 0.13 0.16 0.15 0.12 0.10 0.08 0.07 0.07
0.20 0.14 0.12 0.10 0.16 0.17 0.24 0.16 0.05 0.01 0.02 0.04 0.05 0.02 0.01 0.01 0.00 0.00 0.00 0.00 0.00 0.00 0.00 0.00 0.00 0.01 0.01 0.01 0.02 0.03 0.04 0.05 0.08 0.09 0.10 0.12 0.16 0.16 0.16 0.18 0.15 0.13 0.11
0.01 0.01 0.00 0.00 0.00 0.03 0.10 0.02 0.00 0.00 0.00 0.00 0.00 0.01 0.00 0.00 0.00 0.00 0.00 0.00 0.00 0.00 0.00 0.00 0.01 0.01 0.01 0.02 0.03 0.04 0.06 0.12 0.15 0.10 0.11 0.11 0.13 0.14 0.10 0.09 0.13 0.13 0.15
0.00 0.00 0.00 0.00 0.00 0.00 0.00 0.00 0.00 0.00 0.00 0.00 0.00 0.00 0.00 0.00 0.00 0.00 0.00 0.00 0.00 0.00 0.00 0.01 0.01 0.01 0.01 0.02 0.05 0.07 0.07 0.12 0.14 0.10 0.12 0.14 0.13 0.16 0.16 0.18 0.29 0.29 0.28
0.00 0.00 0.00 0.00 0.00 0.00 0.00 0.00 0.00 0.00 0.00 0.00 0.00 0.00 0.00 0.00 0.00 0.00 0.00 0.00 0.00 0.00 0.00 0.00 0.01 0.01 0.01 0.02 0.05 0.09 0.14 0.18 0.19 0.16 0.15 0.19 0.10 0.10 0.14 0.14 0.26 0.32 0.33
0.00 0.00 0.00 0.00 0.00 0.00 0.00 0.00 0.00 0.00 0.00 0.00 0.00 0.00 0.00 0.00 0.00 0.00 0.00 0.00 0.00 0.00 0.00 0.00 0.01 0.01 0.02 0.05 0.08 0.12 0.15 0.19 0.23 0.16 0.14 0.23 0.18 0.17 0.15 0.16 0.24 0.43 0.41
0.00 0.00 0.00 0.00 0.00 0.00 0.00 0.00 0.00 0.00 0.00 0.00 0.00 0.00 0.00 0.00 0.00 0.00 0.00 0.00 0.00 0.00 0.00 0.00 0.00 0.00 0.01 0.03 0.08 0.09 0.10 0.19 0.29 0.29 0.21 0.39 0.40 0.36 0.36 0.24 0.17 0.19 0.30

GFSMA_prec_precacc24_144.txt.gz
Total_Precipitation_Accumulation
0.05 0.06 0.08 0.08 0.07 0.04 0.02 0.03 0.02 0.00 0.00 0.02 0.05 0.03 0.01 0.00 0.00 0.00 0.00 0.00 0.00 0.00 0.00 0.00 0.01 0.02 0.03 0.01 0.01 0.04 0.08 0.03 0.01 0.04 0.03 0.02 0.02 0.01 0.01 0.01 0.01 0.01 0.01
0.19 0.10 0.10 0.08 0.06 0.08 0.05 0.04 0.04 0.04 0.01 0.01 0.01 0.01 0.01 0.01 0.01 0.00 0.00 0.00 0.00 0.00 0.00 0.00 0.00 0.00 0.03 0.03 0.02 0.06 0.10 0.07 0.04 0.05 0.05 0.05 0.06 0.04 0.01 0.01 0.01 0.01 0.01
0.13 0.19 0.15 0.14 0.18 0.30 0.38 0.29 0.21 0.19 0.09 0.06 0.04 0.02 0.02 0.04 0.04 0.03 0.01 0.00 0.00 0.00 0.00 0.00 0.00 0.00 0.00 0.01 0.01 0.04 0.09 0.11 0.07 0.07 0.06 0.07 0.09 0.06 0.02 0.00 0.01 0.02 0.02
0.08 0.10 0.10 0.05 0.17 0.42 0.59 0.49 0.36 0.31 0.20 0.17 0.16 0.15 0.17 0.15 0.09 0.08 0.06 0.03 0.02 0.01 0.00 0.00 0.00 0.00 0.00 0.01 0.02 0.02 0.10 0.14 0.12 0.10 0.10 0.11 0.09 0.06 0.04 0.02 0.03 0.05 0.09
0.10 0.14 0.12 0.10 0.23 0.37 0.39 0.41 0.43 0.43 0.34 0.29 0.28 0.31 0.29 0.22 0.18 0.15 0.09 0.06 0.06 0.06 0.03 0.01 0.00 0.00 0.00 0.01 0.00 0.01 0.09 0.22 0.15 0.18 0.15 0.19 0.13 0.13 0.09 0.07 0.13 0.17 0.14
0.09 0.09 0.10 0.10 0.16 0.20 0.24 0.31 0.24 0.39 0.42 0.54 0.59 0.40 0.35 0.30 0.23 0.20 0.19 0.20 0.20 0.09 0.06 0.04 0.04 0.04 0.03 0.02 0.02 0.01 0.02 0.14 0.20 0.21 0.18 0.22 0.16 0.14 0.11 0.13 0.19 0.20 0.11
0.09 0.11 0.13 0.19 0.20 0.13 0.15 0.29 0.40 0.44 0.33 0.44 0.56 0.37 0.33 0.27 0.19 0.20 0.27 0.31 0.29 0.28 0.24 0.12 0.08 0.10 0.09 0.10 0.12 0.09 0.04 0.05 0.18 0.20 0.18 0.19 0.17 0.15 0.16 0.20 0.17 0.11 0.10
0.07 0.11 0.11 0.14 0.23 0.22 0.22 0.24 0.29 0.34 0.32 0.43 0.42 0.36 0.22 0.14 0.07 0.04 0.09 0.14 0.19 0.27 0.26 0.16 0.09 0.09 0.11 0.10 0.16 0.17 0.06 0.04 0.11 0.16 0.19 0.24 0.19 0.20 0.21 0.17 0.16 0.23 0.31
0.07 0.07 0.11 0.15 0.15 0.18 0.18 0.20 0.24 0.31 0.26 0.38 0.41 0.43 0.22 0.10 0.10 0.04 0.01 0.02 0.04 0.07 0.13 0.15 0.16 0.17 0.14 0.07 0.10 0.11 0.10 0.06 0.05 0.15 0.19 0.18 0.33 0.28 0.19 0.18 0.24 0.40 0.48
0.10 0.10 0.13 0.18 0.20 0.27 0.19 0.18 0.21 0.34 0.41 0.30 0.28 0.26 0.30 0.22 0.13 0.05 0.03 0.02 0.01 0.03 0.12 0.17 0.19 0.12 0.07 0.06 0.05 0.05 0.04 0.02 0.00 0.02 0.08 0.20 0.22 0.22 0.28 0.40 0.54 0.58 0.52
0.10 0.15 0.17 0.19 0.16 0.17 0.31 0.33 0.31 0.35 0.36 0.36 0.37 0.35 0.30 0.31 0.28 0.18 0.09 0.06 0.08 0.05 0.02 0.02 0.03 0.03 0.02 0.02 0.02 0.03 0.01 0.00 0.01 0.08 0.13 0.12 0.19 0.31 0.46 0.55 0.70 0.75 0.76
0.05 0.06 0.13 0.13 0.12 0.12 0.17 0.35 0.41 0.37 0.38 0.33 0.32 0.37 0.28 0.25 0.25 0.27 0.28 0.19 0.15 0.13 0.11 0.09 0.07 0.05 0.03 0.02 0.02 0.04 0.04 0.03 0.03 0.05 0.07 0.15 0.24 0.24 0.23 0.22 0.27 0.31 0.31
0.04 0.11 0.10 0.15 0.13 0.15 0.16 0.19 0.26 0.28 0.27 0.31 0.28 0.28 0.38 0.41 0.44 0.42 0.46 0.39 0.31 0.24 0.20 0.19 0.18 0.16 0.13 0.11 0.11 0.12 0.08 0.07 0.05 0.03 0.05 0.09 0.08 0.07 0.06 0.05 0.06 0.08 0.10
0.13 0.17 0.14 0.20 0.23 0.20 0.16 0.16 0.16 0.14 0.17 0.15 0.16 0.20 0.26 0.41 0.68 0.76 0.67 0.60 0.48 0.31 0.23 0.20 0.25 0.28 0.21 0.14 0.11 0.11 0.05 0.08 0.06 0.05 0.07 0.07 0.04 0.03 0.01 0.01 0.01 0.02 0.04
0.11 0.09 0.06 0.06 0.08 0.06 0.09 0.16 0.23 0.25 0.22 0.19 0.19 0.24 0.27 0.27 0.31 0.44 0.63 0.76 0.83 0.62 0.32 0.16 0.15 0.10 0.08 0.08 0.13 0.10 0.07 0.19 0.14 0.14 0.14 0.12 0.12 0.11 0.08 0.06 0.05 0.04 0.03
0.07 0.08 0.07 0.18 0.11 0.05 0.05 0.08 0.12 0.15 0.18 0.19 0.21 0.29 0.31 0.34 0.44 0.46 0.43 0.41 0.52 0.66 0.62 0.36 0.30 0.24 0.17 0.17 0.22 0.21 0.21 0.25 0.20 0.17 0.14 0.13 0.11 0.08 0.06 0.04 0.02 0.01 0.01
0.18 0.14 0.14 0.25 0.32 0.21 0.14 0.18 0.19 0.22 0.28 0.25 0.25 0.31 0.39 0.37 0.38 0.35 0.31 0.31 0.34 0.39 0.45 0.37 0.35 0.30 0.28 0.26 0.23 0.19 0.16 0.11 0.12 0.16 0.10 0.08 0.05 0.04 0.03 0.02 0.02 0.02 0.02
0.33 0.28 0.19 0.20 0.29 0.40 0.41 0.32 0.41 0.40 0.34 0.39 0.47 0.48 0.43 0.38 0.35 0.32 0.29 0.27 0.26 0.27 0.30 0.32 0.35 0.33 0.30 0.22 0.15 0.12 0.10 0.07 0.06 0.07 0.07 0.07 0.07 0.06 0.06 0.06 0.07 0.07 0.07
0.26 0.30 0.31 0.29 0.27 0.29 0.36 0.50 0.53 0.52 0.54 0.51 0.41 0.35 0.36 0.41 0.45 0.47 0.48 0.45 0.38 0.30 0.26 0.25 0.22 0.19 0.15 0.08 0.03 0.02 0.01 0.01 0.01 0.04 0.07 0.10 0.11 0.10 0.08 0.08 0.08 0.08 0.09
0.23 0.24 0.28 0.31 0.31 0.19 0.22 0.23 0.19 0.25 0.25 0.27 0.24 0.16 0.11 0.10 0.12 0.12 0.12 0.10 0.06 0.03 0.02 0.02 0.02 0.02 0.01 0.00 0.00 0.01 0.00 0.00 0.01 0.02 0.06 0.10 0.14 0.13 0.11 0.09 0.08 0.07 0.07
0.20 0.14 0.12 0.10 0.16 0.17 0.24 0.16 0.05 0.01 0.02 0.04 0.05 0.02 0.01 0.01 0.00 0.00 0.00 0.00 0.00 0.00 0.00 0.00 0.00 0.01 0.01 0.01 0.01 0.01 0.01 0.00 0.01 0.01 0.02 0.06 0.10 0.13 0.14 0.16 0.15 0.13 0.11
0.01 0.01 0.00 0.00 0.00 0.03 0.10 0.02 0.00 0.00 0.00 0.00 0.00 0.01 0.00 0.00 0.00 0.00 0.00 0.00 0.00 0.00 0.00 0.00 0.00 0.01 0.01 0.02 0.02 0.01 0.01 0.01 0.01 0.00 0.01 0.03 0.05 0.06 0.06 0.08 0.13 0.13 0.15
0.00 0.00 0.00 0.00 0.00 0.00 0.00 0.00 0.00 0.00 0.00 0.00 0.00 0.00 0.00 0.00 0.00 0.00 0.00 0.00 0.00 0.00 0.00 0.00 0.00 0.00 0.01 0.01 0.02 0.02 0.02 0.03 0.02 0.02 0.04 0.06 0.08 0.13 0.13 0.16 0.26 0.27 0.28
0.00 0.00 0.00 0.00 0.00 0.00 0.00 0.00 0.00 0.00 0.00 0.00 0.00 0.00 0.00 0.00 0.00 0.00 0.00 0.00 0.00 0.00 0.00 0.00 0.00 0.00 0.01 0.00 0.01 0.03 0.04 0.05 0.04 0.04 0.06 0.12 0.07 0.08 0.12 0.11 0.25 0.32 0.33
0.00 0.00 0.00 0.00 0.00 0.00 0.00 0.00 0.00 0.00 0.00 0.00 0.00 0.00 0.00 0.00 0.00 0.00 0.00 0.00 0.00 0.00 0.00 0.00 0.00 0.00 0.00 0.01 0.02 0.03 0.03 0.05 0.07 0.04 0.02 0.07 0.10 0.12 0.13 0.14 0.24 0.43 0.41
0.00 0.00 0.00 0.00 0.00 0.00 0.00 0.00 0.00 0.00 0.00 0.00 0.00 0.00 0.00 0.00 0.00 0.00 0.00 0.00 0.00 0.00 0.00 0.00 0.00 0.00 0.00 0.01 0.01 0.02 0.03 0.09 0.11 0.12 0.03 0.12 0.13 0.13 0.19 0.17 0.15 0.19 0.30

GFSMA_prec_precacc24_147.txt.gz
Total_Precipitation_Accumulation
0.02 0.03 0.03 0.02 0.03 0.03 0.03 0.05 0.04 0.02 0.02 0.03 0.05 0.04 0.01 0.00 0.00 0.00 0.00 0.00 0.00 0.00 0.00 0.00 0.00 0.00 0.01 0.01 0.03 0.04 0.07 0.03 0.02 0.04 0.04 0.03 0.03 0.01 0.01 0.01 0.01 0.01 0.01
0.13 0.04 0.04 0.04 0.02 0.02 0.03 0.04 0.06 0.07 0.04 0.03 0.01 0.01 0.01 0.01 0.02 0.00 0.00 0.00 0.00 0.00 0.00 0.00 0.00 0.00 0.00 0.00 0.04 0.07 0.11 0.09 0.05 0.06 0.06 0.06 0.08 0.05 0.01 0.01 0.01 0.02 0.01
0.11 0.13 0.09 0.07 0.09 0.20 0.29 0.27 0.21 0.21 0.13 0.10 0.07 0.03 0.02 0.05 0.05 0.05 0.02 0.00 0.00 0.00 0.00 0.00 0.00 0.00 0.00 0.00 0.02 0.05 0.11 0.13 0.11 0.09 0.08 0.09 0.11 0.07 0.03 0.01 0.01 0.02 0.02
0.07 0.09 0.08 0.03 0.14 0.34 0.50 0.45 0.36 0.32 0.22 0.20 0.20 0.18 0.19 0.16 0.11 0.12 0.13 0.09 0.05 0.02 0.00 0.00 0.00 0.00 0.00 0.01 0.03 0.04 0.14 0.19 0.17 0.15 0.13 0.16 0.11 0.08 0.06 0.02 0.03 0.06 0.10
0.10 0.14 0.12 0.10 0.22 0.34 0.37 0.40 0.43 0.43 0.35 0.30 0.29 0.33 0.30 0.23 0.20 0.17 0.14 0.14 0.16 0.14 0.08 0.04 0.04 0.01 0.00 0.01 0.02 0.03 0.12 0.26 0.21 0.24 0.19 0.23 0.17 0.15 0.10 0.08 0.13 0.18 0.14
0.09 0.09 0.10 0.10 0.16 0.19 0.22 0.30 0.23 0.39 0.42 0.55 0.60 0.42 0.37 0.31 0.25 0.23 0.22 0.24 0.27 0.31 0.28 0.22 0.22 0.25 0.20 0.09 0.05 0.04 0.04 0.16 0.25 0.27 0.24 0.27 0.20 0.17 0.13 0.13 0.20 0.20 0.11
0.09 0.11 0.13 0.19 0.20 0.13 0.15 0.28 0.38 0.42 0.32 0.43 0.57 0.39 0.34 0.29 0.22 0.22 0.29 0.34 0.33 0.41 0.57 0.70 0.70 0.61 0.46 0.32 0.21 0.16 0.14 0.16 0.28 0.28 0.23 0.23 0.20 0.17 0.17 0.21 0.18 0.11 0.11
0.07 0.11 0.11 0.14 0.23 0.22 0.21 0.22 0.27 0.32 0.31 0.41 0.42 0.37 0.24 0.15 0.09 0.05 0.10 0.15 0.20 0.31 0.34 0.37 0.35 0.42 0.45 0.36 0.25 0.21 0.15 0.12 0.15 0.18 0.20 0.25 0.19 0.21 0.22 0.18 0.17 0.23 0.32
0.07 0.07 0.11 0.15 0.15 0.17 0.17 0.19 0.23 0.29 0.24 0.36 0.40 0.45 0.25 0.12 0.12 0.12 0.10 0.11 0.12 0.10 0.15 0.21 0.23 0.18 0.16 0.17 0.14 0.12 0.10 0.06 0.05 0.13 0.17 0.17 0.33 0.28 0.19 0.18 0.25 0.42 0.50
0.10 0.10 0.13 0.18 0.20 0.26 0.18 0.17 0.20 0.33 0.39 0.29 0.29 0.29 0.34 0.26 0.19 0.10 0.11 0.16 0.13 0.14 0.14 0.18 0.22 0.19 0.15 0.16 0.15 0.12 0.06 0.02 0.00 0.02 0.06 0.15 0.16 0.20 0.27 0.40 0.57 0.61 0.56
0.10 0.15 0.17 0.19 0.16 0.17 0.30 0.31 0.29 0.33 0.35 0.35 0.37 0.38 0.33 0.35 0.36 0.33 0.26 0.30 0.43 0.21 0.08 0.07 0.10 0.11 0.14 0.14 0.10 0.07 0.03 0.00 0.01 0.08 0.12 0.08 0.13 0.25 0.45 0.56 0.70 0.75 0.78
0.05 0.06 0.13 0.12 0.12 0.11 0.17 0.34 0.38 0.34 0.37 0.33 0.32 0.38 0.31 0.29 0.29 0.34 0.33 0.28 0.35 0.36 0.26 0.21 0.18 0.12 0.08 0.07 0.07 0.08 0.06 0.04 0.04 0.05 0.06 0.12 0.19 0.22 0.22 0.21 0.26 0.30 0.31
0.03 0.10 0.10 0.15 0.12 0.15 0.16 0.19 0.25 0.27 0.26 0.30 0.28 0.30 0.43 0.46 0.51 0.50 0.54 0.44 0.35 0.36 0.32 0.26 0.24 0.19 0.16 0.16 0.18 0.18 0.13 0.10 0.07 0.06 0.07 0.09 0.07 0.06 0.05 0.04 0.04 0.07 0.12
0.12 0.16 0.13 0.19 0.23 0.20 0.16 0.14 0.13 0.11 0.16 0.15 0.17 0.20 0.26 0.40 0.70 0.81 0.74 0.67 0.51 0.39 0.35 0.30 0.36 0.38 0.29 0.19 0.14 0.12 0.05 0.08 0.06 0.05 0.05 0.05 0.03 0.03 0.02 0.03 0.03 0.04 0.06
0.10 0.08 0.06 0.05 0.08 0.05 0.08 0.15 0.17 0.17 0.17 0.17 0.18 0.24 0.25 0.25 0.30 0.43 0.62 0.76 0.86 0.64 0.37 0.23 0.17 0.12 0.08 0.08 0.13 0.10 0.07 0.19 0.14 0.13 0.13 0.12 0.13 0.12 0.11 0.09 0.08 0.06 0.04
0.06 0.08 0.03 0.11 0.06 0.02 0.03 0.07 0.10 0.13 0.15 0.17 0.18 0.25 0.26 0.27 0.35 0.39 0.43 0.48 0.61 0.71 0.63 0.41 0.33 0.24 0.17 0.17 0.22 0.21 0.21 0.25 0.20 0.17 0.14 0.13 0.12 0.09 0.06 0.04 0.02 0.01 0.02
0.05 0.06 0.06 0.07 0.07 0.08 0.07 0.11 0.15 0.19 0.22 0.18 0.18 0.25 0.29 0.28 0.34 0.35 0.35 0.35 0.39 0.44 0.46 0.37 0.36 0.31 0.28 0.26 0.23 0.19 0.16 0.10 0.11 0.15 0.09 0.07 0.05 0.04 0.03 0.02 0.02 0.02 0.02
0.04 0.04 0.05 0.08 0.17 0.25 0.32 0.25 0.30 0.34 0.29 0.33 0.43 0.44 0.40 0.35 0.32 0.29 0.27 0.25 0.24 0.26 0.29 0.31 0.35 0.34 0.31 0.22 0.15 0.12 0.10 0.07 0.05 0.04 0.02 0.01 0.02 0.03 0.04 0.05 0.06 0.07 0.07
0.10 0.15 0.23 0.23 0.19 0.24 0.32 0.47 0.52 0.51 0.52 0.47 0.36 0.31 0.33 0.39 0.44 0.46 0.47 0.45 0.38 0.30 0.26 0.25 0.22 0.19 0.15 0.08 0.03 0.02 0.01 0.01 0.00 0.00 0.00 0.00 0.01 0.02 0.02 0.03 0.06 0.08 0.09
0.18 0.21 0.25 0.27 0.27 0.19 0.22 0.23 0.19 0.25 0.25 0.27 0.24 0.16 0.11 0.10 0.12 0.12 0.12 0.10 0.06 0.03 0.02 0.02 0.02 0.01 0.00 0.00 0.00 0.01 0.00 0.00 0.00 0.00 0.00 0.00 0.00 0.01 0.03 0.03 0.04 0.05 0.06
0.20 0.14 0.12 0.10 0.16 0.17 0.24 0.16 0.05 0.01 0.02 0.04 0.05 0.02 0.01 0.01 0.00 0.00 0.00 0.00 0.00 0.00 0.00 0.00 0.00 0.00 0.00 0.00 0.00 0.00 0.00 0.00 0.00 0.00 0.00 0.00 0.00 0.00 0.01 0.04 0.06 0.07 0.07
0.01 0.01 0.00 0.00 0.00 0.03 0.10 0.02 0.00 0.00 0.00 0.00 0.00 0.01 0.00 0.00 0.00 0.00 0.00 0.00 0.00 0.00 0.00 0.00 0.00 0.00 0.00 0.00 0.00 0.00 0.00 0.00 0.01 0.00 0.00 0.00 0.00 0.00 0.00 0.01 0.05 0.07 0.08
0.00 0.00 0.00 0.00 0.00 0.00 0.00 0.00 0.00 0.00 0.00 0.00 0.00 0.00 0.00 0.00 0.00 0.00 0.00 0.00 0.00 0.00 0.00 0.00 0.00 0.00 0.00 0.00 0.00 0.00 0.01 0.01 0.01 0.01 0.02 0.01 0.00 0.00 0.00 0.00 0.05 0.10 0.14
0.00 0.00 0.00 0.00 0.00 0.00 0.00 0.00 0.00 0.00 0.00 0.00 0.00 0.00 0.00 0.00 0.00 0.00 0.00 0.00 0.00 0.00 0.00 0.00 0.00 0.00 0.00 0.00 0.00 0.01 0.02 0.02 0.01 0.00 0.00 0.02 0.01 0.00 0.01 0.01 0.05 0.13 0.21
0.00 0.00 0.00 0.00 0.00 0.00 0.00 0.00 0.00 0.00 0.00 0.00 0.00 0.00 0.00 0.00 0.00 0.00 0.00 0.00 0.00 0.00 0.00 0.00 0.00 0.00 0.00 0.01 0.01 0.02 0.01 0.02 0.02 0.01 0.00 0.02 0.01 0.02 0.02 0.01 0.04 0.17 0.24
0.00 0.00 0.00 0.00 0.00 0.00 0.00 0.00 0.00 0.00 0.00 0.00 0.00 0.00 0.00 0.00 0.00 0.00 0.00 0.00 0.00 0.00 0.00 0.00 0.00 0.00 0.00 0.01 0.01 0.02 0.02 0.04 0.05 0.06 0.01 0.04 0.03 0.04 0.05 0.01 0.00 0.02 0.11